<?xml version="1.0" encoding="UTF-8" standalone="no" ?>
<gpx xmlns="http://www.topografix.com/GPX/1/1" xmlns:xsi="http://www.w3.org/2001/XMLSchema-instance" xsi:schemaLocation="http://www.topografix.com/GPX/1/1 http://www.topografix.com/GPX/1/1/gpx.xsd" version="1.1" creator="VisuGPX - https://www.visugpx.com">
  <metadata>
    <name>boucle Marignieu</name>
    <desc><![CDATA[de
]]></desc>
  </metadata>
  <trk>
    <name><![CDATA[boucle Marignieu_1]]></name>
    <trkseg>
      <trkpt lat="45.79979" lon="5.72114">
        <ele>-48.4</ele>
        <time>2014-09-21T13:12:04Z</time>
      </trkpt>
      <trkpt lat="45.79962" lon="5.72101">
        <ele>21.32942101593</ele>
        <time>2014-09-21T13:12:18Z</time>
      </trkpt>
      <trkpt lat="45.79816" lon="5.71797">
        <ele>91.058842031859</ele>
        <time>2014-09-21T13:14:28Z</time>
      </trkpt>
      <trkpt lat="45.79833" lon="5.7179">
        <ele>160.78826304779</ele>
        <time>2014-09-21T13:14:33Z</time>
      </trkpt>
      <trkpt lat="45.79841" lon="5.71784">
        <ele>230.51768406372</ele>
        <time>2014-09-21T13:14:38Z</time>
      </trkpt>
      <trkpt lat="45.79855" lon="5.71785">
        <ele>300.24710507965</ele>
        <time>2014-09-21T13:14:43Z</time>
      </trkpt>
      <trkpt lat="45.79861" lon="5.71781">
        <ele>369.97652609558</ele>
        <time>2014-09-21T13:14:48Z</time>
      </trkpt>
      <trkpt lat="45.79867" lon="5.71779">
        <ele>369.97652609558</ele>
        <time>2014-09-21T13:14:53Z</time>
      </trkpt>
      <trkpt lat="45.79873" lon="5.71777">
        <ele>375.26290616296</ele>
        <time>2014-09-21T13:14:58Z</time>
      </trkpt>
      <trkpt lat="45.7988" lon="5.71777">
        <ele>375.26290616296</ele>
        <time>2014-09-21T13:15:03Z</time>
      </trkpt>
      <trkpt lat="45.79888" lon="5.71779">
        <ele>377.33884356362</ele>
        <time>2014-09-21T13:15:08Z</time>
      </trkpt>
      <trkpt lat="45.79895" lon="5.71778">
        <ele>377.33884356362</ele>
        <time>2014-09-21T13:15:13Z</time>
      </trkpt>
      <trkpt lat="45.79901" lon="5.71776">
        <ele>378.76534706858</ele>
        <time>2014-09-21T13:15:18Z</time>
      </trkpt>
      <trkpt lat="45.79906" lon="5.71772">
        <ele>378.76534706858</ele>
        <time>2014-09-21T13:15:23Z</time>
      </trkpt>
      <trkpt lat="45.79913" lon="5.71769">
        <ele>379.76943999268</ele>
        <time>2014-09-21T13:15:28Z</time>
      </trkpt>
      <trkpt lat="45.79919" lon="5.71765">
        <ele>379.76943999268</ele>
        <time>2014-09-21T13:15:33Z</time>
      </trkpt>
      <trkpt lat="45.79925" lon="5.71763">
        <ele>380.69850169814</ele>
        <time>2014-09-21T13:15:38Z</time>
      </trkpt>
      <trkpt lat="45.79931" lon="5.71764">
        <ele>380.69850169814</ele>
        <time>2014-09-21T13:15:43Z</time>
      </trkpt>
      <trkpt lat="45.79937" lon="5.71763">
        <ele>381.7098745292</ele>
        <time>2014-09-21T13:15:48Z</time>
      </trkpt>
      <trkpt lat="45.79945" lon="5.71765">
        <ele>381.7098745292</ele>
        <time>2014-09-21T13:15:53Z</time>
      </trkpt>
      <trkpt lat="45.79951" lon="5.71769">
        <ele>382.59696854485</ele>
        <time>2014-09-21T13:15:58Z</time>
      </trkpt>
      <trkpt lat="45.79956" lon="5.71768">
        <ele>382.59696854485</ele>
        <time>2014-09-21T13:16:03Z</time>
      </trkpt>
      <trkpt lat="45.79962" lon="5.71768">
        <ele>383.5965414485</ele>
        <time>2014-09-21T13:16:08Z</time>
      </trkpt>
      <trkpt lat="45.7997" lon="5.7177">
        <ele>383.5965414485</ele>
        <time>2014-09-21T13:16:13Z</time>
      </trkpt>
      <trkpt lat="45.79978" lon="5.71772">
        <ele>385.07830852098</ele>
        <time>2014-09-21T13:16:18Z</time>
      </trkpt>
      <trkpt lat="45.79986" lon="5.71769">
        <ele>385.07830852098</ele>
        <time>2014-09-21T13:16:23Z</time>
      </trkpt>
      <trkpt lat="45.79992" lon="5.71765">
        <ele>387.16906410618</ele>
        <time>2014-09-21T13:16:28Z</time>
      </trkpt>
      <trkpt lat="45.79997" lon="5.71763">
        <ele>387.16906410618</ele>
        <time>2014-09-21T13:16:33Z</time>
      </trkpt>
      <trkpt lat="45.80003" lon="5.7176">
        <ele>389.77843718132</ele>
        <time>2014-09-21T13:16:38Z</time>
      </trkpt>
      <trkpt lat="45.80009" lon="5.71761">
        <ele>389.77843718132</ele>
        <time>2014-09-21T13:16:43Z</time>
      </trkpt>
      <trkpt lat="45.80018" lon="5.71763">
        <ele>392.46271144947</ele>
        <time>2014-09-21T13:16:48Z</time>
      </trkpt>
      <trkpt lat="45.80027" lon="5.71765">
        <ele>392.46271144947</ele>
        <time>2014-09-21T13:16:53Z</time>
      </trkpt>
      <trkpt lat="45.80034" lon="5.71766">
        <ele>395.06005823272</ele>
        <time>2014-09-21T13:16:58Z</time>
      </trkpt>
      <trkpt lat="45.80044" lon="5.71769">
        <ele>397.00972467121</ele>
        <time>2014-09-21T13:17:04Z</time>
      </trkpt>
      <trkpt lat="45.8005" lon="5.71767">
        <ele>397.00972467121</ele>
        <time>2014-09-21T13:17:08Z</time>
      </trkpt>
      <trkpt lat="45.80058" lon="5.71762">
        <ele>398.90606783307</ele>
        <time>2014-09-21T13:17:13Z</time>
      </trkpt>
      <trkpt lat="45.80066" lon="5.71762">
        <ele>398.90606783307</ele>
        <time>2014-09-21T13:17:18Z</time>
      </trkpt>
      <trkpt lat="45.80072" lon="5.71761">
        <ele>400.56604920961</ele>
        <time>2014-09-21T13:17:23Z</time>
      </trkpt>
      <trkpt lat="45.80077" lon="5.71757">
        <ele>400.56604920961</ele>
        <time>2014-09-21T13:17:28Z</time>
      </trkpt>
      <trkpt lat="45.80084" lon="5.71755">
        <ele>402.39702842044</ele>
        <time>2014-09-21T13:17:33Z</time>
      </trkpt>
      <trkpt lat="45.80089" lon="5.71754">
        <ele>402.39702842044</ele>
        <time>2014-09-21T13:17:38Z</time>
      </trkpt>
      <trkpt lat="45.80096" lon="5.71751">
        <ele>404.6136580922</ele>
        <time>2014-09-21T13:17:43Z</time>
      </trkpt>
      <trkpt lat="45.80102" lon="5.71749">
        <ele>404.6136580922</ele>
        <time>2014-09-21T13:17:48Z</time>
      </trkpt>
      <trkpt lat="45.80109" lon="5.71747">
        <ele>406.72669967373</ele>
        <time>2014-09-21T13:17:53Z</time>
      </trkpt>
      <trkpt lat="45.80116" lon="5.71745">
        <ele>406.72669967373</ele>
        <time>2014-09-21T13:17:58Z</time>
      </trkpt>
      <trkpt lat="45.80129" lon="5.71744">
        <ele>407.41506411126</ele>
        <time>2014-09-21T13:18:03Z</time>
      </trkpt>
      <trkpt lat="45.80137" lon="5.71739">
        <ele>407.37671902898</ele>
        <time>2014-09-21T13:18:08Z</time>
      </trkpt>
      <trkpt lat="45.80141" lon="5.71734">
        <ele>407.37671902898</ele>
        <time>2014-09-21T13:18:13Z</time>
      </trkpt>
      <trkpt lat="45.80145" lon="5.71728">
        <ele>407.01258297117</ele>
        <time>2014-09-21T13:18:18Z</time>
      </trkpt>
      <trkpt lat="45.80147" lon="5.71722">
        <ele>407.01258297117</ele>
        <time>2014-09-21T13:18:23Z</time>
      </trkpt>
      <trkpt lat="45.80151" lon="5.71717">
        <ele>406.96780209222</ele>
        <time>2014-09-21T13:18:28Z</time>
      </trkpt>
      <trkpt lat="45.80153" lon="5.71711">
        <ele>406.96780209222</ele>
        <time>2014-09-21T13:18:33Z</time>
      </trkpt>
      <trkpt lat="45.80154" lon="5.717">
        <ele>406.72845668274</ele>
        <time>2014-09-21T13:18:38Z</time>
      </trkpt>
      <trkpt lat="45.80156" lon="5.71697">
        <ele>406.72845668274</ele>
        <time>2014-09-21T13:18:43Z</time>
      </trkpt>
      <trkpt lat="45.80156" lon="5.7169">
        <ele>406.72845668274</ele>
        <time>2014-09-21T13:18:48Z</time>
      </trkpt>
      <trkpt lat="45.80156" lon="5.7168">
        <ele>406.82007239702</ele>
        <time>2014-09-21T13:18:53Z</time>
      </trkpt>
      <trkpt lat="45.80157" lon="5.7167">
        <ele>406.82007239702</ele>
        <time>2014-09-21T13:18:58Z</time>
      </trkpt>
      <trkpt lat="45.80157" lon="5.71661">
        <ele>407.13849705414</ele>
        <time>2014-09-21T13:19:03Z</time>
      </trkpt>
      <trkpt lat="45.80158" lon="5.71652">
        <ele>407.13849705414</ele>
        <time>2014-09-21T13:19:09Z</time>
      </trkpt>
      <trkpt lat="45.80157" lon="5.71642">
        <ele>407.64799874261</ele>
        <time>2014-09-21T13:19:13Z</time>
      </trkpt>
      <trkpt lat="45.80161" lon="5.71635">
        <ele>407.64799874261</ele>
        <time>2014-09-21T13:19:18Z</time>
      </trkpt>
      <trkpt lat="45.80163" lon="5.71626">
        <ele>408.00892816413</ele>
        <time>2014-09-21T13:19:24Z</time>
      </trkpt>
      <trkpt lat="45.80165" lon="5.71616">
        <ele>408.00892816413</ele>
        <time>2014-09-21T13:19:28Z</time>
      </trkpt>
      <trkpt lat="45.80171" lon="5.71608">
        <ele>408.4576286457</ele>
        <time>2014-09-21T13:19:33Z</time>
      </trkpt>
      <trkpt lat="45.80172" lon="5.71598">
        <ele>408.4576286457</ele>
        <time>2014-09-21T13:19:38Z</time>
      </trkpt>
      <trkpt lat="45.80174" lon="5.71589">
        <ele>408.86222936581</ele>
        <time>2014-09-21T13:19:43Z</time>
      </trkpt>
      <trkpt lat="45.80175" lon="5.71579">
        <ele>408.86222936581</ele>
        <time>2014-09-21T13:19:48Z</time>
      </trkpt>
      <trkpt lat="45.80175" lon="5.7157">
        <ele>409.11566634245</ele>
        <time>2014-09-21T13:19:53Z</time>
      </trkpt>
      <trkpt lat="45.80176" lon="5.7156">
        <ele>409.11566634245</ele>
        <time>2014-09-21T13:19:58Z</time>
      </trkpt>
      <trkpt lat="45.80178" lon="5.71551">
        <ele>409.18803447621</ele>
        <time>2014-09-21T13:20:03Z</time>
      </trkpt>
      <trkpt lat="45.80183" lon="5.71541">
        <ele>409.18803447621</ele>
        <time>2014-09-21T13:20:08Z</time>
      </trkpt>
      <trkpt lat="45.8019" lon="5.71537">
        <ele>409.52391861064</ele>
        <time>2014-09-21T13:20:13Z</time>
      </trkpt>
      <trkpt lat="45.80197" lon="5.71534">
        <ele>409.52391861064</ele>
        <time>2014-09-21T13:20:19Z</time>
      </trkpt>
      <trkpt lat="45.80204" lon="5.7153">
        <ele>410.00958568637</ele>
        <time>2014-09-21T13:20:23Z</time>
      </trkpt>
      <trkpt lat="45.80207" lon="5.71524">
        <ele>410.00958568637</ele>
        <time>2014-09-21T13:20:28Z</time>
      </trkpt>
      <trkpt lat="45.80207" lon="5.71513">
        <ele>410.70687822764</ele>
        <time>2014-09-21T13:20:33Z</time>
      </trkpt>
      <trkpt lat="45.80213" lon="5.71507">
        <ele>410.70687822764</ele>
        <time>2014-09-21T13:20:38Z</time>
      </trkpt>
      <trkpt lat="45.8022" lon="5.71504">
        <ele>411.44888087049</ele>
        <time>2014-09-21T13:20:43Z</time>
      </trkpt>
      <trkpt lat="45.80225" lon="5.71502">
        <ele>411.44888087049</ele>
        <time>2014-09-21T13:20:48Z</time>
      </trkpt>
      <trkpt lat="45.80231" lon="5.71496">
        <ele>412.41785973067</ele>
        <time>2014-09-21T13:20:53Z</time>
      </trkpt>
      <trkpt lat="45.80239" lon="5.71493">
        <ele>412.41785973067</ele>
        <time>2014-09-21T13:20:58Z</time>
      </trkpt>
      <trkpt lat="45.80246" lon="5.71491">
        <ele>413.17246315623</ele>
        <time>2014-09-21T13:21:03Z</time>
      </trkpt>
      <trkpt lat="45.80252" lon="5.71486">
        <ele>413.17246315623</ele>
        <time>2014-09-21T13:21:09Z</time>
      </trkpt>
      <trkpt lat="45.80258" lon="5.71482">
        <ele>414.0267920232</ele>
        <time>2014-09-21T13:21:13Z</time>
      </trkpt>
      <trkpt lat="45.80264" lon="5.71478">
        <ele>414.0267920232</ele>
        <time>2014-09-21T13:21:18Z</time>
      </trkpt>
      <trkpt lat="45.80269" lon="5.71475">
        <ele>414.93157241273</ele>
        <time>2014-09-21T13:21:23Z</time>
      </trkpt>
      <trkpt lat="45.80275" lon="5.71472">
        <ele>414.93157241273</ele>
        <time>2014-09-21T13:21:28Z</time>
      </trkpt>
      <trkpt lat="45.80282" lon="5.7147">
        <ele>415.7668000788</ele>
        <time>2014-09-21T13:21:33Z</time>
      </trkpt>
      <trkpt lat="45.80288" lon="5.71467">
        <ele>415.7668000788</ele>
        <time>2014-09-21T13:21:38Z</time>
      </trkpt>
      <trkpt lat="45.80293" lon="5.71462">
        <ele>416.609441375</ele>
        <time>2014-09-21T13:21:43Z</time>
      </trkpt>
      <trkpt lat="45.80298" lon="5.71457">
        <ele>416.609441375</ele>
        <time>2014-09-21T13:21:48Z</time>
      </trkpt>
      <trkpt lat="45.80303" lon="5.71452">
        <ele>417.45857773217</ele>
        <time>2014-09-21T13:21:53Z</time>
      </trkpt>
      <trkpt lat="45.80309" lon="5.71451">
        <ele>417.45857773217</ele>
        <time>2014-09-21T13:21:58Z</time>
      </trkpt>
      <trkpt lat="45.80313" lon="5.71448">
        <ele>418.13531053522</ele>
        <time>2014-09-21T13:22:03Z</time>
      </trkpt>
      <trkpt lat="45.80318" lon="5.71444">
        <ele>418.13531053522</ele>
        <time>2014-09-21T13:22:08Z</time>
      </trkpt>
      <trkpt lat="45.80322" lon="5.71438">
        <ele>418.7252137329</ele>
        <time>2014-09-21T13:22:13Z</time>
      </trkpt>
      <trkpt lat="45.80326" lon="5.71434">
        <ele>418.7252137329</ele>
        <time>2014-09-21T13:22:18Z</time>
      </trkpt>
      <trkpt lat="45.8033" lon="5.7143">
        <ele>419.09992361969</ele>
        <time>2014-09-21T13:22:23Z</time>
      </trkpt>
      <trkpt lat="45.80335" lon="5.71427">
        <ele>419.09992361969</ele>
        <time>2014-09-21T13:22:28Z</time>
      </trkpt>
      <trkpt lat="45.80339" lon="5.71423">
        <ele>419.30545331794</ele>
        <time>2014-09-21T13:22:33Z</time>
      </trkpt>
      <trkpt lat="45.80343" lon="5.71418">
        <ele>419.30545331794</ele>
        <time>2014-09-21T13:22:38Z</time>
      </trkpt>
      <trkpt lat="45.80352" lon="5.71411">
        <ele>419.55133566293</ele>
        <time>2014-09-21T13:22:44Z</time>
      </trkpt>
      <trkpt lat="45.80362" lon="5.71407">
        <ele>419.79147375925</ele>
        <time>2014-09-21T13:22:48Z</time>
      </trkpt>
      <trkpt lat="45.80366" lon="5.71405">
        <ele>419.79147375925</ele>
        <time>2014-09-21T13:22:53Z</time>
      </trkpt>
      <trkpt lat="45.80372" lon="5.71402">
        <ele>420.17906220549</ele>
        <time>2014-09-21T13:22:58Z</time>
      </trkpt>
      <trkpt lat="45.80377" lon="5.71401">
        <ele>420.17906220549</ele>
        <time>2014-09-21T13:23:03Z</time>
      </trkpt>
      <trkpt lat="45.80384" lon="5.71402">
        <ele>420.59858219786</ele>
        <time>2014-09-21T13:23:08Z</time>
      </trkpt>
      <trkpt lat="45.8039" lon="5.71402">
        <ele>420.59858219786</ele>
        <time>2014-09-21T13:23:13Z</time>
      </trkpt>
      <trkpt lat="45.80396" lon="5.71404">
        <ele>420.92777014012</ele>
        <time>2014-09-21T13:23:18Z</time>
      </trkpt>
      <trkpt lat="45.804" lon="5.71402">
        <ele>420.92777014012</ele>
        <time>2014-09-21T13:23:23Z</time>
      </trkpt>
      <trkpt lat="45.80407" lon="5.71404">
        <ele>421.23519433385</ele>
        <time>2014-09-21T13:23:28Z</time>
      </trkpt>
      <trkpt lat="45.80419" lon="5.71409">
        <ele>421.35798492077</ele>
        <time>2014-09-21T13:23:33Z</time>
      </trkpt>
      <trkpt lat="45.80433" lon="5.71414">
        <ele>421.08685115462</ele>
        <time>2014-09-21T13:23:38Z</time>
      </trkpt>
      <trkpt lat="45.80438" lon="5.71417">
        <ele>421.08685115462</ele>
        <time>2014-09-21T13:23:43Z</time>
      </trkpt>
      <trkpt lat="45.80441" lon="5.71413">
        <ele>420.63682800718</ele>
        <time>2014-09-21T13:23:48Z</time>
      </trkpt>
      <trkpt lat="45.80444" lon="5.71411">
        <ele>420.63682800718</ele>
        <time>2014-09-21T13:23:53Z</time>
      </trkpt>
      <trkpt lat="45.80453" lon="5.71411">
        <ele>420.13086995319</ele>
        <time>2014-09-21T13:23:58Z</time>
      </trkpt>
      <trkpt lat="45.80457" lon="5.7141">
        <ele>420.13086995319</ele>
        <time>2014-09-21T13:24:03Z</time>
      </trkpt>
      <trkpt lat="45.8046" lon="5.71409">
        <ele>420.13086995319</ele>
        <time>2014-09-21T13:24:08Z</time>
      </trkpt>
      <trkpt lat="45.80462" lon="5.71403">
        <ele>419.69673033878</ele>
        <time>2014-09-21T13:24:13Z</time>
      </trkpt>
      <trkpt lat="45.80468" lon="5.71401">
        <ele>419.69673033878</ele>
        <time>2014-09-21T13:24:18Z</time>
      </trkpt>
      <trkpt lat="45.80471" lon="5.71396">
        <ele>419.3316218771</ele>
        <time>2014-09-21T13:24:23Z</time>
      </trkpt>
      <trkpt lat="45.80475" lon="5.7139">
        <ele>419.3316218771</ele>
        <time>2014-09-21T13:24:28Z</time>
      </trkpt>
      <trkpt lat="45.80482" lon="5.71389">
        <ele>418.76452916406</ele>
        <time>2014-09-21T13:24:33Z</time>
      </trkpt>
      <trkpt lat="45.80489" lon="5.71385">
        <ele>418.76452916406</ele>
        <time>2014-09-21T13:24:38Z</time>
      </trkpt>
      <trkpt lat="45.80489" lon="5.71377">
        <ele>418.1340268774</ele>
        <time>2014-09-21T13:24:43Z</time>
      </trkpt>
      <trkpt lat="45.80502" lon="5.7138">
        <ele>416.95948291943</ele>
        <time>2014-09-21T13:24:48Z</time>
      </trkpt>
      <trkpt lat="45.80505" lon="5.71376">
        <ele>416.95948291943</ele>
        <time>2014-09-21T13:24:53Z</time>
      </trkpt>
      <trkpt lat="45.80512" lon="5.71373">
        <ele>415.58554720585</ele>
        <time>2014-09-21T13:24:58Z</time>
      </trkpt>
      <trkpt lat="45.80519" lon="5.71372">
        <ele>415.58554720585</ele>
        <time>2014-09-21T13:25:03Z</time>
      </trkpt>
      <trkpt lat="45.8052" lon="5.71363">
        <ele>414.07764238897</ele>
        <time>2014-09-21T13:25:08Z</time>
      </trkpt>
      <trkpt lat="45.80522" lon="5.71351">
        <ele>414.07764238897</ele>
        <time>2014-09-21T13:25:13Z</time>
      </trkpt>
      <trkpt lat="45.80524" lon="5.71339">
        <ele>412.6724611373</ele>
        <time>2014-09-21T13:25:18Z</time>
      </trkpt>
      <trkpt lat="45.80533" lon="5.71336">
        <ele>411.08757714454</ele>
        <time>2014-09-21T13:25:23Z</time>
      </trkpt>
      <trkpt lat="45.80539" lon="5.71335">
        <ele>411.08757714454</ele>
        <time>2014-09-21T13:25:28Z</time>
      </trkpt>
      <trkpt lat="45.80546" lon="5.71334">
        <ele>409.5329151265</ele>
        <time>2014-09-21T13:25:33Z</time>
      </trkpt>
      <trkpt lat="45.80557" lon="5.71335">
        <ele>407.9232558619</ele>
        <time>2014-09-21T13:25:38Z</time>
      </trkpt>
      <trkpt lat="45.80563" lon="5.71334">
        <ele>407.9232558619</ele>
        <time>2014-09-21T13:25:43Z</time>
      </trkpt>
      <trkpt lat="45.80569" lon="5.71331">
        <ele>406.38461370087</ele>
        <time>2014-09-21T13:25:48Z</time>
      </trkpt>
      <trkpt lat="45.80575" lon="5.71326">
        <ele>406.38461370087</ele>
        <time>2014-09-21T13:25:53Z</time>
      </trkpt>
      <trkpt lat="45.8058" lon="5.7132">
        <ele>404.26060434611</ele>
        <time>2014-09-21T13:25:59Z</time>
      </trkpt>
      <trkpt lat="45.80583" lon="5.71319">
        <ele>404.26060434611</ele>
        <time>2014-09-21T13:26:03Z</time>
      </trkpt>
      <trkpt lat="45.80589" lon="5.71318">
        <ele>402.1411526833</ele>
        <time>2014-09-21T13:26:08Z</time>
      </trkpt>
      <trkpt lat="45.80594" lon="5.7132">
        <ele>402.1411526833</ele>
        <time>2014-09-21T13:26:13Z</time>
      </trkpt>
      <trkpt lat="45.80599" lon="5.7132">
        <ele>399.88657182612</ele>
        <time>2014-09-21T13:26:18Z</time>
      </trkpt>
      <trkpt lat="45.80604" lon="5.71318">
        <ele>399.88657182612</ele>
        <time>2014-09-21T13:26:23Z</time>
      </trkpt>
      <trkpt lat="45.80607" lon="5.71314">
        <ele>397.65847758337</ele>
        <time>2014-09-21T13:26:28Z</time>
      </trkpt>
      <trkpt lat="45.80613" lon="5.71311">
        <ele>397.65847758337</ele>
        <time>2014-09-21T13:26:33Z</time>
      </trkpt>
      <trkpt lat="45.80623" lon="5.71309">
        <ele>395.44630293924</ele>
        <time>2014-09-21T13:26:38Z</time>
      </trkpt>
      <trkpt lat="45.80633" lon="5.71309">
        <ele>393.35595485765</ele>
        <time>2014-09-21T13:26:43Z</time>
      </trkpt>
      <trkpt lat="45.80641" lon="5.71308">
        <ele>393.35595485765</ele>
        <time>2014-09-21T13:26:48Z</time>
      </trkpt>
      <trkpt lat="45.80646" lon="5.71303">
        <ele>391.3546309752</ele>
        <time>2014-09-21T13:26:53Z</time>
      </trkpt>
      <trkpt lat="45.8065" lon="5.71293">
        <ele>391.3546309752</ele>
        <time>2014-09-21T13:26:58Z</time>
      </trkpt>
      <trkpt lat="45.8065" lon="5.71282">
        <ele>389.72965080451</ele>
        <time>2014-09-21T13:27:03Z</time>
      </trkpt>
      <trkpt lat="45.8065" lon="5.71275">
        <ele>389.72965080451</ele>
        <time>2014-09-21T13:27:08Z</time>
      </trkpt>
      <trkpt lat="45.80645" lon="5.71264">
        <ele>388.09553007978</ele>
        <time>2014-09-21T13:27:13Z</time>
      </trkpt>
      <trkpt lat="45.80644" lon="5.71256">
        <ele>388.09553007978</ele>
        <time>2014-09-21T13:27:18Z</time>
      </trkpt>
      <trkpt lat="45.80642" lon="5.71243">
        <ele>386.32682901585</ele>
        <time>2014-09-21T13:27:23Z</time>
      </trkpt>
      <trkpt lat="45.80643" lon="5.7123">
        <ele>386.32682901585</ele>
        <time>2014-09-21T13:27:28Z</time>
      </trkpt>
      <trkpt lat="45.80646" lon="5.71223">
        <ele>384.78391544707</ele>
        <time>2014-09-21T13:27:33Z</time>
      </trkpt>
      <trkpt lat="45.80648" lon="5.71215">
        <ele>384.78391544707</ele>
        <time>2014-09-21T13:27:38Z</time>
      </trkpt>
      <trkpt lat="45.80647" lon="5.71205">
        <ele>383.45321962642</ele>
        <time>2014-09-21T13:27:43Z</time>
      </trkpt>
      <trkpt lat="45.80643" lon="5.71186">
        <ele>381.78786564782</ele>
        <time>2014-09-21T13:27:48Z</time>
      </trkpt>
      <trkpt lat="45.80647" lon="5.7117">
        <ele>380.20521498613</ele>
        <time>2014-09-21T13:27:53Z</time>
      </trkpt>
      <trkpt lat="45.80665" lon="5.71163">
        <ele>378.45689926146</ele>
        <time>2014-09-21T13:27:58Z</time>
      </trkpt>
      <trkpt lat="45.80683" lon="5.71155">
        <ele>376.60153803277</ele>
        <time>2014-09-21T13:28:03Z</time>
      </trkpt>
      <trkpt lat="45.8069" lon="5.71149">
        <ele>376.60153803277</ele>
        <time>2014-09-21T13:28:08Z</time>
      </trkpt>
      <trkpt lat="45.80699" lon="5.71151">
        <ele>374.63588550438</ele>
        <time>2014-09-21T13:28:13Z</time>
      </trkpt>
      <trkpt lat="45.8071" lon="5.71152">
        <ele>372.73008954418</ele>
        <time>2014-09-21T13:28:18Z</time>
      </trkpt>
      <trkpt lat="45.80714" lon="5.71146">
        <ele>372.73008954418</ele>
        <time>2014-09-21T13:28:23Z</time>
      </trkpt>
      <trkpt lat="45.80715" lon="5.71137">
        <ele>371.0558975422</ele>
        <time>2014-09-21T13:28:28Z</time>
      </trkpt>
      <trkpt lat="45.80716" lon="5.7113">
        <ele>371.0558975422</ele>
        <time>2014-09-21T13:28:33Z</time>
      </trkpt>
      <trkpt lat="45.80722" lon="5.71127">
        <ele>369.65631352655</ele>
        <time>2014-09-21T13:28:38Z</time>
      </trkpt>
      <trkpt lat="45.80723" lon="5.71119">
        <ele>369.65631352655</ele>
        <time>2014-09-21T13:28:43Z</time>
      </trkpt>
      <trkpt lat="45.80732" lon="5.71113">
        <ele>368.74331216109</ele>
        <time>2014-09-21T13:28:48Z</time>
      </trkpt>
      <trkpt lat="45.80738" lon="5.71104">
        <ele>368.74331216109</ele>
        <time>2014-09-21T13:28:53Z</time>
      </trkpt>
      <trkpt lat="45.8074" lon="5.71099">
        <ele>368.02153551809</ele>
        <time>2014-09-21T13:28:58Z</time>
      </trkpt>
      <trkpt lat="45.80742" lon="5.71094">
        <ele>368.02153551809</ele>
        <time>2014-09-21T13:29:03Z</time>
      </trkpt>
      <trkpt lat="45.80744" lon="5.71087">
        <ele>367.57713521436</ele>
        <time>2014-09-21T13:29:08Z</time>
      </trkpt>
      <trkpt lat="45.80742" lon="5.7108">
        <ele>367.57713521436</ele>
        <time>2014-09-21T13:29:13Z</time>
      </trkpt>
      <trkpt lat="45.8074" lon="5.7106">
        <ele>367.28713537484</ele>
        <time>2014-09-21T13:29:18Z</time>
      </trkpt>
      <trkpt lat="45.80741" lon="5.71049">
        <ele>367.28713537484</ele>
        <time>2014-09-21T13:29:23Z</time>
      </trkpt>
      <trkpt lat="45.8074" lon="5.71036">
        <ele>367.19568072922</ele>
        <time>2014-09-21T13:29:28Z</time>
      </trkpt>
      <trkpt lat="45.80741" lon="5.71024">
        <ele>367.19568072922</ele>
        <time>2014-09-21T13:29:33Z</time>
      </trkpt>
      <trkpt lat="45.80742" lon="5.7101">
        <ele>366.85263282463</ele>
        <time>2014-09-21T13:29:38Z</time>
      </trkpt>
      <trkpt lat="45.80745" lon="5.71">
        <ele>366.85263282463</ele>
        <time>2014-09-21T13:29:43Z</time>
      </trkpt>
      <trkpt lat="45.80755" lon="5.70994">
        <ele>365.98575604709</ele>
        <time>2014-09-21T13:29:48Z</time>
      </trkpt>
      <trkpt lat="45.80765" lon="5.7099">
        <ele>364.95003821224</ele>
        <time>2014-09-21T13:29:53Z</time>
      </trkpt>
      <trkpt lat="45.80773" lon="5.70988">
        <ele>364.95003821224</ele>
        <time>2014-09-21T13:29:58Z</time>
      </trkpt>
      <trkpt lat="45.80781" lon="5.70986">
        <ele>364.16137369492</ele>
        <time>2014-09-21T13:30:03Z</time>
      </trkpt>
      <trkpt lat="45.80792" lon="5.70983">
        <ele>363.61489334407</ele>
        <time>2014-09-21T13:30:08Z</time>
      </trkpt>
      <trkpt lat="45.80804" lon="5.70984">
        <ele>363.30535740171</ele>
        <time>2014-09-21T13:30:13Z</time>
      </trkpt>
      <trkpt lat="45.80812" lon="5.70981">
        <ele>363.30535740171</ele>
        <time>2014-09-21T13:30:18Z</time>
      </trkpt>
      <trkpt lat="45.80817" lon="5.7098">
        <ele>363.15508728919</ele>
        <time>2014-09-21T13:30:23Z</time>
      </trkpt>
      <trkpt lat="45.80826" lon="5.70981">
        <ele>363.15508728919</ele>
        <time>2014-09-21T13:30:28Z</time>
      </trkpt>
      <trkpt lat="45.80834" lon="5.7098">
        <ele>363.26473418432</ele>
        <time>2014-09-21T13:30:33Z</time>
      </trkpt>
      <trkpt lat="45.8084" lon="5.70979">
        <ele>363.26473418432</ele>
        <time>2014-09-21T13:30:38Z</time>
      </trkpt>
      <trkpt lat="45.80848" lon="5.70978">
        <ele>363.29409459475</ele>
        <time>2014-09-21T13:30:43Z</time>
      </trkpt>
      <trkpt lat="45.80857" lon="5.70977">
        <ele>363.29409459475</ele>
        <time>2014-09-21T13:30:48Z</time>
      </trkpt>
      <trkpt lat="45.80865" lon="5.70977">
        <ele>362.75516532838</ele>
        <time>2014-09-21T13:30:53Z</time>
      </trkpt>
      <trkpt lat="45.80873" lon="5.70976">
        <ele>362.75516532838</ele>
        <time>2014-09-21T13:30:58Z</time>
      </trkpt>
      <trkpt lat="45.80881" lon="5.70973">
        <ele>362.13495066781</ele>
        <time>2014-09-21T13:31:03Z</time>
      </trkpt>
      <trkpt lat="45.80889" lon="5.70973">
        <ele>362.13495066781</ele>
        <time>2014-09-21T13:31:08Z</time>
      </trkpt>
      <trkpt lat="45.80897" lon="5.70971">
        <ele>361.7406171152</ele>
        <time>2014-09-21T13:31:13Z</time>
      </trkpt>
      <trkpt lat="45.80905" lon="5.70966">
        <ele>361.7406171152</ele>
        <time>2014-09-21T13:31:18Z</time>
      </trkpt>
      <trkpt lat="45.80912" lon="5.70964">
        <ele>361.63977497341</ele>
        <time>2014-09-21T13:31:23Z</time>
      </trkpt>
      <trkpt lat="45.80918" lon="5.7096">
        <ele>361.63977497341</ele>
        <time>2014-09-21T13:31:28Z</time>
      </trkpt>
      <trkpt lat="45.80925" lon="5.7096">
        <ele>361.80773453127</ele>
        <time>2014-09-21T13:31:33Z</time>
      </trkpt>
      <trkpt lat="45.80932" lon="5.70959">
        <ele>361.80773453127</ele>
        <time>2014-09-21T13:31:38Z</time>
      </trkpt>
      <trkpt lat="45.80935" lon="5.70958">
        <ele>361.99019283259</ele>
        <time>2014-09-21T13:31:43Z</time>
      </trkpt>
      <trkpt lat="45.80936" lon="5.70959">
        <ele>361.99019283259</ele>
        <time>2014-09-21T13:31:48Z</time>
      </trkpt>
      <trkpt lat="45.80936" lon="5.70959">
        <ele>361.99019283259</ele>
        <time>2014-09-21T13:31:53Z</time>
      </trkpt>
      <trkpt lat="45.80941" lon="5.7096">
        <ele>361.99019283259</ele>
        <time>2014-09-21T13:32:13Z</time>
      </trkpt>
      <trkpt lat="45.8095" lon="5.70961">
        <ele>362.51392069923</ele>
        <time>2014-09-21T13:32:18Z</time>
      </trkpt>
      <trkpt lat="45.80956" lon="5.70959">
        <ele>362.51392069923</ele>
        <time>2014-09-21T13:32:23Z</time>
      </trkpt>
      <trkpt lat="45.80963" lon="5.70959">
        <ele>363.08956942612</ele>
        <time>2014-09-21T13:32:28Z</time>
      </trkpt>
      <trkpt lat="45.80969" lon="5.7096">
        <ele>363.08956942612</ele>
        <time>2014-09-21T13:32:33Z</time>
      </trkpt>
      <trkpt lat="45.80975" lon="5.70963">
        <ele>363.5931971935</ele>
        <time>2014-09-21T13:32:38Z</time>
      </trkpt>
      <trkpt lat="45.80979" lon="5.70963">
        <ele>363.5931971935</ele>
        <time>2014-09-21T13:32:43Z</time>
      </trkpt>
      <trkpt lat="45.80979" lon="5.70964">
        <ele>363.5931971935</ele>
        <time>2014-09-21T13:32:48Z</time>
      </trkpt>
      <trkpt lat="45.80979" lon="5.70964">
        <ele>363.5931971935</ele>
        <time>2014-09-21T13:32:53Z</time>
      </trkpt>
      <trkpt lat="45.80978" lon="5.70966">
        <ele>363.5931971935</ele>
        <time>2014-09-21T13:32:58Z</time>
      </trkpt>
      <trkpt lat="45.80978" lon="5.70966">
        <ele>363.5931971935</ele>
        <time>2014-09-21T13:33:03Z</time>
      </trkpt>
      <trkpt lat="45.80978" lon="5.70965">
        <ele>363.5931971935</ele>
        <time>2014-09-21T13:33:08Z</time>
      </trkpt>
      <trkpt lat="45.80979" lon="5.70965">
        <ele>363.5931971935</ele>
        <time>2014-09-21T13:33:18Z</time>
      </trkpt>
      <trkpt lat="45.80979" lon="5.70969">
        <ele>364.60226448783</ele>
        <time>2014-09-21T13:33:23Z</time>
      </trkpt>
      <trkpt lat="45.80979" lon="5.7097">
        <ele>364.60226448783</ele>
        <time>2014-09-21T13:33:28Z</time>
      </trkpt>
      <trkpt lat="45.80978" lon="5.70964">
        <ele>364.60226448783</ele>
        <time>2014-09-21T13:34:03Z</time>
      </trkpt>
      <trkpt lat="45.80986" lon="5.70964">
        <ele>365.39617597218</ele>
        <time>2014-09-21T13:34:08Z</time>
      </trkpt>
      <trkpt lat="45.80992" lon="5.70965">
        <ele>365.39617597218</ele>
        <time>2014-09-21T13:34:13Z</time>
      </trkpt>
      <trkpt lat="45.81001" lon="5.70965">
        <ele>366.18743184857</ele>
        <time>2014-09-21T13:34:18Z</time>
      </trkpt>
      <trkpt lat="45.81009" lon="5.70962">
        <ele>366.18743184857</ele>
        <time>2014-09-21T13:34:23Z</time>
      </trkpt>
      <trkpt lat="45.81018" lon="5.70956">
        <ele>367.02884314929</ele>
        <time>2014-09-21T13:34:28Z</time>
      </trkpt>
      <trkpt lat="45.81025" lon="5.70946">
        <ele>367.85398507067</ele>
        <time>2014-09-21T13:34:33Z</time>
      </trkpt>
      <trkpt lat="45.81034" lon="5.70941">
        <ele>368.70237664031</ele>
        <time>2014-09-21T13:34:38Z</time>
      </trkpt>
      <trkpt lat="45.81041" lon="5.7094">
        <ele>368.70237664031</ele>
        <time>2014-09-21T13:34:43Z</time>
      </trkpt>
      <trkpt lat="45.8105" lon="5.70938">
        <ele>369.56744282248</ele>
        <time>2014-09-21T13:34:48Z</time>
      </trkpt>
      <trkpt lat="45.81059" lon="5.70939">
        <ele>370.38551855769</ele>
        <time>2014-09-21T13:34:53Z</time>
      </trkpt>
      <trkpt lat="45.81067" lon="5.70934">
        <ele>370.38551855769</ele>
        <time>2014-09-21T13:34:58Z</time>
      </trkpt>
      <trkpt lat="45.81074" lon="5.70932">
        <ele>371.37172212477</ele>
        <time>2014-09-21T13:35:03Z</time>
      </trkpt>
      <trkpt lat="45.81083" lon="5.70929">
        <ele>372.39353141872</ele>
        <time>2014-09-21T13:35:08Z</time>
      </trkpt>
      <trkpt lat="45.81091" lon="5.70931">
        <ele>372.39353141872</ele>
        <time>2014-09-21T13:35:13Z</time>
      </trkpt>
      <trkpt lat="45.81098" lon="5.70935">
        <ele>373.22732364255</ele>
        <time>2014-09-21T13:35:18Z</time>
      </trkpt>
      <trkpt lat="45.81105" lon="5.70938">
        <ele>373.22732364255</ele>
        <time>2014-09-21T13:35:23Z</time>
      </trkpt>
      <trkpt lat="45.81114" lon="5.70939">
        <ele>373.92599694907</ele>
        <time>2014-09-21T13:35:28Z</time>
      </trkpt>
      <trkpt lat="45.81118" lon="5.7094">
        <ele>373.92599694907</ele>
        <time>2014-09-21T13:35:33Z</time>
      </trkpt>
      <trkpt lat="45.81118" lon="5.7094">
        <ele>373.92599694907</ele>
        <time>2014-09-21T13:35:38Z</time>
      </trkpt>
      <trkpt lat="45.81118" lon="5.7094">
        <ele>373.92599694907</ele>
        <time>2014-09-21T13:35:43Z</time>
      </trkpt>
      <trkpt lat="45.81119" lon="5.70939">
        <ele>373.92599694907</ele>
        <time>2014-09-21T13:35:48Z</time>
      </trkpt>
      <trkpt lat="45.81123" lon="5.70939">
        <ele>374.51025725252</ele>
        <time>2014-09-21T13:35:53Z</time>
      </trkpt>
      <trkpt lat="45.81129" lon="5.70943">
        <ele>374.51025725252</ele>
        <time>2014-09-21T13:35:58Z</time>
      </trkpt>
      <trkpt lat="45.81138" lon="5.70946">
        <ele>375.0718090357</ele>
        <time>2014-09-21T13:36:03Z</time>
      </trkpt>
      <trkpt lat="45.81146" lon="5.70945">
        <ele>375.0718090357</ele>
        <time>2014-09-21T13:36:08Z</time>
      </trkpt>
      <trkpt lat="45.81157" lon="5.70941">
        <ele>375.85434899665</ele>
        <time>2014-09-21T13:36:13Z</time>
      </trkpt>
      <trkpt lat="45.81166" lon="5.70936">
        <ele>376.70849374229</ele>
        <time>2014-09-21T13:36:18Z</time>
      </trkpt>
      <trkpt lat="45.81176" lon="5.70933">
        <ele>377.42372070195</ele>
        <time>2014-09-21T13:36:23Z</time>
      </trkpt>
      <trkpt lat="45.81189" lon="5.70933">
        <ele>378.15137452491</ele>
        <time>2014-09-21T13:36:28Z</time>
      </trkpt>
      <trkpt lat="45.81197" lon="5.70932">
        <ele>378.15137452491</ele>
        <time>2014-09-21T13:36:33Z</time>
      </trkpt>
      <trkpt lat="45.81207" lon="5.70931">
        <ele>378.97413963089</ele>
        <time>2014-09-21T13:36:38Z</time>
      </trkpt>
      <trkpt lat="45.81211" lon="5.70927">
        <ele>378.97413963089</ele>
        <time>2014-09-21T13:36:43Z</time>
      </trkpt>
      <trkpt lat="45.81214" lon="5.70926">
        <ele>378.97413963089</ele>
        <time>2014-09-21T13:36:48Z</time>
      </trkpt>
      <trkpt lat="45.81216" lon="5.70924">
        <ele>379.8387958053</ele>
        <time>2014-09-21T13:36:53Z</time>
      </trkpt>
      <trkpt lat="45.8122" lon="5.70919">
        <ele>379.8387958053</ele>
        <time>2014-09-21T13:36:58Z</time>
      </trkpt>
      <trkpt lat="45.81222" lon="5.70913">
        <ele>380.76810738102</ele>
        <time>2014-09-21T13:37:03Z</time>
      </trkpt>
      <trkpt lat="45.81227" lon="5.70912">
        <ele>380.76810738102</ele>
        <time>2014-09-21T13:37:08Z</time>
      </trkpt>
      <trkpt lat="45.81231" lon="5.70906">
        <ele>381.69665215474</ele>
        <time>2014-09-21T13:37:13Z</time>
      </trkpt>
      <trkpt lat="45.81236" lon="5.70899">
        <ele>381.69665215474</ele>
        <time>2014-09-21T13:37:18Z</time>
      </trkpt>
      <trkpt lat="45.81238" lon="5.70894">
        <ele>382.67923947523</ele>
        <time>2014-09-21T13:37:23Z</time>
      </trkpt>
      <trkpt lat="45.81248" lon="5.70894">
        <ele>383.59369712976</ele>
        <time>2014-09-21T13:37:28Z</time>
      </trkpt>
      <trkpt lat="45.81258" lon="5.70898">
        <ele>384.4280277063</ele>
        <time>2014-09-21T13:37:33Z</time>
      </trkpt>
      <trkpt lat="45.81266" lon="5.709">
        <ele>384.4280277063</ele>
        <time>2014-09-21T13:37:38Z</time>
      </trkpt>
      <trkpt lat="45.81273" lon="5.70899">
        <ele>385.15705627984</ele>
        <time>2014-09-21T13:37:43Z</time>
      </trkpt>
      <trkpt lat="45.81283" lon="5.70902">
        <ele>385.80111153183</ele>
        <time>2014-09-21T13:37:48Z</time>
      </trkpt>
      <trkpt lat="45.81291" lon="5.70907">
        <ele>385.80111153183</ele>
        <time>2014-09-21T13:37:53Z</time>
      </trkpt>
      <trkpt lat="45.81297" lon="5.7091">
        <ele>386.29291950669</ele>
        <time>2014-09-21T13:37:58Z</time>
      </trkpt>
      <trkpt lat="45.81302" lon="5.70916">
        <ele>386.29291950669</ele>
        <time>2014-09-21T13:38:03Z</time>
      </trkpt>
      <trkpt lat="45.81306" lon="5.7092">
        <ele>386.67157088409</ele>
        <time>2014-09-21T13:38:08Z</time>
      </trkpt>
      <trkpt lat="45.81313" lon="5.70925">
        <ele>386.67157088409</ele>
        <time>2014-09-21T13:38:13Z</time>
      </trkpt>
      <trkpt lat="45.81316" lon="5.70926">
        <ele>386.77523359714</ele>
        <time>2014-09-21T13:38:18Z</time>
      </trkpt>
      <trkpt lat="45.81319" lon="5.70929">
        <ele>386.87889631018</ele>
        <time>2014-09-21T13:38:23Z</time>
      </trkpt>
      <trkpt lat="45.81319" lon="5.70929">
        <ele>386.98255902323</ele>
        <time>2014-09-21T13:38:28Z</time>
      </trkpt>
      <trkpt lat="45.81322" lon="5.70932">
        <ele>387.08622173628</ele>
        <time>2014-09-21T13:38:33Z</time>
      </trkpt>
      <trkpt lat="45.81325" lon="5.70936">
        <ele>387.18988444933</ele>
        <time>2014-09-21T13:38:38Z</time>
      </trkpt>
      <trkpt lat="45.81335" lon="5.70951">
        <ele>387.49094924478</ele>
        <time>2014-09-21T13:38:43Z</time>
      </trkpt>
      <trkpt lat="45.81345" lon="5.70963">
        <ele>387.74918095121</ele>
        <time>2014-09-21T13:38:48Z</time>
      </trkpt>
      <trkpt lat="45.81353" lon="5.70974">
        <ele>387.98227856481</ele>
        <time>2014-09-21T13:38:53Z</time>
      </trkpt>
      <trkpt lat="45.81357" lon="5.7098">
        <ele>387.98227856481</ele>
        <time>2014-09-21T13:38:58Z</time>
      </trkpt>
      <trkpt lat="45.81365" lon="5.70988">
        <ele>388.04826819441</ele>
        <time>2014-09-21T13:39:03Z</time>
      </trkpt>
      <trkpt lat="45.81367" lon="5.70992">
        <ele>388.04826819441</ele>
        <time>2014-09-21T13:39:08Z</time>
      </trkpt>
      <trkpt lat="45.81372" lon="5.70998">
        <ele>388.11879103002</ele>
        <time>2014-09-21T13:39:13Z</time>
      </trkpt>
      <trkpt lat="45.81376" lon="5.71004">
        <ele>388.11879103002</ele>
        <time>2014-09-21T13:39:18Z</time>
      </trkpt>
      <trkpt lat="45.81381" lon="5.7101">
        <ele>388.3097000048</ele>
        <time>2014-09-21T13:39:23Z</time>
      </trkpt>
      <trkpt lat="45.81389" lon="5.71021">
        <ele>388.36777315391</ele>
        <time>2014-09-21T13:39:28Z</time>
      </trkpt>
      <trkpt lat="45.81403" lon="5.71036">
        <ele>388.40469173498</ele>
        <time>2014-09-21T13:39:33Z</time>
      </trkpt>
      <trkpt lat="45.81416" lon="5.71047">
        <ele>388.35110051404</ele>
        <time>2014-09-21T13:39:38Z</time>
      </trkpt>
      <trkpt lat="45.81422" lon="5.71055">
        <ele>388.35110051404</ele>
        <time>2014-09-21T13:39:43Z</time>
      </trkpt>
      <trkpt lat="45.81427" lon="5.71059">
        <ele>388.11420913446</ele>
        <time>2014-09-21T13:39:48Z</time>
      </trkpt>
      <trkpt lat="45.81431" lon="5.71062">
        <ele>388.11420913446</ele>
        <time>2014-09-21T13:39:53Z</time>
      </trkpt>
      <trkpt lat="45.81438" lon="5.71072">
        <ele>387.68064610373</ele>
        <time>2014-09-21T13:39:58Z</time>
      </trkpt>
      <trkpt lat="45.81443" lon="5.71076">
        <ele>387.68064610373</ele>
        <time>2014-09-21T13:40:03Z</time>
      </trkpt>
      <trkpt lat="45.81448" lon="5.71081">
        <ele>387.15388744796</ele>
        <time>2014-09-21T13:40:08Z</time>
      </trkpt>
      <trkpt lat="45.81456" lon="5.71098">
        <ele>386.63008225692</ele>
        <time>2014-09-21T13:40:13Z</time>
      </trkpt>
      <trkpt lat="45.81461" lon="5.71107">
        <ele>386.63008225692</ele>
        <time>2014-09-21T13:40:18Z</time>
      </trkpt>
      <trkpt lat="45.81467" lon="5.71115">
        <ele>386.18390098011</ele>
        <time>2014-09-21T13:40:23Z</time>
      </trkpt>
      <trkpt lat="45.81471" lon="5.71121">
        <ele>386.18390098011</ele>
        <time>2014-09-21T13:40:28Z</time>
      </trkpt>
      <trkpt lat="45.81476" lon="5.71127">
        <ele>385.92754097102</ele>
        <time>2014-09-21T13:40:33Z</time>
      </trkpt>
      <trkpt lat="45.8148" lon="5.71135">
        <ele>385.92754097102</ele>
        <time>2014-09-21T13:40:38Z</time>
      </trkpt>
      <trkpt lat="45.8149" lon="5.71145">
        <ele>385.53207433576</ele>
        <time>2014-09-21T13:40:43Z</time>
      </trkpt>
      <trkpt lat="45.81497" lon="5.71154">
        <ele>385.25515059944</ele>
        <time>2014-09-21T13:40:48Z</time>
      </trkpt>
      <trkpt lat="45.81503" lon="5.71162">
        <ele>385.25515059944</ele>
        <time>2014-09-21T13:40:53Z</time>
      </trkpt>
      <trkpt lat="45.8151" lon="5.71172">
        <ele>385.45042652017</ele>
        <time>2014-09-21T13:40:58Z</time>
      </trkpt>
      <trkpt lat="45.81517" lon="5.71177">
        <ele>385.45042652017</ele>
        <time>2014-09-21T13:41:03Z</time>
      </trkpt>
      <trkpt lat="45.81522" lon="5.71184">
        <ele>385.88218945493</ele>
        <time>2014-09-21T13:41:08Z</time>
      </trkpt>
      <trkpt lat="45.81527" lon="5.71191">
        <ele>385.88218945493</ele>
        <time>2014-09-21T13:41:13Z</time>
      </trkpt>
      <trkpt lat="45.8153" lon="5.71196">
        <ele>386.46105481241</ele>
        <time>2014-09-21T13:41:18Z</time>
      </trkpt>
      <trkpt lat="45.81533" lon="5.71202">
        <ele>386.46105481241</ele>
        <time>2014-09-21T13:41:23Z</time>
      </trkpt>
      <trkpt lat="45.81538" lon="5.71206">
        <ele>387.17582297549</ele>
        <time>2014-09-21T13:41:28Z</time>
      </trkpt>
      <trkpt lat="45.81542" lon="5.71211">
        <ele>387.17582297549</ele>
        <time>2014-09-21T13:41:33Z</time>
      </trkpt>
      <trkpt lat="45.81547" lon="5.71216">
        <ele>388.08776990405</ele>
        <time>2014-09-21T13:41:38Z</time>
      </trkpt>
      <trkpt lat="45.81553" lon="5.71224">
        <ele>388.08776990405</ele>
        <time>2014-09-21T13:41:43Z</time>
      </trkpt>
      <trkpt lat="45.81557" lon="5.71231">
        <ele>389.09457614385</ele>
        <time>2014-09-21T13:41:48Z</time>
      </trkpt>
      <trkpt lat="45.81561" lon="5.71238">
        <ele>389.09457614385</ele>
        <time>2014-09-21T13:41:53Z</time>
      </trkpt>
      <trkpt lat="45.81568" lon="5.7125">
        <ele>390.12998240417</ele>
        <time>2014-09-21T13:41:58Z</time>
      </trkpt>
      <trkpt lat="45.81579" lon="5.71264">
        <ele>391.50720024726</ele>
        <time>2014-09-21T13:42:03Z</time>
      </trkpt>
      <trkpt lat="45.81588" lon="5.71273">
        <ele>392.96784940467</ele>
        <time>2014-09-21T13:42:08Z</time>
      </trkpt>
      <trkpt lat="45.81592" lon="5.71275">
        <ele>392.96784940467</ele>
        <time>2014-09-21T13:42:13Z</time>
      </trkpt>
      <trkpt lat="45.81598" lon="5.71277">
        <ele>394.67581640653</ele>
        <time>2014-09-21T13:42:18Z</time>
      </trkpt>
      <trkpt lat="45.81605" lon="5.71277">
        <ele>394.67581640653</ele>
        <time>2014-09-21T13:42:23Z</time>
      </trkpt>
      <trkpt lat="45.81608" lon="5.71274">
        <ele>396.3067028452</ele>
        <time>2014-09-21T13:42:28Z</time>
      </trkpt>
      <trkpt lat="45.81612" lon="5.71269">
        <ele>396.3067028452</ele>
        <time>2014-09-21T13:42:33Z</time>
      </trkpt>
      <trkpt lat="45.81615" lon="5.71267">
        <ele>396.3067028452</ele>
        <time>2014-09-21T13:42:38Z</time>
      </trkpt>
      <trkpt lat="45.81618" lon="5.71266">
        <ele>397.93487095544</ele>
        <time>2014-09-21T13:42:43Z</time>
      </trkpt>
      <trkpt lat="45.81622" lon="5.71264">
        <ele>397.93487095544</ele>
        <time>2014-09-21T13:42:48Z</time>
      </trkpt>
      <trkpt lat="45.81627" lon="5.71264">
        <ele>399.48514890301</ele>
        <time>2014-09-21T13:42:53Z</time>
      </trkpt>
      <trkpt lat="45.81634" lon="5.71263">
        <ele>399.48514890301</ele>
        <time>2014-09-21T13:42:58Z</time>
      </trkpt>
      <trkpt lat="45.81642" lon="5.71262">
        <ele>400.88814501868</ele>
        <time>2014-09-21T13:43:03Z</time>
      </trkpt>
      <trkpt lat="45.81647" lon="5.71259">
        <ele>400.88814501868</ele>
        <time>2014-09-21T13:43:08Z</time>
      </trkpt>
      <trkpt lat="45.81655" lon="5.7126">
        <ele>401.83503395481</ele>
        <time>2014-09-21T13:43:13Z</time>
      </trkpt>
      <trkpt lat="45.81664" lon="5.71259">
        <ele>401.83503395481</ele>
        <time>2014-09-21T13:43:18Z</time>
      </trkpt>
      <trkpt lat="45.81668" lon="5.71254">
        <ele>402.54539344796</ele>
        <time>2014-09-21T13:43:23Z</time>
      </trkpt>
      <trkpt lat="45.81682" lon="5.71254">
        <ele>402.94957192755</ele>
        <time>2014-09-21T13:43:28Z</time>
      </trkpt>
      <trkpt lat="45.81689" lon="5.71252">
        <ele>402.94957192755</ele>
        <time>2014-09-21T13:43:33Z</time>
      </trkpt>
      <trkpt lat="45.81693" lon="5.71246">
        <ele>403.18569583191</ele>
        <time>2014-09-21T13:43:38Z</time>
      </trkpt>
      <trkpt lat="45.81698" lon="5.71244">
        <ele>403.18569583191</ele>
        <time>2014-09-21T13:43:43Z</time>
      </trkpt>
      <trkpt lat="45.81706" lon="5.71245">
        <ele>403.41108158675</ele>
        <time>2014-09-21T13:43:48Z</time>
      </trkpt>
      <trkpt lat="45.81712" lon="5.7124">
        <ele>403.41108158675</ele>
        <time>2014-09-21T13:43:53Z</time>
      </trkpt>
      <trkpt lat="45.81716" lon="5.71236">
        <ele>403.49774592735</ele>
        <time>2014-09-21T13:43:58Z</time>
      </trkpt>
      <trkpt lat="45.81724" lon="5.71235">
        <ele>403.49774592735</ele>
        <time>2014-09-21T13:44:03Z</time>
      </trkpt>
      <trkpt lat="45.81729" lon="5.71232">
        <ele>403.24106100275</ele>
        <time>2014-09-21T13:44:08Z</time>
      </trkpt>
      <trkpt lat="45.81734" lon="5.71227">
        <ele>403.24106100275</ele>
        <time>2014-09-21T13:44:13Z</time>
      </trkpt>
      <trkpt lat="45.81739" lon="5.71223">
        <ele>402.88475179568</ele>
        <time>2014-09-21T13:44:18Z</time>
      </trkpt>
      <trkpt lat="45.81743" lon="5.71217">
        <ele>402.88475179568</ele>
        <time>2014-09-21T13:44:23Z</time>
      </trkpt>
      <trkpt lat="45.81749" lon="5.71211">
        <ele>402.61170196955</ele>
        <time>2014-09-21T13:44:28Z</time>
      </trkpt>
      <trkpt lat="45.81755" lon="5.71205">
        <ele>402.61170196955</ele>
        <time>2014-09-21T13:44:33Z</time>
      </trkpt>
      <trkpt lat="45.81765" lon="5.71205">
        <ele>402.36055748365</ele>
        <time>2014-09-21T13:44:38Z</time>
      </trkpt>
      <trkpt lat="45.81777" lon="5.71205">
        <ele>402.24734391818</ele>
        <time>2014-09-21T13:44:43Z</time>
      </trkpt>
      <trkpt lat="45.81787" lon="5.71206">
        <ele>402.11977017315</ele>
        <time>2014-09-21T13:44:48Z</time>
      </trkpt>
      <trkpt lat="45.81801" lon="5.71203">
        <ele>401.93763808404</ele>
        <time>2014-09-21T13:44:53Z</time>
      </trkpt>
      <trkpt lat="45.81816" lon="5.71203">
        <ele>401.49090373996</ele>
        <time>2014-09-21T13:44:58Z</time>
      </trkpt>
      <trkpt lat="45.81823" lon="5.71197">
        <ele>401.49090373996</ele>
        <time>2014-09-21T13:45:03Z</time>
      </trkpt>
      <trkpt lat="45.81834" lon="5.71193">
        <ele>400.6289040075</ele>
        <time>2014-09-21T13:45:08Z</time>
      </trkpt>
      <trkpt lat="45.81841" lon="5.71184">
        <ele>399.55904338791</ele>
        <time>2014-09-21T13:45:13Z</time>
      </trkpt>
      <trkpt lat="45.81849" lon="5.71179">
        <ele>399.55904338791</ele>
        <time>2014-09-21T13:45:18Z</time>
      </trkpt>
      <trkpt lat="45.81856" lon="5.71176">
        <ele>398.34433290325</ele>
        <time>2014-09-21T13:45:23Z</time>
      </trkpt>
      <trkpt lat="45.81863" lon="5.71173">
        <ele>398.34433290325</ele>
        <time>2014-09-21T13:45:28Z</time>
      </trkpt>
      <trkpt lat="45.8187" lon="5.71171">
        <ele>397.21644445338</ele>
        <time>2014-09-21T13:45:33Z</time>
      </trkpt>
      <trkpt lat="45.81878" lon="5.7117">
        <ele>397.21644445338</ele>
        <time>2014-09-21T13:45:38Z</time>
      </trkpt>
      <trkpt lat="45.81885" lon="5.71167">
        <ele>396.21679450444</ele>
        <time>2014-09-21T13:45:43Z</time>
      </trkpt>
      <trkpt lat="45.81892" lon="5.71161">
        <ele>396.21679450444</ele>
        <time>2014-09-21T13:45:48Z</time>
      </trkpt>
      <trkpt lat="45.81898" lon="5.71156">
        <ele>395.52744033629</ele>
        <time>2014-09-21T13:45:53Z</time>
      </trkpt>
      <trkpt lat="45.81905" lon="5.71158">
        <ele>395.52744033629</ele>
        <time>2014-09-21T13:45:58Z</time>
      </trkpt>
      <trkpt lat="45.81909" lon="5.7116">
        <ele>394.82614144298</ele>
        <time>2014-09-21T13:46:03Z</time>
      </trkpt>
      <trkpt lat="45.81914" lon="5.71158">
        <ele>394.82614144298</ele>
        <time>2014-09-21T13:46:08Z</time>
      </trkpt>
      <trkpt lat="45.81918" lon="5.71156">
        <ele>394.24661609611</ele>
        <time>2014-09-21T13:46:13Z</time>
      </trkpt>
      <trkpt lat="45.81921" lon="5.71154">
        <ele>394.24661609611</ele>
        <time>2014-09-21T13:46:18Z</time>
      </trkpt>
      <trkpt lat="45.81927" lon="5.71152">
        <ele>393.8114569126</ele>
        <time>2014-09-21T13:46:23Z</time>
      </trkpt>
      <trkpt lat="45.81939" lon="5.71155">
        <ele>393.35376210695</ele>
        <time>2014-09-21T13:46:28Z</time>
      </trkpt>
      <trkpt lat="45.81951" lon="5.71153">
        <ele>392.97826793563</ele>
        <time>2014-09-21T13:46:33Z</time>
      </trkpt>
      <trkpt lat="45.81958" lon="5.7115">
        <ele>392.97826793563</ele>
        <time>2014-09-21T13:46:38Z</time>
      </trkpt>
      <trkpt lat="45.8196" lon="5.71149">
        <ele>392.83934515348</ele>
        <time>2014-09-21T13:46:43Z</time>
      </trkpt>
      <trkpt lat="45.81958" lon="5.7115">
        <ele>392.83934515348</ele>
        <time>2014-09-21T13:46:48Z</time>
      </trkpt>
      <trkpt lat="45.81954" lon="5.71148">
        <ele>392.83934515348</ele>
        <time>2014-09-21T13:46:53Z</time>
      </trkpt>
      <trkpt lat="45.81945" lon="5.71145">
        <ele>392.53165361938</ele>
        <time>2014-09-21T13:46:58Z</time>
      </trkpt>
      <trkpt lat="45.81937" lon="5.71141">
        <ele>392.53165361938</ele>
        <time>2014-09-21T13:47:03Z</time>
      </trkpt>
      <trkpt lat="45.81928" lon="5.71136">
        <ele>392.14117561292</ele>
        <time>2014-09-21T13:47:08Z</time>
      </trkpt>
      <trkpt lat="45.81922" lon="5.71131">
        <ele>392.14117561292</ele>
        <time>2014-09-21T13:47:13Z</time>
      </trkpt>
      <trkpt lat="45.81919" lon="5.71124">
        <ele>391.34421589298</ele>
        <time>2014-09-21T13:47:18Z</time>
      </trkpt>
      <trkpt lat="45.81915" lon="5.71118">
        <ele>391.34421589298</ele>
        <time>2014-09-21T13:47:23Z</time>
      </trkpt>
      <trkpt lat="45.81906" lon="5.71109">
        <ele>390.60570595816</ele>
        <time>2014-09-21T13:47:28Z</time>
      </trkpt>
      <trkpt lat="45.81899" lon="5.71101">
        <ele>389.89502184478</ele>
        <time>2014-09-21T13:47:33Z</time>
      </trkpt>
      <trkpt lat="45.81895" lon="5.71096">
        <ele>389.89502184478</ele>
        <time>2014-09-21T13:47:38Z</time>
      </trkpt>
      <trkpt lat="45.81891" lon="5.7109">
        <ele>389.19803952023</ele>
        <time>2014-09-21T13:47:43Z</time>
      </trkpt>
      <trkpt lat="45.81888" lon="5.71082">
        <ele>389.19803952023</ele>
        <time>2014-09-21T13:47:48Z</time>
      </trkpt>
      <trkpt lat="45.81887" lon="5.71074">
        <ele>388.68889532839</ele>
        <time>2014-09-21T13:47:53Z</time>
      </trkpt>
      <trkpt lat="45.81886" lon="5.71065">
        <ele>388.68889532839</ele>
        <time>2014-09-21T13:47:58Z</time>
      </trkpt>
      <trkpt lat="45.81885" lon="5.71058">
        <ele>388.41303499673</ele>
        <time>2014-09-21T13:48:03Z</time>
      </trkpt>
      <trkpt lat="45.81881" lon="5.71043">
        <ele>388.09478549451</ele>
        <time>2014-09-21T13:48:08Z</time>
      </trkpt>
      <trkpt lat="45.81879" lon="5.7103">
        <ele>387.65169787905</ele>
        <time>2014-09-21T13:48:13Z</time>
      </trkpt>
      <trkpt lat="45.8188" lon="5.71023">
        <ele>387.65169787905</ele>
        <time>2014-09-21T13:48:18Z</time>
      </trkpt>
      <trkpt lat="45.81879" lon="5.71014">
        <ele>387.51204343028</ele>
        <time>2014-09-21T13:48:23Z</time>
      </trkpt>
      <trkpt lat="45.81877" lon="5.71004">
        <ele>387.51204343028</ele>
        <time>2014-09-21T13:48:28Z</time>
      </trkpt>
      <trkpt lat="45.81878" lon="5.70996">
        <ele>387.65378747215</ele>
        <time>2014-09-21T13:48:33Z</time>
      </trkpt>
      <trkpt lat="45.81875" lon="5.70986">
        <ele>387.65378747215</ele>
        <time>2014-09-21T13:48:38Z</time>
      </trkpt>
      <trkpt lat="45.81874" lon="5.70977">
        <ele>387.92595776235</ele>
        <time>2014-09-21T13:48:43Z</time>
      </trkpt>
      <trkpt lat="45.81874" lon="5.70968">
        <ele>387.92595776235</ele>
        <time>2014-09-21T13:48:48Z</time>
      </trkpt>
      <trkpt lat="45.81873" lon="5.7096">
        <ele>388.18824570388</ele>
        <time>2014-09-21T13:48:53Z</time>
      </trkpt>
      <trkpt lat="45.81869" lon="5.70953">
        <ele>388.18824570388</ele>
        <time>2014-09-21T13:48:58Z</time>
      </trkpt>
      <trkpt lat="45.81866" lon="5.70945">
        <ele>388.71413525649</ele>
        <time>2014-09-21T13:49:03Z</time>
      </trkpt>
      <trkpt lat="45.81861" lon="5.70932">
        <ele>389.28066857291</ele>
        <time>2014-09-21T13:49:08Z</time>
      </trkpt>
      <trkpt lat="45.81861" lon="5.70917">
        <ele>390.02698210816</ele>
        <time>2014-09-21T13:49:13Z</time>
      </trkpt>
      <trkpt lat="45.81862" lon="5.70906">
        <ele>390.02698210816</ele>
        <time>2014-09-21T13:49:18Z</time>
      </trkpt>
      <trkpt lat="45.81864" lon="5.70897">
        <ele>391.06704851298</ele>
        <time>2014-09-21T13:49:23Z</time>
      </trkpt>
      <trkpt lat="45.81866" lon="5.70886">
        <ele>391.06704851298</ele>
        <time>2014-09-21T13:49:28Z</time>
      </trkpt>
      <trkpt lat="45.81866" lon="5.70875">
        <ele>391.81389238475</ele>
        <time>2014-09-21T13:49:33Z</time>
      </trkpt>
      <trkpt lat="45.81866" lon="5.70863">
        <ele>391.81389238475</ele>
        <time>2014-09-21T13:49:38Z</time>
      </trkpt>
      <trkpt lat="45.81866" lon="5.7085">
        <ele>392.94941681705</ele>
        <time>2014-09-21T13:49:43Z</time>
      </trkpt>
      <trkpt lat="45.81865" lon="5.70838">
        <ele>392.94941681705</ele>
        <time>2014-09-21T13:49:48Z</time>
      </trkpt>
      <trkpt lat="45.81864" lon="5.70823">
        <ele>394.72965659001</ele>
        <time>2014-09-21T13:49:53Z</time>
      </trkpt>
      <trkpt lat="45.81864" lon="5.7081">
        <ele>396.52537785425</ele>
        <time>2014-09-21T13:49:58Z</time>
      </trkpt>
      <trkpt lat="45.81861" lon="5.70798">
        <ele>396.52537785425</ele>
        <time>2014-09-21T13:50:03Z</time>
      </trkpt>
      <trkpt lat="45.81858" lon="5.70787">
        <ele>398.67586637639</ele>
        <time>2014-09-21T13:50:08Z</time>
      </trkpt>
      <trkpt lat="45.81856" lon="5.70776">
        <ele>398.67586637639</ele>
        <time>2014-09-21T13:50:13Z</time>
      </trkpt>
      <trkpt lat="45.81854" lon="5.70768">
        <ele>401.04778760969</ele>
        <time>2014-09-21T13:50:18Z</time>
      </trkpt>
      <trkpt lat="45.81853" lon="5.70759">
        <ele>401.04778760969</ele>
        <time>2014-09-21T13:50:23Z</time>
      </trkpt>
      <trkpt lat="45.81851" lon="5.70748">
        <ele>403.286461199</ele>
        <time>2014-09-21T13:50:28Z</time>
      </trkpt>
      <trkpt lat="45.8185" lon="5.70737">
        <ele>403.286461199</ele>
        <time>2014-09-21T13:50:33Z</time>
      </trkpt>
      <trkpt lat="45.81852" lon="5.70723">
        <ele>404.94841878448</ele>
        <time>2014-09-21T13:50:38Z</time>
      </trkpt>
      <trkpt lat="45.81854" lon="5.70708">
        <ele>406.05680439455</ele>
        <time>2014-09-21T13:50:43Z</time>
      </trkpt>
      <trkpt lat="45.81852" lon="5.70697">
        <ele>406.05680439455</ele>
        <time>2014-09-21T13:50:48Z</time>
      </trkpt>
      <trkpt lat="45.81852" lon="5.70686">
        <ele>406.73558456746</ele>
        <time>2014-09-21T13:50:53Z</time>
      </trkpt>
      <trkpt lat="45.8185" lon="5.70674">
        <ele>406.73558456746</ele>
        <time>2014-09-21T13:50:58Z</time>
      </trkpt>
      <trkpt lat="45.8185" lon="5.70665">
        <ele>407.12974203433</ele>
        <time>2014-09-21T13:51:03Z</time>
      </trkpt>
      <trkpt lat="45.81851" lon="5.70656">
        <ele>407.12974203433</ele>
        <time>2014-09-21T13:51:08Z</time>
      </trkpt>
      <trkpt lat="45.81851" lon="5.70646">
        <ele>406.99981267334</ele>
        <time>2014-09-21T13:51:13Z</time>
      </trkpt>
      <trkpt lat="45.8185" lon="5.70635">
        <ele>406.99981267334</ele>
        <time>2014-09-21T13:51:18Z</time>
      </trkpt>
      <trkpt lat="45.81849" lon="5.70623">
        <ele>406.21194880111</ele>
        <time>2014-09-21T13:51:23Z</time>
      </trkpt>
      <trkpt lat="45.81847" lon="5.70615">
        <ele>406.21194880111</ele>
        <time>2014-09-21T13:51:28Z</time>
      </trkpt>
      <trkpt lat="45.81843" lon="5.70607">
        <ele>405.24932761944</ele>
        <time>2014-09-21T13:51:33Z</time>
      </trkpt>
      <trkpt lat="45.81842" lon="5.70601">
        <ele>405.24932761944</ele>
        <time>2014-09-21T13:51:38Z</time>
      </trkpt>
      <trkpt lat="45.81839" lon="5.70594">
        <ele>404.35843574289</ele>
        <time>2014-09-21T13:51:43Z</time>
      </trkpt>
      <trkpt lat="45.81839" lon="5.70584">
        <ele>404.35843574289</ele>
        <time>2014-09-21T13:51:48Z</time>
      </trkpt>
      <trkpt lat="45.81839" lon="5.70574">
        <ele>403.03253996778</ele>
        <time>2014-09-21T13:51:53Z</time>
      </trkpt>
      <trkpt lat="45.81837" lon="5.70563">
        <ele>403.03253996778</ele>
        <time>2014-09-21T13:51:58Z</time>
      </trkpt>
      <trkpt lat="45.81836" lon="5.70548">
        <ele>401.35101427622</ele>
        <time>2014-09-21T13:52:03Z</time>
      </trkpt>
      <trkpt lat="45.81838" lon="5.70535">
        <ele>399.21548998823</ele>
        <time>2014-09-21T13:52:08Z</time>
      </trkpt>
      <trkpt lat="45.81842" lon="5.70516">
        <ele>396.33434786347</ele>
        <time>2014-09-21T13:52:13Z</time>
      </trkpt>
      <trkpt lat="45.81846" lon="5.70503">
        <ele>392.81415548773</ele>
        <time>2014-09-21T13:52:18Z</time>
      </trkpt>
      <trkpt lat="45.81858" lon="5.70497">
        <ele>388.45277025601</ele>
        <time>2014-09-21T13:52:23Z</time>
      </trkpt>
      <trkpt lat="45.81861" lon="5.70483">
        <ele>383.9298567859</ele>
        <time>2014-09-21T13:52:28Z</time>
      </trkpt>
      <trkpt lat="45.8186" lon="5.70472">
        <ele>383.9298567859</ele>
        <time>2014-09-21T13:52:33Z</time>
      </trkpt>
      <trkpt lat="45.81861" lon="5.70461">
        <ele>379.80345160499</ele>
        <time>2014-09-21T13:52:38Z</time>
      </trkpt>
      <trkpt lat="45.81867" lon="5.70451">
        <ele>375.7679256512</ele>
        <time>2014-09-21T13:52:43Z</time>
      </trkpt>
      <trkpt lat="45.81877" lon="5.70445">
        <ele>371.48204813444</ele>
        <time>2014-09-21T13:52:48Z</time>
      </trkpt>
      <trkpt lat="45.81887" lon="5.70446">
        <ele>366.90399012263</ele>
        <time>2014-09-21T13:52:53Z</time>
      </trkpt>
      <trkpt lat="45.81895" lon="5.70447">
        <ele>366.90399012263</ele>
        <time>2014-09-21T13:52:58Z</time>
      </trkpt>
      <trkpt lat="45.81904" lon="5.70447">
        <ele>362.39912577071</ele>
        <time>2014-09-21T13:53:03Z</time>
      </trkpt>
      <trkpt lat="45.81912" lon="5.70442">
        <ele>358.20468503396</ele>
        <time>2014-09-21T13:53:08Z</time>
      </trkpt>
      <trkpt lat="45.81916" lon="5.70432">
        <ele>358.20468503396</ele>
        <time>2014-09-21T13:53:13Z</time>
      </trkpt>
      <trkpt lat="45.81918" lon="5.70425">
        <ele>354.36642815006</ele>
        <time>2014-09-21T13:53:18Z</time>
      </trkpt>
      <trkpt lat="45.81922" lon="5.70415">
        <ele>354.36642815006</ele>
        <time>2014-09-21T13:53:23Z</time>
      </trkpt>
      <trkpt lat="45.81925" lon="5.70405">
        <ele>350.83903487963</ele>
        <time>2014-09-21T13:53:28Z</time>
      </trkpt>
      <trkpt lat="45.81929" lon="5.70396">
        <ele>350.83903487963</ele>
        <time>2014-09-21T13:53:33Z</time>
      </trkpt>
      <trkpt lat="45.81931" lon="5.70385">
        <ele>347.6802569054</ele>
        <time>2014-09-21T13:53:38Z</time>
      </trkpt>
      <trkpt lat="45.81933" lon="5.70375">
        <ele>347.6802569054</ele>
        <time>2014-09-21T13:53:43Z</time>
      </trkpt>
      <trkpt lat="45.81936" lon="5.70365">
        <ele>344.49555558187</ele>
        <time>2014-09-21T13:53:48Z</time>
      </trkpt>
      <trkpt lat="45.81938" lon="5.70354">
        <ele>344.49555558187</ele>
        <time>2014-09-21T13:53:53Z</time>
      </trkpt>
      <trkpt lat="45.8194" lon="5.70346">
        <ele>341.45238682171</ele>
        <time>2014-09-21T13:53:58Z</time>
      </trkpt>
      <trkpt lat="45.8194" lon="5.70334">
        <ele>341.45238682171</ele>
        <time>2014-09-21T13:54:03Z</time>
      </trkpt>
      <trkpt lat="45.81943" lon="5.70325">
        <ele>338.63318052033</ele>
        <time>2014-09-21T13:54:08Z</time>
      </trkpt>
      <trkpt lat="45.81946" lon="5.70313">
        <ele>338.63318052033</ele>
        <time>2014-09-21T13:54:13Z</time>
      </trkpt>
      <trkpt lat="45.81949" lon="5.70303">
        <ele>336.2719357005</ele>
        <time>2014-09-21T13:54:18Z</time>
      </trkpt>
      <trkpt lat="45.81953" lon="5.70295">
        <ele>336.2719357005</ele>
        <time>2014-09-21T13:54:23Z</time>
      </trkpt>
      <trkpt lat="45.81955" lon="5.70287">
        <ele>334.33892386976</ele>
        <time>2014-09-21T13:54:28Z</time>
      </trkpt>
      <trkpt lat="45.81955" lon="5.70277">
        <ele>334.33892386976</ele>
        <time>2014-09-21T13:54:33Z</time>
      </trkpt>
      <trkpt lat="45.81955" lon="5.70268">
        <ele>332.89161001495</ele>
        <time>2014-09-21T13:54:38Z</time>
      </trkpt>
      <trkpt lat="45.81953" lon="5.70261">
        <ele>332.89161001495</ele>
        <time>2014-09-21T13:54:43Z</time>
      </trkpt>
      <trkpt lat="45.81952" lon="5.70254">
        <ele>331.65017569393</ele>
        <time>2014-09-21T13:54:48Z</time>
      </trkpt>
      <trkpt lat="45.81953" lon="5.70248">
        <ele>331.65017569393</ele>
        <time>2014-09-21T13:54:53Z</time>
      </trkpt>
      <trkpt lat="45.81953" lon="5.70242">
        <ele>331.65017569393</ele>
        <time>2014-09-21T13:54:58Z</time>
      </trkpt>
      <trkpt lat="45.8195" lon="5.70226">
        <ele>330.57071781922</ele>
        <time>2014-09-21T13:55:03Z</time>
      </trkpt>
      <trkpt lat="45.8195" lon="5.70216">
        <ele>330.57071781922</ele>
        <time>2014-09-21T13:55:08Z</time>
      </trkpt>
      <trkpt lat="45.81948" lon="5.70207">
        <ele>329.77041412562</ele>
        <time>2014-09-21T13:55:13Z</time>
      </trkpt>
      <trkpt lat="45.81947" lon="5.70196">
        <ele>329.77041412562</ele>
        <time>2014-09-21T13:55:18Z</time>
      </trkpt>
      <trkpt lat="45.81946" lon="5.7019">
        <ele>329.01099063833</ele>
        <time>2014-09-21T13:55:23Z</time>
      </trkpt>
      <trkpt lat="45.81944" lon="5.70179">
        <ele>329.01099063833</ele>
        <time>2014-09-21T13:55:28Z</time>
      </trkpt>
      <trkpt lat="45.81943" lon="5.70169">
        <ele>328.43166501448</ele>
        <time>2014-09-21T13:55:33Z</time>
      </trkpt>
      <trkpt lat="45.81942" lon="5.70157">
        <ele>328.43166501448</ele>
        <time>2014-09-21T13:55:38Z</time>
      </trkpt>
      <trkpt lat="45.81942" lon="5.70148">
        <ele>327.95901142602</ele>
        <time>2014-09-21T13:55:44Z</time>
      </trkpt>
      <trkpt lat="45.8194" lon="5.70135">
        <ele>327.95901142602</ele>
        <time>2014-09-21T13:55:48Z</time>
      </trkpt>
      <trkpt lat="45.81941" lon="5.70125">
        <ele>328.08659670359</ele>
        <time>2014-09-21T13:55:53Z</time>
      </trkpt>
      <trkpt lat="45.81943" lon="5.70111">
        <ele>328.03057549715</ele>
        <time>2014-09-21T13:55:58Z</time>
      </trkpt>
      <trkpt lat="45.81943" lon="5.701">
        <ele>328.03057549715</ele>
        <time>2014-09-21T13:56:03Z</time>
      </trkpt>
      <trkpt lat="45.81946" lon="5.7009">
        <ele>328.04505977371</ele>
        <time>2014-09-21T13:56:08Z</time>
      </trkpt>
      <trkpt lat="45.81946" lon="5.70079">
        <ele>328.04505977371</ele>
        <time>2014-09-21T13:56:13Z</time>
      </trkpt>
      <trkpt lat="45.81945" lon="5.70071">
        <ele>328.22111183531</ele>
        <time>2014-09-21T13:56:18Z</time>
      </trkpt>
      <trkpt lat="45.81947" lon="5.70062">
        <ele>328.22111183531</ele>
        <time>2014-09-21T13:56:23Z</time>
      </trkpt>
      <trkpt lat="45.8195" lon="5.70053">
        <ele>328.65700929807</ele>
        <time>2014-09-21T13:56:28Z</time>
      </trkpt>
      <trkpt lat="45.81952" lon="5.70045">
        <ele>328.65700929807</ele>
        <time>2014-09-21T13:56:33Z</time>
      </trkpt>
      <trkpt lat="45.81957" lon="5.70029">
        <ele>328.66484698169</ele>
        <time>2014-09-21T13:56:38Z</time>
      </trkpt>
      <trkpt lat="45.81958" lon="5.70017">
        <ele>328.66484698169</ele>
        <time>2014-09-21T13:56:43Z</time>
      </trkpt>
      <trkpt lat="45.8196" lon="5.70004">
        <ele>328.30017053035</ele>
        <time>2014-09-21T13:56:48Z</time>
      </trkpt>
      <trkpt lat="45.81962" lon="5.69994">
        <ele>328.30017053035</ele>
        <time>2014-09-21T13:56:53Z</time>
      </trkpt>
      <trkpt lat="45.81964" lon="5.69985">
        <ele>328.03341158117</ele>
        <time>2014-09-21T13:56:58Z</time>
      </trkpt>
      <trkpt lat="45.81968" lon="5.69974">
        <ele>328.03341158117</ele>
        <time>2014-09-21T13:57:03Z</time>
      </trkpt>
      <trkpt lat="45.81971" lon="5.69965">
        <ele>328.09842668533</ele>
        <time>2014-09-21T13:57:08Z</time>
      </trkpt>
      <trkpt lat="45.81974" lon="5.69955">
        <ele>328.09842668533</ele>
        <time>2014-09-21T13:57:13Z</time>
      </trkpt>
      <trkpt lat="45.81976" lon="5.69945">
        <ele>328.20659870382</ele>
        <time>2014-09-21T13:57:18Z</time>
      </trkpt>
      <trkpt lat="45.81979" lon="5.69935">
        <ele>328.20659870382</ele>
        <time>2014-09-21T13:57:23Z</time>
      </trkpt>
      <trkpt lat="45.81983" lon="5.69926">
        <ele>328.52276165559</ele>
        <time>2014-09-21T13:57:28Z</time>
      </trkpt>
      <trkpt lat="45.81985" lon="5.69917">
        <ele>328.52276165559</ele>
        <time>2014-09-21T13:57:33Z</time>
      </trkpt>
      <trkpt lat="45.81988" lon="5.69907">
        <ele>328.92529562223</ele>
        <time>2014-09-21T13:57:38Z</time>
      </trkpt>
      <trkpt lat="45.8199" lon="5.69898">
        <ele>328.92529562223</ele>
        <time>2014-09-21T13:57:43Z</time>
      </trkpt>
      <trkpt lat="45.81991" lon="5.69889">
        <ele>329.60396809058</ele>
        <time>2014-09-21T13:57:48Z</time>
      </trkpt>
      <trkpt lat="45.81994" lon="5.69882">
        <ele>329.60396809058</ele>
        <time>2014-09-21T13:57:53Z</time>
      </trkpt>
      <trkpt lat="45.81995" lon="5.69873">
        <ele>330.64744036706</ele>
        <time>2014-09-21T13:57:58Z</time>
      </trkpt>
      <trkpt lat="45.81998" lon="5.69866">
        <ele>330.64744036706</ele>
        <time>2014-09-21T13:58:03Z</time>
      </trkpt>
      <trkpt lat="45.82001" lon="5.69857">
        <ele>332.03604906767</ele>
        <time>2014-09-21T13:58:08Z</time>
      </trkpt>
      <trkpt lat="45.82004" lon="5.69848">
        <ele>332.03604906767</ele>
        <time>2014-09-21T13:58:13Z</time>
      </trkpt>
      <trkpt lat="45.82007" lon="5.6984">
        <ele>333.4769000989</ele>
        <time>2014-09-21T13:58:18Z</time>
      </trkpt>
      <trkpt lat="45.8201" lon="5.6983">
        <ele>333.4769000989</ele>
        <time>2014-09-21T13:58:23Z</time>
      </trkpt>
      <trkpt lat="45.82012" lon="5.6982">
        <ele>334.90034369197</ele>
        <time>2014-09-21T13:58:28Z</time>
      </trkpt>
      <trkpt lat="45.82014" lon="5.6981">
        <ele>334.90034369197</ele>
        <time>2014-09-21T13:58:33Z</time>
      </trkpt>
      <trkpt lat="45.82017" lon="5.698">
        <ele>336.35731866556</ele>
        <time>2014-09-21T13:58:38Z</time>
      </trkpt>
      <trkpt lat="45.82018" lon="5.69791">
        <ele>336.35731866556</ele>
        <time>2014-09-21T13:58:43Z</time>
      </trkpt>
      <trkpt lat="45.82021" lon="5.69781">
        <ele>337.90948751466</ele>
        <time>2014-09-21T13:58:48Z</time>
      </trkpt>
      <trkpt lat="45.82025" lon="5.69772">
        <ele>337.90948751466</ele>
        <time>2014-09-21T13:58:53Z</time>
      </trkpt>
      <trkpt lat="45.82028" lon="5.69763">
        <ele>339.35447714489</ele>
        <time>2014-09-21T13:58:58Z</time>
      </trkpt>
      <trkpt lat="45.82034" lon="5.69761">
        <ele>339.35447714489</ele>
        <time>2014-09-21T13:59:03Z</time>
      </trkpt>
      <trkpt lat="45.82039" lon="5.69764">
        <ele>340.37555312763</ele>
        <time>2014-09-21T13:59:08Z</time>
      </trkpt>
      <trkpt lat="45.82044" lon="5.69768">
        <ele>340.37555312763</ele>
        <time>2014-09-21T13:59:13Z</time>
      </trkpt>
      <trkpt lat="45.8205" lon="5.69772">
        <ele>341.17059548173</ele>
        <time>2014-09-21T13:59:18Z</time>
      </trkpt>
      <trkpt lat="45.82058" lon="5.6978">
        <ele>341.80847899053</ele>
        <time>2014-09-21T13:59:23Z</time>
      </trkpt>
      <trkpt lat="45.82064" lon="5.69786">
        <ele>341.80847899053</ele>
        <time>2014-09-21T13:59:28Z</time>
      </trkpt>
      <trkpt lat="45.8207" lon="5.69792">
        <ele>342.23835922228</ele>
        <time>2014-09-21T13:59:33Z</time>
      </trkpt>
      <trkpt lat="45.82076" lon="5.69798">
        <ele>342.23835922228</ele>
        <time>2014-09-21T13:59:38Z</time>
      </trkpt>
      <trkpt lat="45.82081" lon="5.69803">
        <ele>342.70212118208</ele>
        <time>2014-09-21T13:59:43Z</time>
      </trkpt>
      <trkpt lat="45.82088" lon="5.69807">
        <ele>342.70212118208</ele>
        <time>2014-09-21T13:59:48Z</time>
      </trkpt>
      <trkpt lat="45.82094" lon="5.69809">
        <ele>343.27986237544</ele>
        <time>2014-09-21T13:59:53Z</time>
      </trkpt>
      <trkpt lat="45.82096" lon="5.6981">
        <ele>343.27986237544</ele>
        <time>2014-09-21T13:59:58Z</time>
      </trkpt>
      <trkpt lat="45.82103" lon="5.69815">
        <ele>343.94478439636</ele>
        <time>2014-09-21T14:00:03Z</time>
      </trkpt>
      <trkpt lat="45.82109" lon="5.69822">
        <ele>343.94478439636</ele>
        <time>2014-09-21T14:00:08Z</time>
      </trkpt>
      <trkpt lat="45.82116" lon="5.69831">
        <ele>345.0322749222</ele>
        <time>2014-09-21T14:00:13Z</time>
      </trkpt>
      <trkpt lat="45.82124" lon="5.69844">
        <ele>346.07388172431</ele>
        <time>2014-09-21T14:00:18Z</time>
      </trkpt>
      <trkpt lat="45.82128" lon="5.69851">
        <ele>346.07388172431</ele>
        <time>2014-09-21T14:00:23Z</time>
      </trkpt>
      <trkpt lat="45.82133" lon="5.69856">
        <ele>347.37084383293</ele>
        <time>2014-09-21T14:00:28Z</time>
      </trkpt>
      <trkpt lat="45.82137" lon="5.6986">
        <ele>347.37084383293</ele>
        <time>2014-09-21T14:00:33Z</time>
      </trkpt>
      <trkpt lat="45.82141" lon="5.69863">
        <ele>348.5964722359</ele>
        <time>2014-09-21T14:00:38Z</time>
      </trkpt>
      <trkpt lat="45.82145" lon="5.69864">
        <ele>348.5964722359</ele>
        <time>2014-09-21T14:00:43Z</time>
      </trkpt>
      <trkpt lat="45.82151" lon="5.69866">
        <ele>349.59257221294</ele>
        <time>2014-09-21T14:00:48Z</time>
      </trkpt>
      <trkpt lat="45.82156" lon="5.69869">
        <ele>349.59257221294</ele>
        <time>2014-09-21T14:00:53Z</time>
      </trkpt>
      <trkpt lat="45.82164" lon="5.69876">
        <ele>350.27104234742</ele>
        <time>2014-09-21T14:00:58Z</time>
      </trkpt>
      <trkpt lat="45.82169" lon="5.69877">
        <ele>350.27104234742</ele>
        <time>2014-09-21T14:01:03Z</time>
      </trkpt>
      <trkpt lat="45.82174" lon="5.69878">
        <ele>350.66661485279</ele>
        <time>2014-09-21T14:01:08Z</time>
      </trkpt>
      <trkpt lat="45.82183" lon="5.69881">
        <ele>350.8989080934</ele>
        <time>2014-09-21T14:01:13Z</time>
      </trkpt>
      <trkpt lat="45.82189" lon="5.69882">
        <ele>350.8989080934</ele>
        <time>2014-09-21T14:01:18Z</time>
      </trkpt>
      <trkpt lat="45.82195" lon="5.69883">
        <ele>350.96409294646</ele>
        <time>2014-09-21T14:01:23Z</time>
      </trkpt>
      <trkpt lat="45.82206" lon="5.69886">
        <ele>350.97454138521</ele>
        <time>2014-09-21T14:01:28Z</time>
      </trkpt>
      <trkpt lat="45.82215" lon="5.69891">
        <ele>350.99144352461</ele>
        <time>2014-09-21T14:01:33Z</time>
      </trkpt>
      <trkpt lat="45.82222" lon="5.69896">
        <ele>350.99144352461</ele>
        <time>2014-09-21T14:01:38Z</time>
      </trkpt>
      <trkpt lat="45.82226" lon="5.69899">
        <ele>351.05720829568</ele>
        <time>2014-09-21T14:01:43Z</time>
      </trkpt>
      <trkpt lat="45.82234" lon="5.69899">
        <ele>351.05720829568</ele>
        <time>2014-09-21T14:01:48Z</time>
      </trkpt>
      <trkpt lat="45.82241" lon="5.69903">
        <ele>351.05260319888</ele>
        <time>2014-09-21T14:01:53Z</time>
      </trkpt>
      <trkpt lat="45.82246" lon="5.69905">
        <ele>351.05260319888</ele>
        <time>2014-09-21T14:01:58Z</time>
      </trkpt>
      <trkpt lat="45.82252" lon="5.69908">
        <ele>350.89629764432</ele>
        <time>2014-09-21T14:02:03Z</time>
      </trkpt>
      <trkpt lat="45.82262" lon="5.69912">
        <ele>350.58553032144</ele>
        <time>2014-09-21T14:02:08Z</time>
      </trkpt>
      <trkpt lat="45.82268" lon="5.69915">
        <ele>350.58553032144</ele>
        <time>2014-09-21T14:02:13Z</time>
      </trkpt>
      <trkpt lat="45.82277" lon="5.69918">
        <ele>350.10386822723</ele>
        <time>2014-09-21T14:02:18Z</time>
      </trkpt>
      <trkpt lat="45.82282" lon="5.6992">
        <ele>350.10386822723</ele>
        <time>2014-09-21T14:02:23Z</time>
      </trkpt>
      <trkpt lat="45.82289" lon="5.69922">
        <ele>349.59517960072</ele>
        <time>2014-09-21T14:02:28Z</time>
      </trkpt>
      <trkpt lat="45.82295" lon="5.69926">
        <ele>349.59517960072</ele>
        <time>2014-09-21T14:02:33Z</time>
      </trkpt>
      <trkpt lat="45.82302" lon="5.69931">
        <ele>349.14968794083</ele>
        <time>2014-09-21T14:02:38Z</time>
      </trkpt>
      <trkpt lat="45.82306" lon="5.69934">
        <ele>349.14968794083</ele>
        <time>2014-09-21T14:02:43Z</time>
      </trkpt>
      <trkpt lat="45.82313" lon="5.69939">
        <ele>348.86529332024</ele>
        <time>2014-09-21T14:02:48Z</time>
      </trkpt>
      <trkpt lat="45.82318" lon="5.69943">
        <ele>348.86529332024</ele>
        <time>2014-09-21T14:02:53Z</time>
      </trkpt>
      <trkpt lat="45.82322" lon="5.69949">
        <ele>348.80349077428</ele>
        <time>2014-09-21T14:02:58Z</time>
      </trkpt>
      <trkpt lat="45.82327" lon="5.69955">
        <ele>348.80349077428</ele>
        <time>2014-09-21T14:03:03Z</time>
      </trkpt>
      <trkpt lat="45.82332" lon="5.69961">
        <ele>348.80451924406</ele>
        <time>2014-09-21T14:03:08Z</time>
      </trkpt>
      <trkpt lat="45.82337" lon="5.69964">
        <ele>348.80451924406</ele>
        <time>2014-09-21T14:03:13Z</time>
      </trkpt>
      <trkpt lat="45.82343" lon="5.69966">
        <ele>348.77786736789</ele>
        <time>2014-09-21T14:03:18Z</time>
      </trkpt>
      <trkpt lat="45.82348" lon="5.69963">
        <ele>348.77786736789</ele>
        <time>2014-09-21T14:03:23Z</time>
      </trkpt>
      <trkpt lat="45.82352" lon="5.69961">
        <ele>348.72625674205</ele>
        <time>2014-09-21T14:03:28Z</time>
      </trkpt>
      <trkpt lat="45.82354" lon="5.69957">
        <ele>348.72625674205</ele>
        <time>2014-09-21T14:03:33Z</time>
      </trkpt>
      <trkpt lat="45.82356" lon="5.6995">
        <ele>348.72625674205</ele>
        <time>2014-09-21T14:03:38Z</time>
      </trkpt>
      <trkpt lat="45.82358" lon="5.69942">
        <ele>348.8684806555</ele>
        <time>2014-09-21T14:03:43Z</time>
      </trkpt>
      <trkpt lat="45.82359" lon="5.69936">
        <ele>348.8684806555</ele>
        <time>2014-09-21T14:03:48Z</time>
      </trkpt>
      <trkpt lat="45.82362" lon="5.69928">
        <ele>349.06088000912</ele>
        <time>2014-09-21T14:03:53Z</time>
      </trkpt>
      <trkpt lat="45.82369" lon="5.69921">
        <ele>349.06088000912</ele>
        <time>2014-09-21T14:03:58Z</time>
      </trkpt>
      <trkpt lat="45.82376" lon="5.69916">
        <ele>349.44404656711</ele>
        <time>2014-09-21T14:04:03Z</time>
      </trkpt>
      <trkpt lat="45.82384" lon="5.69912">
        <ele>349.80186716564</ele>
        <time>2014-09-21T14:04:08Z</time>
      </trkpt>
      <trkpt lat="45.82392" lon="5.69908">
        <ele>349.80186716564</ele>
        <time>2014-09-21T14:04:13Z</time>
      </trkpt>
      <trkpt lat="45.82399" lon="5.69903">
        <ele>349.94860922014</ele>
        <time>2014-09-21T14:04:18Z</time>
      </trkpt>
      <trkpt lat="45.82404" lon="5.69895">
        <ele>349.94860922014</ele>
        <time>2014-09-21T14:04:23Z</time>
      </trkpt>
      <trkpt lat="45.82408" lon="5.69889">
        <ele>349.90014127337</ele>
        <time>2014-09-21T14:04:28Z</time>
      </trkpt>
      <trkpt lat="45.82413" lon="5.69884">
        <ele>349.90014127337</ele>
        <time>2014-09-21T14:04:33Z</time>
      </trkpt>
      <trkpt lat="45.8242" lon="5.6988">
        <ele>349.71496504164</ele>
        <time>2014-09-21T14:04:38Z</time>
      </trkpt>
      <trkpt lat="45.82429" lon="5.69879">
        <ele>349.60620490435</ele>
        <time>2014-09-21T14:04:43Z</time>
      </trkpt>
      <trkpt lat="45.82435" lon="5.69871">
        <ele>349.60620490435</ele>
        <time>2014-09-21T14:04:48Z</time>
      </trkpt>
      <trkpt lat="45.82442" lon="5.69868">
        <ele>349.35320246976</ele>
        <time>2014-09-21T14:04:53Z</time>
      </trkpt>
      <trkpt lat="45.82447" lon="5.69864">
        <ele>349.35320246976</ele>
        <time>2014-09-21T14:04:58Z</time>
      </trkpt>
      <trkpt lat="45.82452" lon="5.6986">
        <ele>348.95367410528</ele>
        <time>2014-09-21T14:05:03Z</time>
      </trkpt>
      <trkpt lat="45.8246" lon="5.69859">
        <ele>348.95367410528</ele>
        <time>2014-09-21T14:05:08Z</time>
      </trkpt>
      <trkpt lat="45.82466" lon="5.69859">
        <ele>348.20415869628</ele>
        <time>2014-09-21T14:05:13Z</time>
      </trkpt>
      <trkpt lat="45.82472" lon="5.69859">
        <ele>348.20415869628</ele>
        <time>2014-09-21T14:05:18Z</time>
      </trkpt>
      <trkpt lat="45.82475" lon="5.69857">
        <ele>347.30621610081</ele>
        <time>2014-09-21T14:05:23Z</time>
      </trkpt>
      <trkpt lat="45.8248" lon="5.69856">
        <ele>347.30621610081</ele>
        <time>2014-09-21T14:05:28Z</time>
      </trkpt>
      <trkpt lat="45.82489" lon="5.69858">
        <ele>346.34612367016</ele>
        <time>2014-09-21T14:05:33Z</time>
      </trkpt>
      <trkpt lat="45.82498" lon="5.69864">
        <ele>345.27427222599</ele>
        <time>2014-09-21T14:05:38Z</time>
      </trkpt>
      <trkpt lat="45.82505" lon="5.69869">
        <ele>345.27427222599</ele>
        <time>2014-09-21T14:05:43Z</time>
      </trkpt>
      <trkpt lat="45.82513" lon="5.69871">
        <ele>344.21791216497</ele>
        <time>2014-09-21T14:05:48Z</time>
      </trkpt>
      <trkpt lat="45.82521" lon="5.69874">
        <ele>344.21791216497</ele>
        <time>2014-09-21T14:05:53Z</time>
      </trkpt>
      <trkpt lat="45.82528" lon="5.69876">
        <ele>343.3813297289</ele>
        <time>2014-09-21T14:05:58Z</time>
      </trkpt>
      <trkpt lat="45.82535" lon="5.69875">
        <ele>343.3813297289</ele>
        <time>2014-09-21T14:06:03Z</time>
      </trkpt>
      <trkpt lat="45.82544" lon="5.69875">
        <ele>342.70815221378</ele>
        <time>2014-09-21T14:06:08Z</time>
      </trkpt>
      <trkpt lat="45.8255" lon="5.69875">
        <ele>342.70815221378</ele>
        <time>2014-09-21T14:06:13Z</time>
      </trkpt>
      <trkpt lat="45.82553" lon="5.69874">
        <ele>342.70815221378</ele>
        <time>2014-09-21T14:06:18Z</time>
      </trkpt>
      <trkpt lat="45.8256" lon="5.69876">
        <ele>342.05917049999</ele>
        <time>2014-09-21T14:06:23Z</time>
      </trkpt>
      <trkpt lat="45.82568" lon="5.69878">
        <ele>342.05917049999</ele>
        <time>2014-09-21T14:06:28Z</time>
      </trkpt>
      <trkpt lat="45.82576" lon="5.69877">
        <ele>341.44938830056</ele>
        <time>2014-09-21T14:06:33Z</time>
      </trkpt>
      <trkpt lat="45.82583" lon="5.69876">
        <ele>341.44938830056</ele>
        <time>2014-09-21T14:06:38Z</time>
      </trkpt>
      <trkpt lat="45.82587" lon="5.69874">
        <ele>341.06547128082</ele>
        <time>2014-09-21T14:06:43Z</time>
      </trkpt>
      <trkpt lat="45.82595" lon="5.69874">
        <ele>341.06547128082</ele>
        <time>2014-09-21T14:06:48Z</time>
      </trkpt>
      <trkpt lat="45.82601" lon="5.69872">
        <ele>340.87792292338</ele>
        <time>2014-09-21T14:06:53Z</time>
      </trkpt>
      <trkpt lat="45.82607" lon="5.6987">
        <ele>340.87792292338</ele>
        <time>2014-09-21T14:06:58Z</time>
      </trkpt>
      <trkpt lat="45.82613" lon="5.69867">
        <ele>340.70027964368</ele>
        <time>2014-09-21T14:07:03Z</time>
      </trkpt>
      <trkpt lat="45.82619" lon="5.69864">
        <ele>340.70027964368</ele>
        <time>2014-09-21T14:07:08Z</time>
      </trkpt>
      <trkpt lat="45.82624" lon="5.69865">
        <ele>340.73437725462</ele>
        <time>2014-09-21T14:07:13Z</time>
      </trkpt>
      <trkpt lat="45.82629" lon="5.69865">
        <ele>340.73437725462</ele>
        <time>2014-09-21T14:07:18Z</time>
      </trkpt>
      <trkpt lat="45.82636" lon="5.69868">
        <ele>340.83511834574</ele>
        <time>2014-09-21T14:07:23Z</time>
      </trkpt>
      <trkpt lat="45.82642" lon="5.69873">
        <ele>340.83511834574</ele>
        <time>2014-09-21T14:07:28Z</time>
      </trkpt>
      <trkpt lat="45.82648" lon="5.69876">
        <ele>341.02634629695</ele>
        <time>2014-09-21T14:07:33Z</time>
      </trkpt>
      <trkpt lat="45.82654" lon="5.69884">
        <ele>341.02634629695</ele>
        <time>2014-09-21T14:07:38Z</time>
      </trkpt>
      <trkpt lat="45.82662" lon="5.69894">
        <ele>341.31543895466</ele>
        <time>2014-09-21T14:07:43Z</time>
      </trkpt>
      <trkpt lat="45.82668" lon="5.69901">
        <ele>341.31543895466</ele>
        <time>2014-09-21T14:07:48Z</time>
      </trkpt>
      <trkpt lat="45.82672" lon="5.69908">
        <ele>341.66568017294</ele>
        <time>2014-09-21T14:07:53Z</time>
      </trkpt>
      <trkpt lat="45.82675" lon="5.69915">
        <ele>341.66568017294</ele>
        <time>2014-09-21T14:07:58Z</time>
      </trkpt>
      <trkpt lat="45.8268" lon="5.6992">
        <ele>342.12930741441</ele>
        <time>2014-09-21T14:08:03Z</time>
      </trkpt>
      <trkpt lat="45.82683" lon="5.69925">
        <ele>342.12930741441</ele>
        <time>2014-09-21T14:08:08Z</time>
      </trkpt>
      <trkpt lat="45.82688" lon="5.6993">
        <ele>342.56702519889</ele>
        <time>2014-09-21T14:08:13Z</time>
      </trkpt>
      <trkpt lat="45.82691" lon="5.69935">
        <ele>342.56702519889</ele>
        <time>2014-09-21T14:08:18Z</time>
      </trkpt>
      <trkpt lat="45.82695" lon="5.69937">
        <ele>343.10921636958</ele>
        <time>2014-09-21T14:08:23Z</time>
      </trkpt>
      <trkpt lat="45.82699" lon="5.69937">
        <ele>343.10921636958</ele>
        <time>2014-09-21T14:08:28Z</time>
      </trkpt>
      <trkpt lat="45.82704" lon="5.6994">
        <ele>343.78990536951</ele>
        <time>2014-09-21T14:08:33Z</time>
      </trkpt>
      <trkpt lat="45.8271" lon="5.69943">
        <ele>343.78990536951</ele>
        <time>2014-09-21T14:08:38Z</time>
      </trkpt>
      <trkpt lat="45.82716" lon="5.69947">
        <ele>344.51051428289</ele>
        <time>2014-09-21T14:08:43Z</time>
      </trkpt>
      <trkpt lat="45.82724" lon="5.69957">
        <ele>345.28046469353</ele>
        <time>2014-09-21T14:08:48Z</time>
      </trkpt>
      <trkpt lat="45.82728" lon="5.69962">
        <ele>345.28046469353</ele>
        <time>2014-09-21T14:08:53Z</time>
      </trkpt>
      <trkpt lat="45.82732" lon="5.69967">
        <ele>345.96423519206</ele>
        <time>2014-09-21T14:08:58Z</time>
      </trkpt>
      <trkpt lat="45.82736" lon="5.69973">
        <ele>345.96423519206</ele>
        <time>2014-09-21T14:09:03Z</time>
      </trkpt>
      <trkpt lat="45.8274" lon="5.69977">
        <ele>346.46532832505</ele>
        <time>2014-09-21T14:09:08Z</time>
      </trkpt>
      <trkpt lat="45.82747" lon="5.69984">
        <ele>346.46532832505</ele>
        <time>2014-09-21T14:09:13Z</time>
      </trkpt>
      <trkpt lat="45.82751" lon="5.69989">
        <ele>346.75250169082</ele>
        <time>2014-09-21T14:09:18Z</time>
      </trkpt>
      <trkpt lat="45.82756" lon="5.69996">
        <ele>346.75250169082</ele>
        <time>2014-09-21T14:09:23Z</time>
      </trkpt>
      <trkpt lat="45.82761" lon="5.70003">
        <ele>346.86947647714</ele>
        <time>2014-09-21T14:09:28Z</time>
      </trkpt>
      <trkpt lat="45.82768" lon="5.70012">
        <ele>346.86947647714</ele>
        <time>2014-09-21T14:09:33Z</time>
      </trkpt>
      <trkpt lat="45.82773" lon="5.70019">
        <ele>346.81402072503</ele>
        <time>2014-09-21T14:09:38Z</time>
      </trkpt>
      <trkpt lat="45.82777" lon="5.70025">
        <ele>346.81402072503</ele>
        <time>2014-09-21T14:09:43Z</time>
      </trkpt>
      <trkpt lat="45.82782" lon="5.70032">
        <ele>346.94484307623</ele>
        <time>2014-09-21T14:09:48Z</time>
      </trkpt>
      <trkpt lat="45.82788" lon="5.7004">
        <ele>346.94484307623</ele>
        <time>2014-09-21T14:09:53Z</time>
      </trkpt>
      <trkpt lat="45.82795" lon="5.70051">
        <ele>347.29116072239</ele>
        <time>2014-09-21T14:09:58Z</time>
      </trkpt>
      <trkpt lat="45.828" lon="5.7006">
        <ele>347.29116072239</ele>
        <time>2014-09-21T14:10:03Z</time>
      </trkpt>
      <trkpt lat="45.82804" lon="5.70069">
        <ele>347.7641665557</ele>
        <time>2014-09-21T14:10:08Z</time>
      </trkpt>
      <trkpt lat="45.82807" lon="5.70078">
        <ele>347.7641665557</ele>
        <time>2014-09-21T14:10:13Z</time>
      </trkpt>
      <trkpt lat="45.82812" lon="5.70087">
        <ele>348.46858317251</ele>
        <time>2014-09-21T14:10:18Z</time>
      </trkpt>
      <trkpt lat="45.82815" lon="5.70093">
        <ele>348.46858317251</ele>
        <time>2014-09-21T14:10:23Z</time>
      </trkpt>
      <trkpt lat="45.82818" lon="5.70103">
        <ele>349.29905510878</ele>
        <time>2014-09-21T14:10:28Z</time>
      </trkpt>
      <trkpt lat="45.8282" lon="5.70113">
        <ele>349.29905510878</ele>
        <time>2014-09-21T14:10:33Z</time>
      </trkpt>
      <trkpt lat="45.82822" lon="5.70121">
        <ele>350.11440252415</ele>
        <time>2014-09-21T14:10:38Z</time>
      </trkpt>
      <trkpt lat="45.82824" lon="5.70126">
        <ele>350.11440252415</ele>
        <time>2014-09-21T14:10:43Z</time>
      </trkpt>
      <trkpt lat="45.82828" lon="5.70135">
        <ele>350.95681984909</ele>
        <time>2014-09-21T14:10:48Z</time>
      </trkpt>
      <trkpt lat="45.82832" lon="5.7014">
        <ele>350.95681984909</ele>
        <time>2014-09-21T14:10:53Z</time>
      </trkpt>
      <trkpt lat="45.82836" lon="5.70148">
        <ele>351.82212451653</ele>
        <time>2014-09-21T14:10:58Z</time>
      </trkpt>
      <trkpt lat="45.8284" lon="5.70154">
        <ele>351.82212451653</ele>
        <time>2014-09-21T14:11:03Z</time>
      </trkpt>
      <trkpt lat="45.82844" lon="5.70161">
        <ele>352.66317968969</ele>
        <time>2014-09-21T14:11:08Z</time>
      </trkpt>
      <trkpt lat="45.82849" lon="5.70168">
        <ele>352.66317968969</ele>
        <time>2014-09-21T14:11:13Z</time>
      </trkpt>
      <trkpt lat="45.82858" lon="5.70183">
        <ele>353.40759662745</ele>
        <time>2014-09-21T14:11:18Z</time>
      </trkpt>
      <trkpt lat="45.8286" lon="5.70189">
        <ele>353.40759662745</ele>
        <time>2014-09-21T14:11:23Z</time>
      </trkpt>
      <trkpt lat="45.82864" lon="5.702">
        <ele>354.06067353129</ele>
        <time>2014-09-21T14:11:28Z</time>
      </trkpt>
      <trkpt lat="45.82869" lon="5.70213">
        <ele>354.62762038679</ele>
        <time>2014-09-21T14:11:33Z</time>
      </trkpt>
      <trkpt lat="45.82875" lon="5.70222">
        <ele>354.62762038679</ele>
        <time>2014-09-21T14:11:38Z</time>
      </trkpt>
      <trkpt lat="45.82879" lon="5.70232">
        <ele>355.01267399381</ele>
        <time>2014-09-21T14:11:43Z</time>
      </trkpt>
      <trkpt lat="45.82883" lon="5.70241">
        <ele>355.01267399381</ele>
        <time>2014-09-21T14:11:48Z</time>
      </trkpt>
      <trkpt lat="45.82883" lon="5.7025">
        <ele>355.08442799758</ele>
        <time>2014-09-21T14:11:53Z</time>
      </trkpt>
      <trkpt lat="45.82884" lon="5.70257">
        <ele>355.08442799758</ele>
        <time>2014-09-21T14:11:58Z</time>
      </trkpt>
      <trkpt lat="45.82886" lon="5.70265">
        <ele>354.90939558606</ele>
        <time>2014-09-21T14:12:03Z</time>
      </trkpt>
      <trkpt lat="45.82891" lon="5.70275">
        <ele>354.90939558606</ele>
        <time>2014-09-21T14:12:08Z</time>
      </trkpt>
      <trkpt lat="45.82895" lon="5.70279">
        <ele>354.3770017588</ele>
        <time>2014-09-21T14:12:13Z</time>
      </trkpt>
      <trkpt lat="45.82896" lon="5.70282">
        <ele>354.3770017588</ele>
        <time>2014-09-21T14:12:18Z</time>
      </trkpt>
      <trkpt lat="45.82907" lon="5.70285">
        <ele>353.67405192204</ele>
        <time>2014-09-21T14:12:23Z</time>
      </trkpt>
      <trkpt lat="45.82917" lon="5.70287">
        <ele>352.80119878541</ele>
        <time>2014-09-21T14:12:28Z</time>
      </trkpt>
      <trkpt lat="45.82936" lon="5.70287">
        <ele>351.83159498054</ele>
        <time>2014-09-21T14:12:33Z</time>
      </trkpt>
      <trkpt lat="45.82953" lon="5.7029">
        <ele>350.8477077017</ele>
        <time>2014-09-21T14:12:38Z</time>
      </trkpt>
      <trkpt lat="45.82978" lon="5.70292">
        <ele>349.8251041888</ele>
        <time>2014-09-21T14:12:43Z</time>
      </trkpt>
      <trkpt lat="45.82999" lon="5.70292">
        <ele>348.81329676826</ele>
        <time>2014-09-21T14:12:49Z</time>
      </trkpt>
      <trkpt lat="45.83016" lon="5.70291">
        <ele>347.90134078354</ele>
        <time>2014-09-21T14:12:53Z</time>
      </trkpt>
      <trkpt lat="45.83022" lon="5.70289">
        <ele>347.90134078354</ele>
        <time>2014-09-21T14:12:58Z</time>
      </trkpt>
      <trkpt lat="45.83028" lon="5.70284">
        <ele>347.11379419809</ele>
        <time>2014-09-21T14:13:03Z</time>
      </trkpt>
      <trkpt lat="45.83032" lon="5.70276">
        <ele>347.11379419809</ele>
        <time>2014-09-21T14:13:08Z</time>
      </trkpt>
      <trkpt lat="45.83036" lon="5.70268">
        <ele>346.42979103274</ele>
        <time>2014-09-21T14:13:13Z</time>
      </trkpt>
      <trkpt lat="45.8304" lon="5.70259">
        <ele>346.42979103274</ele>
        <time>2014-09-21T14:13:18Z</time>
      </trkpt>
      <trkpt lat="45.83044" lon="5.70249">
        <ele>346.06024298885</ele>
        <time>2014-09-21T14:13:23Z</time>
      </trkpt>
      <trkpt lat="45.83049" lon="5.70241">
        <ele>346.06024298885</ele>
        <time>2014-09-21T14:13:28Z</time>
      </trkpt>
      <trkpt lat="45.83053" lon="5.70233">
        <ele>345.81054029857</ele>
        <time>2014-09-21T14:13:33Z</time>
      </trkpt>
      <trkpt lat="45.83058" lon="5.70225">
        <ele>345.81054029857</ele>
        <time>2014-09-21T14:13:38Z</time>
      </trkpt>
      <trkpt lat="45.83063" lon="5.70218">
        <ele>345.70174141351</ele>
        <time>2014-09-21T14:13:43Z</time>
      </trkpt>
      <trkpt lat="45.83068" lon="5.70211">
        <ele>345.70174141351</ele>
        <time>2014-09-21T14:13:48Z</time>
      </trkpt>
      <trkpt lat="45.83073" lon="5.70205">
        <ele>345.53674864031</ele>
        <time>2014-09-21T14:13:53Z</time>
      </trkpt>
      <trkpt lat="45.83077" lon="5.70199">
        <ele>345.53674864031</ele>
        <time>2014-09-21T14:13:58Z</time>
      </trkpt>
      <trkpt lat="45.83082" lon="5.70194">
        <ele>345.52215482177</ele>
        <time>2014-09-21T14:14:03Z</time>
      </trkpt>
      <trkpt lat="45.8309" lon="5.70185">
        <ele>345.61833290675</ele>
        <time>2014-09-21T14:14:08Z</time>
      </trkpt>
      <trkpt lat="45.83104" lon="5.70172">
        <ele>345.68733681336</ele>
        <time>2014-09-21T14:14:13Z</time>
      </trkpt>
      <trkpt lat="45.83119" lon="5.70158">
        <ele>345.68785809433</ele>
        <time>2014-09-21T14:14:18Z</time>
      </trkpt>
      <trkpt lat="45.83135" lon="5.70142">
        <ele>345.52413432262</ele>
        <time>2014-09-21T14:14:23Z</time>
      </trkpt>
      <trkpt lat="45.8315" lon="5.70128">
        <ele>345.41049815257</ele>
        <time>2014-09-21T14:14:28Z</time>
      </trkpt>
      <trkpt lat="45.83167" lon="5.70118">
        <ele>345.38684289974</ele>
        <time>2014-09-21T14:14:33Z</time>
      </trkpt>
      <trkpt lat="45.83183" lon="5.70111">
        <ele>345.44661564777</ele>
        <time>2014-09-21T14:14:38Z</time>
      </trkpt>
      <trkpt lat="45.83199" lon="5.70105">
        <ele>345.59789416606</ele>
        <time>2014-09-21T14:14:43Z</time>
      </trkpt>
      <trkpt lat="45.83215" lon="5.70102">
        <ele>346.02081485996</ele>
        <time>2014-09-21T14:14:48Z</time>
      </trkpt>
      <trkpt lat="45.83222" lon="5.70103">
        <ele>346.02081485996</ele>
        <time>2014-09-21T14:14:53Z</time>
      </trkpt>
      <trkpt lat="45.83228" lon="5.70105">
        <ele>346.55004298024</ele>
        <time>2014-09-21T14:14:58Z</time>
      </trkpt>
      <trkpt lat="45.83234" lon="5.70108">
        <ele>346.55004298024</ele>
        <time>2014-09-21T14:15:03Z</time>
      </trkpt>
      <trkpt lat="45.8324" lon="5.70111">
        <ele>347.1329528493</ele>
        <time>2014-09-21T14:15:08Z</time>
      </trkpt>
      <trkpt lat="45.83244" lon="5.70113">
        <ele>347.1329528493</ele>
        <time>2014-09-21T14:15:13Z</time>
      </trkpt>
      <trkpt lat="45.83249" lon="5.70116">
        <ele>347.80709043572</ele>
        <time>2014-09-21T14:15:18Z</time>
      </trkpt>
      <trkpt lat="45.83254" lon="5.70121">
        <ele>347.80709043572</ele>
        <time>2014-09-21T14:15:23Z</time>
      </trkpt>
      <trkpt lat="45.83256" lon="5.70128">
        <ele>348.56375018475</ele>
        <time>2014-09-21T14:15:28Z</time>
      </trkpt>
      <trkpt lat="45.83261" lon="5.70141">
        <ele>349.23611422625</ele>
        <time>2014-09-21T14:15:33Z</time>
      </trkpt>
      <trkpt lat="45.83264" lon="5.7015">
        <ele>349.23611422625</ele>
        <time>2014-09-21T14:15:38Z</time>
      </trkpt>
      <trkpt lat="45.83266" lon="5.70159">
        <ele>349.97249697927</ele>
        <time>2014-09-21T14:15:43Z</time>
      </trkpt>
      <trkpt lat="45.83267" lon="5.7017">
        <ele>349.97249697927</ele>
        <time>2014-09-21T14:15:48Z</time>
      </trkpt>
      <trkpt lat="45.8327" lon="5.7018">
        <ele>351.06867488791</ele>
        <time>2014-09-21T14:15:53Z</time>
      </trkpt>
      <trkpt lat="45.83271" lon="5.70185">
        <ele>351.06867488791</ele>
        <time>2014-09-21T14:15:58Z</time>
      </trkpt>
      <trkpt lat="45.83272" lon="5.70186">
        <ele>351.06867488791</ele>
        <time>2014-09-21T14:16:03Z</time>
      </trkpt>
      <trkpt lat="45.83276" lon="5.70184">
        <ele>352.3509640591</ele>
        <time>2014-09-21T14:16:08Z</time>
      </trkpt>
      <trkpt lat="45.83279" lon="5.70178">
        <ele>352.3509640591</ele>
        <time>2014-09-21T14:16:13Z</time>
      </trkpt>
      <trkpt lat="45.83281" lon="5.7017">
        <ele>353.71559017877</ele>
        <time>2014-09-21T14:16:18Z</time>
      </trkpt>
      <trkpt lat="45.83283" lon="5.70161">
        <ele>353.71559017877</ele>
        <time>2014-09-21T14:16:23Z</time>
      </trkpt>
      <trkpt lat="45.83285" lon="5.70153">
        <ele>355.32560814415</ele>
        <time>2014-09-21T14:16:28Z</time>
      </trkpt>
      <trkpt lat="45.83287" lon="5.70146">
        <ele>355.32560814415</ele>
        <time>2014-09-21T14:16:33Z</time>
      </trkpt>
      <trkpt lat="45.83291" lon="5.70138">
        <ele>356.98558572172</ele>
        <time>2014-09-21T14:16:38Z</time>
      </trkpt>
      <trkpt lat="45.83295" lon="5.70131">
        <ele>356.98558572172</ele>
        <time>2014-09-21T14:16:43Z</time>
      </trkpt>
      <trkpt lat="45.83298" lon="5.70123">
        <ele>358.62965099923</ele>
        <time>2014-09-21T14:16:48Z</time>
      </trkpt>
      <trkpt lat="45.83302" lon="5.70116">
        <ele>358.62965099923</ele>
        <time>2014-09-21T14:16:53Z</time>
      </trkpt>
      <trkpt lat="45.83307" lon="5.70109">
        <ele>360.24011314149</ele>
        <time>2014-09-21T14:16:58Z</time>
      </trkpt>
      <trkpt lat="45.83312" lon="5.70103">
        <ele>360.24011314149</ele>
        <time>2014-09-21T14:17:03Z</time>
      </trkpt>
      <trkpt lat="45.83317" lon="5.70095">
        <ele>361.84398110402</ele>
        <time>2014-09-21T14:17:08Z</time>
      </trkpt>
      <trkpt lat="45.83322" lon="5.70089">
        <ele>361.84398110402</ele>
        <time>2014-09-21T14:17:13Z</time>
      </trkpt>
      <trkpt lat="45.83329" lon="5.70084">
        <ele>363.40873389411</ele>
        <time>2014-09-21T14:17:18Z</time>
      </trkpt>
      <trkpt lat="45.83335" lon="5.7008">
        <ele>363.40873389411</ele>
        <time>2014-09-21T14:17:23Z</time>
      </trkpt>
      <trkpt lat="45.83341" lon="5.70074">
        <ele>364.93325796649</ele>
        <time>2014-09-21T14:17:28Z</time>
      </trkpt>
      <trkpt lat="45.83346" lon="5.70067">
        <ele>364.93325796649</ele>
        <time>2014-09-21T14:17:33Z</time>
      </trkpt>
      <trkpt lat="45.83351" lon="5.7006">
        <ele>366.35908178751</ele>
        <time>2014-09-21T14:17:38Z</time>
      </trkpt>
      <trkpt lat="45.83355" lon="5.70052">
        <ele>366.35908178751</ele>
        <time>2014-09-21T14:17:43Z</time>
      </trkpt>
      <trkpt lat="45.83361" lon="5.70043">
        <ele>367.8197467206</ele>
        <time>2014-09-21T14:17:48Z</time>
      </trkpt>
      <trkpt lat="45.83368" lon="5.70036">
        <ele>367.8197467206</ele>
        <time>2014-09-21T14:17:53Z</time>
      </trkpt>
      <trkpt lat="45.83374" lon="5.70029">
        <ele>369.26605278044</ele>
        <time>2014-09-21T14:17:58Z</time>
      </trkpt>
      <trkpt lat="45.83377" lon="5.70025">
        <ele>369.26605278044</ele>
        <time>2014-09-21T14:18:03Z</time>
      </trkpt>
      <trkpt lat="45.8338" lon="5.70025">
        <ele>369.26605278044</ele>
        <time>2014-09-21T14:18:08Z</time>
      </trkpt>
      <trkpt lat="45.83386" lon="5.70029">
        <ele>370.76784583945</ele>
        <time>2014-09-21T14:18:13Z</time>
      </trkpt>
      <trkpt lat="45.83396" lon="5.70034">
        <ele>372.26008989033</ele>
        <time>2014-09-21T14:18:18Z</time>
      </trkpt>
      <trkpt lat="45.83403" lon="5.70034">
        <ele>372.26008989033</ele>
        <time>2014-09-21T14:18:23Z</time>
      </trkpt>
      <trkpt lat="45.8341" lon="5.70035">
        <ele>373.76912647012</ele>
        <time>2014-09-21T14:18:28Z</time>
      </trkpt>
      <trkpt lat="45.83415" lon="5.70032">
        <ele>373.76912647012</ele>
        <time>2014-09-21T14:18:33Z</time>
      </trkpt>
      <trkpt lat="45.83425" lon="5.70031">
        <ele>375.26177854212</ele>
        <time>2014-09-21T14:18:38Z</time>
      </trkpt>
      <trkpt lat="45.83432" lon="5.70031">
        <ele>375.26177854212</ele>
        <time>2014-09-21T14:18:43Z</time>
      </trkpt>
      <trkpt lat="45.83437" lon="5.70031">
        <ele>377.02450638281</ele>
        <time>2014-09-21T14:18:48Z</time>
      </trkpt>
      <trkpt lat="45.83444" lon="5.7003">
        <ele>377.02450638281</ele>
        <time>2014-09-21T14:18:53Z</time>
      </trkpt>
      <trkpt lat="45.8345" lon="5.7003">
        <ele>378.7312246406</ele>
        <time>2014-09-21T14:18:58Z</time>
      </trkpt>
      <trkpt lat="45.83459" lon="5.7003">
        <ele>378.7312246406</ele>
        <time>2014-09-21T14:19:03Z</time>
      </trkpt>
      <trkpt lat="45.83466" lon="5.7003">
        <ele>380.65651658375</ele>
        <time>2014-09-21T14:19:08Z</time>
      </trkpt>
      <trkpt lat="45.8347" lon="5.70032">
        <ele>380.65651658375</ele>
        <time>2014-09-21T14:19:13Z</time>
      </trkpt>
      <trkpt lat="45.8347" lon="5.70032">
        <ele>380.65651658375</ele>
        <time>2014-09-21T14:19:18Z</time>
      </trkpt>
      <trkpt lat="45.83471" lon="5.70032">
        <ele>380.65651658375</ele>
        <time>2014-09-21T14:19:23Z</time>
      </trkpt>
      <trkpt lat="45.83475" lon="5.70035">
        <ele>382.56431839496</ele>
        <time>2014-09-21T14:19:28Z</time>
      </trkpt>
      <trkpt lat="45.83477" lon="5.70036">
        <ele>382.56431839496</ele>
        <time>2014-09-21T14:19:33Z</time>
      </trkpt>
      <trkpt lat="45.83478" lon="5.70036">
        <ele>382.56431839496</ele>
        <time>2014-09-21T14:19:38Z</time>
      </trkpt>
      <trkpt lat="45.83479" lon="5.70039">
        <ele>382.56431839496</ele>
        <time>2014-09-21T14:20:18Z</time>
      </trkpt>
      <trkpt lat="45.83479" lon="5.70039">
        <ele>382.56431839496</ele>
        <time>2014-09-21T14:20:23Z</time>
      </trkpt>
      <trkpt lat="45.8348" lon="5.70039">
        <ele>382.56431839496</ele>
        <time>2014-09-21T14:20:28Z</time>
      </trkpt>
      <trkpt lat="45.83483" lon="5.70039">
        <ele>384.5098846438</ele>
        <time>2014-09-21T14:20:33Z</time>
      </trkpt>
      <trkpt lat="45.83489" lon="5.70039">
        <ele>384.5098846438</ele>
        <time>2014-09-21T14:20:38Z</time>
      </trkpt>
      <trkpt lat="45.83494" lon="5.7004">
        <ele>386.29943481016</ele>
        <time>2014-09-21T14:20:43Z</time>
      </trkpt>
      <trkpt lat="45.83501" lon="5.70042">
        <ele>386.29943481016</ele>
        <time>2014-09-21T14:20:48Z</time>
      </trkpt>
      <trkpt lat="45.83508" lon="5.70044">
        <ele>387.88368098201</ele>
        <time>2014-09-21T14:20:53Z</time>
      </trkpt>
      <trkpt lat="45.83515" lon="5.70049">
        <ele>387.88368098201</ele>
        <time>2014-09-21T14:20:58Z</time>
      </trkpt>
      <trkpt lat="45.8352" lon="5.70051">
        <ele>389.30411823753</ele>
        <time>2014-09-21T14:21:03Z</time>
      </trkpt>
      <trkpt lat="45.83527" lon="5.70056">
        <ele>389.30411823753</ele>
        <time>2014-09-21T14:21:08Z</time>
      </trkpt>
      <trkpt lat="45.83533" lon="5.7006">
        <ele>390.47007073947</ele>
        <time>2014-09-21T14:21:13Z</time>
      </trkpt>
      <trkpt lat="45.83539" lon="5.70064">
        <ele>390.47007073947</ele>
        <time>2014-09-21T14:21:18Z</time>
      </trkpt>
      <trkpt lat="45.83547" lon="5.70069">
        <ele>391.38481822128</ele>
        <time>2014-09-21T14:21:23Z</time>
      </trkpt>
      <trkpt lat="45.83559" lon="5.70074">
        <ele>391.86486754075</ele>
        <time>2014-09-21T14:21:28Z</time>
      </trkpt>
      <trkpt lat="45.83563" lon="5.70074">
        <ele>391.86486754075</ele>
        <time>2014-09-21T14:21:33Z</time>
      </trkpt>
      <trkpt lat="45.8357" lon="5.70078">
        <ele>391.97210159411</ele>
        <time>2014-09-21T14:21:38Z</time>
      </trkpt>
      <trkpt lat="45.83575" lon="5.70082">
        <ele>391.97210159411</ele>
        <time>2014-09-21T14:21:43Z</time>
      </trkpt>
      <trkpt lat="45.83583" lon="5.70085">
        <ele>391.98115890476</ele>
        <time>2014-09-21T14:21:48Z</time>
      </trkpt>
      <trkpt lat="45.8359" lon="5.70089">
        <ele>391.98115890476</ele>
        <time>2014-09-21T14:21:53Z</time>
      </trkpt>
      <trkpt lat="45.83597" lon="5.70092">
        <ele>391.9018663025</ele>
        <time>2014-09-21T14:21:58Z</time>
      </trkpt>
      <trkpt lat="45.83605" lon="5.70095">
        <ele>391.9018663025</ele>
        <time>2014-09-21T14:22:03Z</time>
      </trkpt>
      <trkpt lat="45.83614" lon="5.70098">
        <ele>391.93098476066</ele>
        <time>2014-09-21T14:22:08Z</time>
      </trkpt>
      <trkpt lat="45.83622" lon="5.701">
        <ele>391.93098476066</ele>
        <time>2014-09-21T14:22:13Z</time>
      </trkpt>
      <trkpt lat="45.83629" lon="5.70103">
        <ele>391.89028985116</ele>
        <time>2014-09-21T14:22:18Z</time>
      </trkpt>
      <trkpt lat="45.83637" lon="5.70105">
        <ele>391.89028985116</ele>
        <time>2014-09-21T14:22:23Z</time>
      </trkpt>
      <trkpt lat="45.83645" lon="5.70108">
        <ele>391.85987243691</ele>
        <time>2014-09-21T14:22:28Z</time>
      </trkpt>
      <trkpt lat="45.83653" lon="5.70112">
        <ele>391.85987243691</ele>
        <time>2014-09-21T14:22:33Z</time>
      </trkpt>
      <trkpt lat="45.83659" lon="5.70115">
        <ele>391.69777075107</ele>
        <time>2014-09-21T14:22:38Z</time>
      </trkpt>
      <trkpt lat="45.83666" lon="5.7012">
        <ele>391.69777075107</ele>
        <time>2014-09-21T14:22:43Z</time>
      </trkpt>
      <trkpt lat="45.83668" lon="5.70123">
        <ele>391.47459162809</ele>
        <time>2014-09-21T14:22:48Z</time>
      </trkpt>
      <trkpt lat="45.83668" lon="5.70125">
        <ele>391.47459162809</ele>
        <time>2014-09-21T14:22:53Z</time>
      </trkpt>
      <trkpt lat="45.83671" lon="5.70124">
        <ele>391.47459162809</ele>
        <time>2014-09-21T14:23:08Z</time>
      </trkpt>
      <trkpt lat="45.83675" lon="5.70117">
        <ele>391.19828620702</ele>
        <time>2014-09-21T14:23:13Z</time>
      </trkpt>
      <trkpt lat="45.83681" lon="5.70112">
        <ele>391.19828620702</ele>
        <time>2014-09-21T14:23:18Z</time>
      </trkpt>
      <trkpt lat="45.83689" lon="5.70111">
        <ele>391.03488664104</ele>
        <time>2014-09-21T14:23:23Z</time>
      </trkpt>
      <trkpt lat="45.83696" lon="5.70113">
        <ele>391.03488664104</ele>
        <time>2014-09-21T14:23:28Z</time>
      </trkpt>
      <trkpt lat="45.83705" lon="5.70117">
        <ele>390.83526216086</ele>
        <time>2014-09-21T14:23:33Z</time>
      </trkpt>
      <trkpt lat="45.83712" lon="5.7012">
        <ele>390.83526216086</ele>
        <time>2014-09-21T14:23:38Z</time>
      </trkpt>
      <trkpt lat="45.8372" lon="5.70124">
        <ele>390.6342468626</ele>
        <time>2014-09-21T14:23:43Z</time>
      </trkpt>
      <trkpt lat="45.83727" lon="5.70128">
        <ele>390.6342468626</ele>
        <time>2014-09-21T14:23:48Z</time>
      </trkpt>
      <trkpt lat="45.83733" lon="5.70131">
        <ele>390.43526415375</ele>
        <time>2014-09-21T14:23:53Z</time>
      </trkpt>
      <trkpt lat="45.83738" lon="5.70134">
        <ele>390.43526415375</ele>
        <time>2014-09-21T14:23:58Z</time>
      </trkpt>
      <trkpt lat="45.83745" lon="5.70136">
        <ele>390.05409452158</ele>
        <time>2014-09-21T14:24:03Z</time>
      </trkpt>
      <trkpt lat="45.83753" lon="5.70138">
        <ele>390.05409452158</ele>
        <time>2014-09-21T14:24:08Z</time>
      </trkpt>
      <trkpt lat="45.83755" lon="5.70139">
        <ele>389.56550244292</ele>
        <time>2014-09-21T14:24:13Z</time>
      </trkpt>
      <trkpt lat="45.83757" lon="5.70135">
        <ele>389.56550244292</ele>
        <time>2014-09-21T14:24:33Z</time>
      </trkpt>
      <trkpt lat="45.83763" lon="5.7013">
        <ele>389.08223889799</ele>
        <time>2014-09-21T14:24:38Z</time>
      </trkpt>
      <trkpt lat="45.83768" lon="5.70123">
        <ele>389.08223889799</ele>
        <time>2014-09-21T14:24:43Z</time>
      </trkpt>
      <trkpt lat="45.83773" lon="5.70117">
        <ele>388.72310543422</ele>
        <time>2014-09-21T14:24:48Z</time>
      </trkpt>
      <trkpt lat="45.83778" lon="5.7011">
        <ele>388.72310543422</ele>
        <time>2014-09-21T14:24:53Z</time>
      </trkpt>
      <trkpt lat="45.83783" lon="5.70103">
        <ele>388.39600322626</ele>
        <time>2014-09-21T14:24:58Z</time>
      </trkpt>
      <trkpt lat="45.83788" lon="5.70097">
        <ele>388.39600322626</ele>
        <time>2014-09-21T14:25:03Z</time>
      </trkpt>
      <trkpt lat="45.83794" lon="5.70089">
        <ele>388.07307858362</ele>
        <time>2014-09-21T14:25:08Z</time>
      </trkpt>
      <trkpt lat="45.83799" lon="5.70082">
        <ele>388.07307858362</ele>
        <time>2014-09-21T14:25:13Z</time>
      </trkpt>
      <trkpt lat="45.83804" lon="5.70075">
        <ele>387.65637687011</ele>
        <time>2014-09-21T14:25:18Z</time>
      </trkpt>
      <trkpt lat="45.83805" lon="5.70073">
        <ele>387.65637687011</ele>
        <time>2014-09-21T14:25:23Z</time>
      </trkpt>
      <trkpt lat="45.83811" lon="5.70063">
        <ele>386.99767352636</ele>
        <time>2014-09-21T14:25:43Z</time>
      </trkpt>
      <trkpt lat="45.83824" lon="5.70041">
        <ele>386.30608956074</ele>
        <time>2014-09-21T14:25:48Z</time>
      </trkpt>
      <trkpt lat="45.83835" lon="5.70027">
        <ele>385.57362749563</ele>
        <time>2014-09-21T14:25:53Z</time>
      </trkpt>
      <trkpt lat="45.83837" lon="5.70023">
        <ele>385.57362749563</ele>
        <time>2014-09-21T14:25:58Z</time>
      </trkpt>
      <trkpt lat="45.83834" lon="5.7003">
        <ele>385.57362749563</ele>
        <time>2014-09-21T14:26:03Z</time>
      </trkpt>
      <trkpt lat="45.83826" lon="5.70044">
        <ele>384.74966064247</ele>
        <time>2014-09-21T14:26:08Z</time>
      </trkpt>
      <trkpt lat="45.83821" lon="5.70054">
        <ele>384.74966064247</ele>
        <time>2014-09-21T14:26:13Z</time>
      </trkpt>
      <trkpt lat="45.83816" lon="5.70063">
        <ele>383.90272410943</ele>
        <time>2014-09-21T14:26:18Z</time>
      </trkpt>
      <trkpt lat="45.8381" lon="5.70071">
        <ele>383.90272410943</ele>
        <time>2014-09-21T14:26:23Z</time>
      </trkpt>
      <trkpt lat="45.83806" lon="5.70079">
        <ele>383.11068678167</ele>
        <time>2014-09-21T14:26:28Z</time>
      </trkpt>
      <trkpt lat="45.83801" lon="5.70087">
        <ele>383.11068678167</ele>
        <time>2014-09-21T14:26:33Z</time>
      </trkpt>
      <trkpt lat="45.83796" lon="5.70095">
        <ele>382.38778782027</ele>
        <time>2014-09-21T14:26:38Z</time>
      </trkpt>
      <trkpt lat="45.83792" lon="5.70104">
        <ele>382.38778782027</ele>
        <time>2014-09-21T14:26:43Z</time>
      </trkpt>
      <trkpt lat="45.83787" lon="5.70112">
        <ele>381.70367894744</ele>
        <time>2014-09-21T14:26:49Z</time>
      </trkpt>
      <trkpt lat="45.83781" lon="5.7012">
        <ele>381.70367894744</ele>
        <time>2014-09-21T14:26:53Z</time>
      </trkpt>
      <trkpt lat="45.83774" lon="5.70127">
        <ele>381.10207179103</ele>
        <time>2014-09-21T14:26:58Z</time>
      </trkpt>
      <trkpt lat="45.83769" lon="5.70135">
        <ele>381.10207179103</ele>
        <time>2014-09-21T14:27:03Z</time>
      </trkpt>
      <trkpt lat="45.83764" lon="5.70142">
        <ele>380.69517402436</ele>
        <time>2014-09-21T14:27:08Z</time>
      </trkpt>
      <trkpt lat="45.83761" lon="5.70143">
        <ele>380.69517402436</ele>
        <time>2014-09-21T14:27:13Z</time>
      </trkpt>
      <trkpt lat="45.83755" lon="5.70143">
        <ele>380.24042062665</ele>
        <time>2014-09-21T14:27:24Z</time>
      </trkpt>
      <trkpt lat="45.83747" lon="5.70141">
        <ele>380.24042062665</ele>
        <time>2014-09-21T14:27:28Z</time>
      </trkpt>
      <trkpt lat="45.83745" lon="5.70142">
        <ele>379.90218389307</ele>
        <time>2014-09-21T14:27:34Z</time>
      </trkpt>
      <trkpt lat="45.83743" lon="5.70149">
        <ele>379.90218389307</ele>
        <time>2014-09-21T14:27:38Z</time>
      </trkpt>
      <trkpt lat="45.83743" lon="5.70157">
        <ele>379.65938758008</ele>
        <time>2014-09-21T14:27:43Z</time>
      </trkpt>
      <trkpt lat="45.83744" lon="5.70167">
        <ele>379.65938758008</ele>
        <time>2014-09-21T14:27:49Z</time>
      </trkpt>
      <trkpt lat="45.83744" lon="5.70176">
        <ele>379.4056585497</ele>
        <time>2014-09-21T14:27:53Z</time>
      </trkpt>
      <trkpt lat="45.83742" lon="5.70186">
        <ele>379.4056585497</ele>
        <time>2014-09-21T14:27:58Z</time>
      </trkpt>
      <trkpt lat="45.83738" lon="5.70193">
        <ele>379.11441659822</ele>
        <time>2014-09-21T14:28:03Z</time>
      </trkpt>
      <trkpt lat="45.83736" lon="5.70196">
        <ele>379.11441659822</ele>
        <time>2014-09-21T14:28:08Z</time>
      </trkpt>
      <trkpt lat="45.83736" lon="5.70202">
        <ele>379.11441659822</ele>
        <time>2014-09-21T14:28:18Z</time>
      </trkpt>
      <trkpt lat="45.83736" lon="5.70209">
        <ele>378.93396911744</ele>
        <time>2014-09-21T14:28:23Z</time>
      </trkpt>
      <trkpt lat="45.83735" lon="5.70212">
        <ele>378.93396911744</ele>
        <time>2014-09-21T14:28:28Z</time>
      </trkpt>
      <trkpt lat="45.83741" lon="5.70218">
        <ele>378.93396911744</ele>
        <time>2014-09-21T14:28:33Z</time>
      </trkpt>
      <trkpt lat="45.83746" lon="5.70226">
        <ele>378.3239953022</ele>
        <time>2014-09-21T14:28:38Z</time>
      </trkpt>
      <trkpt lat="45.83749" lon="5.70236">
        <ele>378.3239953022</ele>
        <time>2014-09-21T14:28:43Z</time>
      </trkpt>
      <trkpt lat="45.83748" lon="5.70248">
        <ele>377.7072849606</ele>
        <time>2014-09-21T14:28:49Z</time>
      </trkpt>
      <trkpt lat="45.83749" lon="5.7026">
        <ele>377.7072849606</ele>
        <time>2014-09-21T14:28:53Z</time>
      </trkpt>
      <trkpt lat="45.83749" lon="5.7027">
        <ele>376.98551554251</ele>
        <time>2014-09-21T14:28:58Z</time>
      </trkpt>
      <trkpt lat="45.83748" lon="5.70282">
        <ele>376.98551554251</ele>
        <time>2014-09-21T14:29:03Z</time>
      </trkpt>
      <trkpt lat="45.83746" lon="5.70293">
        <ele>376.02455409296</ele>
        <time>2014-09-21T14:29:08Z</time>
      </trkpt>
      <trkpt lat="45.83746" lon="5.70303">
        <ele>376.02455409296</ele>
        <time>2014-09-21T14:29:13Z</time>
      </trkpt>
      <trkpt lat="45.83744" lon="5.70315">
        <ele>374.96009740452</ele>
        <time>2014-09-21T14:29:18Z</time>
      </trkpt>
      <trkpt lat="45.83743" lon="5.70327">
        <ele>374.96009740452</ele>
        <time>2014-09-21T14:29:23Z</time>
      </trkpt>
      <trkpt lat="45.83743" lon="5.70337">
        <ele>373.81719102097</ele>
        <time>2014-09-21T14:29:28Z</time>
      </trkpt>
      <trkpt lat="45.83741" lon="5.7035">
        <ele>373.81719102097</ele>
        <time>2014-09-21T14:29:33Z</time>
      </trkpt>
      <trkpt lat="45.8374" lon="5.70364">
        <ele>372.63357475771</ele>
        <time>2014-09-21T14:29:38Z</time>
      </trkpt>
      <trkpt lat="45.8374" lon="5.70375">
        <ele>372.63357475771</ele>
        <time>2014-09-21T14:29:43Z</time>
      </trkpt>
      <trkpt lat="45.83741" lon="5.70386">
        <ele>371.48746474999</ele>
        <time>2014-09-21T14:29:48Z</time>
      </trkpt>
      <trkpt lat="45.83742" lon="5.70398">
        <ele>371.48746474999</ele>
        <time>2014-09-21T14:29:53Z</time>
      </trkpt>
      <trkpt lat="45.83742" lon="5.70409">
        <ele>370.36465896364</ele>
        <time>2014-09-21T14:29:58Z</time>
      </trkpt>
      <trkpt lat="45.83743" lon="5.70421">
        <ele>370.36465896364</ele>
        <time>2014-09-21T14:30:03Z</time>
      </trkpt>
      <trkpt lat="45.83744" lon="5.70433">
        <ele>369.32388714381</ele>
        <time>2014-09-21T14:30:08Z</time>
      </trkpt>
      <trkpt lat="45.83745" lon="5.70445">
        <ele>369.32388714381</ele>
        <time>2014-09-21T14:30:13Z</time>
      </trkpt>
      <trkpt lat="45.83746" lon="5.70455">
        <ele>368.30394346876</ele>
        <time>2014-09-21T14:30:18Z</time>
      </trkpt>
      <trkpt lat="45.83746" lon="5.70467">
        <ele>368.30394346876</ele>
        <time>2014-09-21T14:30:23Z</time>
      </trkpt>
      <trkpt lat="45.83746" lon="5.70476">
        <ele>367.19031304585</ele>
        <time>2014-09-21T14:30:28Z</time>
      </trkpt>
      <trkpt lat="45.83746" lon="5.70485">
        <ele>367.19031304585</ele>
        <time>2014-09-21T14:30:33Z</time>
      </trkpt>
      <trkpt lat="45.83746" lon="5.70496">
        <ele>365.8482314085</ele>
        <time>2014-09-21T14:30:38Z</time>
      </trkpt>
      <trkpt lat="45.83747" lon="5.70507">
        <ele>365.8482314085</ele>
        <time>2014-09-21T14:30:43Z</time>
      </trkpt>
      <trkpt lat="45.83748" lon="5.70519">
        <ele>364.48482790029</ele>
        <time>2014-09-21T14:30:48Z</time>
      </trkpt>
      <trkpt lat="45.83749" lon="5.70528">
        <ele>364.48482790029</ele>
        <time>2014-09-21T14:30:53Z</time>
      </trkpt>
      <trkpt lat="45.83749" lon="5.70529">
        <ele>364.48482790029</ele>
        <time>2014-09-21T14:30:58Z</time>
      </trkpt>
      <trkpt lat="45.83749" lon="5.70528">
        <ele>364.48482790029</ele>
        <time>2014-09-21T14:31:04Z</time>
      </trkpt>
      <trkpt lat="45.83748" lon="5.70526">
        <ele>364.48482790029</ele>
        <time>2014-09-21T14:31:13Z</time>
      </trkpt>
      <trkpt lat="45.83748" lon="5.70526">
        <ele>362.85963921317</ele>
        <time>2014-09-21T14:31:18Z</time>
      </trkpt>
      <trkpt lat="45.83747" lon="5.70526">
        <ele>362.85963921317</ele>
        <time>2014-09-21T14:32:03Z</time>
      </trkpt>
      <trkpt lat="45.83747" lon="5.70526">
        <ele>362.85963921317</ele>
        <time>2014-09-21T14:32:08Z</time>
      </trkpt>
      <trkpt lat="45.83747" lon="5.70527">
        <ele>362.85963921317</ele>
        <time>2014-09-21T14:32:13Z</time>
      </trkpt>
      <trkpt lat="45.83746" lon="5.70528">
        <ele>362.85963921317</ele>
        <time>2014-09-21T14:32:18Z</time>
      </trkpt>
      <trkpt lat="45.83746" lon="5.70528">
        <ele>362.85963921317</ele>
        <time>2014-09-21T14:32:23Z</time>
      </trkpt>
      <trkpt lat="45.83749" lon="5.70532">
        <ele>362.85963921317</ele>
        <time>2014-09-21T14:32:48Z</time>
      </trkpt>
      <trkpt lat="45.83749" lon="5.70541">
        <ele>360.89460642807</ele>
        <time>2014-09-21T14:32:54Z</time>
      </trkpt>
      <trkpt lat="45.8375" lon="5.7055">
        <ele>360.89460642807</ele>
        <time>2014-09-21T14:32:59Z</time>
      </trkpt>
      <trkpt lat="45.83751" lon="5.70561">
        <ele>359.06587240754</ele>
        <time>2014-09-21T14:33:03Z</time>
      </trkpt>
      <trkpt lat="45.83755" lon="5.70571">
        <ele>359.06587240754</ele>
        <time>2014-09-21T14:33:08Z</time>
      </trkpt>
      <trkpt lat="45.83759" lon="5.70577">
        <ele>357.38177580344</ele>
        <time>2014-09-21T14:33:13Z</time>
      </trkpt>
      <trkpt lat="45.83766" lon="5.70573">
        <ele>357.38177580344</ele>
        <time>2014-09-21T14:33:18Z</time>
      </trkpt>
      <trkpt lat="45.83774" lon="5.70568">
        <ele>355.7918784886</ele>
        <time>2014-09-21T14:33:23Z</time>
      </trkpt>
      <trkpt lat="45.8378" lon="5.70563">
        <ele>355.7918784886</ele>
        <time>2014-09-21T14:33:29Z</time>
      </trkpt>
      <trkpt lat="45.83787" lon="5.70558">
        <ele>354.23465612879</ele>
        <time>2014-09-21T14:33:34Z</time>
      </trkpt>
      <trkpt lat="45.83794" lon="5.70555">
        <ele>354.23465612879</ele>
        <time>2014-09-21T14:33:38Z</time>
      </trkpt>
      <trkpt lat="45.838" lon="5.70551">
        <ele>352.7825957457</ele>
        <time>2014-09-21T14:33:43Z</time>
      </trkpt>
      <trkpt lat="45.83807" lon="5.70546">
        <ele>352.7825957457</ele>
        <time>2014-09-21T14:33:48Z</time>
      </trkpt>
      <trkpt lat="45.83815" lon="5.70541">
        <ele>351.30069264546</ele>
        <time>2014-09-21T14:33:54Z</time>
      </trkpt>
      <trkpt lat="45.83822" lon="5.70537">
        <ele>351.30069264546</ele>
        <time>2014-09-21T14:33:59Z</time>
      </trkpt>
      <trkpt lat="45.83824" lon="5.70537">
        <ele>349.93763947056</ele>
        <time>2014-09-21T14:34:03Z</time>
      </trkpt>
      <trkpt lat="45.8384" lon="5.70526">
        <ele>348.84517106369</ele>
        <time>2014-09-21T14:34:09Z</time>
      </trkpt>
      <trkpt lat="45.83849" lon="5.70521">
        <ele>347.88919641663</ele>
        <time>2014-09-21T14:34:13Z</time>
      </trkpt>
      <trkpt lat="45.83853" lon="5.70516">
        <ele>347.88919641663</ele>
        <time>2014-09-21T14:34:18Z</time>
      </trkpt>
      <trkpt lat="45.83858" lon="5.70511">
        <ele>347.04586508984</ele>
        <time>2014-09-21T14:34:23Z</time>
      </trkpt>
      <trkpt lat="45.83862" lon="5.70514">
        <ele>347.04586508984</ele>
        <time>2014-09-21T14:34:28Z</time>
      </trkpt>
      <trkpt lat="45.83866" lon="5.70524">
        <ele>346.4800088145</ele>
        <time>2014-09-21T14:34:33Z</time>
      </trkpt>
      <trkpt lat="45.83867" lon="5.70525">
        <ele>346.4800088145</ele>
        <time>2014-09-21T14:34:38Z</time>
      </trkpt>
      <trkpt lat="45.83869" lon="5.70527">
        <ele>346.4800088145</ele>
        <time>2014-09-21T14:34:43Z</time>
      </trkpt>
      <trkpt lat="45.83875" lon="5.70522">
        <ele>346.01202585076</ele>
        <time>2014-09-21T14:34:49Z</time>
      </trkpt>
      <trkpt lat="45.83878" lon="5.70512">
        <ele>346.01202585076</ele>
        <time>2014-09-21T14:34:54Z</time>
      </trkpt>
      <trkpt lat="45.8388" lon="5.70501">
        <ele>345.72013993671</ele>
        <time>2014-09-21T14:34:58Z</time>
      </trkpt>
      <trkpt lat="45.83884" lon="5.70491">
        <ele>345.72013993671</ele>
        <time>2014-09-21T14:35:03Z</time>
      </trkpt>
      <trkpt lat="45.83888" lon="5.70481">
        <ele>345.54656161897</ele>
        <time>2014-09-21T14:35:08Z</time>
      </trkpt>
      <trkpt lat="45.83892" lon="5.70472">
        <ele>345.54656161897</ele>
        <time>2014-09-21T14:35:13Z</time>
      </trkpt>
      <trkpt lat="45.83896" lon="5.70463">
        <ele>345.59587463927</ele>
        <time>2014-09-21T14:35:18Z</time>
      </trkpt>
      <trkpt lat="45.839" lon="5.70455">
        <ele>345.59587463927</ele>
        <time>2014-09-21T14:35:23Z</time>
      </trkpt>
      <trkpt lat="45.83905" lon="5.70446">
        <ele>345.80578132302</ele>
        <time>2014-09-21T14:35:28Z</time>
      </trkpt>
      <trkpt lat="45.8391" lon="5.70438">
        <ele>345.80578132302</ele>
        <time>2014-09-21T14:35:33Z</time>
      </trkpt>
      <trkpt lat="45.83914" lon="5.70431">
        <ele>346.13248159016</ele>
        <time>2014-09-21T14:35:38Z</time>
      </trkpt>
      <trkpt lat="45.83915" lon="5.70428">
        <ele>346.13248159016</ele>
        <time>2014-09-21T14:35:43Z</time>
      </trkpt>
      <trkpt lat="45.83918" lon="5.70422">
        <ele>346.13248159016</ele>
        <time>2014-09-21T14:35:49Z</time>
      </trkpt>
      <trkpt lat="45.83926" lon="5.70408">
        <ele>346.73679414961</ele>
        <time>2014-09-21T14:35:53Z</time>
      </trkpt>
      <trkpt lat="45.83932" lon="5.70398">
        <ele>347.36342030059</ele>
        <time>2014-09-21T14:35:58Z</time>
      </trkpt>
      <trkpt lat="45.83937" lon="5.7039">
        <ele>347.36342030059</ele>
        <time>2014-09-21T14:36:03Z</time>
      </trkpt>
      <trkpt lat="45.83942" lon="5.70383">
        <ele>348.10720813526</ele>
        <time>2014-09-21T14:36:08Z</time>
      </trkpt>
      <trkpt lat="45.83947" lon="5.70375">
        <ele>348.10720813526</ele>
        <time>2014-09-21T14:36:13Z</time>
      </trkpt>
      <trkpt lat="45.8395" lon="5.70368">
        <ele>348.95484479046</ele>
        <time>2014-09-21T14:36:18Z</time>
      </trkpt>
      <trkpt lat="45.83953" lon="5.70362">
        <ele>348.95484479046</ele>
        <time>2014-09-21T14:36:23Z</time>
      </trkpt>
      <trkpt lat="45.83958" lon="5.70355">
        <ele>349.87931921393</ele>
        <time>2014-09-21T14:36:28Z</time>
      </trkpt>
      <trkpt lat="45.83962" lon="5.70347">
        <ele>349.87931921393</ele>
        <time>2014-09-21T14:36:33Z</time>
      </trkpt>
      <trkpt lat="45.83965" lon="5.70339">
        <ele>350.88425045708</ele>
        <time>2014-09-21T14:36:39Z</time>
      </trkpt>
      <trkpt lat="45.83969" lon="5.70333">
        <ele>350.88425045708</ele>
        <time>2014-09-21T14:36:43Z</time>
      </trkpt>
      <trkpt lat="45.83976" lon="5.70327">
        <ele>351.97281780235</ele>
        <time>2014-09-21T14:36:48Z</time>
      </trkpt>
      <trkpt lat="45.8398" lon="5.70319">
        <ele>351.97281780235</ele>
        <time>2014-09-21T14:36:54Z</time>
      </trkpt>
      <trkpt lat="45.83984" lon="5.70311">
        <ele>353.17661862151</ele>
        <time>2014-09-21T14:36:58Z</time>
      </trkpt>
      <trkpt lat="45.83989" lon="5.70304">
        <ele>353.17661862151</ele>
        <time>2014-09-21T14:37:03Z</time>
      </trkpt>
      <trkpt lat="45.83994" lon="5.70296">
        <ele>354.42380388834</ele>
        <time>2014-09-21T14:37:08Z</time>
      </trkpt>
      <trkpt lat="45.83998" lon="5.70288">
        <ele>354.42380388834</ele>
        <time>2014-09-21T14:37:13Z</time>
      </trkpt>
      <trkpt lat="45.84003" lon="5.70278">
        <ele>355.64776784628</ele>
        <time>2014-09-21T14:37:18Z</time>
      </trkpt>
      <trkpt lat="45.84007" lon="5.70274">
        <ele>355.64776784628</ele>
        <time>2014-09-21T14:37:23Z</time>
      </trkpt>
      <trkpt lat="45.84013" lon="5.70277">
        <ele>356.71490430128</ele>
        <time>2014-09-21T14:37:28Z</time>
      </trkpt>
      <trkpt lat="45.84017" lon="5.70281">
        <ele>356.71490430128</ele>
        <time>2014-09-21T14:37:33Z</time>
      </trkpt>
      <trkpt lat="45.84017" lon="5.70281">
        <ele>356.71490430128</ele>
        <time>2014-09-21T14:37:38Z</time>
      </trkpt>
      <trkpt lat="45.8402" lon="5.70287">
        <ele>357.64607886073</ele>
        <time>2014-09-21T14:37:43Z</time>
      </trkpt>
      <trkpt lat="45.84025" lon="5.70293">
        <ele>357.64607886073</ele>
        <time>2014-09-21T14:37:48Z</time>
      </trkpt>
      <trkpt lat="45.84031" lon="5.70299">
        <ele>358.38906329643</ele>
        <time>2014-09-21T14:37:53Z</time>
      </trkpt>
      <trkpt lat="45.84035" lon="5.70305">
        <ele>358.38906329643</ele>
        <time>2014-09-21T14:37:58Z</time>
      </trkpt>
      <trkpt lat="45.8404" lon="5.70309">
        <ele>359.0546345203</ele>
        <time>2014-09-21T14:38:03Z</time>
      </trkpt>
      <trkpt lat="45.84046" lon="5.70316">
        <ele>359.0546345203</ele>
        <time>2014-09-21T14:38:08Z</time>
      </trkpt>
      <trkpt lat="45.8405" lon="5.70322">
        <ele>359.52960363307</ele>
        <time>2014-09-21T14:38:13Z</time>
      </trkpt>
      <trkpt lat="45.84057" lon="5.70328">
        <ele>359.52960363307</ele>
        <time>2014-09-21T14:38:18Z</time>
      </trkpt>
      <trkpt lat="45.84062" lon="5.70334">
        <ele>359.85386503005</ele>
        <time>2014-09-21T14:38:24Z</time>
      </trkpt>
      <trkpt lat="45.84069" lon="5.70339">
        <ele>359.85386503005</ele>
        <time>2014-09-21T14:38:28Z</time>
      </trkpt>
      <trkpt lat="45.84072" lon="5.70347">
        <ele>360.1946277814</ele>
        <time>2014-09-21T14:38:33Z</time>
      </trkpt>
      <trkpt lat="45.84076" lon="5.70355">
        <ele>360.1946277814</ele>
        <time>2014-09-21T14:38:39Z</time>
      </trkpt>
      <trkpt lat="45.84081" lon="5.70354">
        <ele>360.43308134736</ele>
        <time>2014-09-21T14:38:43Z</time>
      </trkpt>
      <trkpt lat="45.84085" lon="5.7036">
        <ele>360.43308134736</ele>
        <time>2014-09-21T14:38:48Z</time>
      </trkpt>
      <trkpt lat="45.84094" lon="5.70373">
        <ele>360.661304139</ele>
        <time>2014-09-21T14:38:53Z</time>
      </trkpt>
      <trkpt lat="45.84101" lon="5.7038">
        <ele>360.661304139</ele>
        <time>2014-09-21T14:38:58Z</time>
      </trkpt>
      <trkpt lat="45.84107" lon="5.70388">
        <ele>360.89269923187</ele>
        <time>2014-09-21T14:39:03Z</time>
      </trkpt>
      <trkpt lat="45.84109" lon="5.70392">
        <ele>360.89269923187</ele>
        <time>2014-09-21T14:39:08Z</time>
      </trkpt>
      <trkpt lat="45.84109" lon="5.70392">
        <ele>360.89269923187</ele>
        <time>2014-09-21T14:39:14Z</time>
      </trkpt>
      <trkpt lat="45.84112" lon="5.70395">
        <ele>360.89269923187</ele>
        <time>2014-09-21T14:39:23Z</time>
      </trkpt>
      <trkpt lat="45.84108" lon="5.70393">
        <ele>361.09655509069</ele>
        <time>2014-09-21T14:39:28Z</time>
      </trkpt>
      <trkpt lat="45.84106" lon="5.70389">
        <ele>361.09655509069</ele>
        <time>2014-09-21T14:39:33Z</time>
      </trkpt>
      <trkpt lat="45.84109" lon="5.70382">
        <ele>361.09655509069</ele>
        <time>2014-09-21T14:39:38Z</time>
      </trkpt>
      <trkpt lat="45.84116" lon="5.70378">
        <ele>361.08607942519</ele>
        <time>2014-09-21T14:39:43Z</time>
      </trkpt>
      <trkpt lat="45.84122" lon="5.70376">
        <ele>361.08607942519</ele>
        <time>2014-09-21T14:39:48Z</time>
      </trkpt>
      <trkpt lat="45.84127" lon="5.70372">
        <ele>360.83301745239</ele>
        <time>2014-09-21T14:39:53Z</time>
      </trkpt>
      <trkpt lat="45.84133" lon="5.70367">
        <ele>360.83301745239</ele>
        <time>2014-09-21T14:39:58Z</time>
      </trkpt>
      <trkpt lat="45.84139" lon="5.70365">
        <ele>360.64342415465</ele>
        <time>2014-09-21T14:40:03Z</time>
      </trkpt>
      <trkpt lat="45.84143" lon="5.70362">
        <ele>360.64342415465</ele>
        <time>2014-09-21T14:40:08Z</time>
      </trkpt>
      <trkpt lat="45.84143" lon="5.70361">
        <ele>360.64342415465</ele>
        <time>2014-09-21T14:40:13Z</time>
      </trkpt>
      <trkpt lat="45.84141" lon="5.70362">
        <ele>360.64342415465</ele>
        <time>2014-09-21T14:40:18Z</time>
      </trkpt>
      <trkpt lat="45.84138" lon="5.70364">
        <ele>360.42609653335</ele>
        <time>2014-09-21T14:40:23Z</time>
      </trkpt>
      <trkpt lat="45.84132" lon="5.70364">
        <ele>360.42609653335</ele>
        <time>2014-09-21T14:40:28Z</time>
      </trkpt>
      <trkpt lat="45.84128" lon="5.70368">
        <ele>360.11110503887</ele>
        <time>2014-09-21T14:40:33Z</time>
      </trkpt>
      <trkpt lat="45.84123" lon="5.70373">
        <ele>360.11110503887</ele>
        <time>2014-09-21T14:40:38Z</time>
      </trkpt>
      <trkpt lat="45.84118" lon="5.70376">
        <ele>359.69165314728</ele>
        <time>2014-09-21T14:40:43Z</time>
      </trkpt>
      <trkpt lat="45.84114" lon="5.70383">
        <ele>359.69165314728</ele>
        <time>2014-09-21T14:40:48Z</time>
      </trkpt>
      <trkpt lat="45.84115" lon="5.7039">
        <ele>359.27709598043</ele>
        <time>2014-09-21T14:40:53Z</time>
      </trkpt>
      <trkpt lat="45.84117" lon="5.70396">
        <ele>359.27709598043</ele>
        <time>2014-09-21T14:40:58Z</time>
      </trkpt>
      <trkpt lat="45.8412" lon="5.70402">
        <ele>359.02644961668</ele>
        <time>2014-09-21T14:41:03Z</time>
      </trkpt>
      <trkpt lat="45.84121" lon="5.7041">
        <ele>359.02644961668</ele>
        <time>2014-09-21T14:41:08Z</time>
      </trkpt>
      <trkpt lat="45.84122" lon="5.70421">
        <ele>358.78401225191</ele>
        <time>2014-09-21T14:41:13Z</time>
      </trkpt>
      <trkpt lat="45.84121" lon="5.70431">
        <ele>358.78401225191</ele>
        <time>2014-09-21T14:41:18Z</time>
      </trkpt>
      <trkpt lat="45.84117" lon="5.70441">
        <ele>358.79464780897</ele>
        <time>2014-09-21T14:41:23Z</time>
      </trkpt>
      <trkpt lat="45.84114" lon="5.70451">
        <ele>358.79464780897</ele>
        <time>2014-09-21T14:41:28Z</time>
      </trkpt>
      <trkpt lat="45.84112" lon="5.70461">
        <ele>359.12604703023</ele>
        <time>2014-09-21T14:41:33Z</time>
      </trkpt>
      <trkpt lat="45.84111" lon="5.70471">
        <ele>359.12604703023</ele>
        <time>2014-09-21T14:41:38Z</time>
      </trkpt>
      <trkpt lat="45.84107" lon="5.7048">
        <ele>359.45097188083</ele>
        <time>2014-09-21T14:41:43Z</time>
      </trkpt>
      <trkpt lat="45.84107" lon="5.70482">
        <ele>359.45097188083</ele>
        <time>2014-09-21T14:41:48Z</time>
      </trkpt>
      <trkpt lat="45.84105" lon="5.70487">
        <ele>359.45097188083</ele>
        <time>2014-09-21T14:41:53Z</time>
      </trkpt>
      <trkpt lat="45.84104" lon="5.70495">
        <ele>359.89861702434</ele>
        <time>2014-09-21T14:41:58Z</time>
      </trkpt>
      <trkpt lat="45.84106" lon="5.70508">
        <ele>360.25692848347</ele>
        <time>2014-09-21T14:42:03Z</time>
      </trkpt>
      <trkpt lat="45.84128" lon="5.70518">
        <ele>360.57471104727</ele>
        <time>2014-09-21T14:42:08Z</time>
      </trkpt>
      <trkpt lat="45.84156" lon="5.70528">
        <ele>360.86851738775</ele>
        <time>2014-09-21T14:42:13Z</time>
      </trkpt>
      <trkpt lat="45.84176" lon="5.70544">
        <ele>361.22584831397</ele>
        <time>2014-09-21T14:42:18Z</time>
      </trkpt>
      <trkpt lat="45.84179" lon="5.70547">
        <ele>361.22584831397</ele>
        <time>2014-09-21T14:42:23Z</time>
      </trkpt>
      <trkpt lat="45.84183" lon="5.7055">
        <ele>361.22584831397</ele>
        <time>2014-09-21T14:42:28Z</time>
      </trkpt>
      <trkpt lat="45.84195" lon="5.7057">
        <ele>362.23202951251</ele>
        <time>2014-09-21T14:42:33Z</time>
      </trkpt>
      <trkpt lat="45.84198" lon="5.70575">
        <ele>362.23202951251</ele>
        <time>2014-09-21T14:42:38Z</time>
      </trkpt>
      <trkpt lat="45.84198" lon="5.70575">
        <ele>362.23202951251</ele>
        <time>2014-09-21T14:42:43Z</time>
      </trkpt>
      <trkpt lat="45.84197" lon="5.70575">
        <ele>362.23202951251</ele>
        <time>2014-09-21T14:42:48Z</time>
      </trkpt>
      <trkpt lat="45.84199" lon="5.70577">
        <ele>362.23202951251</ele>
        <time>2014-09-21T14:42:53Z</time>
      </trkpt>
      <trkpt lat="45.84199" lon="5.70579">
        <ele>363.43324506828</ele>
        <time>2014-09-21T14:42:58Z</time>
      </trkpt>
      <trkpt lat="45.84196" lon="5.70573">
        <ele>363.43324506828</ele>
        <time>2014-09-21T14:43:03Z</time>
      </trkpt>
      <trkpt lat="45.8419" lon="5.70565">
        <ele>364.53821523982</ele>
        <time>2014-09-21T14:43:08Z</time>
      </trkpt>
      <trkpt lat="45.84185" lon="5.70556">
        <ele>364.53821523982</ele>
        <time>2014-09-21T14:43:13Z</time>
      </trkpt>
      <trkpt lat="45.8418" lon="5.70549">
        <ele>365.42148865612</ele>
        <time>2014-09-21T14:43:18Z</time>
      </trkpt>
      <trkpt lat="45.84175" lon="5.70541">
        <ele>365.42148865612</ele>
        <time>2014-09-21T14:43:23Z</time>
      </trkpt>
      <trkpt lat="45.84171" lon="5.70536">
        <ele>366.0827940736</ele>
        <time>2014-09-21T14:43:28Z</time>
      </trkpt>
      <trkpt lat="45.84174" lon="5.7054">
        <ele>366.0827940736</ele>
        <time>2014-09-21T14:43:33Z</time>
      </trkpt>
      <trkpt lat="45.84179" lon="5.70545">
        <ele>366.24874705771</ele>
        <time>2014-09-21T14:43:38Z</time>
      </trkpt>
      <trkpt lat="45.84183" lon="5.70551">
        <ele>366.24874705771</ele>
        <time>2014-09-21T14:43:43Z</time>
      </trkpt>
      <trkpt lat="45.84186" lon="5.70558">
        <ele>366.40245752104</ele>
        <time>2014-09-21T14:43:48Z</time>
      </trkpt>
      <trkpt lat="45.84191" lon="5.70565">
        <ele>366.40245752104</ele>
        <time>2014-09-21T14:43:53Z</time>
      </trkpt>
      <trkpt lat="45.84193" lon="5.70571">
        <ele>366.71782273299</ele>
        <time>2014-09-21T14:43:58Z</time>
      </trkpt>
      <trkpt lat="45.84194" lon="5.70578">
        <ele>366.71782273299</ele>
        <time>2014-09-21T14:44:03Z</time>
      </trkpt>
      <trkpt lat="45.84196" lon="5.70579">
        <ele>366.71782273299</ele>
        <time>2014-09-21T14:44:08Z</time>
      </trkpt>
      <trkpt lat="45.84198" lon="5.70578">
        <ele>366.71782273299</ele>
        <time>2014-09-21T14:44:18Z</time>
      </trkpt>
      <trkpt lat="45.84197" lon="5.70578">
        <ele>367.24027366873</ele>
        <time>2014-09-21T14:44:23Z</time>
      </trkpt>
      <trkpt lat="45.84196" lon="5.70579">
        <ele>367.24027366873</ele>
        <time>2014-09-21T14:44:28Z</time>
      </trkpt>
      <trkpt lat="45.84198" lon="5.70577">
        <ele>367.24027366873</ele>
        <time>2014-09-21T14:44:39Z</time>
      </trkpt>
      <trkpt lat="45.84199" lon="5.7058">
        <ele>367.24027366873</ele>
        <time>2014-09-21T14:44:43Z</time>
      </trkpt>
      <trkpt lat="45.842" lon="5.70581">
        <ele>367.24027366873</ele>
        <time>2014-09-21T14:44:48Z</time>
      </trkpt>
      <trkpt lat="45.842" lon="5.70579">
        <ele>367.24027366873</ele>
        <time>2014-09-21T14:44:53Z</time>
      </trkpt>
      <trkpt lat="45.842" lon="5.70579">
        <ele>367.24027366873</ele>
        <time>2014-09-21T14:45:03Z</time>
      </trkpt>
      <trkpt lat="45.842" lon="5.70579">
        <ele>368.1843049709</ele>
        <time>2014-09-21T14:45:18Z</time>
      </trkpt>
      <trkpt lat="45.842" lon="5.70579">
        <ele>368.1843049709</ele>
        <time>2014-09-21T14:45:23Z</time>
      </trkpt>
      <trkpt lat="45.842" lon="5.7058">
        <ele>368.1843049709</ele>
        <time>2014-09-21T14:45:43Z</time>
      </trkpt>
      <trkpt lat="45.842" lon="5.70581">
        <ele>368.1843049709</ele>
        <time>2014-09-21T14:45:48Z</time>
      </trkpt>
      <trkpt lat="45.84199" lon="5.7058">
        <ele>368.1843049709</ele>
        <time>2014-09-21T14:46:18Z</time>
      </trkpt>
      <trkpt lat="45.84199" lon="5.7058">
        <ele>368.1843049709</ele>
        <time>2014-09-21T14:46:23Z</time>
      </trkpt>
      <trkpt lat="45.84201" lon="5.70582">
        <ele>368.1843049709</ele>
        <time>2014-09-21T14:46:33Z</time>
      </trkpt>
      <trkpt lat="45.84201" lon="5.70583">
        <ele>368.1843049709</ele>
        <time>2014-09-21T14:46:38Z</time>
      </trkpt>
      <trkpt lat="45.84201" lon="5.70577">
        <ele>369.18548638049</ele>
        <time>2014-09-21T14:46:53Z</time>
      </trkpt>
      <trkpt lat="45.84203" lon="5.70569">
        <ele>369.18548638049</ele>
        <time>2014-09-21T14:46:58Z</time>
      </trkpt>
      <trkpt lat="45.84206" lon="5.7056">
        <ele>369.97810221819</ele>
        <time>2014-09-21T14:47:03Z</time>
      </trkpt>
      <trkpt lat="45.8421" lon="5.70553">
        <ele>369.97810221819</ele>
        <time>2014-09-21T14:47:08Z</time>
      </trkpt>
      <trkpt lat="45.84214" lon="5.70543">
        <ele>370.57599076176</ele>
        <time>2014-09-21T14:47:13Z</time>
      </trkpt>
      <trkpt lat="45.84221" lon="5.70532">
        <ele>371.09344787122</ele>
        <time>2014-09-21T14:47:18Z</time>
      </trkpt>
      <trkpt lat="45.84225" lon="5.70524">
        <ele>371.09344787122</ele>
        <time>2014-09-21T14:47:23Z</time>
      </trkpt>
      <trkpt lat="45.84229" lon="5.70515">
        <ele>371.56459287449</ele>
        <time>2014-09-21T14:47:28Z</time>
      </trkpt>
      <trkpt lat="45.84234" lon="5.70507">
        <ele>371.56459287449</ele>
        <time>2014-09-21T14:47:33Z</time>
      </trkpt>
      <trkpt lat="45.84239" lon="5.70502">
        <ele>371.7041714791</ele>
        <time>2014-09-21T14:47:38Z</time>
      </trkpt>
      <trkpt lat="45.84245" lon="5.70498">
        <ele>371.7041714791</ele>
        <time>2014-09-21T14:47:43Z</time>
      </trkpt>
      <trkpt lat="45.84251" lon="5.70493">
        <ele>371.89735884306</ele>
        <time>2014-09-21T14:47:48Z</time>
      </trkpt>
      <trkpt lat="45.84257" lon="5.70488">
        <ele>371.89735884306</ele>
        <time>2014-09-21T14:47:53Z</time>
      </trkpt>
      <trkpt lat="45.84262" lon="5.7048">
        <ele>372.12623678569</ele>
        <time>2014-09-21T14:47:58Z</time>
      </trkpt>
      <trkpt lat="45.84267" lon="5.70473">
        <ele>372.12623678569</ele>
        <time>2014-09-21T14:48:03Z</time>
      </trkpt>
      <trkpt lat="45.84271" lon="5.70465">
        <ele>372.02827268157</ele>
        <time>2014-09-21T14:48:08Z</time>
      </trkpt>
      <trkpt lat="45.84275" lon="5.70456">
        <ele>372.02827268157</ele>
        <time>2014-09-21T14:48:13Z</time>
      </trkpt>
      <trkpt lat="45.84279" lon="5.70447">
        <ele>371.83054674964</ele>
        <time>2014-09-21T14:48:18Z</time>
      </trkpt>
      <trkpt lat="45.84283" lon="5.70438">
        <ele>371.83054674964</ele>
        <time>2014-09-21T14:48:23Z</time>
      </trkpt>
      <trkpt lat="45.8429" lon="5.70422">
        <ele>371.71494117197</ele>
        <time>2014-09-21T14:48:28Z</time>
      </trkpt>
      <trkpt lat="45.84296" lon="5.7041">
        <ele>371.57595524039</ele>
        <time>2014-09-21T14:48:33Z</time>
      </trkpt>
      <trkpt lat="45.843" lon="5.70402">
        <ele>371.57595524039</ele>
        <time>2014-09-21T14:48:38Z</time>
      </trkpt>
      <trkpt lat="45.84304" lon="5.70393">
        <ele>371.37356189161</ele>
        <time>2014-09-21T14:48:43Z</time>
      </trkpt>
      <trkpt lat="45.84307" lon="5.70384">
        <ele>371.37356189161</ele>
        <time>2014-09-21T14:48:48Z</time>
      </trkpt>
      <trkpt lat="45.8431" lon="5.70373">
        <ele>371.2293824887</ele>
        <time>2014-09-21T14:48:53Z</time>
      </trkpt>
      <trkpt lat="45.84311" lon="5.70363">
        <ele>371.2293824887</ele>
        <time>2014-09-21T14:48:58Z</time>
      </trkpt>
      <trkpt lat="45.84311" lon="5.70353">
        <ele>371.18388809761</ele>
        <time>2014-09-21T14:49:03Z</time>
      </trkpt>
      <trkpt lat="45.84312" lon="5.70344">
        <ele>371.18388809761</ele>
        <time>2014-09-21T14:49:08Z</time>
      </trkpt>
      <trkpt lat="45.84313" lon="5.70334">
        <ele>371.04372015677</ele>
        <time>2014-09-21T14:49:13Z</time>
      </trkpt>
      <trkpt lat="45.84315" lon="5.70323">
        <ele>371.04372015677</ele>
        <time>2014-09-21T14:49:18Z</time>
      </trkpt>
      <trkpt lat="45.84319" lon="5.70314">
        <ele>370.83173897472</ele>
        <time>2014-09-21T14:49:23Z</time>
      </trkpt>
      <trkpt lat="45.84323" lon="5.70305">
        <ele>370.83173897472</ele>
        <time>2014-09-21T14:49:28Z</time>
      </trkpt>
      <trkpt lat="45.84326" lon="5.70296">
        <ele>370.4252050753</ele>
        <time>2014-09-21T14:49:33Z</time>
      </trkpt>
      <trkpt lat="45.8433" lon="5.70289">
        <ele>370.4252050753</ele>
        <time>2014-09-21T14:49:38Z</time>
      </trkpt>
      <trkpt lat="45.84331" lon="5.70281">
        <ele>370.08561500006</ele>
        <time>2014-09-21T14:49:43Z</time>
      </trkpt>
      <trkpt lat="45.84334" lon="5.70277">
        <ele>370.08561500006</ele>
        <time>2014-09-21T14:49:48Z</time>
      </trkpt>
      <trkpt lat="45.84339" lon="5.70275">
        <ele>369.78123719984</ele>
        <time>2014-09-21T14:49:53Z</time>
      </trkpt>
      <trkpt lat="45.84344" lon="5.7027">
        <ele>369.78123719984</ele>
        <time>2014-09-21T14:49:58Z</time>
      </trkpt>
      <trkpt lat="45.84348" lon="5.70262">
        <ele>369.48254821307</ele>
        <time>2014-09-21T14:50:03Z</time>
      </trkpt>
      <trkpt lat="45.84352" lon="5.70254">
        <ele>369.48254821307</ele>
        <time>2014-09-21T14:50:08Z</time>
      </trkpt>
      <trkpt lat="45.84353" lon="5.70249">
        <ele>369.06127119487</ele>
        <time>2014-09-21T14:50:13Z</time>
      </trkpt>
      <trkpt lat="45.84357" lon="5.70241">
        <ele>369.06127119487</ele>
        <time>2014-09-21T14:50:18Z</time>
      </trkpt>
      <trkpt lat="45.84361" lon="5.70232">
        <ele>368.54297509963</ele>
        <time>2014-09-21T14:50:23Z</time>
      </trkpt>
      <trkpt lat="45.84366" lon="5.70224">
        <ele>368.54297509963</ele>
        <time>2014-09-21T14:50:28Z</time>
      </trkpt>
      <trkpt lat="45.84373" lon="5.70215">
        <ele>367.43278519666</ele>
        <time>2014-09-21T14:50:33Z</time>
      </trkpt>
      <trkpt lat="45.84375" lon="5.70209">
        <ele>367.43278519666</ele>
        <time>2014-09-21T14:50:38Z</time>
      </trkpt>
      <trkpt lat="45.84375" lon="5.70209">
        <ele>367.43278519666</ele>
        <time>2014-09-21T14:50:43Z</time>
      </trkpt>
      <trkpt lat="45.84376" lon="5.70207">
        <ele>367.43278519666</ele>
        <time>2014-09-21T14:50:48Z</time>
      </trkpt>
      <trkpt lat="45.84378" lon="5.70203">
        <ele>366.19610856572</ele>
        <time>2014-09-21T14:53:03Z</time>
      </trkpt>
      <trkpt lat="45.84388" lon="5.70191">
        <ele>365.06271274573</ele>
        <time>2014-09-21T14:53:08Z</time>
      </trkpt>
      <trkpt lat="45.84394" lon="5.70183">
        <ele>365.06271274573</ele>
        <time>2014-09-21T14:53:13Z</time>
      </trkpt>
      <trkpt lat="45.84399" lon="5.70175">
        <ele>363.81280537668</ele>
        <time>2014-09-21T14:53:18Z</time>
      </trkpt>
      <trkpt lat="45.84404" lon="5.70167">
        <ele>363.81280537668</ele>
        <time>2014-09-21T14:53:23Z</time>
      </trkpt>
      <trkpt lat="45.84409" lon="5.70159">
        <ele>362.63210086507</ele>
        <time>2014-09-21T14:53:28Z</time>
      </trkpt>
      <trkpt lat="45.84413" lon="5.70152">
        <ele>362.63210086507</ele>
        <time>2014-09-21T14:53:33Z</time>
      </trkpt>
      <trkpt lat="45.84417" lon="5.70142">
        <ele>361.50505926174</ele>
        <time>2014-09-21T14:53:38Z</time>
      </trkpt>
      <trkpt lat="45.84421" lon="5.70133">
        <ele>361.50505926174</ele>
        <time>2014-09-21T14:53:43Z</time>
      </trkpt>
      <trkpt lat="45.84426" lon="5.70124">
        <ele>360.46028560024</ele>
        <time>2014-09-21T14:53:48Z</time>
      </trkpt>
      <trkpt lat="45.84431" lon="5.70114">
        <ele>360.46028560024</ele>
        <time>2014-09-21T14:53:53Z</time>
      </trkpt>
      <trkpt lat="45.84433" lon="5.70111">
        <ele>359.19251212677</ele>
        <time>2014-09-21T14:53:58Z</time>
      </trkpt>
      <trkpt lat="45.84437" lon="5.70107">
        <ele>359.19251212677</ele>
        <time>2014-09-21T14:54:03Z</time>
      </trkpt>
      <trkpt lat="45.84442" lon="5.70105">
        <ele>357.80853152583</ele>
        <time>2014-09-21T14:54:08Z</time>
      </trkpt>
      <trkpt lat="45.8445" lon="5.70103">
        <ele>357.80853152583</ele>
        <time>2014-09-21T14:54:13Z</time>
      </trkpt>
      <trkpt lat="45.84458" lon="5.70108">
        <ele>356.52281178201</ele>
        <time>2014-09-21T14:54:18Z</time>
      </trkpt>
      <trkpt lat="45.84465" lon="5.70113">
        <ele>356.52281178201</ele>
        <time>2014-09-21T14:54:23Z</time>
      </trkpt>
      <trkpt lat="45.8447" lon="5.70124">
        <ele>355.21664681412</ele>
        <time>2014-09-21T14:54:28Z</time>
      </trkpt>
      <trkpt lat="45.84474" lon="5.70133">
        <ele>355.21664681412</ele>
        <time>2014-09-21T14:54:33Z</time>
      </trkpt>
      <trkpt lat="45.84478" lon="5.70142">
        <ele>353.95293811576</ele>
        <time>2014-09-21T14:54:38Z</time>
      </trkpt>
      <trkpt lat="45.8448" lon="5.70151">
        <ele>353.95293811576</ele>
        <time>2014-09-21T14:54:43Z</time>
      </trkpt>
      <trkpt lat="45.84483" lon="5.70161">
        <ele>352.70327401299</ele>
        <time>2014-09-21T14:54:48Z</time>
      </trkpt>
      <trkpt lat="45.84487" lon="5.70172">
        <ele>352.70327401299</ele>
        <time>2014-09-21T14:54:53Z</time>
      </trkpt>
      <trkpt lat="45.8449" lon="5.70182">
        <ele>351.48441466385</ele>
        <time>2014-09-21T14:54:58Z</time>
      </trkpt>
      <trkpt lat="45.84493" lon="5.70191">
        <ele>351.48441466385</ele>
        <time>2014-09-21T14:55:03Z</time>
      </trkpt>
      <trkpt lat="45.84494" lon="5.702">
        <ele>350.38374727179</ele>
        <time>2014-09-21T14:55:08Z</time>
      </trkpt>
      <trkpt lat="45.84497" lon="5.70217">
        <ele>349.45297426339</ele>
        <time>2014-09-21T14:55:13Z</time>
      </trkpt>
      <trkpt lat="45.84497" lon="5.7023">
        <ele>349.45297426339</ele>
        <time>2014-09-21T14:55:18Z</time>
      </trkpt>
      <trkpt lat="45.84496" lon="5.70239">
        <ele>348.43677856585</ele>
        <time>2014-09-21T14:55:23Z</time>
      </trkpt>
      <trkpt lat="45.84496" lon="5.70248">
        <ele>348.43677856585</ele>
        <time>2014-09-21T14:55:28Z</time>
      </trkpt>
      <trkpt lat="45.84497" lon="5.70261">
        <ele>347.6175282998</ele>
        <time>2014-09-21T14:55:33Z</time>
      </trkpt>
      <trkpt lat="45.84503" lon="5.70268">
        <ele>347.6175282998</ele>
        <time>2014-09-21T14:55:38Z</time>
      </trkpt>
      <trkpt lat="45.84508" lon="5.70275">
        <ele>347.24177822159</ele>
        <time>2014-09-21T14:55:43Z</time>
      </trkpt>
      <trkpt lat="45.84512" lon="5.70284">
        <ele>347.24177822159</ele>
        <time>2014-09-21T14:55:48Z</time>
      </trkpt>
      <trkpt lat="45.84514" lon="5.70292">
        <ele>346.85930160001</ele>
        <time>2014-09-21T14:55:53Z</time>
      </trkpt>
      <trkpt lat="45.84518" lon="5.70295">
        <ele>346.85930160001</ele>
        <time>2014-09-21T14:55:58Z</time>
      </trkpt>
      <trkpt lat="45.84522" lon="5.70296">
        <ele>346.85930160001</ele>
        <time>2014-09-21T14:56:03Z</time>
      </trkpt>
      <trkpt lat="45.84527" lon="5.70299">
        <ele>346.51402192787</ele>
        <time>2014-09-21T14:56:08Z</time>
      </trkpt>
      <trkpt lat="45.84535" lon="5.70301">
        <ele>346.51402192787</ele>
        <time>2014-09-21T14:56:13Z</time>
      </trkpt>
      <trkpt lat="45.8454" lon="5.70304">
        <ele>346.30408508459</ele>
        <time>2014-09-21T14:56:18Z</time>
      </trkpt>
      <trkpt lat="45.84548" lon="5.70305">
        <ele>346.30408508459</ele>
        <time>2014-09-21T14:56:23Z</time>
      </trkpt>
      <trkpt lat="45.84555" lon="5.70304">
        <ele>346.37760860558</ele>
        <time>2014-09-21T14:56:28Z</time>
      </trkpt>
      <trkpt lat="45.84563" lon="5.70302">
        <ele>346.37760860558</ele>
        <time>2014-09-21T14:56:33Z</time>
      </trkpt>
      <trkpt lat="45.84568" lon="5.70299">
        <ele>346.43862542039</ele>
        <time>2014-09-21T14:56:38Z</time>
      </trkpt>
      <trkpt lat="45.84572" lon="5.70298">
        <ele>346.43862542039</ele>
        <time>2014-09-21T14:56:43Z</time>
      </trkpt>
      <trkpt lat="45.84579" lon="5.70296">
        <ele>346.74609016855</ele>
        <time>2014-09-21T14:56:48Z</time>
      </trkpt>
      <trkpt lat="45.84586" lon="5.70293">
        <ele>346.74609016855</ele>
        <time>2014-09-21T14:56:53Z</time>
      </trkpt>
      <trkpt lat="45.846" lon="5.70287">
        <ele>347.22214254015</ele>
        <time>2014-09-21T14:56:58Z</time>
      </trkpt>
      <trkpt lat="45.84608" lon="5.70286">
        <ele>347.22214254015</ele>
        <time>2014-09-21T14:57:03Z</time>
      </trkpt>
      <trkpt lat="45.84616" lon="5.70286">
        <ele>347.92382333333</ele>
        <time>2014-09-21T14:57:08Z</time>
      </trkpt>
      <trkpt lat="45.84623" lon="5.70286">
        <ele>347.92382333333</ele>
        <time>2014-09-21T14:57:13Z</time>
      </trkpt>
      <trkpt lat="45.8463" lon="5.70288">
        <ele>348.70156036188</ele>
        <time>2014-09-21T14:57:18Z</time>
      </trkpt>
      <trkpt lat="45.84634" lon="5.7029">
        <ele>348.70156036188</ele>
        <time>2014-09-21T14:57:24Z</time>
      </trkpt>
      <trkpt lat="45.84641" lon="5.70293">
        <ele>349.40212193707</ele>
        <time>2014-09-21T14:57:28Z</time>
      </trkpt>
      <trkpt lat="45.84648" lon="5.70293">
        <ele>349.40212193707</ele>
        <time>2014-09-21T14:57:33Z</time>
      </trkpt>
      <trkpt lat="45.84653" lon="5.70292">
        <ele>350.21519415823</ele>
        <time>2014-09-21T14:57:38Z</time>
      </trkpt>
      <trkpt lat="45.84664" lon="5.70289">
        <ele>350.69653536074</ele>
        <time>2014-09-21T14:57:43Z</time>
      </trkpt>
      <trkpt lat="45.84672" lon="5.70288">
        <ele>350.69653536074</ele>
        <time>2014-09-21T14:57:48Z</time>
      </trkpt>
      <trkpt lat="45.84676" lon="5.70288">
        <ele>350.99751128042</ele>
        <time>2014-09-21T14:57:53Z</time>
      </trkpt>
      <trkpt lat="45.8468" lon="5.70287">
        <ele>350.99751128042</ele>
        <time>2014-09-21T14:57:58Z</time>
      </trkpt>
      <trkpt lat="45.84691" lon="5.70289">
        <ele>351.47505882364</ele>
        <time>2014-09-21T14:58:03Z</time>
      </trkpt>
      <trkpt lat="45.84696" lon="5.70292">
        <ele>351.47505882364</ele>
        <time>2014-09-21T14:58:08Z</time>
      </trkpt>
      <trkpt lat="45.84706" lon="5.70298">
        <ele>351.83974550088</ele>
        <time>2014-09-21T14:58:13Z</time>
      </trkpt>
      <trkpt lat="45.84715" lon="5.70302">
        <ele>352.15520237032</ele>
        <time>2014-09-21T14:58:18Z</time>
      </trkpt>
      <trkpt lat="45.84724" lon="5.70306">
        <ele>352.15520237032</ele>
        <time>2014-09-21T14:58:23Z</time>
      </trkpt>
      <trkpt lat="45.84734" lon="5.70311">
        <ele>352.53820328784</ele>
        <time>2014-09-21T14:58:28Z</time>
      </trkpt>
      <trkpt lat="45.8474" lon="5.70316">
        <ele>352.53820328784</ele>
        <time>2014-09-21T14:58:33Z</time>
      </trkpt>
      <trkpt lat="45.84745" lon="5.70319">
        <ele>352.86621539834</ele>
        <time>2014-09-21T14:58:38Z</time>
      </trkpt>
      <trkpt lat="45.8475" lon="5.70323">
        <ele>352.86621539834</ele>
        <time>2014-09-21T14:58:43Z</time>
      </trkpt>
      <trkpt lat="45.84754" lon="5.70333">
        <ele>352.89620312591</ele>
        <time>2014-09-21T14:58:48Z</time>
      </trkpt>
      <trkpt lat="45.84752" lon="5.7034">
        <ele>352.89620312591</ele>
        <time>2014-09-21T14:58:53Z</time>
      </trkpt>
      <trkpt lat="45.84741" lon="5.70352">
        <ele>352.77855313938</ele>
        <time>2014-09-21T14:58:58Z</time>
      </trkpt>
      <trkpt lat="45.84734" lon="5.70359">
        <ele>352.77855313938</ele>
        <time>2014-09-21T14:59:03Z</time>
      </trkpt>
      <trkpt lat="45.84729" lon="5.70362">
        <ele>352.68188606335</ele>
        <time>2014-09-21T14:59:08Z</time>
      </trkpt>
      <trkpt lat="45.84724" lon="5.70367">
        <ele>352.68188606335</ele>
        <time>2014-09-21T14:59:13Z</time>
      </trkpt>
      <trkpt lat="45.84716" lon="5.70373">
        <ele>352.63272159476</ele>
        <time>2014-09-21T14:59:18Z</time>
      </trkpt>
      <trkpt lat="45.84708" lon="5.70378">
        <ele>352.63272159476</ele>
        <time>2014-09-21T14:59:23Z</time>
      </trkpt>
      <trkpt lat="45.84702" lon="5.70383">
        <ele>352.32408584065</ele>
        <time>2014-09-21T14:59:28Z</time>
      </trkpt>
      <trkpt lat="45.84697" lon="5.70388">
        <ele>352.32408584065</ele>
        <time>2014-09-21T14:59:33Z</time>
      </trkpt>
      <trkpt lat="45.84692" lon="5.70393">
        <ele>352.13523624382</ele>
        <time>2014-09-21T14:59:38Z</time>
      </trkpt>
      <trkpt lat="45.84689" lon="5.70398">
        <ele>352.13523624382</ele>
        <time>2014-09-21T14:59:43Z</time>
      </trkpt>
      <trkpt lat="45.84683" lon="5.70404">
        <ele>351.98494092524</ele>
        <time>2014-09-21T14:59:48Z</time>
      </trkpt>
      <trkpt lat="45.84677" lon="5.70411">
        <ele>351.98494092524</ele>
        <time>2014-09-21T14:59:53Z</time>
      </trkpt>
      <trkpt lat="45.84672" lon="5.70419">
        <ele>351.81227655717</ele>
        <time>2014-09-21T14:59:58Z</time>
      </trkpt>
      <trkpt lat="45.84667" lon="5.70428">
        <ele>351.81227655717</ele>
        <time>2014-09-21T15:00:03Z</time>
      </trkpt>
      <trkpt lat="45.84662" lon="5.70435">
        <ele>351.80588363934</ele>
        <time>2014-09-21T15:00:08Z</time>
      </trkpt>
      <trkpt lat="45.84658" lon="5.70444">
        <ele>351.80588363934</ele>
        <time>2014-09-21T15:00:13Z</time>
      </trkpt>
      <trkpt lat="45.84653" lon="5.70452">
        <ele>351.95277004861</ele>
        <time>2014-09-21T15:00:18Z</time>
      </trkpt>
      <trkpt lat="45.84648" lon="5.70459">
        <ele>351.95277004861</ele>
        <time>2014-09-21T15:00:23Z</time>
      </trkpt>
      <trkpt lat="45.84644" lon="5.70467">
        <ele>352.16844792544</ele>
        <time>2014-09-21T15:00:28Z</time>
      </trkpt>
      <trkpt lat="45.8464" lon="5.70475">
        <ele>352.16844792544</ele>
        <time>2014-09-21T15:00:33Z</time>
      </trkpt>
      <trkpt lat="45.84635" lon="5.70483">
        <ele>352.3600674642</ele>
        <time>2014-09-21T15:00:38Z</time>
      </trkpt>
      <trkpt lat="45.84632" lon="5.70493">
        <ele>352.3600674642</ele>
        <time>2014-09-21T15:00:43Z</time>
      </trkpt>
      <trkpt lat="45.8463" lon="5.70502">
        <ele>352.57140363588</ele>
        <time>2014-09-21T15:00:48Z</time>
      </trkpt>
      <trkpt lat="45.84626" lon="5.70509">
        <ele>352.57140363588</ele>
        <time>2014-09-21T15:00:53Z</time>
      </trkpt>
      <trkpt lat="45.84621" lon="5.70518">
        <ele>352.77094232742</ele>
        <time>2014-09-21T15:00:58Z</time>
      </trkpt>
      <trkpt lat="45.84619" lon="5.70527">
        <ele>352.77094232742</ele>
        <time>2014-09-21T15:01:03Z</time>
      </trkpt>
      <trkpt lat="45.84616" lon="5.70538">
        <ele>353.03043377831</ele>
        <time>2014-09-21T15:01:08Z</time>
      </trkpt>
      <trkpt lat="45.84614" lon="5.70548">
        <ele>353.03043377831</ele>
        <time>2014-09-21T15:01:13Z</time>
      </trkpt>
      <trkpt lat="45.84612" lon="5.70557">
        <ele>353.51710676985</ele>
        <time>2014-09-21T15:01:18Z</time>
      </trkpt>
      <trkpt lat="45.84612" lon="5.70565">
        <ele>353.51710676985</ele>
        <time>2014-09-21T15:01:23Z</time>
      </trkpt>
      <trkpt lat="45.84616" lon="5.70574">
        <ele>353.89533115795</ele>
        <time>2014-09-21T15:01:28Z</time>
      </trkpt>
      <trkpt lat="45.84621" lon="5.70589">
        <ele>354.21475636233</ele>
        <time>2014-09-21T15:01:33Z</time>
      </trkpt>
      <trkpt lat="45.84624" lon="5.706">
        <ele>354.21475636233</ele>
        <time>2014-09-21T15:01:38Z</time>
      </trkpt>
      <trkpt lat="45.84628" lon="5.70611">
        <ele>354.27660367384</ele>
        <time>2014-09-21T15:01:43Z</time>
      </trkpt>
      <trkpt lat="45.84633" lon="5.7062">
        <ele>354.27660367384</ele>
        <time>2014-09-21T15:01:48Z</time>
      </trkpt>
      <trkpt lat="45.84638" lon="5.70628">
        <ele>354.14245122229</ele>
        <time>2014-09-21T15:01:53Z</time>
      </trkpt>
      <trkpt lat="45.84645" lon="5.70635">
        <ele>354.14245122229</ele>
        <time>2014-09-21T15:01:58Z</time>
      </trkpt>
      <trkpt lat="45.84649" lon="5.70644">
        <ele>353.82671172028</ele>
        <time>2014-09-21T15:02:03Z</time>
      </trkpt>
      <trkpt lat="45.84649" lon="5.70662">
        <ele>353.67474332451</ele>
        <time>2014-09-21T15:02:08Z</time>
      </trkpt>
      <trkpt lat="45.84648" lon="5.70676">
        <ele>353.57377734581</ele>
        <time>2014-09-21T15:02:13Z</time>
      </trkpt>
      <trkpt lat="45.84647" lon="5.7069">
        <ele>353.40480728767</ele>
        <time>2014-09-21T15:02:18Z</time>
      </trkpt>
      <trkpt lat="45.84644" lon="5.70705">
        <ele>353.24513340319</ele>
        <time>2014-09-21T15:02:23Z</time>
      </trkpt>
      <trkpt lat="45.8464" lon="5.7073">
        <ele>353.1087335221</ele>
        <time>2014-09-21T15:02:28Z</time>
      </trkpt>
      <trkpt lat="45.84638" lon="5.70762">
        <ele>352.92205049887</ele>
        <time>2014-09-21T15:02:33Z</time>
      </trkpt>
      <trkpt lat="45.84635" lon="5.7079">
        <ele>352.68914834127</ele>
        <time>2014-09-21T15:02:38Z</time>
      </trkpt>
      <trkpt lat="45.84628" lon="5.70821">
        <ele>352.39952927604</ele>
        <time>2014-09-21T15:02:43Z</time>
      </trkpt>
      <trkpt lat="45.84625" lon="5.70847">
        <ele>352.13010784136</ele>
        <time>2014-09-21T15:02:48Z</time>
      </trkpt>
      <trkpt lat="45.84629" lon="5.70885">
        <ele>351.89445980329</ele>
        <time>2014-09-21T15:02:53Z</time>
      </trkpt>
      <trkpt lat="45.84634" lon="5.70918">
        <ele>351.80595664161</ele>
        <time>2014-09-21T15:02:58Z</time>
      </trkpt>
      <trkpt lat="45.84641" lon="5.70942">
        <ele>351.72424763874</ele>
        <time>2014-09-21T15:03:03Z</time>
      </trkpt>
      <trkpt lat="45.84647" lon="5.70964">
        <ele>351.72103505053</ele>
        <time>2014-09-21T15:03:08Z</time>
      </trkpt>
      <trkpt lat="45.8465" lon="5.70979">
        <ele>352.09311765552</ele>
        <time>2014-09-21T15:03:13Z</time>
      </trkpt>
      <trkpt lat="45.84653" lon="5.70991">
        <ele>352.09311765552</ele>
        <time>2014-09-21T15:03:18Z</time>
      </trkpt>
      <trkpt lat="45.84655" lon="5.71001">
        <ele>352.35065606843</ele>
        <time>2014-09-21T15:03:23Z</time>
      </trkpt>
      <trkpt lat="45.84658" lon="5.71012">
        <ele>352.35065606843</ele>
        <time>2014-09-21T15:03:28Z</time>
      </trkpt>
      <trkpt lat="45.8466" lon="5.71024">
        <ele>352.06894449998</ele>
        <time>2014-09-21T15:03:33Z</time>
      </trkpt>
      <trkpt lat="45.84663" lon="5.71033">
        <ele>352.06894449998</ele>
        <time>2014-09-21T15:03:38Z</time>
      </trkpt>
      <trkpt lat="45.84664" lon="5.71044">
        <ele>351.4612616867</ele>
        <time>2014-09-21T15:03:43Z</time>
      </trkpt>
      <trkpt lat="45.84667" lon="5.71054">
        <ele>351.4612616867</ele>
        <time>2014-09-21T15:03:48Z</time>
      </trkpt>
      <trkpt lat="45.84669" lon="5.71065">
        <ele>350.72613775947</ele>
        <time>2014-09-21T15:03:53Z</time>
      </trkpt>
      <trkpt lat="45.84671" lon="5.71076">
        <ele>350.72613775947</ele>
        <time>2014-09-21T15:03:58Z</time>
      </trkpt>
      <trkpt lat="45.84669" lon="5.71088">
        <ele>349.99023237359</ele>
        <time>2014-09-21T15:04:03Z</time>
      </trkpt>
      <trkpt lat="45.84673" lon="5.71098">
        <ele>349.99023237359</ele>
        <time>2014-09-21T15:04:08Z</time>
      </trkpt>
      <trkpt lat="45.84678" lon="5.71103">
        <ele>349.21237582294</ele>
        <time>2014-09-21T15:04:13Z</time>
      </trkpt>
      <trkpt lat="45.84682" lon="5.71108">
        <ele>349.21237582294</ele>
        <time>2014-09-21T15:04:18Z</time>
      </trkpt>
      <trkpt lat="45.84686" lon="5.71117">
        <ele>348.25365168245</ele>
        <time>2014-09-21T15:04:23Z</time>
      </trkpt>
      <trkpt lat="45.84692" lon="5.71128">
        <ele>347.37493905194</ele>
        <time>2014-09-21T15:04:28Z</time>
      </trkpt>
      <trkpt lat="45.84696" lon="5.71137">
        <ele>347.37493905194</ele>
        <time>2014-09-21T15:04:33Z</time>
      </trkpt>
      <trkpt lat="45.847" lon="5.71146">
        <ele>346.37096129168</ele>
        <time>2014-09-21T15:04:38Z</time>
      </trkpt>
      <trkpt lat="45.84703" lon="5.71154">
        <ele>346.37096129168</ele>
        <time>2014-09-21T15:04:43Z</time>
      </trkpt>
      <trkpt lat="45.84706" lon="5.71162">
        <ele>345.32565535798</ele>
        <time>2014-09-21T15:04:48Z</time>
      </trkpt>
      <trkpt lat="45.84708" lon="5.71169">
        <ele>345.32565535798</ele>
        <time>2014-09-21T15:04:53Z</time>
      </trkpt>
      <trkpt lat="45.84712" lon="5.71177">
        <ele>344.31687397219</ele>
        <time>2014-09-21T15:04:58Z</time>
      </trkpt>
      <trkpt lat="45.84716" lon="5.71186">
        <ele>344.31687397219</ele>
        <time>2014-09-21T15:05:03Z</time>
      </trkpt>
      <trkpt lat="45.84721" lon="5.71195">
        <ele>343.44543131149</ele>
        <time>2014-09-21T15:05:08Z</time>
      </trkpt>
      <trkpt lat="45.84725" lon="5.71203">
        <ele>343.44543131149</ele>
        <time>2014-09-21T15:05:13Z</time>
      </trkpt>
      <trkpt lat="45.8473" lon="5.71213">
        <ele>342.53049536172</ele>
        <time>2014-09-21T15:05:18Z</time>
      </trkpt>
      <trkpt lat="45.84734" lon="5.71226">
        <ele>341.57752539757</ele>
        <time>2014-09-21T15:05:23Z</time>
      </trkpt>
      <trkpt lat="45.84738" lon="5.71239">
        <ele>340.54840158223</ele>
        <time>2014-09-21T15:05:28Z</time>
      </trkpt>
      <trkpt lat="45.84742" lon="5.71249">
        <ele>340.54840158223</ele>
        <time>2014-09-21T15:05:33Z</time>
      </trkpt>
      <trkpt lat="45.84745" lon="5.71257">
        <ele>339.56648576962</ele>
        <time>2014-09-21T15:05:39Z</time>
      </trkpt>
      <trkpt lat="45.84749" lon="5.71264">
        <ele>339.56648576962</ele>
        <time>2014-09-21T15:05:43Z</time>
      </trkpt>
      <trkpt lat="45.84754" lon="5.71275">
        <ele>338.55854334925</ele>
        <time>2014-09-21T15:05:48Z</time>
      </trkpt>
      <trkpt lat="45.84758" lon="5.71285">
        <ele>338.55854334925</ele>
        <time>2014-09-21T15:05:53Z</time>
      </trkpt>
      <trkpt lat="45.84762" lon="5.71296">
        <ele>337.61525478118</ele>
        <time>2014-09-21T15:05:58Z</time>
      </trkpt>
      <trkpt lat="45.84767" lon="5.71305">
        <ele>337.61525478118</ele>
        <time>2014-09-21T15:06:03Z</time>
      </trkpt>
      <trkpt lat="45.84771" lon="5.7131">
        <ele>336.87804047896</ele>
        <time>2014-09-21T15:06:08Z</time>
      </trkpt>
      <trkpt lat="45.84774" lon="5.71313">
        <ele>336.87804047896</ele>
        <time>2014-09-21T15:06:13Z</time>
      </trkpt>
      <trkpt lat="45.84777" lon="5.71318">
        <ele>336.87804047896</ele>
        <time>2014-09-21T15:06:18Z</time>
      </trkpt>
      <trkpt lat="45.84782" lon="5.71325">
        <ele>336.30435811085</ele>
        <time>2014-09-21T15:06:23Z</time>
      </trkpt>
      <trkpt lat="45.84789" lon="5.71332">
        <ele>336.30435811085</ele>
        <time>2014-09-21T15:06:28Z</time>
      </trkpt>
      <trkpt lat="45.84795" lon="5.71344">
        <ele>335.56604672576</ele>
        <time>2014-09-21T15:06:33Z</time>
      </trkpt>
      <trkpt lat="45.84805" lon="5.7136">
        <ele>334.84942978445</ele>
        <time>2014-09-21T15:06:38Z</time>
      </trkpt>
      <trkpt lat="45.84809" lon="5.71371">
        <ele>334.84942978445</ele>
        <time>2014-09-21T15:06:43Z</time>
      </trkpt>
      <trkpt lat="45.84811" lon="5.7138">
        <ele>334.00997719164</ele>
        <time>2014-09-21T15:06:48Z</time>
      </trkpt>
      <trkpt lat="45.84814" lon="5.71388">
        <ele>334.00997719164</ele>
        <time>2014-09-21T15:06:53Z</time>
      </trkpt>
      <trkpt lat="45.84818" lon="5.71396">
        <ele>333.23110515421</ele>
        <time>2014-09-21T15:06:58Z</time>
      </trkpt>
      <trkpt lat="45.8482" lon="5.71403">
        <ele>333.23110515421</ele>
        <time>2014-09-21T15:07:03Z</time>
      </trkpt>
      <trkpt lat="45.84824" lon="5.71413">
        <ele>332.07725950829</ele>
        <time>2014-09-21T15:07:08Z</time>
      </trkpt>
      <trkpt lat="45.84828" lon="5.71422">
        <ele>332.07725950829</ele>
        <time>2014-09-21T15:07:13Z</time>
      </trkpt>
      <trkpt lat="45.84832" lon="5.71435">
        <ele>330.76555107157</ele>
        <time>2014-09-21T15:07:18Z</time>
      </trkpt>
      <trkpt lat="45.84837" lon="5.71446">
        <ele>329.68486768015</ele>
        <time>2014-09-21T15:07:23Z</time>
      </trkpt>
      <trkpt lat="45.84839" lon="5.71454">
        <ele>329.68486768015</ele>
        <time>2014-09-21T15:07:28Z</time>
      </trkpt>
      <trkpt lat="45.8484" lon="5.7146">
        <ele>328.87777456348</ele>
        <time>2014-09-21T15:07:33Z</time>
      </trkpt>
      <trkpt lat="45.84844" lon="5.71466">
        <ele>328.87777456348</ele>
        <time>2014-09-21T15:07:38Z</time>
      </trkpt>
      <trkpt lat="45.8485" lon="5.71476">
        <ele>328.28200203077</ele>
        <time>2014-09-21T15:07:43Z</time>
      </trkpt>
      <trkpt lat="45.84855" lon="5.71491">
        <ele>327.72391121184</ele>
        <time>2014-09-21T15:07:48Z</time>
      </trkpt>
      <trkpt lat="45.84858" lon="5.71494">
        <ele>327.72391121184</ele>
        <time>2014-09-21T15:07:53Z</time>
      </trkpt>
      <trkpt lat="45.84864" lon="5.71501">
        <ele>327.35949862768</ele>
        <time>2014-09-21T15:07:58Z</time>
      </trkpt>
      <trkpt lat="45.84869" lon="5.71505">
        <ele>327.35949862768</ele>
        <time>2014-09-21T15:08:04Z</time>
      </trkpt>
      <trkpt lat="45.84878" lon="5.71515">
        <ele>327.70739339661</ele>
        <time>2014-09-21T15:08:08Z</time>
      </trkpt>
      <trkpt lat="45.84883" lon="5.71519">
        <ele>327.70739339661</ele>
        <time>2014-09-21T15:08:13Z</time>
      </trkpt>
      <trkpt lat="45.84886" lon="5.71519">
        <ele>327.70739339661</ele>
        <time>2014-09-21T15:08:18Z</time>
      </trkpt>
      <trkpt lat="45.84891" lon="5.71518">
        <ele>328.42464817129</ele>
        <time>2014-09-21T15:08:23Z</time>
      </trkpt>
      <trkpt lat="45.84896" lon="5.71519">
        <ele>328.42464817129</ele>
        <time>2014-09-21T15:08:28Z</time>
      </trkpt>
      <trkpt lat="45.84904" lon="5.71522">
        <ele>329.30772426419</ele>
        <time>2014-09-21T15:08:33Z</time>
      </trkpt>
      <trkpt lat="45.84914" lon="5.71523">
        <ele>330.25401125275</ele>
        <time>2014-09-21T15:08:39Z</time>
      </trkpt>
      <trkpt lat="45.8492" lon="5.71523">
        <ele>330.25401125275</ele>
        <time>2014-09-21T15:08:43Z</time>
      </trkpt>
      <trkpt lat="45.84925" lon="5.71522">
        <ele>331.26912497912</ele>
        <time>2014-09-21T15:08:48Z</time>
      </trkpt>
      <trkpt lat="45.84932" lon="5.71521">
        <ele>331.26912497912</ele>
        <time>2014-09-21T15:08:53Z</time>
      </trkpt>
      <trkpt lat="45.84936" lon="5.71519">
        <ele>332.38689940214</ele>
        <time>2014-09-21T15:08:58Z</time>
      </trkpt>
      <trkpt lat="45.84943" lon="5.7152">
        <ele>332.38689940214</ele>
        <time>2014-09-21T15:09:03Z</time>
      </trkpt>
      <trkpt lat="45.84951" lon="5.71519">
        <ele>333.43665384152</ele>
        <time>2014-09-21T15:09:08Z</time>
      </trkpt>
      <trkpt lat="45.84958" lon="5.71517">
        <ele>333.43665384152</ele>
        <time>2014-09-21T15:09:13Z</time>
      </trkpt>
      <trkpt lat="45.84964" lon="5.71515">
        <ele>334.34692962913</ele>
        <time>2014-09-21T15:09:18Z</time>
      </trkpt>
      <trkpt lat="45.84971" lon="5.71512">
        <ele>334.34692962913</ele>
        <time>2014-09-21T15:09:23Z</time>
      </trkpt>
      <trkpt lat="45.84983" lon="5.71509">
        <ele>335.34016851919</ele>
        <time>2014-09-21T15:09:28Z</time>
      </trkpt>
      <trkpt lat="45.84992" lon="5.71507">
        <ele>336.30524194601</ele>
        <time>2014-09-21T15:09:33Z</time>
      </trkpt>
      <trkpt lat="45.85" lon="5.71507">
        <ele>336.30524194601</ele>
        <time>2014-09-21T15:09:38Z</time>
      </trkpt>
      <trkpt lat="45.85005" lon="5.71505">
        <ele>337.25460891054</ele>
        <time>2014-09-21T15:09:43Z</time>
      </trkpt>
      <trkpt lat="45.85009" lon="5.71502">
        <ele>337.25460891054</ele>
        <time>2014-09-21T15:09:48Z</time>
      </trkpt>
      <trkpt lat="45.85015" lon="5.71499">
        <ele>338.02698753633</ele>
        <time>2014-09-21T15:09:53Z</time>
      </trkpt>
      <trkpt lat="45.85018" lon="5.71496">
        <ele>338.02698753633</ele>
        <time>2014-09-21T15:09:58Z</time>
      </trkpt>
      <trkpt lat="45.85024" lon="5.71497">
        <ele>338.70408804774</ele>
        <time>2014-09-21T15:10:03Z</time>
      </trkpt>
      <trkpt lat="45.85031" lon="5.71498">
        <ele>338.70408804774</ele>
        <time>2014-09-21T15:10:08Z</time>
      </trkpt>
      <trkpt lat="45.85036" lon="5.71497">
        <ele>339.23226042347</ele>
        <time>2014-09-21T15:10:13Z</time>
      </trkpt>
      <trkpt lat="45.85045" lon="5.71495">
        <ele>339.70640298895</ele>
        <time>2014-09-21T15:10:18Z</time>
      </trkpt>
      <trkpt lat="45.85051" lon="5.71495">
        <ele>339.70640298895</ele>
        <time>2014-09-21T15:10:23Z</time>
      </trkpt>
      <trkpt lat="45.85058" lon="5.71494">
        <ele>340.20026375876</ele>
        <time>2014-09-21T15:10:28Z</time>
      </trkpt>
      <trkpt lat="45.85064" lon="5.71491">
        <ele>340.20026375876</ele>
        <time>2014-09-21T15:10:33Z</time>
      </trkpt>
      <trkpt lat="45.8507" lon="5.71489">
        <ele>340.666910579</ele>
        <time>2014-09-21T15:10:38Z</time>
      </trkpt>
      <trkpt lat="45.85077" lon="5.71484">
        <ele>340.666910579</ele>
        <time>2014-09-21T15:10:43Z</time>
      </trkpt>
      <trkpt lat="45.85083" lon="5.71481">
        <ele>341.12066177106</ele>
        <time>2014-09-21T15:10:48Z</time>
      </trkpt>
      <trkpt lat="45.85092" lon="5.7148">
        <ele>341.53166874785</ele>
        <time>2014-09-21T15:10:53Z</time>
      </trkpt>
      <trkpt lat="45.85099" lon="5.71477">
        <ele>341.53166874785</ele>
        <time>2014-09-21T15:10:58Z</time>
      </trkpt>
      <trkpt lat="45.85106" lon="5.71472">
        <ele>341.78601026285</ele>
        <time>2014-09-21T15:11:03Z</time>
      </trkpt>
      <trkpt lat="45.85112" lon="5.71469">
        <ele>341.78601026285</ele>
        <time>2014-09-21T15:11:08Z</time>
      </trkpt>
      <trkpt lat="45.85121" lon="5.71467">
        <ele>342.06687582902</ele>
        <time>2014-09-21T15:11:13Z</time>
      </trkpt>
      <trkpt lat="45.85126" lon="5.71467">
        <ele>342.06687582902</ele>
        <time>2014-09-21T15:11:18Z</time>
      </trkpt>
      <trkpt lat="45.85132" lon="5.71469">
        <ele>342.51518028959</ele>
        <time>2014-09-21T15:11:23Z</time>
      </trkpt>
      <trkpt lat="45.85138" lon="5.71467">
        <ele>342.51518028959</ele>
        <time>2014-09-21T15:11:28Z</time>
      </trkpt>
      <trkpt lat="45.85145" lon="5.71463">
        <ele>342.92963886879</ele>
        <time>2014-09-21T15:11:33Z</time>
      </trkpt>
      <trkpt lat="45.85152" lon="5.71459">
        <ele>342.92963886879</ele>
        <time>2014-09-21T15:11:38Z</time>
      </trkpt>
      <trkpt lat="45.85154" lon="5.71457">
        <ele>343.29685698637</ele>
        <time>2014-09-21T15:11:46Z</time>
      </trkpt>
      <trkpt lat="45.8516" lon="5.71453">
        <ele>343.29685698637</ele>
        <time>2014-09-21T15:11:48Z</time>
      </trkpt>
      <trkpt lat="45.85177" lon="5.71447">
        <ele>343.47493017601</ele>
        <time>2014-09-21T15:11:53Z</time>
      </trkpt>
      <trkpt lat="45.85187" lon="5.71448">
        <ele>343.50591345072</ele>
        <time>2014-09-21T15:11:58Z</time>
      </trkpt>
      <trkpt lat="45.85194" lon="5.7145">
        <ele>343.50591345072</ele>
        <time>2014-09-21T15:12:03Z</time>
      </trkpt>
      <trkpt lat="45.85201" lon="5.71453">
        <ele>343.32837500609</ele>
        <time>2014-09-21T15:12:08Z</time>
      </trkpt>
      <trkpt lat="45.85211" lon="5.71464">
        <ele>342.64105407626</ele>
        <time>2014-09-21T15:12:13Z</time>
      </trkpt>
      <trkpt lat="45.8522" lon="5.71476">
        <ele>341.44011622709</ele>
        <time>2014-09-21T15:12:18Z</time>
      </trkpt>
      <trkpt lat="45.85227" lon="5.71485">
        <ele>340.09818326543</ele>
        <time>2014-09-21T15:12:23Z</time>
      </trkpt>
      <trkpt lat="45.85232" lon="5.71494">
        <ele>340.09818326543</ele>
        <time>2014-09-21T15:12:28Z</time>
      </trkpt>
      <trkpt lat="45.85237" lon="5.71503">
        <ele>338.3412540742</ele>
        <time>2014-09-21T15:12:33Z</time>
      </trkpt>
      <trkpt lat="45.85244" lon="5.71512">
        <ele>336.47867093677</ele>
        <time>2014-09-21T15:12:38Z</time>
      </trkpt>
      <trkpt lat="45.85248" lon="5.7152">
        <ele>336.47867093677</ele>
        <time>2014-09-21T15:12:43Z</time>
      </trkpt>
      <trkpt lat="45.85252" lon="5.71527">
        <ele>334.5379505302</ele>
        <time>2014-09-21T15:12:48Z</time>
      </trkpt>
      <trkpt lat="45.85256" lon="5.71531">
        <ele>334.5379505302</ele>
        <time>2014-09-21T15:12:53Z</time>
      </trkpt>
      <trkpt lat="45.85261" lon="5.71533">
        <ele>332.47273811252</ele>
        <time>2014-09-21T15:12:58Z</time>
      </trkpt>
      <trkpt lat="45.85263" lon="5.71541">
        <ele>332.47273811252</ele>
        <time>2014-09-21T15:13:03Z</time>
      </trkpt>
      <trkpt lat="45.85262" lon="5.7155">
        <ele>330.42774851727</ele>
        <time>2014-09-21T15:13:08Z</time>
      </trkpt>
      <trkpt lat="45.85259" lon="5.71558">
        <ele>330.42774851727</ele>
        <time>2014-09-21T15:13:13Z</time>
      </trkpt>
      <trkpt lat="45.85257" lon="5.71568">
        <ele>328.30638687391</ele>
        <time>2014-09-21T15:13:18Z</time>
      </trkpt>
      <trkpt lat="45.85261" lon="5.71575">
        <ele>328.30638687391</ele>
        <time>2014-09-21T15:13:23Z</time>
      </trkpt>
      <trkpt lat="45.85264" lon="5.71576">
        <ele>326.14900970583</ele>
        <time>2014-09-21T15:13:28Z</time>
      </trkpt>
      <trkpt lat="45.85268" lon="5.71574">
        <ele>326.14900970583</ele>
        <time>2014-09-21T15:13:33Z</time>
      </trkpt>
      <trkpt lat="45.85272" lon="5.71571">
        <ele>326.14900970583</ele>
        <time>2014-09-21T15:13:38Z</time>
      </trkpt>
      <trkpt lat="45.85274" lon="5.71568">
        <ele>324.28126080299</ele>
        <time>2014-09-21T15:13:43Z</time>
      </trkpt>
      <trkpt lat="45.85277" lon="5.71563">
        <ele>324.28126080299</ele>
        <time>2014-09-21T15:13:48Z</time>
      </trkpt>
      <trkpt lat="45.8528" lon="5.71555">
        <ele>322.48516680709</ele>
        <time>2014-09-21T15:13:53Z</time>
      </trkpt>
      <trkpt lat="45.85283" lon="5.71549">
        <ele>322.48516680709</ele>
        <time>2014-09-21T15:13:58Z</time>
      </trkpt>
      <trkpt lat="45.85285" lon="5.71545">
        <ele>322.48516680709</ele>
        <time>2014-09-21T15:14:03Z</time>
      </trkpt>
      <trkpt lat="45.85287" lon="5.7154">
        <ele>320.60170619454</ele>
        <time>2014-09-21T15:14:08Z</time>
      </trkpt>
      <trkpt lat="45.8529" lon="5.71533">
        <ele>320.60170619454</ele>
        <time>2014-09-21T15:14:13Z</time>
      </trkpt>
      <trkpt lat="45.85294" lon="5.7153">
        <ele>319.06012846975</ele>
        <time>2014-09-21T15:14:18Z</time>
      </trkpt>
      <trkpt lat="45.85299" lon="5.71528">
        <ele>319.06012846975</ele>
        <time>2014-09-21T15:14:23Z</time>
      </trkpt>
      <trkpt lat="45.85304" lon="5.71524">
        <ele>317.72387436937</ele>
        <time>2014-09-21T15:14:28Z</time>
      </trkpt>
      <trkpt lat="45.85309" lon="5.71519">
        <ele>317.72387436937</ele>
        <time>2014-09-21T15:14:33Z</time>
      </trkpt>
      <trkpt lat="45.85315" lon="5.71516">
        <ele>316.49455271741</ele>
        <time>2014-09-21T15:14:38Z</time>
      </trkpt>
      <trkpt lat="45.8532" lon="5.71515">
        <ele>316.49455271741</ele>
        <time>2014-09-21T15:14:43Z</time>
      </trkpt>
      <trkpt lat="45.85329" lon="5.71507">
        <ele>315.55440010699</ele>
        <time>2014-09-21T15:14:48Z</time>
      </trkpt>
      <trkpt lat="45.85342" lon="5.715">
        <ele>314.88400007937</ele>
        <time>2014-09-21T15:14:53Z</time>
      </trkpt>
      <trkpt lat="45.85355" lon="5.71496">
        <ele>314.56537645726</ele>
        <time>2014-09-21T15:14:58Z</time>
      </trkpt>
      <trkpt lat="45.85363" lon="5.7149">
        <ele>314.56537645726</ele>
        <time>2014-09-21T15:15:03Z</time>
      </trkpt>
      <trkpt lat="45.8537" lon="5.71489">
        <ele>314.44286120254</ele>
        <time>2014-09-21T15:15:08Z</time>
      </trkpt>
      <trkpt lat="45.85376" lon="5.7149">
        <ele>314.44286120254</ele>
        <time>2014-09-21T15:15:13Z</time>
      </trkpt>
      <trkpt lat="45.85384" lon="5.71491">
        <ele>314.24187669527</ele>
        <time>2014-09-21T15:15:18Z</time>
      </trkpt>
      <trkpt lat="45.85394" lon="5.71488">
        <ele>314.01078265707</ele>
        <time>2014-09-21T15:15:23Z</time>
      </trkpt>
      <trkpt lat="45.85403" lon="5.71489">
        <ele>314.01078265707</ele>
        <time>2014-09-21T15:15:28Z</time>
      </trkpt>
      <trkpt lat="45.85411" lon="5.71483">
        <ele>313.2900027507</ele>
        <time>2014-09-21T15:15:33Z</time>
      </trkpt>
      <trkpt lat="45.85415" lon="5.71478">
        <ele>313.2900027507</ele>
        <time>2014-09-21T15:15:38Z</time>
      </trkpt>
      <trkpt lat="45.85417" lon="5.71471">
        <ele>311.79913205628</ele>
        <time>2014-09-21T15:15:43Z</time>
      </trkpt>
      <trkpt lat="45.85419" lon="5.71462">
        <ele>311.79913205628</ele>
        <time>2014-09-21T15:15:48Z</time>
      </trkpt>
      <trkpt lat="45.85424" lon="5.71454">
        <ele>310.4621654367</ele>
        <time>2014-09-21T15:15:53Z</time>
      </trkpt>
      <trkpt lat="45.8543" lon="5.71445">
        <ele>310.4621654367</ele>
        <time>2014-09-21T15:15:58Z</time>
      </trkpt>
      <trkpt lat="45.85436" lon="5.71436">
        <ele>309.25564225652</ele>
        <time>2014-09-21T15:16:03Z</time>
      </trkpt>
      <trkpt lat="45.85443" lon="5.71433">
        <ele>309.25564225652</ele>
        <time>2014-09-21T15:16:08Z</time>
      </trkpt>
      <trkpt lat="45.85449" lon="5.7143">
        <ele>308.14297828751</ele>
        <time>2014-09-21T15:16:13Z</time>
      </trkpt>
      <trkpt lat="45.85455" lon="5.71426">
        <ele>308.14297828751</ele>
        <time>2014-09-21T15:16:18Z</time>
      </trkpt>
      <trkpt lat="45.85462" lon="5.71422">
        <ele>307.24846563675</ele>
        <time>2014-09-21T15:16:23Z</time>
      </trkpt>
      <trkpt lat="45.85469" lon="5.7142">
        <ele>307.24846563675</ele>
        <time>2014-09-21T15:16:28Z</time>
      </trkpt>
      <trkpt lat="45.85477" lon="5.71421">
        <ele>306.52806295204</ele>
        <time>2014-09-21T15:16:33Z</time>
      </trkpt>
      <trkpt lat="45.85484" lon="5.71424">
        <ele>306.52806295204</ele>
        <time>2014-09-21T15:16:38Z</time>
      </trkpt>
      <trkpt lat="45.85491" lon="5.71428">
        <ele>305.92599850229</ele>
        <time>2014-09-21T15:16:43Z</time>
      </trkpt>
      <trkpt lat="45.85505" lon="5.71432">
        <ele>305.33255876773</ele>
        <time>2014-09-21T15:16:48Z</time>
      </trkpt>
      <trkpt lat="45.85513" lon="5.71431">
        <ele>305.33255876773</ele>
        <time>2014-09-21T15:16:53Z</time>
      </trkpt>
      <trkpt lat="45.85521" lon="5.7143">
        <ele>304.67482991515</ele>
        <time>2014-09-21T15:16:58Z</time>
      </trkpt>
      <trkpt lat="45.85525" lon="5.7143">
        <ele>304.67482991515</ele>
        <time>2014-09-21T15:17:03Z</time>
      </trkpt>
      <trkpt lat="45.8553" lon="5.71429">
        <ele>304.67482991515</ele>
        <time>2014-09-21T15:17:08Z</time>
      </trkpt>
      <trkpt lat="45.85542" lon="5.71424">
        <ele>303.97184815026</ele>
        <time>2014-09-21T15:17:13Z</time>
      </trkpt>
      <trkpt lat="45.85553" lon="5.7142">
        <ele>303.39985194832</ele>
        <time>2014-09-21T15:17:18Z</time>
      </trkpt>
      <trkpt lat="45.85559" lon="5.71416">
        <ele>303.39985194832</ele>
        <time>2014-09-21T15:17:23Z</time>
      </trkpt>
      <trkpt lat="45.85565" lon="5.71427">
        <ele>302.48763206403</ele>
        <time>2014-09-21T15:17:28Z</time>
      </trkpt>
      <trkpt lat="45.85568" lon="5.71439">
        <ele>302.48763206403</ele>
        <time>2014-09-21T15:17:33Z</time>
      </trkpt>
      <trkpt lat="45.8557" lon="5.71451">
        <ele>301.289484436</ele>
        <time>2014-09-21T15:17:38Z</time>
      </trkpt>
      <trkpt lat="45.85571" lon="5.71461">
        <ele>301.289484436</ele>
        <time>2014-09-21T15:17:43Z</time>
      </trkpt>
      <trkpt lat="45.85569" lon="5.7147">
        <ele>299.79883345328</ele>
        <time>2014-09-21T15:17:48Z</time>
      </trkpt>
      <trkpt lat="45.85568" lon="5.71477">
        <ele>299.79883345328</ele>
        <time>2014-09-21T15:17:53Z</time>
      </trkpt>
      <trkpt lat="45.85563" lon="5.71488">
        <ele>298.11124378969</ele>
        <time>2014-09-21T15:17:59Z</time>
      </trkpt>
      <trkpt lat="45.85559" lon="5.71498">
        <ele>298.11124378969</ele>
        <time>2014-09-21T15:18:03Z</time>
      </trkpt>
      <trkpt lat="45.85558" lon="5.715">
        <ele>296.44546920236</ele>
        <time>2014-09-21T15:18:08Z</time>
      </trkpt>
      <trkpt lat="45.85551" lon="5.71509">
        <ele>294.88879743967</ele>
        <time>2014-09-21T15:18:28Z</time>
      </trkpt>
      <trkpt lat="45.8555" lon="5.71509">
        <ele>294.88879743967</ele>
        <time>2014-09-21T15:18:33Z</time>
      </trkpt>
      <trkpt lat="45.85546" lon="5.71516">
        <ele>294.88879743967</ele>
        <time>2014-09-21T15:18:48Z</time>
      </trkpt>
      <trkpt lat="45.85544" lon="5.7152">
        <ele>293.19029252377</ele>
        <time>2014-09-21T15:18:53Z</time>
      </trkpt>
      <trkpt lat="45.85543" lon="5.71525">
        <ele>293.19029252377</ele>
        <time>2014-09-21T15:18:58Z</time>
      </trkpt>
      <trkpt lat="45.85542" lon="5.7153">
        <ele>293.19029252377</ele>
        <time>2014-09-21T15:19:03Z</time>
      </trkpt>
      <trkpt lat="45.85541" lon="5.71536">
        <ele>291.88158667291</ele>
        <time>2014-09-21T15:19:08Z</time>
      </trkpt>
      <trkpt lat="45.85542" lon="5.71542">
        <ele>291.88158667291</ele>
        <time>2014-09-21T15:19:13Z</time>
      </trkpt>
      <trkpt lat="45.85539" lon="5.71553">
        <ele>290.5317994244</ele>
        <time>2014-09-21T15:19:18Z</time>
      </trkpt>
      <trkpt lat="45.85539" lon="5.7156">
        <ele>290.5317994244</ele>
        <time>2014-09-21T15:19:23Z</time>
      </trkpt>
      <trkpt lat="45.85538" lon="5.71566">
        <ele>289.17409602172</ele>
        <time>2014-09-21T15:19:28Z</time>
      </trkpt>
      <trkpt lat="45.85537" lon="5.71569">
        <ele>289.17409602172</ele>
        <time>2014-09-21T15:19:33Z</time>
      </trkpt>
      <trkpt lat="45.85536" lon="5.71573">
        <ele>289.17409602172</ele>
        <time>2014-09-21T15:19:53Z</time>
      </trkpt>
      <trkpt lat="45.85535" lon="5.71579">
        <ele>287.82476103748</ele>
        <time>2014-09-21T15:19:58Z</time>
      </trkpt>
      <trkpt lat="45.85533" lon="5.71583">
        <ele>287.82476103748</ele>
        <time>2014-09-21T15:20:03Z</time>
      </trkpt>
      <trkpt lat="45.85532" lon="5.71586">
        <ele>287.82476103748</ele>
        <time>2014-09-21T15:20:08Z</time>
      </trkpt>
      <trkpt lat="45.85531" lon="5.71588">
        <ele>287.82476103748</ele>
        <time>2014-09-21T15:20:13Z</time>
      </trkpt>
      <trkpt lat="45.85528" lon="5.71597">
        <ele>286.54203774463</ele>
        <time>2014-09-21T15:20:38Z</time>
      </trkpt>
      <trkpt lat="45.85528" lon="5.71599">
        <ele>286.54203774463</ele>
        <time>2014-09-21T15:20:43Z</time>
      </trkpt>
      <trkpt lat="45.85524" lon="5.71614">
        <ele>285.73992857063</ele>
        <time>2014-09-21T15:21:23Z</time>
      </trkpt>
      <trkpt lat="45.85524" lon="5.71617">
        <ele>285.73992857063</ele>
        <time>2014-09-21T15:21:28Z</time>
      </trkpt>
      <trkpt lat="45.85523" lon="5.7162">
        <ele>285.73992857063</ele>
        <time>2014-09-21T15:21:33Z</time>
      </trkpt>
      <trkpt lat="45.8552" lon="5.71624">
        <ele>285.73992857063</ele>
        <time>2014-09-21T15:21:38Z</time>
      </trkpt>
      <trkpt lat="45.8552" lon="5.71625">
        <ele>285.2530024099</ele>
        <time>2014-09-21T15:21:43Z</time>
      </trkpt>
      <trkpt lat="45.85518" lon="5.71639">
        <ele>284.75411697051</ele>
        <time>2014-09-21T15:21:58Z</time>
      </trkpt>
      <trkpt lat="45.85518" lon="5.71645">
        <ele>284.75411697051</ele>
        <time>2014-09-21T15:22:03Z</time>
      </trkpt>
      <trkpt lat="45.85517" lon="5.71652">
        <ele>284.32925526152</ele>
        <time>2014-09-21T15:22:08Z</time>
      </trkpt>
      <trkpt lat="45.85515" lon="5.71657">
        <ele>284.32925526152</ele>
        <time>2014-09-21T15:22:13Z</time>
      </trkpt>
      <trkpt lat="45.85515" lon="5.71666">
        <ele>284.14431042935</ele>
        <time>2014-09-21T15:22:18Z</time>
      </trkpt>
      <trkpt lat="45.85514" lon="5.7167">
        <ele>284.14431042935</ele>
        <time>2014-09-21T15:22:23Z</time>
      </trkpt>
      <trkpt lat="45.85514" lon="5.71669">
        <ele>284.14431042935</ele>
        <time>2014-09-21T15:22:28Z</time>
      </trkpt>
      <trkpt lat="45.85512" lon="5.71676">
        <ele>284.14431042935</ele>
        <time>2014-09-21T15:22:34Z</time>
      </trkpt>
      <trkpt lat="45.85511" lon="5.71681">
        <ele>283.8334909545</ele>
        <time>2014-09-21T15:22:38Z</time>
      </trkpt>
      <trkpt lat="45.8551" lon="5.71687">
        <ele>283.8334909545</ele>
        <time>2014-09-21T15:22:43Z</time>
      </trkpt>
      <trkpt lat="45.85508" lon="5.71693">
        <ele>283.8334909545</ele>
        <time>2014-09-21T15:22:49Z</time>
      </trkpt>
      <trkpt lat="45.85509" lon="5.71698">
        <ele>283.43290070098</ele>
        <time>2014-09-21T15:22:53Z</time>
      </trkpt>
      <trkpt lat="45.85509" lon="5.71705">
        <ele>283.43290070098</ele>
        <time>2014-09-21T15:22:58Z</time>
      </trkpt>
      <trkpt lat="45.85507" lon="5.71707">
        <ele>283.43290070098</ele>
        <time>2014-09-21T15:23:03Z</time>
      </trkpt>
      <trkpt lat="45.85508" lon="5.71719">
        <ele>282.9329991879</ele>
        <time>2014-09-21T15:23:13Z</time>
      </trkpt>
      <trkpt lat="45.8551" lon="5.71727">
        <ele>282.9329991879</ele>
        <time>2014-09-21T15:23:18Z</time>
      </trkpt>
      <trkpt lat="45.85512" lon="5.71732">
        <ele>282.61344355221</ele>
        <time>2014-09-21T15:23:23Z</time>
      </trkpt>
      <trkpt lat="45.85512" lon="5.71733">
        <ele>282.61344355221</ele>
        <time>2014-09-21T15:23:28Z</time>
      </trkpt>
      <trkpt lat="45.85511" lon="5.7173">
        <ele>282.61344355221</ele>
        <time>2014-09-21T15:23:43Z</time>
      </trkpt>
      <trkpt lat="45.85511" lon="5.7173">
        <ele>282.61344355221</ele>
        <time>2014-09-21T15:23:48Z</time>
      </trkpt>
      <trkpt lat="45.85514" lon="5.71731">
        <ele>282.61344355221</ele>
        <time>2014-09-21T15:24:18Z</time>
      </trkpt>
      <trkpt lat="45.85512" lon="5.71735">
        <ele>281.65200825612</ele>
        <time>2014-09-21T15:24:23Z</time>
      </trkpt>
      <trkpt lat="45.85515" lon="5.71737">
        <ele>281.65200825612</ele>
        <time>2014-09-21T15:24:28Z</time>
      </trkpt>
      <trkpt lat="45.85514" lon="5.71736">
        <ele>281.65200825612</ele>
        <time>2014-09-21T15:24:33Z</time>
      </trkpt>
      <trkpt lat="45.85516" lon="5.71736">
        <ele>281.65200825612</ele>
        <time>2014-09-21T15:24:38Z</time>
      </trkpt>
      <trkpt lat="45.85517" lon="5.71745">
        <ele>280.4703836923</ele>
        <time>2014-09-21T15:24:43Z</time>
      </trkpt>
      <trkpt lat="45.85517" lon="5.71753">
        <ele>280.4703836923</ele>
        <time>2014-09-21T15:24:48Z</time>
      </trkpt>
      <trkpt lat="45.85518" lon="5.71761">
        <ele>278.92669379151</ele>
        <time>2014-09-21T15:24:53Z</time>
      </trkpt>
      <trkpt lat="45.85519" lon="5.71767">
        <ele>278.92669379151</ele>
        <time>2014-09-21T15:24:58Z</time>
      </trkpt>
      <trkpt lat="45.85521" lon="5.71777">
        <ele>277.22195874869</ele>
        <time>2014-09-21T15:25:03Z</time>
      </trkpt>
      <trkpt lat="45.85521" lon="5.71785">
        <ele>277.22195874869</ele>
        <time>2014-09-21T15:25:08Z</time>
      </trkpt>
      <trkpt lat="45.85523" lon="5.71791">
        <ele>275.65817193817</ele>
        <time>2014-09-21T15:25:13Z</time>
      </trkpt>
      <trkpt lat="45.85521" lon="5.71798">
        <ele>275.65817193817</ele>
        <time>2014-09-21T15:25:18Z</time>
      </trkpt>
      <trkpt lat="45.85521" lon="5.71808">
        <ele>273.93829707887</ele>
        <time>2014-09-21T15:25:23Z</time>
      </trkpt>
      <trkpt lat="45.85519" lon="5.71822">
        <ele>272.36399047186</ele>
        <time>2014-09-21T15:25:28Z</time>
      </trkpt>
      <trkpt lat="45.85518" lon="5.71833">
        <ele>272.36399047186</ele>
        <time>2014-09-21T15:25:33Z</time>
      </trkpt>
      <trkpt lat="45.85521" lon="5.71845">
        <ele>270.69552572394</ele>
        <time>2014-09-21T15:25:38Z</time>
      </trkpt>
      <trkpt lat="45.85521" lon="5.71856">
        <ele>270.69552572394</ele>
        <time>2014-09-21T15:25:43Z</time>
      </trkpt>
      <trkpt lat="45.85524" lon="5.71867">
        <ele>269.44599965777</ele>
        <time>2014-09-21T15:25:48Z</time>
      </trkpt>
      <trkpt lat="45.85522" lon="5.71878">
        <ele>269.44599965777</ele>
        <time>2014-09-21T15:25:53Z</time>
      </trkpt>
      <trkpt lat="45.85523" lon="5.71885">
        <ele>268.57082183905</ele>
        <time>2014-09-21T15:25:58Z</time>
      </trkpt>
      <trkpt lat="45.85526" lon="5.71899">
        <ele>267.66732887866</ele>
        <time>2014-09-21T15:26:03Z</time>
      </trkpt>
      <trkpt lat="45.8553" lon="5.7191">
        <ele>267.66732887866</ele>
        <time>2014-09-21T15:26:08Z</time>
      </trkpt>
      <trkpt lat="45.85528" lon="5.71923">
        <ele>266.47778529018</ele>
        <time>2014-09-21T15:26:13Z</time>
      </trkpt>
      <trkpt lat="45.85523" lon="5.71943">
        <ele>265.16768379703</ele>
        <time>2014-09-21T15:26:18Z</time>
      </trkpt>
      <trkpt lat="45.8552" lon="5.71957">
        <ele>263.99155869428</ele>
        <time>2014-09-21T15:26:23Z</time>
      </trkpt>
      <trkpt lat="45.85519" lon="5.71966">
        <ele>263.99155869428</ele>
        <time>2014-09-21T15:26:28Z</time>
      </trkpt>
      <trkpt lat="45.85518" lon="5.71971">
        <ele>263.14162071418</ele>
        <time>2014-09-21T15:26:33Z</time>
      </trkpt>
      <trkpt lat="45.85515" lon="5.71974">
        <ele>263.14162071418</ele>
        <time>2014-09-21T15:26:38Z</time>
      </trkpt>
      <trkpt lat="45.85515" lon="5.71974">
        <ele>263.14162071418</ele>
        <time>2014-09-21T15:26:43Z</time>
      </trkpt>
      <trkpt lat="45.85515" lon="5.71974">
        <ele>263.14162071418</ele>
        <time>2014-09-21T15:26:48Z</time>
      </trkpt>
      <trkpt lat="45.85514" lon="5.71976">
        <ele>263.14162071418</ele>
        <time>2014-09-21T15:26:53Z</time>
      </trkpt>
      <trkpt lat="45.85513" lon="5.71976">
        <ele>263.14162071418</ele>
        <time>2014-09-21T15:26:58Z</time>
      </trkpt>
      <trkpt lat="45.85514" lon="5.7198">
        <ele>263.14162071418</ele>
        <time>2014-09-21T15:27:03Z</time>
      </trkpt>
      <trkpt lat="45.85514" lon="5.7198">
        <ele>262.08888542572</ele>
        <time>2014-09-21T15:27:08Z</time>
      </trkpt>
      <trkpt lat="45.85515" lon="5.71985">
        <ele>262.08888542572</ele>
        <time>2014-09-21T15:27:18Z</time>
      </trkpt>
      <trkpt lat="45.85517" lon="5.71991">
        <ele>262.08888542572</ele>
        <time>2014-09-21T15:27:23Z</time>
      </trkpt>
      <trkpt lat="45.85518" lon="5.71995">
        <ele>261.00669301147</ele>
        <time>2014-09-21T15:27:28Z</time>
      </trkpt>
      <trkpt lat="45.8552" lon="5.72">
        <ele>261.00669301147</ele>
        <time>2014-09-21T15:27:33Z</time>
      </trkpt>
      <trkpt lat="45.85523" lon="5.72008">
        <ele>259.63779689202</ele>
        <time>2014-09-21T15:27:38Z</time>
      </trkpt>
      <trkpt lat="45.85527" lon="5.72013">
        <ele>259.63779689202</ele>
        <time>2014-09-21T15:27:43Z</time>
      </trkpt>
      <trkpt lat="45.8553" lon="5.7202">
        <ele>258.22020573219</ele>
        <time>2014-09-21T15:27:48Z</time>
      </trkpt>
      <trkpt lat="45.85534" lon="5.72027">
        <ele>258.22020573219</ele>
        <time>2014-09-21T15:27:53Z</time>
      </trkpt>
      <trkpt lat="45.85539" lon="5.72032">
        <ele>256.75840040643</ele>
        <time>2014-09-21T15:27:58Z</time>
      </trkpt>
      <trkpt lat="45.85542" lon="5.72039">
        <ele>256.75840040643</ele>
        <time>2014-09-21T15:28:03Z</time>
      </trkpt>
      <trkpt lat="45.85546" lon="5.72049">
        <ele>255.54486448107</ele>
        <time>2014-09-21T15:28:09Z</time>
      </trkpt>
      <trkpt lat="45.85546" lon="5.72056">
        <ele>255.54486448107</ele>
        <time>2014-09-21T15:28:13Z</time>
      </trkpt>
      <trkpt lat="45.85546" lon="5.72056">
        <ele>255.54486448107</ele>
        <time>2014-09-21T15:28:18Z</time>
      </trkpt>
      <trkpt lat="45.85543" lon="5.72061">
        <ele>254.44637282325</ele>
        <time>2014-09-21T15:28:23Z</time>
      </trkpt>
      <trkpt lat="45.85545" lon="5.72068">
        <ele>254.44637282325</ele>
        <time>2014-09-21T15:28:28Z</time>
      </trkpt>
      <trkpt lat="45.85546" lon="5.72075">
        <ele>253.36797101802</ele>
        <time>2014-09-21T15:28:33Z</time>
      </trkpt>
      <trkpt lat="45.85545" lon="5.72085">
        <ele>253.36797101802</ele>
        <time>2014-09-21T15:28:38Z</time>
      </trkpt>
      <trkpt lat="45.8554" lon="5.72094">
        <ele>252.19278638997</ele>
        <time>2014-09-21T15:28:43Z</time>
      </trkpt>
      <trkpt lat="45.85536" lon="5.72106">
        <ele>251.51893473509</ele>
        <time>2014-09-21T15:28:48Z</time>
      </trkpt>
      <trkpt lat="45.85536" lon="5.72116">
        <ele>251.51893473509</ele>
        <time>2014-09-21T15:28:53Z</time>
      </trkpt>
      <trkpt lat="45.85546" lon="5.7212">
        <ele>251.62536760982</ele>
        <time>2014-09-21T15:28:58Z</time>
      </trkpt>
      <trkpt lat="45.85554" lon="5.72125">
        <ele>251.62536760982</ele>
        <time>2014-09-21T15:29:03Z</time>
      </trkpt>
      <trkpt lat="45.85561" lon="5.72131">
        <ele>252.09103016619</ele>
        <time>2014-09-21T15:29:08Z</time>
      </trkpt>
      <trkpt lat="45.85564" lon="5.72133">
        <ele>252.09103016619</ele>
        <time>2014-09-21T15:29:13Z</time>
      </trkpt>
      <trkpt lat="45.85569" lon="5.72134">
        <ele>252.09103016619</ele>
        <time>2014-09-21T15:29:18Z</time>
      </trkpt>
      <trkpt lat="45.8557" lon="5.72128">
        <ele>251.97717196739</ele>
        <time>2014-09-21T15:29:23Z</time>
      </trkpt>
      <trkpt lat="45.85568" lon="5.72122">
        <ele>251.97717196739</ele>
        <time>2014-09-21T15:29:28Z</time>
      </trkpt>
      <trkpt lat="45.8557" lon="5.72117">
        <ele>251.97717196739</ele>
        <time>2014-09-21T15:29:33Z</time>
      </trkpt>
      <trkpt lat="45.85572" lon="5.72106">
        <ele>251.69823073623</ele>
        <time>2014-09-21T15:29:38Z</time>
      </trkpt>
      <trkpt lat="45.85573" lon="5.72095">
        <ele>251.69823073623</ele>
        <time>2014-09-21T15:29:43Z</time>
      </trkpt>
      <trkpt lat="45.85577" lon="5.72084">
        <ele>251.79720738325</ele>
        <time>2014-09-21T15:29:48Z</time>
      </trkpt>
      <trkpt lat="45.85581" lon="5.72076">
        <ele>251.79720738325</ele>
        <time>2014-09-21T15:29:53Z</time>
      </trkpt>
      <trkpt lat="45.85583" lon="5.72069">
        <ele>252.17091773672</ele>
        <time>2014-09-21T15:29:58Z</time>
      </trkpt>
      <trkpt lat="45.85583" lon="5.72059">
        <ele>252.17091773672</ele>
        <time>2014-09-21T15:30:03Z</time>
      </trkpt>
      <trkpt lat="45.8558" lon="5.72052">
        <ele>252.79508096497</ele>
        <time>2014-09-21T15:30:08Z</time>
      </trkpt>
      <trkpt lat="45.85576" lon="5.72052">
        <ele>252.79508096497</ele>
        <time>2014-09-21T15:30:13Z</time>
      </trkpt>
      <trkpt lat="45.85576" lon="5.72054">
        <ele>252.79508096497</ele>
        <time>2014-09-21T15:30:18Z</time>
      </trkpt>
      <trkpt lat="45.85577" lon="5.72058">
        <ele>252.79508096497</ele>
        <time>2014-09-21T15:30:38Z</time>
      </trkpt>
      <trkpt lat="45.85577" lon="5.72058">
        <ele>252.79508096497</ele>
        <time>2014-09-21T15:30:43Z</time>
      </trkpt>
      <trkpt lat="45.85579" lon="5.72055">
        <ele>252.68099861286</ele>
        <time>2014-09-21T15:30:48Z</time>
      </trkpt>
      <trkpt lat="45.85575" lon="5.72054">
        <ele>252.68099861286</ele>
        <time>2014-09-21T15:31:03Z</time>
      </trkpt>
      <trkpt lat="45.85573" lon="5.72055">
        <ele>252.68099861286</ele>
        <time>2014-09-21T15:31:08Z</time>
      </trkpt>
      <trkpt lat="45.85571" lon="5.72055">
        <ele>252.68099861286</ele>
        <time>2014-09-21T15:31:28Z</time>
      </trkpt>
      <trkpt lat="45.8557" lon="5.72057">
        <ele>253.17727232215</ele>
        <time>2014-09-21T15:31:33Z</time>
      </trkpt>
      <trkpt lat="45.8557" lon="5.72061">
        <ele>253.17727232215</ele>
        <time>2014-09-21T15:31:38Z</time>
      </trkpt>
      <trkpt lat="45.85572" lon="5.72063">
        <ele>253.17727232215</ele>
        <time>2014-09-21T15:31:43Z</time>
      </trkpt>
      <trkpt lat="45.85581" lon="5.72055">
        <ele>254.16273118055</ele>
        <time>2014-09-21T15:31:58Z</time>
      </trkpt>
      <trkpt lat="45.85582" lon="5.72053">
        <ele>254.16273118055</ele>
        <time>2014-09-21T15:32:03Z</time>
      </trkpt>
      <trkpt lat="45.85582" lon="5.72055">
        <ele>254.16273118055</ele>
        <time>2014-09-21T15:32:08Z</time>
      </trkpt>
      <trkpt lat="45.85581" lon="5.72055">
        <ele>254.16273118055</ele>
        <time>2014-09-21T15:32:13Z</time>
      </trkpt>
      <trkpt lat="45.85579" lon="5.72043">
        <ele>254.81765965139</ele>
        <time>2014-09-21T15:32:58Z</time>
      </trkpt>
      <trkpt lat="45.85584" lon="5.72045">
        <ele>254.81765965139</ele>
        <time>2014-09-21T15:33:03Z</time>
      </trkpt>
      <trkpt lat="45.85587" lon="5.7205">
        <ele>254.88795254272</ele>
        <time>2014-09-21T15:33:13Z</time>
      </trkpt>
      <trkpt lat="45.85589" lon="5.7206">
        <ele>254.88795254272</ele>
        <time>2014-09-21T15:33:18Z</time>
      </trkpt>
      <trkpt lat="45.85589" lon="5.7207">
        <ele>255.17749666378</ele>
        <time>2014-09-21T15:33:23Z</time>
      </trkpt>
      <trkpt lat="45.85589" lon="5.72077">
        <ele>255.17749666378</ele>
        <time>2014-09-21T15:33:28Z</time>
      </trkpt>
      <trkpt lat="45.85586" lon="5.72085">
        <ele>255.33535593827</ele>
        <time>2014-09-21T15:33:33Z</time>
      </trkpt>
      <trkpt lat="45.85584" lon="5.72094">
        <ele>255.33535593827</ele>
        <time>2014-09-21T15:33:38Z</time>
      </trkpt>
      <trkpt lat="45.85582" lon="5.72103">
        <ele>255.52681437868</ele>
        <time>2014-09-21T15:33:43Z</time>
      </trkpt>
      <trkpt lat="45.85576" lon="5.72115">
        <ele>255.42944782937</ele>
        <time>2014-09-21T15:33:48Z</time>
      </trkpt>
      <trkpt lat="45.85572" lon="5.72126">
        <ele>255.42944782937</ele>
        <time>2014-09-21T15:33:53Z</time>
      </trkpt>
      <trkpt lat="45.85569" lon="5.72136">
        <ele>255.39392319632</ele>
        <time>2014-09-21T15:33:58Z</time>
      </trkpt>
      <trkpt lat="45.85565" lon="5.72142">
        <ele>255.39392319632</ele>
        <time>2014-09-21T15:34:03Z</time>
      </trkpt>
      <trkpt lat="45.85561" lon="5.72149">
        <ele>254.96686852158</ele>
        <time>2014-09-21T15:34:08Z</time>
      </trkpt>
      <trkpt lat="45.85555" lon="5.72157">
        <ele>254.96686852158</ele>
        <time>2014-09-21T15:34:13Z</time>
      </trkpt>
      <trkpt lat="45.85552" lon="5.72167">
        <ele>254.33467395491</ele>
        <time>2014-09-21T15:34:18Z</time>
      </trkpt>
      <trkpt lat="45.8555" lon="5.7218">
        <ele>253.77157961749</ele>
        <time>2014-09-21T15:34:23Z</time>
      </trkpt>
      <trkpt lat="45.85548" lon="5.72191">
        <ele>253.77157961749</ele>
        <time>2014-09-21T15:34:28Z</time>
      </trkpt>
      <trkpt lat="45.85546" lon="5.72204">
        <ele>253.28658156256</ele>
        <time>2014-09-21T15:34:33Z</time>
      </trkpt>
      <trkpt lat="45.85544" lon="5.72217">
        <ele>252.80140838191</ele>
        <time>2014-09-21T15:34:38Z</time>
      </trkpt>
      <trkpt lat="45.85542" lon="5.72227">
        <ele>252.80140838191</ele>
        <time>2014-09-21T15:34:43Z</time>
      </trkpt>
      <trkpt lat="45.85542" lon="5.72238">
        <ele>252.48860243568</ele>
        <time>2014-09-21T15:34:48Z</time>
      </trkpt>
      <trkpt lat="45.85541" lon="5.7225">
        <ele>252.48860243568</ele>
        <time>2014-09-21T15:34:53Z</time>
      </trkpt>
      <trkpt lat="45.85539" lon="5.72267">
        <ele>252.2770404799</ele>
        <time>2014-09-21T15:34:58Z</time>
      </trkpt>
      <trkpt lat="45.85535" lon="5.72277">
        <ele>252.2770404799</ele>
        <time>2014-09-21T15:35:03Z</time>
      </trkpt>
      <trkpt lat="45.85533" lon="5.72286">
        <ele>252.1294297488</ele>
        <time>2014-09-21T15:35:08Z</time>
      </trkpt>
      <trkpt lat="45.8553" lon="5.72291">
        <ele>252.1294297488</ele>
        <time>2014-09-21T15:35:13Z</time>
      </trkpt>
      <trkpt lat="45.85524" lon="5.723">
        <ele>252.02551396035</ele>
        <time>2014-09-21T15:35:18Z</time>
      </trkpt>
      <trkpt lat="45.85518" lon="5.72308">
        <ele>252.02551396035</ele>
        <time>2014-09-21T15:35:23Z</time>
      </trkpt>
      <trkpt lat="45.85513" lon="5.72319">
        <ele>251.97528813914</ele>
        <time>2014-09-21T15:35:28Z</time>
      </trkpt>
      <trkpt lat="45.85506" lon="5.72327">
        <ele>251.97528813914</ele>
        <time>2014-09-21T15:35:33Z</time>
      </trkpt>
      <trkpt lat="45.85499" lon="5.72331">
        <ele>251.75734667289</ele>
        <time>2014-09-21T15:35:38Z</time>
      </trkpt>
      <trkpt lat="45.85495" lon="5.72335">
        <ele>251.75734667289</ele>
        <time>2014-09-21T15:35:43Z</time>
      </trkpt>
      <trkpt lat="45.85492" lon="5.72342">
        <ele>251.65705744144</ele>
        <time>2014-09-21T15:35:48Z</time>
      </trkpt>
      <trkpt lat="45.8549" lon="5.72362">
        <ele>251.53504325601</ele>
        <time>2014-09-21T15:35:53Z</time>
      </trkpt>
      <trkpt lat="45.85492" lon="5.72377">
        <ele>251.33433947161</ele>
        <time>2014-09-21T15:35:58Z</time>
      </trkpt>
      <trkpt lat="45.85493" lon="5.72391">
        <ele>251.16096462222</ele>
        <time>2014-09-21T15:36:03Z</time>
      </trkpt>
      <trkpt lat="45.85494" lon="5.72402">
        <ele>251.16096462222</ele>
        <time>2014-09-21T15:36:08Z</time>
      </trkpt>
      <trkpt lat="45.85498" lon="5.7242">
        <ele>251.18518207961</ele>
        <time>2014-09-21T15:36:13Z</time>
      </trkpt>
      <trkpt lat="45.85502" lon="5.72433">
        <ele>251.07426775449</ele>
        <time>2014-09-21T15:36:18Z</time>
      </trkpt>
      <trkpt lat="45.85505" lon="5.72443">
        <ele>251.07426775449</ele>
        <time>2014-09-21T15:36:23Z</time>
      </trkpt>
      <trkpt lat="45.85509" lon="5.72454">
        <ele>251.05358051163</ele>
        <time>2014-09-21T15:36:28Z</time>
      </trkpt>
      <trkpt lat="45.85513" lon="5.72463">
        <ele>251.05358051163</ele>
        <time>2014-09-21T15:36:33Z</time>
      </trkpt>
      <trkpt lat="45.85512" lon="5.72471">
        <ele>251.23084354648</ele>
        <time>2014-09-21T15:36:38Z</time>
      </trkpt>
      <trkpt lat="45.85507" lon="5.72482">
        <ele>251.35949408594</ele>
        <time>2014-09-21T15:36:43Z</time>
      </trkpt>
      <trkpt lat="45.85502" lon="5.72492">
        <ele>251.35949408594</ele>
        <time>2014-09-21T15:36:48Z</time>
      </trkpt>
      <trkpt lat="45.85495" lon="5.72503">
        <ele>251.61477865882</ele>
        <time>2014-09-21T15:36:53Z</time>
      </trkpt>
      <trkpt lat="45.85488" lon="5.72513">
        <ele>251.9714203388</ele>
        <time>2014-09-21T15:36:58Z</time>
      </trkpt>
      <trkpt lat="45.85479" lon="5.72526">
        <ele>252.16077611758</ele>
        <time>2014-09-21T15:37:03Z</time>
      </trkpt>
      <trkpt lat="45.8547" lon="5.72543">
        <ele>252.48208027026</ele>
        <time>2014-09-21T15:37:08Z</time>
      </trkpt>
      <trkpt lat="45.85467" lon="5.72554">
        <ele>252.48208027026</ele>
        <time>2014-09-21T15:37:13Z</time>
      </trkpt>
      <trkpt lat="45.85464" lon="5.72563">
        <ele>252.98168978291</ele>
        <time>2014-09-21T15:37:18Z</time>
      </trkpt>
      <trkpt lat="45.85459" lon="5.72569">
        <ele>252.98168978291</ele>
        <time>2014-09-21T15:37:23Z</time>
      </trkpt>
      <trkpt lat="45.85455" lon="5.72574">
        <ele>253.54358738746</ele>
        <time>2014-09-21T15:37:28Z</time>
      </trkpt>
      <trkpt lat="45.85449" lon="5.72576">
        <ele>253.54358738746</ele>
        <time>2014-09-21T15:37:33Z</time>
      </trkpt>
      <trkpt lat="45.85444" lon="5.72579">
        <ele>253.64223554257</ele>
        <time>2014-09-21T15:37:38Z</time>
      </trkpt>
      <trkpt lat="45.85441" lon="5.72588">
        <ele>253.64223554257</ele>
        <time>2014-09-21T15:37:43Z</time>
      </trkpt>
      <trkpt lat="45.85437" lon="5.72597">
        <ele>253.46937875768</ele>
        <time>2014-09-21T15:37:48Z</time>
      </trkpt>
      <trkpt lat="45.85431" lon="5.72607">
        <ele>253.28995771409</ele>
        <time>2014-09-21T15:37:53Z</time>
      </trkpt>
      <trkpt lat="45.85423" lon="5.72616">
        <ele>253.10453082336</ele>
        <time>2014-09-21T15:37:58Z</time>
      </trkpt>
      <trkpt lat="45.85416" lon="5.72624">
        <ele>253.10453082336</ele>
        <time>2014-09-21T15:38:03Z</time>
      </trkpt>
      <trkpt lat="45.85409" lon="5.72633">
        <ele>253.00014612757</ele>
        <time>2014-09-21T15:38:08Z</time>
      </trkpt>
      <trkpt lat="45.85401" lon="5.72648">
        <ele>252.82669520281</ele>
        <time>2014-09-21T15:38:13Z</time>
      </trkpt>
      <trkpt lat="45.8539" lon="5.72666">
        <ele>252.73355233035</ele>
        <time>2014-09-21T15:38:18Z</time>
      </trkpt>
      <trkpt lat="45.85385" lon="5.72679">
        <ele>252.72923017033</ele>
        <time>2014-09-21T15:38:23Z</time>
      </trkpt>
      <trkpt lat="45.85384" lon="5.72681">
        <ele>252.72923017033</ele>
        <time>2014-09-21T15:38:28Z</time>
      </trkpt>
      <trkpt lat="45.85381" lon="5.72688">
        <ele>252.72923017033</ele>
        <time>2014-09-21T15:38:33Z</time>
      </trkpt>
      <trkpt lat="45.85373" lon="5.72698">
        <ele>252.67728959339</ele>
        <time>2014-09-21T15:38:38Z</time>
      </trkpt>
      <trkpt lat="45.85369" lon="5.72704">
        <ele>252.67728959339</ele>
        <time>2014-09-21T15:38:43Z</time>
      </trkpt>
      <trkpt lat="45.85362" lon="5.72709">
        <ele>252.45147888181</ele>
        <time>2014-09-21T15:38:48Z</time>
      </trkpt>
      <trkpt lat="45.85359" lon="5.72717">
        <ele>252.45147888181</ele>
        <time>2014-09-21T15:38:53Z</time>
      </trkpt>
      <trkpt lat="45.85357" lon="5.7273">
        <ele>251.87769175302</ele>
        <time>2014-09-21T15:38:58Z</time>
      </trkpt>
      <trkpt lat="45.85354" lon="5.7274">
        <ele>251.87769175302</ele>
        <time>2014-09-21T15:39:03Z</time>
      </trkpt>
      <trkpt lat="45.85349" lon="5.72746">
        <ele>251.51616786397</ele>
        <time>2014-09-21T15:39:08Z</time>
      </trkpt>
      <trkpt lat="45.85346" lon="5.72752">
        <ele>251.51616786397</ele>
        <time>2014-09-21T15:39:13Z</time>
      </trkpt>
      <trkpt lat="45.85341" lon="5.72759">
        <ele>251.16486068039</ele>
        <time>2014-09-21T15:39:18Z</time>
      </trkpt>
      <trkpt lat="45.85335" lon="5.72766">
        <ele>251.16486068039</ele>
        <time>2014-09-21T15:39:23Z</time>
      </trkpt>
      <trkpt lat="45.85329" lon="5.7277">
        <ele>250.8959530218</ele>
        <time>2014-09-21T15:39:28Z</time>
      </trkpt>
      <trkpt lat="45.85326" lon="5.72774">
        <ele>250.8959530218</ele>
        <time>2014-09-21T15:39:33Z</time>
      </trkpt>
      <trkpt lat="45.85325" lon="5.72778">
        <ele>250.8959530218</ele>
        <time>2014-09-21T15:39:38Z</time>
      </trkpt>
      <trkpt lat="45.85321" lon="5.72783">
        <ele>250.67522808597</ele>
        <time>2014-09-21T15:39:43Z</time>
      </trkpt>
      <trkpt lat="45.85315" lon="5.72786">
        <ele>250.67522808597</ele>
        <time>2014-09-21T15:39:48Z</time>
      </trkpt>
      <trkpt lat="45.85308" lon="5.7279">
        <ele>250.60055657271</ele>
        <time>2014-09-21T15:39:53Z</time>
      </trkpt>
      <trkpt lat="45.85301" lon="5.72794">
        <ele>250.60055657271</ele>
        <time>2014-09-21T15:39:58Z</time>
      </trkpt>
      <trkpt lat="45.85298" lon="5.728">
        <ele>250.48840559972</ele>
        <time>2014-09-21T15:40:03Z</time>
      </trkpt>
      <trkpt lat="45.85297" lon="5.72804">
        <ele>250.48840559972</ele>
        <time>2014-09-21T15:40:08Z</time>
      </trkpt>
      <trkpt lat="45.85294" lon="5.72807">
        <ele>250.48840559972</ele>
        <time>2014-09-21T15:40:13Z</time>
      </trkpt>
      <trkpt lat="45.85291" lon="5.72814">
        <ele>250.3994128441</ele>
        <time>2014-09-21T15:40:18Z</time>
      </trkpt>
      <trkpt lat="45.85287" lon="5.72822">
        <ele>250.3994128441</ele>
        <time>2014-09-21T15:40:23Z</time>
      </trkpt>
      <trkpt lat="45.85284" lon="5.72828">
        <ele>250.14471153797</ele>
        <time>2014-09-21T15:40:28Z</time>
      </trkpt>
      <trkpt lat="45.85278" lon="5.72835">
        <ele>250.14471153797</ele>
        <time>2014-09-21T15:40:33Z</time>
      </trkpt>
      <trkpt lat="45.85271" lon="5.7284">
        <ele>250.18386599501</ele>
        <time>2014-09-21T15:40:38Z</time>
      </trkpt>
      <trkpt lat="45.85265" lon="5.72844">
        <ele>250.18386599501</ele>
        <time>2014-09-21T15:40:43Z</time>
      </trkpt>
      <trkpt lat="45.85256" lon="5.72847">
        <ele>249.933080468</ele>
        <time>2014-09-21T15:40:48Z</time>
      </trkpt>
      <trkpt lat="45.8525" lon="5.72851">
        <ele>249.933080468</ele>
        <time>2014-09-21T15:40:53Z</time>
      </trkpt>
      <trkpt lat="45.85244" lon="5.72856">
        <ele>249.84662572809</ele>
        <time>2014-09-21T15:40:58Z</time>
      </trkpt>
      <trkpt lat="45.85234" lon="5.72859">
        <ele>249.8693743215</ele>
        <time>2014-09-21T15:41:03Z</time>
      </trkpt>
      <trkpt lat="45.85223" lon="5.72862">
        <ele>249.76259705602</ele>
        <time>2014-09-21T15:41:08Z</time>
      </trkpt>
      <trkpt lat="45.85215" lon="5.72867">
        <ele>249.76259705602</ele>
        <time>2014-09-21T15:41:13Z</time>
      </trkpt>
      <trkpt lat="45.85208" lon="5.72874">
        <ele>249.95396470827</ele>
        <time>2014-09-21T15:41:18Z</time>
      </trkpt>
      <trkpt lat="45.852" lon="5.72879">
        <ele>249.95396470827</ele>
        <time>2014-09-21T15:41:23Z</time>
      </trkpt>
      <trkpt lat="45.85193" lon="5.72885">
        <ele>250.1471616248</ele>
        <time>2014-09-21T15:41:28Z</time>
      </trkpt>
      <trkpt lat="45.85187" lon="5.72891">
        <ele>250.1471616248</ele>
        <time>2014-09-21T15:41:33Z</time>
      </trkpt>
      <trkpt lat="45.85178" lon="5.72896">
        <ele>250.44232440886</ele>
        <time>2014-09-21T15:41:38Z</time>
      </trkpt>
      <trkpt lat="45.8517" lon="5.72902">
        <ele>250.77342825359</ele>
        <time>2014-09-21T15:41:43Z</time>
      </trkpt>
      <trkpt lat="45.85158" lon="5.72905">
        <ele>250.94950248342</ele>
        <time>2014-09-21T15:41:48Z</time>
      </trkpt>
      <trkpt lat="45.8515" lon="5.72908">
        <ele>250.94950248342</ele>
        <time>2014-09-21T15:41:53Z</time>
      </trkpt>
      <trkpt lat="45.85141" lon="5.72913">
        <ele>250.79404608302</ele>
        <time>2014-09-21T15:41:58Z</time>
      </trkpt>
      <trkpt lat="45.85134" lon="5.72916">
        <ele>250.79404608302</ele>
        <time>2014-09-21T15:42:03Z</time>
      </trkpt>
      <trkpt lat="45.85128" lon="5.7292">
        <ele>250.53356049748</ele>
        <time>2014-09-21T15:42:09Z</time>
      </trkpt>
      <trkpt lat="45.85122" lon="5.72927">
        <ele>250.53356049748</ele>
        <time>2014-09-21T15:42:13Z</time>
      </trkpt>
      <trkpt lat="45.8511" lon="5.72938">
        <ele>250.1188086964</ele>
        <time>2014-09-21T15:42:18Z</time>
      </trkpt>
      <trkpt lat="45.8509" lon="5.72952">
        <ele>249.53342872303</ele>
        <time>2014-09-21T15:42:23Z</time>
      </trkpt>
      <trkpt lat="45.85069" lon="5.72969">
        <ele>248.86361652745</ele>
        <time>2014-09-21T15:42:28Z</time>
      </trkpt>
      <trkpt lat="45.8505" lon="5.72988">
        <ele>248.23270161892</ele>
        <time>2014-09-21T15:42:33Z</time>
      </trkpt>
      <trkpt lat="45.85032" lon="5.73005">
        <ele>247.62513535515</ele>
        <time>2014-09-21T15:42:38Z</time>
      </trkpt>
      <trkpt lat="45.85012" lon="5.73024">
        <ele>246.99760980857</ele>
        <time>2014-09-21T15:42:43Z</time>
      </trkpt>
      <trkpt lat="45.8499" lon="5.73046">
        <ele>246.3388587418</ele>
        <time>2014-09-21T15:42:48Z</time>
      </trkpt>
      <trkpt lat="45.84971" lon="5.73069">
        <ele>245.69615393493</ele>
        <time>2014-09-21T15:42:53Z</time>
      </trkpt>
      <trkpt lat="45.84956" lon="5.73085">
        <ele>245.21410258824</ele>
        <time>2014-09-21T15:42:59Z</time>
      </trkpt>
      <trkpt lat="45.8495" lon="5.73093">
        <ele>245.21410258824</ele>
        <time>2014-09-21T15:43:03Z</time>
      </trkpt>
      <trkpt lat="45.84945" lon="5.73099">
        <ele>244.8532777563</ele>
        <time>2014-09-21T15:43:08Z</time>
      </trkpt>
      <trkpt lat="45.84941" lon="5.73105">
        <ele>244.8532777563</ele>
        <time>2014-09-21T15:43:13Z</time>
      </trkpt>
      <trkpt lat="45.84936" lon="5.73112">
        <ele>244.50472410374</ele>
        <time>2014-09-21T15:43:18Z</time>
      </trkpt>
      <trkpt lat="45.8493" lon="5.73119">
        <ele>244.50472410374</ele>
        <time>2014-09-21T15:43:23Z</time>
      </trkpt>
      <trkpt lat="45.84924" lon="5.73126">
        <ele>244.29800388872</ele>
        <time>2014-09-21T15:43:28Z</time>
      </trkpt>
      <trkpt lat="45.84918" lon="5.73134">
        <ele>244.29800388872</ele>
        <time>2014-09-21T15:43:33Z</time>
      </trkpt>
      <trkpt lat="45.84913" lon="5.73141">
        <ele>244.25185691715</ele>
        <time>2014-09-21T15:43:38Z</time>
      </trkpt>
      <trkpt lat="45.84909" lon="5.7315">
        <ele>244.25185691715</ele>
        <time>2014-09-21T15:43:43Z</time>
      </trkpt>
      <trkpt lat="45.84903" lon="5.73157">
        <ele>244.21023455818</ele>
        <time>2014-09-21T15:43:48Z</time>
      </trkpt>
      <trkpt lat="45.84897" lon="5.73165">
        <ele>244.21023455818</ele>
        <time>2014-09-21T15:43:53Z</time>
      </trkpt>
      <trkpt lat="45.84892" lon="5.73173">
        <ele>244.25909063088</ele>
        <time>2014-09-21T15:43:58Z</time>
      </trkpt>
      <trkpt lat="45.84886" lon="5.7318">
        <ele>244.25909063088</ele>
        <time>2014-09-21T15:44:03Z</time>
      </trkpt>
      <trkpt lat="45.84881" lon="5.73187">
        <ele>244.43455449604</ele>
        <time>2014-09-21T15:44:08Z</time>
      </trkpt>
      <trkpt lat="45.84876" lon="5.73194">
        <ele>244.43455449604</ele>
        <time>2014-09-21T15:44:13Z</time>
      </trkpt>
      <trkpt lat="45.84871" lon="5.73203">
        <ele>244.71208207088</ele>
        <time>2014-09-21T15:44:18Z</time>
      </trkpt>
      <trkpt lat="45.84866" lon="5.73212">
        <ele>244.71208207088</ele>
        <time>2014-09-21T15:44:23Z</time>
      </trkpt>
      <trkpt lat="45.84862" lon="5.73219">
        <ele>244.88128527298</ele>
        <time>2014-09-21T15:44:28Z</time>
      </trkpt>
      <trkpt lat="45.84858" lon="5.73229">
        <ele>244.88128527298</ele>
        <time>2014-09-21T15:44:33Z</time>
      </trkpt>
      <trkpt lat="45.84852" lon="5.73241">
        <ele>244.93486686261</ele>
        <time>2014-09-21T15:44:38Z</time>
      </trkpt>
      <trkpt lat="45.84849" lon="5.7325">
        <ele>244.93486686261</ele>
        <time>2014-09-21T15:44:43Z</time>
      </trkpt>
      <trkpt lat="45.84843" lon="5.73274">
        <ele>244.90961405347</ele>
        <time>2014-09-21T15:44:48Z</time>
      </trkpt>
      <trkpt lat="45.84833" lon="5.73308">
        <ele>245.09922661941</ele>
        <time>2014-09-21T15:44:53Z</time>
      </trkpt>
      <trkpt lat="45.84825" lon="5.73342">
        <ele>245.25642249364</ele>
        <time>2014-09-21T15:44:58Z</time>
      </trkpt>
      <trkpt lat="45.84816" lon="5.73376">
        <ele>245.3539297716</ele>
        <time>2014-09-21T15:45:03Z</time>
      </trkpt>
      <trkpt lat="45.84808" lon="5.7341">
        <ele>245.42429245584</ele>
        <time>2014-09-21T15:45:08Z</time>
      </trkpt>
      <trkpt lat="45.848" lon="5.73446">
        <ele>245.62744305268</ele>
        <time>2014-09-21T15:45:13Z</time>
      </trkpt>
      <trkpt lat="45.84792" lon="5.73473">
        <ele>246.03914288067</ele>
        <time>2014-09-21T15:45:18Z</time>
      </trkpt>
      <trkpt lat="45.84788" lon="5.73488">
        <ele>246.48402205746</ele>
        <time>2014-09-21T15:45:23Z</time>
      </trkpt>
      <trkpt lat="45.84787" lon="5.73498">
        <ele>246.48402205746</ele>
        <time>2014-09-21T15:45:28Z</time>
      </trkpt>
      <trkpt lat="45.84786" lon="5.73507">
        <ele>246.92921166807</ele>
        <time>2014-09-21T15:45:33Z</time>
      </trkpt>
      <trkpt lat="45.84785" lon="5.73516">
        <ele>246.92921166807</ele>
        <time>2014-09-21T15:45:38Z</time>
      </trkpt>
      <trkpt lat="45.84782" lon="5.73523">
        <ele>247.38750486274</ele>
        <time>2014-09-21T15:45:43Z</time>
      </trkpt>
      <trkpt lat="45.84779" lon="5.73532">
        <ele>247.38750486274</ele>
        <time>2014-09-21T15:45:48Z</time>
      </trkpt>
      <trkpt lat="45.84776" lon="5.73542">
        <ele>247.82750360175</ele>
        <time>2014-09-21T15:45:53Z</time>
      </trkpt>
      <trkpt lat="45.84773" lon="5.73552">
        <ele>247.82750360175</ele>
        <time>2014-09-21T15:45:58Z</time>
      </trkpt>
      <trkpt lat="45.8477" lon="5.73564">
        <ele>248.22018961817</ele>
        <time>2014-09-21T15:46:03Z</time>
      </trkpt>
      <trkpt lat="45.84767" lon="5.73573">
        <ele>248.22018961817</ele>
        <time>2014-09-21T15:46:08Z</time>
      </trkpt>
      <trkpt lat="45.84764" lon="5.73582">
        <ele>248.49560033478</ele>
        <time>2014-09-21T15:46:13Z</time>
      </trkpt>
      <trkpt lat="45.84762" lon="5.7359">
        <ele>248.49560033478</ele>
        <time>2014-09-21T15:46:18Z</time>
      </trkpt>
      <trkpt lat="45.84759" lon="5.73599">
        <ele>248.73337945221</ele>
        <time>2014-09-21T15:46:23Z</time>
      </trkpt>
      <trkpt lat="45.84755" lon="5.73607">
        <ele>248.73337945221</ele>
        <time>2014-09-21T15:46:28Z</time>
      </trkpt>
      <trkpt lat="45.84752" lon="5.73615">
        <ele>248.93539813587</ele>
        <time>2014-09-21T15:46:33Z</time>
      </trkpt>
      <trkpt lat="45.84749" lon="5.73623">
        <ele>248.93539813587</ele>
        <time>2014-09-21T15:46:38Z</time>
      </trkpt>
      <trkpt lat="45.84747" lon="5.73632">
        <ele>249.06028572942</ele>
        <time>2014-09-21T15:46:43Z</time>
      </trkpt>
      <trkpt lat="45.84744" lon="5.73641">
        <ele>249.06028572942</ele>
        <time>2014-09-21T15:46:48Z</time>
      </trkpt>
      <trkpt lat="45.84742" lon="5.73651">
        <ele>249.0987778239</ele>
        <time>2014-09-21T15:46:53Z</time>
      </trkpt>
      <trkpt lat="45.84739" lon="5.73659">
        <ele>249.0987778239</ele>
        <time>2014-09-21T15:46:58Z</time>
      </trkpt>
      <trkpt lat="45.84737" lon="5.73668">
        <ele>248.92727164296</ele>
        <time>2014-09-21T15:47:03Z</time>
      </trkpt>
      <trkpt lat="45.84734" lon="5.73678">
        <ele>248.92727164296</ele>
        <time>2014-09-21T15:47:08Z</time>
      </trkpt>
      <trkpt lat="45.84732" lon="5.73686">
        <ele>248.74890389602</ele>
        <time>2014-09-21T15:47:13Z</time>
      </trkpt>
      <trkpt lat="45.84729" lon="5.73697">
        <ele>248.74890389602</ele>
        <time>2014-09-21T15:47:18Z</time>
      </trkpt>
      <trkpt lat="45.84725" lon="5.73709">
        <ele>248.62223201146</ele>
        <time>2014-09-21T15:47:23Z</time>
      </trkpt>
      <trkpt lat="45.84722" lon="5.73718">
        <ele>248.62223201146</ele>
        <time>2014-09-21T15:47:28Z</time>
      </trkpt>
      <trkpt lat="45.84718" lon="5.73729">
        <ele>248.55815479698</ele>
        <time>2014-09-21T15:47:33Z</time>
      </trkpt>
      <trkpt lat="45.84715" lon="5.7374">
        <ele>248.55815479698</ele>
        <time>2014-09-21T15:47:38Z</time>
      </trkpt>
      <trkpt lat="45.84713" lon="5.73749">
        <ele>248.58102499518</ele>
        <time>2014-09-21T15:47:43Z</time>
      </trkpt>
      <trkpt lat="45.84709" lon="5.73759">
        <ele>248.58102499518</ele>
        <time>2014-09-21T15:47:48Z</time>
      </trkpt>
      <trkpt lat="45.84707" lon="5.73769">
        <ele>248.69876872742</ele>
        <time>2014-09-21T15:47:53Z</time>
      </trkpt>
      <trkpt lat="45.84704" lon="5.73778">
        <ele>248.69876872742</ele>
        <time>2014-09-21T15:47:58Z</time>
      </trkpt>
      <trkpt lat="45.84701" lon="5.73789">
        <ele>248.88965784842</ele>
        <time>2014-09-21T15:48:03Z</time>
      </trkpt>
      <trkpt lat="45.84698" lon="5.73798">
        <ele>248.88965784842</ele>
        <time>2014-09-21T15:48:08Z</time>
      </trkpt>
      <trkpt lat="45.84696" lon="5.73808">
        <ele>249.21983805408</ele>
        <time>2014-09-21T15:48:13Z</time>
      </trkpt>
      <trkpt lat="45.84694" lon="5.73816">
        <ele>249.21983805408</ele>
        <time>2014-09-21T15:48:18Z</time>
      </trkpt>
      <trkpt lat="45.84691" lon="5.73825">
        <ele>249.53405512901</ele>
        <time>2014-09-21T15:48:23Z</time>
      </trkpt>
      <trkpt lat="45.84688" lon="5.73837">
        <ele>249.53405512901</ele>
        <time>2014-09-21T15:48:28Z</time>
      </trkpt>
      <trkpt lat="45.84685" lon="5.73848">
        <ele>250.19291169343</ele>
        <time>2014-09-21T15:48:33Z</time>
      </trkpt>
      <trkpt lat="45.84683" lon="5.73859">
        <ele>250.19291169343</ele>
        <time>2014-09-21T15:48:38Z</time>
      </trkpt>
      <trkpt lat="45.84677" lon="5.73865">
        <ele>250.72255133925</ele>
        <time>2014-09-21T15:48:43Z</time>
      </trkpt>
      <trkpt lat="45.84669" lon="5.73862">
        <ele>250.72255133925</ele>
        <time>2014-09-21T15:48:48Z</time>
      </trkpt>
      <trkpt lat="45.8466" lon="5.7386">
        <ele>250.77077757866</ele>
        <time>2014-09-21T15:48:53Z</time>
      </trkpt>
      <trkpt lat="45.84652" lon="5.73856">
        <ele>250.77077757866</ele>
        <time>2014-09-21T15:48:58Z</time>
      </trkpt>
      <trkpt lat="45.84644" lon="5.73851">
        <ele>250.56026118658</ele>
        <time>2014-09-21T15:49:03Z</time>
      </trkpt>
      <trkpt lat="45.84634" lon="5.7385">
        <ele>250.42776330137</ele>
        <time>2014-09-21T15:49:08Z</time>
      </trkpt>
      <trkpt lat="45.84626" lon="5.73849">
        <ele>250.42776330137</ele>
        <time>2014-09-21T15:49:13Z</time>
      </trkpt>
      <trkpt lat="45.84622" lon="5.73841">
        <ele>250.42570773431</ele>
        <time>2014-09-21T15:49:18Z</time>
      </trkpt>
      <trkpt lat="45.84618" lon="5.73829">
        <ele>250.42570773431</ele>
        <time>2014-09-21T15:49:23Z</time>
      </trkpt>
      <trkpt lat="45.84614" lon="5.73818">
        <ele>250.34291844619</ele>
        <time>2014-09-21T15:49:28Z</time>
      </trkpt>
      <trkpt lat="45.84612" lon="5.73807">
        <ele>250.34291844619</ele>
        <time>2014-09-21T15:49:33Z</time>
      </trkpt>
      <trkpt lat="45.84608" lon="5.73796">
        <ele>250.54600740152</ele>
        <time>2014-09-21T15:49:38Z</time>
      </trkpt>
      <trkpt lat="45.84602" lon="5.73784">
        <ele>250.88388946693</ele>
        <time>2014-09-21T15:49:43Z</time>
      </trkpt>
      <trkpt lat="45.84596" lon="5.73773">
        <ele>251.44679186552</ele>
        <time>2014-09-21T15:49:48Z</time>
      </trkpt>
      <trkpt lat="45.8459" lon="5.73765">
        <ele>251.44679186552</ele>
        <time>2014-09-21T15:49:53Z</time>
      </trkpt>
      <trkpt lat="45.84587" lon="5.73756">
        <ele>252.18799784417</ele>
        <time>2014-09-21T15:49:58Z</time>
      </trkpt>
      <trkpt lat="45.84584" lon="5.73749">
        <ele>252.18799784417</ele>
        <time>2014-09-21T15:50:03Z</time>
      </trkpt>
      <trkpt lat="45.8458" lon="5.73741">
        <ele>252.74669528826</ele>
        <time>2014-09-21T15:50:08Z</time>
      </trkpt>
      <trkpt lat="45.84575" lon="5.73738">
        <ele>252.74669528826</ele>
        <time>2014-09-21T15:50:13Z</time>
      </trkpt>
      <trkpt lat="45.8457" lon="5.73736">
        <ele>252.7458751918</ele>
        <time>2014-09-21T15:50:18Z</time>
      </trkpt>
      <trkpt lat="45.84566" lon="5.73736">
        <ele>252.7458751918</ele>
        <time>2014-09-21T15:50:23Z</time>
      </trkpt>
      <trkpt lat="45.84561" lon="5.73741">
        <ele>252.78894736518</ele>
        <time>2014-09-21T15:50:28Z</time>
      </trkpt>
      <trkpt lat="45.84554" lon="5.73745">
        <ele>252.78894736518</ele>
        <time>2014-09-21T15:50:33Z</time>
      </trkpt>
      <trkpt lat="45.84549" lon="5.73747">
        <ele>252.91609280419</ele>
        <time>2014-09-21T15:50:38Z</time>
      </trkpt>
      <trkpt lat="45.84543" lon="5.7375">
        <ele>252.91609280419</ele>
        <time>2014-09-21T15:50:43Z</time>
      </trkpt>
      <trkpt lat="45.84535" lon="5.73752">
        <ele>252.87610178122</ele>
        <time>2014-09-21T15:50:48Z</time>
      </trkpt>
      <trkpt lat="45.84528" lon="5.73752">
        <ele>252.87610178122</ele>
        <time>2014-09-21T15:50:53Z</time>
      </trkpt>
      <trkpt lat="45.84517" lon="5.73753">
        <ele>252.26376971229</ele>
        <time>2014-09-21T15:50:58Z</time>
      </trkpt>
      <trkpt lat="45.84508" lon="5.73754">
        <ele>252.26376971229</ele>
        <time>2014-09-21T15:51:03Z</time>
      </trkpt>
      <trkpt lat="45.84502" lon="5.73756">
        <ele>251.42583122168</ele>
        <time>2014-09-21T15:51:08Z</time>
      </trkpt>
      <trkpt lat="45.84495" lon="5.73758">
        <ele>251.42583122168</ele>
        <time>2014-09-21T15:51:13Z</time>
      </trkpt>
      <trkpt lat="45.84488" lon="5.7376">
        <ele>250.65536682076</ele>
        <time>2014-09-21T15:51:18Z</time>
      </trkpt>
      <trkpt lat="45.8448" lon="5.73764">
        <ele>250.65536682076</ele>
        <time>2014-09-21T15:51:23Z</time>
      </trkpt>
      <trkpt lat="45.84475" lon="5.73767">
        <ele>250.05080436499</ele>
        <time>2014-09-21T15:51:28Z</time>
      </trkpt>
      <trkpt lat="45.84466" lon="5.7377">
        <ele>249.63081318196</ele>
        <time>2014-09-21T15:51:33Z</time>
      </trkpt>
      <trkpt lat="45.84457" lon="5.73774">
        <ele>249.63081318196</ele>
        <time>2014-09-21T15:51:38Z</time>
      </trkpt>
      <trkpt lat="45.8445" lon="5.73776">
        <ele>249.36892752679</ele>
        <time>2014-09-21T15:51:43Z</time>
      </trkpt>
      <trkpt lat="45.84441" lon="5.73779">
        <ele>249.0239989238</ele>
        <time>2014-09-21T15:51:48Z</time>
      </trkpt>
      <trkpt lat="45.84434" lon="5.73782">
        <ele>249.0239989238</ele>
        <time>2014-09-21T15:51:53Z</time>
      </trkpt>
      <trkpt lat="45.84427" lon="5.73787">
        <ele>248.8916075164</ele>
        <time>2014-09-21T15:51:58Z</time>
      </trkpt>
      <trkpt lat="45.84419" lon="5.73789">
        <ele>248.8916075164</ele>
        <time>2014-09-21T15:52:03Z</time>
      </trkpt>
      <trkpt lat="45.84414" lon="5.73791">
        <ele>248.75502531014</ele>
        <time>2014-09-21T15:52:08Z</time>
      </trkpt>
      <trkpt lat="45.84411" lon="5.73796">
        <ele>248.75502531014</ele>
        <time>2014-09-21T15:52:13Z</time>
      </trkpt>
      <trkpt lat="45.84406" lon="5.73806">
        <ele>248.58636835865</ele>
        <time>2014-09-21T15:52:18Z</time>
      </trkpt>
      <trkpt lat="45.844" lon="5.73817">
        <ele>248.4031019209</ele>
        <time>2014-09-21T15:52:23Z</time>
      </trkpt>
      <trkpt lat="45.84396" lon="5.73826">
        <ele>248.4031019209</ele>
        <time>2014-09-21T15:52:28Z</time>
      </trkpt>
      <trkpt lat="45.84397" lon="5.73832">
        <ele>248.32230445366</ele>
        <time>2014-09-21T15:52:33Z</time>
      </trkpt>
      <trkpt lat="45.844" lon="5.73839">
        <ele>248.32230445366</ele>
        <time>2014-09-21T15:52:38Z</time>
      </trkpt>
      <trkpt lat="45.84403" lon="5.73847">
        <ele>248.2071547505</ele>
        <time>2014-09-21T15:52:43Z</time>
      </trkpt>
      <trkpt lat="45.84407" lon="5.73852">
        <ele>248.2071547505</ele>
        <time>2014-09-21T15:52:48Z</time>
      </trkpt>
      <trkpt lat="45.84413" lon="5.73855">
        <ele>247.87331129509</ele>
        <time>2014-09-21T15:52:53Z</time>
      </trkpt>
      <trkpt lat="45.84421" lon="5.7386">
        <ele>247.87331129509</ele>
        <time>2014-09-21T15:52:58Z</time>
      </trkpt>
      <trkpt lat="45.8443" lon="5.73864">
        <ele>247.55407557213</ele>
        <time>2014-09-21T15:53:03Z</time>
      </trkpt>
      <trkpt lat="45.84436" lon="5.73865">
        <ele>247.55407557213</ele>
        <time>2014-09-21T15:53:08Z</time>
      </trkpt>
      <trkpt lat="45.84442" lon="5.73867">
        <ele>247.36466829248</ele>
        <time>2014-09-21T15:53:13Z</time>
      </trkpt>
      <trkpt lat="45.84447" lon="5.73868">
        <ele>247.36466829248</ele>
        <time>2014-09-21T15:53:18Z</time>
      </trkpt>
      <trkpt lat="45.84454" lon="5.73873">
        <ele>247.3970468159</ele>
        <time>2014-09-21T15:53:23Z</time>
      </trkpt>
      <trkpt lat="45.84462" lon="5.73878">
        <ele>247.3970468159</ele>
        <time>2014-09-21T15:53:28Z</time>
      </trkpt>
      <trkpt lat="45.84468" lon="5.73884">
        <ele>247.47636738494</ele>
        <time>2014-09-21T15:53:33Z</time>
      </trkpt>
      <trkpt lat="45.84477" lon="5.73892">
        <ele>247.3107754117</ele>
        <time>2014-09-21T15:53:38Z</time>
      </trkpt>
      <trkpt lat="45.8448" lon="5.73894">
        <ele>247.3107754117</ele>
        <time>2014-09-21T15:53:43Z</time>
      </trkpt>
      <trkpt lat="45.84491" lon="5.73903">
        <ele>247.03403198415</ele>
        <time>2014-09-21T15:53:48Z</time>
      </trkpt>
      <trkpt lat="45.84497" lon="5.73911">
        <ele>247.03403198415</ele>
        <time>2014-09-21T15:53:53Z</time>
      </trkpt>
      <trkpt lat="45.84505" lon="5.73919">
        <ele>246.81359597604</ele>
        <time>2014-09-21T15:53:58Z</time>
      </trkpt>
      <trkpt lat="45.84515" lon="5.73927">
        <ele>246.76121262147</ele>
        <time>2014-09-21T15:54:03Z</time>
      </trkpt>
      <trkpt lat="45.84521" lon="5.73936">
        <ele>246.76121262147</ele>
        <time>2014-09-21T15:54:09Z</time>
      </trkpt>
      <trkpt lat="45.84527" lon="5.73946">
        <ele>246.9799268293</ele>
        <time>2014-09-21T15:54:13Z</time>
      </trkpt>
      <trkpt lat="45.84529" lon="5.73955">
        <ele>246.9799268293</ele>
        <time>2014-09-21T15:54:18Z</time>
      </trkpt>
      <trkpt lat="45.84532" lon="5.73964">
        <ele>247.29062360212</ele>
        <time>2014-09-21T15:54:23Z</time>
      </trkpt>
      <trkpt lat="45.84534" lon="5.73973">
        <ele>247.29062360212</ele>
        <time>2014-09-21T15:54:28Z</time>
      </trkpt>
      <trkpt lat="45.84536" lon="5.73982">
        <ele>247.55589379201</ele>
        <time>2014-09-21T15:54:33Z</time>
      </trkpt>
      <trkpt lat="45.84543" lon="5.73994">
        <ele>247.4179583727</ele>
        <time>2014-09-21T15:54:38Z</time>
      </trkpt>
      <trkpt lat="45.84547" lon="5.74004">
        <ele>247.4179583727</ele>
        <time>2014-09-21T15:54:43Z</time>
      </trkpt>
      <trkpt lat="45.84549" lon="5.74014">
        <ele>247.22376295484</ele>
        <time>2014-09-21T15:54:48Z</time>
      </trkpt>
      <trkpt lat="45.84551" lon="5.74022">
        <ele>247.22376295484</ele>
        <time>2014-09-21T15:54:53Z</time>
      </trkpt>
      <trkpt lat="45.84556" lon="5.7403">
        <ele>247.0931590792</ele>
        <time>2014-09-21T15:54:58Z</time>
      </trkpt>
      <trkpt lat="45.8456" lon="5.74041">
        <ele>247.0931590792</ele>
        <time>2014-09-21T15:55:03Z</time>
      </trkpt>
      <trkpt lat="45.84566" lon="5.74054">
        <ele>247.2811179301</ele>
        <time>2014-09-21T15:55:08Z</time>
      </trkpt>
      <trkpt lat="45.84574" lon="5.74063">
        <ele>247.47535645804</ele>
        <time>2014-09-21T15:55:13Z</time>
      </trkpt>
      <trkpt lat="45.84583" lon="5.74073">
        <ele>247.51620728263</ele>
        <time>2014-09-21T15:55:18Z</time>
      </trkpt>
      <trkpt lat="45.84584" lon="5.74076">
        <ele>247.51620728263</ele>
        <time>2014-09-21T15:55:23Z</time>
      </trkpt>
      <trkpt lat="45.84591" lon="5.74081">
        <ele>247.41467920375</ele>
        <time>2014-09-21T15:55:28Z</time>
      </trkpt>
      <trkpt lat="45.84591" lon="5.74088">
        <ele>247.41467920375</ele>
        <time>2014-09-21T15:55:33Z</time>
      </trkpt>
      <trkpt lat="45.84587" lon="5.74098">
        <ele>247.36871214474</ele>
        <time>2014-09-21T15:55:38Z</time>
      </trkpt>
      <trkpt lat="45.84584" lon="5.74104">
        <ele>247.36871214474</ele>
        <time>2014-09-21T15:55:43Z</time>
      </trkpt>
      <trkpt lat="45.8458" lon="5.74111">
        <ele>247.30214612743</ele>
        <time>2014-09-21T15:55:48Z</time>
      </trkpt>
      <trkpt lat="45.84573" lon="5.7412">
        <ele>247.23093720384</ele>
        <time>2014-09-21T15:55:53Z</time>
      </trkpt>
      <trkpt lat="45.84568" lon="5.74128">
        <ele>247.23093720384</ele>
        <time>2014-09-21T15:55:58Z</time>
      </trkpt>
      <trkpt lat="45.8456" lon="5.74134">
        <ele>247.32840190318</ele>
        <time>2014-09-21T15:56:03Z</time>
      </trkpt>
      <trkpt lat="45.8455" lon="5.74138">
        <ele>247.4808386581</ele>
        <time>2014-09-21T15:56:08Z</time>
      </trkpt>
      <trkpt lat="45.84544" lon="5.74143">
        <ele>247.4808386581</ele>
        <time>2014-09-21T15:56:13Z</time>
      </trkpt>
      <trkpt lat="45.84538" lon="5.74147">
        <ele>247.91419941072</ele>
        <time>2014-09-21T15:56:18Z</time>
      </trkpt>
      <trkpt lat="45.84534" lon="5.74151">
        <ele>247.91419941072</ele>
        <time>2014-09-21T15:56:23Z</time>
      </trkpt>
      <trkpt lat="45.84529" lon="5.74154">
        <ele>248.56324074111</ele>
        <time>2014-09-21T15:56:28Z</time>
      </trkpt>
      <trkpt lat="45.84522" lon="5.7415">
        <ele>248.56324074111</ele>
        <time>2014-09-21T15:56:33Z</time>
      </trkpt>
      <trkpt lat="45.84515" lon="5.7415">
        <ele>249.32367962949</ele>
        <time>2014-09-21T15:56:38Z</time>
      </trkpt>
      <trkpt lat="45.84506" lon="5.74149">
        <ele>249.32367962949</ele>
        <time>2014-09-21T15:56:43Z</time>
      </trkpt>
      <trkpt lat="45.84498" lon="5.74148">
        <ele>249.75272454738</ele>
        <time>2014-09-21T15:56:48Z</time>
      </trkpt>
      <trkpt lat="45.84492" lon="5.74146">
        <ele>249.75272454738</ele>
        <time>2014-09-21T15:56:53Z</time>
      </trkpt>
      <trkpt lat="45.84489" lon="5.74144">
        <ele>250.0895555603</ele>
        <time>2014-09-21T15:56:58Z</time>
      </trkpt>
      <trkpt lat="45.8448" lon="5.74137">
        <ele>250.06608088088</ele>
        <time>2014-09-21T15:57:03Z</time>
      </trkpt>
      <trkpt lat="45.84477" lon="5.74133">
        <ele>250.06608088088</ele>
        <time>2014-09-21T15:57:08Z</time>
      </trkpt>
      <trkpt lat="45.84474" lon="5.7413">
        <ele>250.06608088088</ele>
        <time>2014-09-21T15:57:13Z</time>
      </trkpt>
      <trkpt lat="45.84472" lon="5.74124">
        <ele>250.12666605888</ele>
        <time>2014-09-21T15:57:18Z</time>
      </trkpt>
      <trkpt lat="45.8447" lon="5.74121">
        <ele>250.12666605888</ele>
        <time>2014-09-21T15:57:23Z</time>
      </trkpt>
      <trkpt lat="45.8446" lon="5.74117">
        <ele>250.17842821961</ele>
        <time>2014-09-21T15:57:28Z</time>
      </trkpt>
      <trkpt lat="45.84452" lon="5.74114">
        <ele>250.17842821961</ele>
        <time>2014-09-21T15:57:33Z</time>
      </trkpt>
      <trkpt lat="45.84445" lon="5.74109">
        <ele>250.0921175124</ele>
        <time>2014-09-21T15:57:38Z</time>
      </trkpt>
      <trkpt lat="45.84437" lon="5.74104">
        <ele>250.0921175124</ele>
        <time>2014-09-21T15:57:43Z</time>
      </trkpt>
      <trkpt lat="45.84429" lon="5.74103">
        <ele>250.23836158998</ele>
        <time>2014-09-21T15:57:48Z</time>
      </trkpt>
      <trkpt lat="45.84424" lon="5.74108">
        <ele>250.23836158998</ele>
        <time>2014-09-21T15:57:53Z</time>
      </trkpt>
      <trkpt lat="45.84418" lon="5.74109">
        <ele>250.61406003809</ele>
        <time>2014-09-21T15:57:58Z</time>
      </trkpt>
      <trkpt lat="45.84413" lon="5.74111">
        <ele>250.61406003809</ele>
        <time>2014-09-21T15:58:03Z</time>
      </trkpt>
      <trkpt lat="45.84409" lon="5.74113">
        <ele>251.05719164946</ele>
        <time>2014-09-21T15:58:08Z</time>
      </trkpt>
      <trkpt lat="45.84403" lon="5.7411">
        <ele>251.05719164946</ele>
        <time>2014-09-21T15:58:13Z</time>
      </trkpt>
      <trkpt lat="45.84397" lon="5.74109">
        <ele>251.51834428531</ele>
        <time>2014-09-21T15:58:18Z</time>
      </trkpt>
      <trkpt lat="45.84389" lon="5.7411">
        <ele>251.51834428531</ele>
        <time>2014-09-21T15:58:23Z</time>
      </trkpt>
      <trkpt lat="45.84382" lon="5.74113">
        <ele>251.95170524956</ele>
        <time>2014-09-21T15:58:28Z</time>
      </trkpt>
      <trkpt lat="45.84377" lon="5.74113">
        <ele>251.95170524956</ele>
        <time>2014-09-21T15:58:33Z</time>
      </trkpt>
      <trkpt lat="45.84372" lon="5.74113">
        <ele>252.53109441839</ele>
        <time>2014-09-21T15:58:38Z</time>
      </trkpt>
      <trkpt lat="45.84365" lon="5.74112">
        <ele>252.53109441839</ele>
        <time>2014-09-21T15:58:44Z</time>
      </trkpt>
      <trkpt lat="45.84357" lon="5.74115">
        <ele>253.04248894309</ele>
        <time>2014-09-21T15:58:49Z</time>
      </trkpt>
      <trkpt lat="45.84352" lon="5.74118">
        <ele>253.04248894309</ele>
        <time>2014-09-21T15:58:53Z</time>
      </trkpt>
      <trkpt lat="45.84342" lon="5.74122">
        <ele>253.37427188488</ele>
        <time>2014-09-21T15:58:58Z</time>
      </trkpt>
      <trkpt lat="45.84334" lon="5.74125">
        <ele>253.68295747597</ele>
        <time>2014-09-21T15:59:03Z</time>
      </trkpt>
      <trkpt lat="45.84327" lon="5.74131">
        <ele>253.68295747597</ele>
        <time>2014-09-21T15:59:08Z</time>
      </trkpt>
      <trkpt lat="45.84316" lon="5.74136">
        <ele>253.59485519397</ele>
        <time>2014-09-21T15:59:13Z</time>
      </trkpt>
      <trkpt lat="45.84302" lon="5.74136">
        <ele>252.98103170862</ele>
        <time>2014-09-21T15:59:18Z</time>
      </trkpt>
      <trkpt lat="45.84296" lon="5.74141">
        <ele>252.98103170862</ele>
        <time>2014-09-21T15:59:23Z</time>
      </trkpt>
      <trkpt lat="45.8429" lon="5.74148">
        <ele>252.38643391334</ele>
        <time>2014-09-21T15:59:28Z</time>
      </trkpt>
      <trkpt lat="45.84284" lon="5.74155">
        <ele>252.38643391334</ele>
        <time>2014-09-21T15:59:33Z</time>
      </trkpt>
      <trkpt lat="45.84277" lon="5.7416">
        <ele>251.97007425125</ele>
        <time>2014-09-21T15:59:38Z</time>
      </trkpt>
      <trkpt lat="45.8427" lon="5.74166">
        <ele>251.97007425125</ele>
        <time>2014-09-21T15:59:43Z</time>
      </trkpt>
      <trkpt lat="45.84266" lon="5.74171">
        <ele>251.63380719914</ele>
        <time>2014-09-21T15:59:48Z</time>
      </trkpt>
      <trkpt lat="45.84263" lon="5.74178">
        <ele>251.63380719914</ele>
        <time>2014-09-21T15:59:53Z</time>
      </trkpt>
      <trkpt lat="45.84261" lon="5.74184">
        <ele>251.31530094358</ele>
        <time>2014-09-21T15:59:58Z</time>
      </trkpt>
      <trkpt lat="45.84259" lon="5.74193">
        <ele>251.31530094358</ele>
        <time>2014-09-21T16:00:03Z</time>
      </trkpt>
      <trkpt lat="45.84255" lon="5.742">
        <ele>250.97116565735</ele>
        <time>2014-09-21T16:00:08Z</time>
      </trkpt>
      <trkpt lat="45.8425" lon="5.74206">
        <ele>250.97116565735</ele>
        <time>2014-09-21T16:00:13Z</time>
      </trkpt>
      <trkpt lat="45.84249" lon="5.74213">
        <ele>250.54685751882</ele>
        <time>2014-09-21T16:00:18Z</time>
      </trkpt>
      <trkpt lat="45.84248" lon="5.74222">
        <ele>250.54685751882</ele>
        <time>2014-09-21T16:00:23Z</time>
      </trkpt>
      <trkpt lat="45.84247" lon="5.7423">
        <ele>250.20822539898</ele>
        <time>2014-09-21T16:00:28Z</time>
      </trkpt>
      <trkpt lat="45.84247" lon="5.7424">
        <ele>250.20822539898</ele>
        <time>2014-09-21T16:00:33Z</time>
      </trkpt>
      <trkpt lat="45.84249" lon="5.74254">
        <ele>249.60429604977</ele>
        <time>2014-09-21T16:00:38Z</time>
      </trkpt>
      <trkpt lat="45.84243" lon="5.74265">
        <ele>248.88617600859</ele>
        <time>2014-09-21T16:00:43Z</time>
      </trkpt>
      <trkpt lat="45.84244" lon="5.74277">
        <ele>248.88617600859</ele>
        <time>2014-09-21T16:00:48Z</time>
      </trkpt>
      <trkpt lat="45.84239" lon="5.74284">
        <ele>248.33828548049</ele>
        <time>2014-09-21T16:00:53Z</time>
      </trkpt>
      <trkpt lat="45.84233" lon="5.74288">
        <ele>248.33828548049</ele>
        <time>2014-09-21T16:00:58Z</time>
      </trkpt>
      <trkpt lat="45.84231" lon="5.74287">
        <ele>248.33828548049</ele>
        <time>2014-09-21T16:01:03Z</time>
      </trkpt>
      <trkpt lat="45.84229" lon="5.74287">
        <ele>247.96425224054</ele>
        <time>2014-09-21T16:01:08Z</time>
      </trkpt>
      <trkpt lat="45.84223" lon="5.74285">
        <ele>247.96425224054</ele>
        <time>2014-09-21T16:01:13Z</time>
      </trkpt>
      <trkpt lat="45.84219" lon="5.74283">
        <ele>247.82456982293</ele>
        <time>2014-09-21T16:01:18Z</time>
      </trkpt>
      <trkpt lat="45.84214" lon="5.74284">
        <ele>247.82456982293</ele>
        <time>2014-09-21T16:01:23Z</time>
      </trkpt>
      <trkpt lat="45.84209" lon="5.74285">
        <ele>247.74402637899</ele>
        <time>2014-09-21T16:01:33Z</time>
      </trkpt>
      <trkpt lat="45.84201" lon="5.74286">
        <ele>247.74402637899</ele>
        <time>2014-09-21T16:01:38Z</time>
      </trkpt>
      <trkpt lat="45.84196" lon="5.74289">
        <ele>247.66096622861</ele>
        <time>2014-09-21T16:01:43Z</time>
      </trkpt>
      <trkpt lat="45.84194" lon="5.7429">
        <ele>247.66096622861</ele>
        <time>2014-09-21T16:01:48Z</time>
      </trkpt>
      <trkpt lat="45.8419" lon="5.74286">
        <ele>247.66096622861</ele>
        <time>2014-09-21T16:01:53Z</time>
      </trkpt>
      <trkpt lat="45.84188" lon="5.74287">
        <ele>247.66096622861</ele>
        <time>2014-09-21T16:01:58Z</time>
      </trkpt>
      <trkpt lat="45.84186" lon="5.74288">
        <ele>247.70558847921</ele>
        <time>2014-09-21T16:02:03Z</time>
      </trkpt>
      <trkpt lat="45.84175" lon="5.74291">
        <ele>247.88285637148</ele>
        <time>2014-09-21T16:02:08Z</time>
      </trkpt>
      <trkpt lat="45.84169" lon="5.7429">
        <ele>247.88285637148</ele>
        <time>2014-09-21T16:02:13Z</time>
      </trkpt>
      <trkpt lat="45.84164" lon="5.7429">
        <ele>248.26903004029</ele>
        <time>2014-09-21T16:02:18Z</time>
      </trkpt>
      <trkpt lat="45.84158" lon="5.74291">
        <ele>248.26903004029</ele>
        <time>2014-09-21T16:02:24Z</time>
      </trkpt>
      <trkpt lat="45.84152" lon="5.74292">
        <ele>248.70358489023</ele>
        <time>2014-09-21T16:02:28Z</time>
      </trkpt>
      <trkpt lat="45.84145" lon="5.74292">
        <ele>248.70358489023</ele>
        <time>2014-09-21T16:02:33Z</time>
      </trkpt>
      <trkpt lat="45.84136" lon="5.74293">
        <ele>248.44678079517</ele>
        <time>2014-09-21T16:02:38Z</time>
      </trkpt>
      <trkpt lat="45.84124" lon="5.74293">
        <ele>247.82392177065</ele>
        <time>2014-09-21T16:02:43Z</time>
      </trkpt>
      <trkpt lat="45.84112" lon="5.74292">
        <ele>247.252716824</ele>
        <time>2014-09-21T16:02:48Z</time>
      </trkpt>
      <trkpt lat="45.84109" lon="5.74293">
        <ele>247.252716824</ele>
        <time>2014-09-21T16:02:53Z</time>
      </trkpt>
      <trkpt lat="45.84104" lon="5.74296">
        <ele>247.252716824</ele>
        <time>2014-09-21T16:02:58Z</time>
      </trkpt>
      <trkpt lat="45.84097" lon="5.74295">
        <ele>247.07679675135</ele>
        <time>2014-09-21T16:03:03Z</time>
      </trkpt>
      <trkpt lat="45.8409" lon="5.74297">
        <ele>247.07679675135</ele>
        <time>2014-09-21T16:03:08Z</time>
      </trkpt>
      <trkpt lat="45.84085" lon="5.74302">
        <ele>247.25314593199</ele>
        <time>2014-09-21T16:03:13Z</time>
      </trkpt>
      <trkpt lat="45.8408" lon="5.74308">
        <ele>247.25314593199</ele>
        <time>2014-09-21T16:03:18Z</time>
      </trkpt>
      <trkpt lat="45.84074" lon="5.74315">
        <ele>247.92824877118</ele>
        <time>2014-09-21T16:03:23Z</time>
      </trkpt>
      <trkpt lat="45.8407" lon="5.74322">
        <ele>247.92824877118</ele>
        <time>2014-09-21T16:03:28Z</time>
      </trkpt>
      <trkpt lat="45.84062" lon="5.74332">
        <ele>248.2420487955</ele>
        <time>2014-09-21T16:03:33Z</time>
      </trkpt>
      <trkpt lat="45.84056" lon="5.74344">
        <ele>248.19128290904</ele>
        <time>2014-09-21T16:03:38Z</time>
      </trkpt>
      <trkpt lat="45.84051" lon="5.74352">
        <ele>248.19128290904</ele>
        <time>2014-09-21T16:03:43Z</time>
      </trkpt>
      <trkpt lat="45.84047" lon="5.74363">
        <ele>247.88923129884</ele>
        <time>2014-09-21T16:03:48Z</time>
      </trkpt>
      <trkpt lat="45.84045" lon="5.74371">
        <ele>247.88923129884</ele>
        <time>2014-09-21T16:03:53Z</time>
      </trkpt>
      <trkpt lat="45.8404" lon="5.74382">
        <ele>247.68654012729</ele>
        <time>2014-09-21T16:03:58Z</time>
      </trkpt>
      <trkpt lat="45.84034" lon="5.7439">
        <ele>247.68654012729</ele>
        <time>2014-09-21T16:04:03Z</time>
      </trkpt>
      <trkpt lat="45.84029" lon="5.74396">
        <ele>247.85016821056</ele>
        <time>2014-09-21T16:04:08Z</time>
      </trkpt>
      <trkpt lat="45.84025" lon="5.74397">
        <ele>247.85016821056</ele>
        <time>2014-09-21T16:04:13Z</time>
      </trkpt>
      <trkpt lat="45.84019" lon="5.744">
        <ele>248.46790895053</ele>
        <time>2014-09-21T16:04:18Z</time>
      </trkpt>
      <trkpt lat="45.84011" lon="5.74404">
        <ele>248.46790895053</ele>
        <time>2014-09-21T16:04:23Z</time>
      </trkpt>
      <trkpt lat="45.84003" lon="5.7441">
        <ele>249.05779629954</ele>
        <time>2014-09-21T16:04:28Z</time>
      </trkpt>
      <trkpt lat="45.83994" lon="5.74415">
        <ele>249.6345040099</ele>
        <time>2014-09-21T16:04:33Z</time>
      </trkpt>
      <trkpt lat="45.83989" lon="5.74418">
        <ele>249.6345040099</ele>
        <time>2014-09-21T16:04:38Z</time>
      </trkpt>
      <trkpt lat="45.83981" lon="5.74423">
        <ele>250.26931519445</ele>
        <time>2014-09-21T16:04:43Z</time>
      </trkpt>
      <trkpt lat="45.83975" lon="5.74429">
        <ele>250.26931519445</ele>
        <time>2014-09-21T16:04:48Z</time>
      </trkpt>
      <trkpt lat="45.83969" lon="5.74431">
        <ele>250.84077985547</ele>
        <time>2014-09-21T16:04:53Z</time>
      </trkpt>
      <trkpt lat="45.8396" lon="5.74436">
        <ele>251.30861809938</ele>
        <time>2014-09-21T16:04:58Z</time>
      </trkpt>
      <trkpt lat="45.83956" lon="5.7444">
        <ele>251.30861809938</ele>
        <time>2014-09-21T16:05:03Z</time>
      </trkpt>
      <trkpt lat="45.83948" lon="5.74446">
        <ele>252.01050808402</ele>
        <time>2014-09-21T16:05:08Z</time>
      </trkpt>
      <trkpt lat="45.83935" lon="5.74457">
        <ele>252.27873231888</ele>
        <time>2014-09-21T16:05:13Z</time>
      </trkpt>
      <trkpt lat="45.83928" lon="5.74462">
        <ele>252.27873231888</ele>
        <time>2014-09-21T16:05:18Z</time>
      </trkpt>
      <trkpt lat="45.83921" lon="5.74469">
        <ele>252.40376504433</ele>
        <time>2014-09-21T16:05:23Z</time>
      </trkpt>
      <trkpt lat="45.83916" lon="5.74473">
        <ele>252.40376504433</ele>
        <time>2014-09-21T16:05:28Z</time>
      </trkpt>
      <trkpt lat="45.83911" lon="5.74478">
        <ele>252.65517021574</ele>
        <time>2014-09-21T16:05:33Z</time>
      </trkpt>
      <trkpt lat="45.83902" lon="5.74485">
        <ele>252.73475916584</ele>
        <time>2014-09-21T16:05:38Z</time>
      </trkpt>
      <trkpt lat="45.83892" lon="5.74492">
        <ele>252.75585566743</ele>
        <time>2014-09-21T16:05:43Z</time>
      </trkpt>
      <trkpt lat="45.83881" lon="5.74501">
        <ele>252.62189132096</ele>
        <time>2014-09-21T16:05:48Z</time>
      </trkpt>
      <trkpt lat="45.83875" lon="5.74504">
        <ele>252.62189132096</ele>
        <time>2014-09-21T16:05:53Z</time>
      </trkpt>
      <trkpt lat="45.83868" lon="5.74506">
        <ele>252.46001542566</ele>
        <time>2014-09-21T16:05:58Z</time>
      </trkpt>
      <trkpt lat="45.83861" lon="5.74508">
        <ele>252.46001542566</ele>
        <time>2014-09-21T16:06:03Z</time>
      </trkpt>
      <trkpt lat="45.83859" lon="5.74508">
        <ele>252.48901292289</ele>
        <time>2014-09-21T16:06:08Z</time>
      </trkpt>
      <trkpt lat="45.83858" lon="5.74508">
        <ele>252.48901292289</ele>
        <time>2014-09-21T16:06:18Z</time>
      </trkpt>
      <trkpt lat="45.8385" lon="5.7451">
        <ele>252.43551199104</ele>
        <time>2014-09-21T16:06:23Z</time>
      </trkpt>
      <trkpt lat="45.83842" lon="5.74511">
        <ele>252.43551199104</ele>
        <time>2014-09-21T16:06:29Z</time>
      </trkpt>
      <trkpt lat="45.83834" lon="5.74507">
        <ele>252.20499097555</ele>
        <time>2014-09-21T16:06:33Z</time>
      </trkpt>
      <trkpt lat="45.83826" lon="5.74508">
        <ele>252.20499097555</ele>
        <time>2014-09-21T16:06:38Z</time>
      </trkpt>
      <trkpt lat="45.83819" lon="5.74512">
        <ele>251.89772487608</ele>
        <time>2014-09-21T16:06:43Z</time>
      </trkpt>
      <trkpt lat="45.83812" lon="5.74516">
        <ele>251.89772487608</ele>
        <time>2014-09-21T16:06:48Z</time>
      </trkpt>
      <trkpt lat="45.83805" lon="5.74518">
        <ele>251.5492024594</ele>
        <time>2014-09-21T16:06:53Z</time>
      </trkpt>
      <trkpt lat="45.838" lon="5.74523">
        <ele>251.5492024594</ele>
        <time>2014-09-21T16:06:58Z</time>
      </trkpt>
      <trkpt lat="45.83793" lon="5.74529">
        <ele>251.46623857063</ele>
        <time>2014-09-21T16:07:03Z</time>
      </trkpt>
      <trkpt lat="45.83788" lon="5.74533">
        <ele>251.46623857063</ele>
        <time>2014-09-21T16:07:08Z</time>
      </trkpt>
      <trkpt lat="45.83782" lon="5.74538">
        <ele>251.54326799733</ele>
        <time>2014-09-21T16:07:13Z</time>
      </trkpt>
      <trkpt lat="45.83775" lon="5.74542">
        <ele>251.54326799733</ele>
        <time>2014-09-21T16:07:18Z</time>
      </trkpt>
      <trkpt lat="45.83766" lon="5.74546">
        <ele>251.50909951755</ele>
        <time>2014-09-21T16:07:23Z</time>
      </trkpt>
      <trkpt lat="45.83759" lon="5.74549">
        <ele>251.50909951755</ele>
        <time>2014-09-21T16:07:28Z</time>
      </trkpt>
      <trkpt lat="45.83751" lon="5.74549">
        <ele>251.70363180508</ele>
        <time>2014-09-21T16:07:33Z</time>
      </trkpt>
      <trkpt lat="45.83742" lon="5.74548">
        <ele>251.87912022548</ele>
        <time>2014-09-21T16:07:38Z</time>
      </trkpt>
      <trkpt lat="45.83733" lon="5.74547">
        <ele>251.87912022548</ele>
        <time>2014-09-21T16:07:43Z</time>
      </trkpt>
      <trkpt lat="45.83725" lon="5.74547">
        <ele>251.83489555709</ele>
        <time>2014-09-21T16:07:48Z</time>
      </trkpt>
      <trkpt lat="45.83715" lon="5.74548">
        <ele>251.65945752805</ele>
        <time>2014-09-21T16:07:53Z</time>
      </trkpt>
      <trkpt lat="45.83705" lon="5.74549">
        <ele>251.46399476205</ele>
        <time>2014-09-21T16:07:58Z</time>
      </trkpt>
      <trkpt lat="45.8369" lon="5.7455">
        <ele>251.42363843352</ele>
        <time>2014-09-21T16:08:03Z</time>
      </trkpt>
      <trkpt lat="45.83683" lon="5.74553">
        <ele>251.42363843352</ele>
        <time>2014-09-21T16:08:08Z</time>
      </trkpt>
      <trkpt lat="45.83677" lon="5.74551">
        <ele>251.59933939394</ele>
        <time>2014-09-21T16:08:13Z</time>
      </trkpt>
      <trkpt lat="45.83671" lon="5.7455">
        <ele>251.59933939394</ele>
        <time>2014-09-21T16:08:18Z</time>
      </trkpt>
      <trkpt lat="45.83666" lon="5.7455">
        <ele>251.85961773015</ele>
        <time>2014-09-21T16:08:23Z</time>
      </trkpt>
      <trkpt lat="45.83664" lon="5.74547">
        <ele>251.85961773015</ele>
        <time>2014-09-21T16:08:28Z</time>
      </trkpt>
      <trkpt lat="45.83659" lon="5.74546">
        <ele>251.85961773015</ele>
        <time>2014-09-21T16:08:33Z</time>
      </trkpt>
      <trkpt lat="45.83652" lon="5.74543">
        <ele>252.31299067456</ele>
        <time>2014-09-21T16:08:38Z</time>
      </trkpt>
      <trkpt lat="45.83644" lon="5.74541">
        <ele>252.31299067456</ele>
        <time>2014-09-21T16:08:43Z</time>
      </trkpt>
      <trkpt lat="45.83637" lon="5.74536">
        <ele>252.59830609454</ele>
        <time>2014-09-21T16:08:48Z</time>
      </trkpt>
      <trkpt lat="45.83623" lon="5.74536">
        <ele>252.49670333604</ele>
        <time>2014-09-21T16:08:53Z</time>
      </trkpt>
      <trkpt lat="45.83615" lon="5.74535">
        <ele>252.49670333604</ele>
        <time>2014-09-21T16:08:58Z</time>
      </trkpt>
      <trkpt lat="45.83609" lon="5.74535">
        <ele>252.42616460922</ele>
        <time>2014-09-21T16:09:03Z</time>
      </trkpt>
      <trkpt lat="45.83603" lon="5.74534">
        <ele>252.42616460922</ele>
        <time>2014-09-21T16:09:08Z</time>
      </trkpt>
      <trkpt lat="45.83594" lon="5.74534">
        <ele>252.52889369926</ele>
        <time>2014-09-21T16:09:13Z</time>
      </trkpt>
      <trkpt lat="45.83588" lon="5.74534">
        <ele>252.52889369926</ele>
        <time>2014-09-21T16:09:18Z</time>
      </trkpt>
      <trkpt lat="45.8358" lon="5.74531">
        <ele>252.59029731171</ele>
        <time>2014-09-21T16:09:23Z</time>
      </trkpt>
      <trkpt lat="45.83568" lon="5.74525">
        <ele>252.42607412688</ele>
        <time>2014-09-21T16:09:28Z</time>
      </trkpt>
      <trkpt lat="45.83559" lon="5.74522">
        <ele>252.25519471708</ele>
        <time>2014-09-21T16:09:33Z</time>
      </trkpt>
      <trkpt lat="45.8355" lon="5.74521">
        <ele>252.02116163827</ele>
        <time>2014-09-21T16:09:38Z</time>
      </trkpt>
      <trkpt lat="45.83543" lon="5.7452">
        <ele>252.02116163827</ele>
        <time>2014-09-21T16:09:43Z</time>
      </trkpt>
      <trkpt lat="45.83536" lon="5.74521">
        <ele>251.83032432834</ele>
        <time>2014-09-21T16:09:48Z</time>
      </trkpt>
      <trkpt lat="45.83528" lon="5.74521">
        <ele>251.83032432834</ele>
        <time>2014-09-21T16:09:53Z</time>
      </trkpt>
      <trkpt lat="45.83521" lon="5.74523">
        <ele>251.73786071828</ele>
        <time>2014-09-21T16:09:58Z</time>
      </trkpt>
      <trkpt lat="45.83512" lon="5.74527">
        <ele>251.65050212041</ele>
        <time>2014-09-21T16:10:03Z</time>
      </trkpt>
      <trkpt lat="45.83504" lon="5.7453">
        <ele>251.65050212041</ele>
        <time>2014-09-21T16:10:08Z</time>
      </trkpt>
      <trkpt lat="45.835" lon="5.7453">
        <ele>251.78444348829</ele>
        <time>2014-09-21T16:10:13Z</time>
      </trkpt>
      <trkpt lat="45.83494" lon="5.7453">
        <ele>251.78444348829</ele>
        <time>2014-09-21T16:10:18Z</time>
      </trkpt>
      <trkpt lat="45.83486" lon="5.74527">
        <ele>252.03673705609</ele>
        <time>2014-09-21T16:10:23Z</time>
      </trkpt>
      <trkpt lat="45.83481" lon="5.74523">
        <ele>252.03673705609</ele>
        <time>2014-09-21T16:10:28Z</time>
      </trkpt>
      <trkpt lat="45.83476" lon="5.74519">
        <ele>252.45577090179</ele>
        <time>2014-09-21T16:10:33Z</time>
      </trkpt>
      <trkpt lat="45.83469" lon="5.74515">
        <ele>252.45577090179</ele>
        <time>2014-09-21T16:10:39Z</time>
      </trkpt>
      <trkpt lat="45.8346" lon="5.74508">
        <ele>253.21560759775</ele>
        <time>2014-09-21T16:10:43Z</time>
      </trkpt>
      <trkpt lat="45.83456" lon="5.74506">
        <ele>253.21560759775</ele>
        <time>2014-09-21T16:10:49Z</time>
      </trkpt>
      <trkpt lat="45.83453" lon="5.74504">
        <ele>253.21560759775</ele>
        <time>2014-09-21T16:10:53Z</time>
      </trkpt>
      <trkpt lat="45.83446" lon="5.74499">
        <ele>253.78483366299</ele>
        <time>2014-09-21T16:10:58Z</time>
      </trkpt>
      <trkpt lat="45.83437" lon="5.74495">
        <ele>253.78483366299</ele>
        <time>2014-09-21T16:11:03Z</time>
      </trkpt>
      <trkpt lat="45.83431" lon="5.74491">
        <ele>254.42099002615</ele>
        <time>2014-09-21T16:11:08Z</time>
      </trkpt>
      <trkpt lat="45.83427" lon="5.74489">
        <ele>254.42099002615</ele>
        <time>2014-09-21T16:11:13Z</time>
      </trkpt>
      <trkpt lat="45.8342" lon="5.74486">
        <ele>255.03106406841</ele>
        <time>2014-09-21T16:11:18Z</time>
      </trkpt>
      <trkpt lat="45.83413" lon="5.74484">
        <ele>255.03106406841</ele>
        <time>2014-09-21T16:11:23Z</time>
      </trkpt>
      <trkpt lat="45.83411" lon="5.74483">
        <ele>255.68748427686</ele>
        <time>2014-09-21T16:11:28Z</time>
      </trkpt>
      <trkpt lat="45.83406" lon="5.74481">
        <ele>255.68748427686</ele>
        <time>2014-09-21T16:11:34Z</time>
      </trkpt>
      <trkpt lat="45.83399" lon="5.74478">
        <ele>256.31313416919</ele>
        <time>2014-09-21T16:11:38Z</time>
      </trkpt>
      <trkpt lat="45.83391" lon="5.74475">
        <ele>256.31313416919</ele>
        <time>2014-09-21T16:11:43Z</time>
      </trkpt>
      <trkpt lat="45.83378" lon="5.74471">
        <ele>256.76461291336</ele>
        <time>2014-09-21T16:11:48Z</time>
      </trkpt>
      <trkpt lat="45.83367" lon="5.74469">
        <ele>257.08249824001</ele>
        <time>2014-09-21T16:11:53Z</time>
      </trkpt>
      <trkpt lat="45.83358" lon="5.74468">
        <ele>257.47771943607</ele>
        <time>2014-09-21T16:11:58Z</time>
      </trkpt>
      <trkpt lat="45.83347" lon="5.74468">
        <ele>257.95817494643</ele>
        <time>2014-09-21T16:12:03Z</time>
      </trkpt>
      <trkpt lat="45.83339" lon="5.74468">
        <ele>257.95817494643</ele>
        <time>2014-09-21T16:12:08Z</time>
      </trkpt>
      <trkpt lat="45.83331" lon="5.74467">
        <ele>258.38685876994</ele>
        <time>2014-09-21T16:12:13Z</time>
      </trkpt>
      <trkpt lat="45.83324" lon="5.74466">
        <ele>258.38685876994</ele>
        <time>2014-09-21T16:12:18Z</time>
      </trkpt>
      <trkpt lat="45.83319" lon="5.74463">
        <ele>258.69464544535</ele>
        <time>2014-09-21T16:12:23Z</time>
      </trkpt>
      <trkpt lat="45.83314" lon="5.74459">
        <ele>258.69464544535</ele>
        <time>2014-09-21T16:12:28Z</time>
      </trkpt>
      <trkpt lat="45.83312" lon="5.74455">
        <ele>258.69464544535</ele>
        <time>2014-09-21T16:12:33Z</time>
      </trkpt>
      <trkpt lat="45.83306" lon="5.74449">
        <ele>258.76020845934</ele>
        <time>2014-09-21T16:12:38Z</time>
      </trkpt>
      <trkpt lat="45.83298" lon="5.74443">
        <ele>258.76020845934</ele>
        <time>2014-09-21T16:12:43Z</time>
      </trkpt>
      <trkpt lat="45.83291" lon="5.74439">
        <ele>258.88976147872</ele>
        <time>2014-09-21T16:12:48Z</time>
      </trkpt>
      <trkpt lat="45.83284" lon="5.74437">
        <ele>258.88976147872</ele>
        <time>2014-09-21T16:12:53Z</time>
      </trkpt>
      <trkpt lat="45.83282" lon="5.74436">
        <ele>258.99217963153</ele>
        <time>2014-09-21T16:12:58Z</time>
      </trkpt>
      <trkpt lat="45.83278" lon="5.74435">
        <ele>258.99217963153</ele>
        <time>2014-09-21T16:13:03Z</time>
      </trkpt>
      <trkpt lat="45.83273" lon="5.74432">
        <ele>259.1272417017</ele>
        <time>2014-09-21T16:13:08Z</time>
      </trkpt>
      <trkpt lat="45.83272" lon="5.74431">
        <ele>259.1272417017</ele>
        <time>2014-09-21T16:13:13Z</time>
      </trkpt>
      <trkpt lat="45.83266" lon="5.74426">
        <ele>259.1272417017</ele>
        <time>2014-09-21T16:14:18Z</time>
      </trkpt>
      <trkpt lat="45.83261" lon="5.7442">
        <ele>258.97557441083</ele>
        <time>2014-09-21T16:14:23Z</time>
      </trkpt>
      <trkpt lat="45.83256" lon="5.74414">
        <ele>258.97557441083</ele>
        <time>2014-09-21T16:14:28Z</time>
      </trkpt>
      <trkpt lat="45.83252" lon="5.74413">
        <ele>258.90499850194</ele>
        <time>2014-09-21T16:14:33Z</time>
      </trkpt>
      <trkpt lat="45.83253" lon="5.74413">
        <ele>258.90499850194</ele>
        <time>2014-09-21T16:14:38Z</time>
      </trkpt>
      <trkpt lat="45.83256" lon="5.74409">
        <ele>258.90499850194</ele>
        <time>2014-09-21T16:15:38Z</time>
      </trkpt>
      <trkpt lat="45.83256" lon="5.74414">
        <ele>258.90499850194</ele>
        <time>2014-09-21T16:15:43Z</time>
      </trkpt>
      <trkpt lat="45.83256" lon="5.74413">
        <ele>258.90499850194</ele>
        <time>2014-09-21T16:15:48Z</time>
      </trkpt>
      <trkpt lat="45.83247" lon="5.74426">
        <ele>258.8525905738</ele>
        <time>2014-09-21T16:15:53Z</time>
      </trkpt>
      <trkpt lat="45.83242" lon="5.74434">
        <ele>258.8525905738</ele>
        <time>2014-09-21T16:15:58Z</time>
      </trkpt>
      <trkpt lat="45.83241" lon="5.74436">
        <ele>258.94735486586</ele>
        <time>2014-09-21T16:16:03Z</time>
      </trkpt>
      <trkpt lat="45.83241" lon="5.74437">
        <ele>258.94735486586</ele>
        <time>2014-09-21T16:16:08Z</time>
      </trkpt>
      <trkpt lat="45.83239" lon="5.74443">
        <ele>258.94735486586</ele>
        <time>2014-09-21T16:16:13Z</time>
      </trkpt>
      <trkpt lat="45.83237" lon="5.74452">
        <ele>259.03460417703</ele>
        <time>2014-09-21T16:16:18Z</time>
      </trkpt>
      <trkpt lat="45.83236" lon="5.74463">
        <ele>259.03460417703</ele>
        <time>2014-09-21T16:16:23Z</time>
      </trkpt>
      <trkpt lat="45.83238" lon="5.74471">
        <ele>258.89898690575</ele>
        <time>2014-09-21T16:16:28Z</time>
      </trkpt>
      <trkpt lat="45.83237" lon="5.74481">
        <ele>258.89898690575</ele>
        <time>2014-09-21T16:16:33Z</time>
      </trkpt>
      <trkpt lat="45.83236" lon="5.74495">
        <ele>258.67305647387</ele>
        <time>2014-09-21T16:16:38Z</time>
      </trkpt>
      <trkpt lat="45.83235" lon="5.74507">
        <ele>258.67305647387</ele>
        <time>2014-09-21T16:16:44Z</time>
      </trkpt>
      <trkpt lat="45.83235" lon="5.74515">
        <ele>258.43665095707</ele>
        <time>2014-09-21T16:16:48Z</time>
      </trkpt>
      <trkpt lat="45.83235" lon="5.74524">
        <ele>258.43665095707</ele>
        <time>2014-09-21T16:16:53Z</time>
      </trkpt>
      <trkpt lat="45.83235" lon="5.74534">
        <ele>258.16289397271</ele>
        <time>2014-09-21T16:16:58Z</time>
      </trkpt>
      <trkpt lat="45.83235" lon="5.74539">
        <ele>258.16289397271</ele>
        <time>2014-09-21T16:17:03Z</time>
      </trkpt>
      <trkpt lat="45.83236" lon="5.74541">
        <ele>258.16289397271</ele>
        <time>2014-09-21T16:17:08Z</time>
      </trkpt>
      <trkpt lat="45.83237" lon="5.74544">
        <ele>258.16289397271</ele>
        <time>2014-09-21T16:17:13Z</time>
      </trkpt>
      <trkpt lat="45.8324" lon="5.74549">
        <ele>257.69728326252</ele>
        <time>2014-09-21T16:17:18Z</time>
      </trkpt>
      <trkpt lat="45.83242" lon="5.74555">
        <ele>257.69728326252</ele>
        <time>2014-09-21T16:17:23Z</time>
      </trkpt>
      <trkpt lat="45.83244" lon="5.7456">
        <ele>257.69728326252</ele>
        <time>2014-09-21T16:17:28Z</time>
      </trkpt>
      <trkpt lat="45.83246" lon="5.74565">
        <ele>257.21424008709</ele>
        <time>2014-09-21T16:17:33Z</time>
      </trkpt>
      <trkpt lat="45.83251" lon="5.74572">
        <ele>257.21424008709</ele>
        <time>2014-09-21T16:17:38Z</time>
      </trkpt>
      <trkpt lat="45.83258" lon="5.74578">
        <ele>256.70247523324</ele>
        <time>2014-09-21T16:17:43Z</time>
      </trkpt>
      <trkpt lat="45.83265" lon="5.74585">
        <ele>256.70247523324</ele>
        <time>2014-09-21T16:17:48Z</time>
      </trkpt>
      <trkpt lat="45.83269" lon="5.74591">
        <ele>256.28129212979</ele>
        <time>2014-09-21T16:17:53Z</time>
      </trkpt>
      <trkpt lat="45.83275" lon="5.74597">
        <ele>256.28129212979</ele>
        <time>2014-09-21T16:17:58Z</time>
      </trkpt>
      <trkpt lat="45.8328" lon="5.74606">
        <ele>255.91684374273</ele>
        <time>2014-09-21T16:18:03Z</time>
      </trkpt>
      <trkpt lat="45.83283" lon="5.74617">
        <ele>255.91684374273</ele>
        <time>2014-09-21T16:18:08Z</time>
      </trkpt>
      <trkpt lat="45.83284" lon="5.74629">
        <ele>255.75051937823</ele>
        <time>2014-09-21T16:18:13Z</time>
      </trkpt>
      <trkpt lat="45.83287" lon="5.74638">
        <ele>255.75051937823</ele>
        <time>2014-09-21T16:18:18Z</time>
      </trkpt>
      <trkpt lat="45.8329" lon="5.74642">
        <ele>255.66775082138</ele>
        <time>2014-09-21T16:18:23Z</time>
      </trkpt>
      <trkpt lat="45.83293" lon="5.74644">
        <ele>255.66775082138</ele>
        <time>2014-09-21T16:18:28Z</time>
      </trkpt>
      <trkpt lat="45.83295" lon="5.74645">
        <ele>255.66775082138</ele>
        <time>2014-09-21T16:18:33Z</time>
      </trkpt>
      <trkpt lat="45.83297" lon="5.7465">
        <ele>255.8071134883</ele>
        <time>2014-09-21T16:18:38Z</time>
      </trkpt>
      <trkpt lat="45.833" lon="5.74658">
        <ele>255.8071134883</ele>
        <time>2014-09-21T16:18:43Z</time>
      </trkpt>
      <trkpt lat="45.83294" lon="5.74668">
        <ele>255.84960850786</ele>
        <time>2014-09-21T16:18:48Z</time>
      </trkpt>
      <trkpt lat="45.83292" lon="5.74673">
        <ele>255.84960850786</ele>
        <time>2014-09-21T16:18:53Z</time>
      </trkpt>
      <trkpt lat="45.83292" lon="5.74673">
        <ele>255.84960850786</ele>
        <time>2014-09-21T16:18:58Z</time>
      </trkpt>
      <trkpt lat="45.83295" lon="5.74675">
        <ele>255.84960850786</ele>
        <time>2014-09-21T16:19:03Z</time>
      </trkpt>
      <trkpt lat="45.83297" lon="5.74675">
        <ele>255.75931626707</ele>
        <time>2014-09-21T16:19:08Z</time>
      </trkpt>
      <trkpt lat="45.83296" lon="5.74673">
        <ele>255.75931626707</ele>
        <time>2014-09-21T16:19:13Z</time>
      </trkpt>
      <trkpt lat="45.83288" lon="5.74671">
        <ele>255.74829236318</ele>
        <time>2014-09-21T16:19:23Z</time>
      </trkpt>
      <trkpt lat="45.83287" lon="5.74669">
        <ele>255.74829236318</ele>
        <time>2014-09-21T16:19:33Z</time>
      </trkpt>
      <trkpt lat="45.83288" lon="5.74663">
        <ele>255.74829236318</ele>
        <time>2014-09-21T16:19:38Z</time>
      </trkpt>
      <trkpt lat="45.83293" lon="5.74661">
        <ele>255.3930900844</ele>
        <time>2014-09-21T16:19:44Z</time>
      </trkpt>
      <trkpt lat="45.83302" lon="5.74669">
        <ele>254.8931652904</ele>
        <time>2014-09-21T16:19:48Z</time>
      </trkpt>
      <trkpt lat="45.83311" lon="5.74681">
        <ele>254.49134642448</ele>
        <time>2014-09-21T16:19:53Z</time>
      </trkpt>
      <trkpt lat="45.83316" lon="5.74691">
        <ele>253.85028708575</ele>
        <time>2014-09-21T16:19:58Z</time>
      </trkpt>
      <trkpt lat="45.83319" lon="5.74699">
        <ele>253.85028708575</ele>
        <time>2014-09-21T16:20:03Z</time>
      </trkpt>
      <trkpt lat="45.83321" lon="5.74707">
        <ele>253.23450723424</ele>
        <time>2014-09-21T16:20:08Z</time>
      </trkpt>
      <trkpt lat="45.83321" lon="5.74716">
        <ele>253.23450723424</ele>
        <time>2014-09-21T16:20:13Z</time>
      </trkpt>
      <trkpt lat="45.83319" lon="5.74722">
        <ele>252.60076852279</ele>
        <time>2014-09-21T16:20:18Z</time>
      </trkpt>
      <trkpt lat="45.83313" lon="5.74732">
        <ele>252.60076852279</ele>
        <time>2014-09-21T16:20:23Z</time>
      </trkpt>
      <trkpt lat="45.83307" lon="5.74739">
        <ele>251.69285558497</ele>
        <time>2014-09-21T16:20:28Z</time>
      </trkpt>
      <trkpt lat="45.83299" lon="5.74741">
        <ele>251.69285558497</ele>
        <time>2014-09-21T16:20:33Z</time>
      </trkpt>
      <trkpt lat="45.83294" lon="5.74743">
        <ele>251.03789268427</ele>
        <time>2014-09-21T16:20:39Z</time>
      </trkpt>
      <trkpt lat="45.83288" lon="5.74745">
        <ele>251.03789268427</ele>
        <time>2014-09-21T16:20:43Z</time>
      </trkpt>
      <trkpt lat="45.83279" lon="5.74746">
        <ele>250.44620668175</ele>
        <time>2014-09-21T16:20:48Z</time>
      </trkpt>
      <trkpt lat="45.83271" lon="5.74746">
        <ele>250.44620668175</ele>
        <time>2014-09-21T16:20:53Z</time>
      </trkpt>
      <trkpt lat="45.83267" lon="5.74743">
        <ele>249.91476805914</ele>
        <time>2014-09-21T16:20:58Z</time>
      </trkpt>
      <trkpt lat="45.8326" lon="5.74742">
        <ele>249.91476805914</ele>
        <time>2014-09-21T16:21:03Z</time>
      </trkpt>
      <trkpt lat="45.83252" lon="5.7474">
        <ele>249.54143158273</ele>
        <time>2014-09-21T16:21:08Z</time>
      </trkpt>
      <trkpt lat="45.83242" lon="5.74736">
        <ele>248.9984499406</ele>
        <time>2014-09-21T16:21:13Z</time>
      </trkpt>
      <trkpt lat="45.83235" lon="5.74733">
        <ele>248.9984499406</ele>
        <time>2014-09-21T16:21:18Z</time>
      </trkpt>
      <trkpt lat="45.83228" lon="5.74729">
        <ele>248.42932435675</ele>
        <time>2014-09-21T16:21:23Z</time>
      </trkpt>
      <trkpt lat="45.83222" lon="5.74726">
        <ele>248.42932435675</ele>
        <time>2014-09-21T16:21:28Z</time>
      </trkpt>
      <trkpt lat="45.83214" lon="5.74723">
        <ele>247.89498413779</ele>
        <time>2014-09-21T16:21:33Z</time>
      </trkpt>
      <trkpt lat="45.83203" lon="5.74719">
        <ele>247.36527029313</ele>
        <time>2014-09-21T16:21:38Z</time>
      </trkpt>
      <trkpt lat="45.83191" lon="5.74715">
        <ele>246.92746714524</ele>
        <time>2014-09-21T16:21:44Z</time>
      </trkpt>
      <trkpt lat="45.83185" lon="5.74711">
        <ele>246.92746714524</ele>
        <time>2014-09-21T16:21:48Z</time>
      </trkpt>
      <trkpt lat="45.83179" lon="5.7471">
        <ele>246.53244163163</ele>
        <time>2014-09-21T16:21:53Z</time>
      </trkpt>
      <trkpt lat="45.83173" lon="5.7471">
        <ele>246.53244163163</ele>
        <time>2014-09-21T16:21:58Z</time>
      </trkpt>
      <trkpt lat="45.8317" lon="5.74712">
        <ele>246.53244163163</ele>
        <time>2014-09-21T16:22:03Z</time>
      </trkpt>
      <trkpt lat="45.83165" lon="5.74713">
        <ele>246.23538118739</ele>
        <time>2014-09-21T16:22:08Z</time>
      </trkpt>
      <trkpt lat="45.83161" lon="5.74715">
        <ele>246.23538118739</ele>
        <time>2014-09-21T16:22:13Z</time>
      </trkpt>
      <trkpt lat="45.83154" lon="5.7472">
        <ele>246.05827727731</ele>
        <time>2014-09-21T16:22:18Z</time>
      </trkpt>
      <trkpt lat="45.83146" lon="5.74726">
        <ele>246.04994931855</ele>
        <time>2014-09-21T16:22:23Z</time>
      </trkpt>
      <trkpt lat="45.8314" lon="5.7473">
        <ele>246.04994931855</ele>
        <time>2014-09-21T16:22:28Z</time>
      </trkpt>
      <trkpt lat="45.83135" lon="5.74736">
        <ele>246.06777350675</ele>
        <time>2014-09-21T16:22:34Z</time>
      </trkpt>
      <trkpt lat="45.83135" lon="5.74737">
        <ele>246.06777350675</ele>
        <time>2014-09-21T16:22:38Z</time>
      </trkpt>
      <trkpt lat="45.83128" lon="5.74739">
        <ele>246.06777350675</ele>
        <time>2014-09-21T16:22:48Z</time>
      </trkpt>
      <trkpt lat="45.83123" lon="5.74741">
        <ele>246.26771730638</ele>
        <time>2014-09-21T16:22:53Z</time>
      </trkpt>
      <trkpt lat="45.83119" lon="5.74742">
        <ele>246.26771730638</ele>
        <time>2014-09-21T16:22:58Z</time>
      </trkpt>
      <trkpt lat="45.83118" lon="5.74742">
        <ele>246.26771730638</ele>
        <time>2014-09-21T16:23:03Z</time>
      </trkpt>
      <trkpt lat="45.83113" lon="5.74741">
        <ele>246.69287263119</ele>
        <time>2014-09-21T16:23:19Z</time>
      </trkpt>
      <trkpt lat="45.83104" lon="5.7474">
        <ele>246.69287263119</ele>
        <time>2014-09-21T16:23:23Z</time>
      </trkpt>
      <trkpt lat="45.83099" lon="5.74742">
        <ele>246.63313149275</ele>
        <time>2014-09-21T16:23:28Z</time>
      </trkpt>
      <trkpt lat="45.83095" lon="5.74744">
        <ele>246.63313149275</ele>
        <time>2014-09-21T16:23:33Z</time>
      </trkpt>
      <trkpt lat="45.8309" lon="5.74744">
        <ele>246.74330257646</ele>
        <time>2014-09-21T16:23:38Z</time>
      </trkpt>
      <trkpt lat="45.83086" lon="5.74743">
        <ele>246.74330257646</ele>
        <time>2014-09-21T16:23:44Z</time>
      </trkpt>
      <trkpt lat="45.83079" lon="5.74742">
        <ele>246.86581235582</ele>
        <time>2014-09-21T16:23:48Z</time>
      </trkpt>
      <trkpt lat="45.83072" lon="5.74742">
        <ele>246.86581235582</ele>
        <time>2014-09-21T16:23:53Z</time>
      </trkpt>
      <trkpt lat="45.83063" lon="5.74742">
        <ele>247.0851956714</ele>
        <time>2014-09-21T16:23:59Z</time>
      </trkpt>
      <trkpt lat="45.83055" lon="5.74742">
        <ele>247.0851956714</ele>
        <time>2014-09-21T16:24:03Z</time>
      </trkpt>
      <trkpt lat="45.8305" lon="5.74737">
        <ele>247.39303293792</ele>
        <time>2014-09-21T16:24:08Z</time>
      </trkpt>
      <trkpt lat="45.83044" lon="5.74736">
        <ele>247.39303293792</ele>
        <time>2014-09-21T16:24:13Z</time>
      </trkpt>
      <trkpt lat="45.83038" lon="5.74737">
        <ele>247.69480646981</ele>
        <time>2014-09-21T16:24:18Z</time>
      </trkpt>
      <trkpt lat="45.83031" lon="5.74741">
        <ele>247.69480646981</ele>
        <time>2014-09-21T16:24:23Z</time>
      </trkpt>
      <trkpt lat="45.83025" lon="5.74744">
        <ele>248.03266154723</ele>
        <time>2014-09-21T16:24:28Z</time>
      </trkpt>
      <trkpt lat="45.8302" lon="5.74744">
        <ele>248.03266154723</ele>
        <time>2014-09-21T16:24:33Z</time>
      </trkpt>
      <trkpt lat="45.83014" lon="5.74742">
        <ele>248.11409727305</ele>
        <time>2014-09-21T16:24:38Z</time>
      </trkpt>
      <trkpt lat="45.8301" lon="5.74741">
        <ele>248.11409727305</ele>
        <time>2014-09-21T16:24:43Z</time>
      </trkpt>
      <trkpt lat="45.83003" lon="5.74736">
        <ele>248.12998485135</ele>
        <time>2014-09-21T16:24:48Z</time>
      </trkpt>
      <trkpt lat="45.82997" lon="5.74725">
        <ele>248.07002608406</ele>
        <time>2014-09-21T16:24:53Z</time>
      </trkpt>
      <trkpt lat="45.82999" lon="5.74708">
        <ele>247.88167249459</ele>
        <time>2014-09-21T16:24:59Z</time>
      </trkpt>
      <trkpt lat="45.83001" lon="5.74697">
        <ele>247.88167249459</ele>
        <time>2014-09-21T16:25:03Z</time>
      </trkpt>
      <trkpt lat="45.83001" lon="5.74686">
        <ele>247.68954350041</ele>
        <time>2014-09-21T16:25:08Z</time>
      </trkpt>
      <trkpt lat="45.83001" lon="5.74677">
        <ele>247.68954350041</ele>
        <time>2014-09-21T16:25:13Z</time>
      </trkpt>
      <trkpt lat="45.82994" lon="5.74669">
        <ele>247.07591647172</ele>
        <time>2014-09-21T16:25:18Z</time>
      </trkpt>
      <trkpt lat="45.82984" lon="5.74663">
        <ele>246.44755952195</ele>
        <time>2014-09-21T16:25:23Z</time>
      </trkpt>
      <trkpt lat="45.82974" lon="5.74661">
        <ele>245.69143133154</ele>
        <time>2014-09-21T16:25:28Z</time>
      </trkpt>
      <trkpt lat="45.82964" lon="5.74658">
        <ele>245.12107990875</ele>
        <time>2014-09-21T16:25:33Z</time>
      </trkpt>
      <trkpt lat="45.82953" lon="5.74656">
        <ele>244.63739965899</ele>
        <time>2014-09-21T16:25:39Z</time>
      </trkpt>
      <trkpt lat="45.82938" lon="5.74651">
        <ele>244.1483195458</ele>
        <time>2014-09-21T16:25:43Z</time>
      </trkpt>
      <trkpt lat="45.82929" lon="5.74649">
        <ele>243.74147549249</ele>
        <time>2014-09-21T16:25:48Z</time>
      </trkpt>
      <trkpt lat="45.82921" lon="5.74647">
        <ele>243.74147549249</ele>
        <time>2014-09-21T16:25:53Z</time>
      </trkpt>
      <trkpt lat="45.82913" lon="5.74645">
        <ele>243.59870644843</ele>
        <time>2014-09-21T16:25:58Z</time>
      </trkpt>
      <trkpt lat="45.82901" lon="5.74641">
        <ele>243.55629026672</ele>
        <time>2014-09-21T16:26:03Z</time>
      </trkpt>
      <trkpt lat="45.82888" lon="5.74631">
        <ele>243.73605546847</ele>
        <time>2014-09-21T16:26:08Z</time>
      </trkpt>
      <trkpt lat="45.82869" lon="5.74608">
        <ele>243.6593976047</ele>
        <time>2014-09-21T16:26:13Z</time>
      </trkpt>
      <trkpt lat="45.82864" lon="5.74579">
        <ele>243.77707676928</ele>
        <time>2014-09-21T16:26:18Z</time>
      </trkpt>
      <trkpt lat="45.82863" lon="5.74551">
        <ele>244.07386264275</ele>
        <time>2014-09-21T16:26:23Z</time>
      </trkpt>
      <trkpt lat="45.82858" lon="5.74525">
        <ele>244.44867860863</ele>
        <time>2014-09-21T16:26:28Z</time>
      </trkpt>
      <trkpt lat="45.82849" lon="5.74523">
        <ele>244.83648394202</ele>
        <time>2014-09-21T16:26:33Z</time>
      </trkpt>
      <trkpt lat="45.82836" lon="5.74527">
        <ele>245.22022419964</ele>
        <time>2014-09-21T16:26:38Z</time>
      </trkpt>
      <trkpt lat="45.82817" lon="5.74522">
        <ele>245.45442443002</ele>
        <time>2014-09-21T16:26:44Z</time>
      </trkpt>
      <trkpt lat="45.82795" lon="5.74521">
        <ele>245.95235730715</ele>
        <time>2014-09-21T16:26:48Z</time>
      </trkpt>
      <trkpt lat="45.82777" lon="5.74517">
        <ele>246.50536394629</ele>
        <time>2014-09-21T16:26:53Z</time>
      </trkpt>
      <trkpt lat="45.82763" lon="5.74507">
        <ele>246.97762970956</ele>
        <time>2014-09-21T16:26:58Z</time>
      </trkpt>
      <trkpt lat="45.82748" lon="5.74496">
        <ele>247.40209530628</ele>
        <time>2014-09-21T16:27:03Z</time>
      </trkpt>
      <trkpt lat="45.82735" lon="5.74481">
        <ele>247.76621524749</ele>
        <time>2014-09-21T16:27:08Z</time>
      </trkpt>
      <trkpt lat="45.82714" lon="5.74465">
        <ele>247.94328107899</ele>
        <time>2014-09-21T16:27:13Z</time>
      </trkpt>
      <trkpt lat="45.82697" lon="5.74451">
        <ele>248.00379780396</ele>
        <time>2014-09-21T16:27:19Z</time>
      </trkpt>
      <trkpt lat="45.82677" lon="5.74441">
        <ele>247.94139884573</ele>
        <time>2014-09-21T16:27:23Z</time>
      </trkpt>
      <trkpt lat="45.82665" lon="5.74433">
        <ele>247.95232125547</ele>
        <time>2014-09-21T16:27:28Z</time>
      </trkpt>
      <trkpt lat="45.82649" lon="5.74428">
        <ele>247.97322597055</ele>
        <time>2014-09-21T16:27:33Z</time>
      </trkpt>
      <trkpt lat="45.82629" lon="5.74419">
        <ele>247.93101985625</ele>
        <time>2014-09-21T16:27:38Z</time>
      </trkpt>
      <trkpt lat="45.8261" lon="5.74411">
        <ele>247.93112001015</ele>
        <time>2014-09-21T16:27:43Z</time>
      </trkpt>
      <trkpt lat="45.82592" lon="5.74419">
        <ele>247.94140964974</ele>
        <time>2014-09-21T16:27:48Z</time>
      </trkpt>
      <trkpt lat="45.82574" lon="5.74426">
        <ele>248.16270800043</ele>
        <time>2014-09-21T16:27:53Z</time>
      </trkpt>
      <trkpt lat="45.82549" lon="5.74439">
        <ele>248.76610631146</ele>
        <time>2014-09-21T16:27:58Z</time>
      </trkpt>
      <trkpt lat="45.82527" lon="5.74452">
        <ele>249.36146102795</ele>
        <time>2014-09-21T16:28:03Z</time>
      </trkpt>
      <trkpt lat="45.82512" lon="5.74469">
        <ele>249.91879601289</ele>
        <time>2014-09-21T16:28:08Z</time>
      </trkpt>
      <trkpt lat="45.82491" lon="5.74476">
        <ele>250.33841987149</ele>
        <time>2014-09-21T16:28:13Z</time>
      </trkpt>
      <trkpt lat="45.82472" lon="5.74474">
        <ele>250.67249562089</ele>
        <time>2014-09-21T16:28:18Z</time>
      </trkpt>
      <trkpt lat="45.82452" lon="5.74482">
        <ele>251.12815182379</ele>
        <time>2014-09-21T16:28:23Z</time>
      </trkpt>
      <trkpt lat="45.82432" lon="5.7449">
        <ele>251.68082991642</ele>
        <time>2014-09-21T16:28:28Z</time>
      </trkpt>
      <trkpt lat="45.82408" lon="5.74485">
        <ele>252.20666251426</ele>
        <time>2014-09-21T16:28:33Z</time>
      </trkpt>
      <trkpt lat="45.82387" lon="5.74478">
        <ele>252.74951718226</ele>
        <time>2014-09-21T16:28:38Z</time>
      </trkpt>
      <trkpt lat="45.82369" lon="5.74468">
        <ele>253.37885291462</ele>
        <time>2014-09-21T16:28:43Z</time>
      </trkpt>
      <trkpt lat="45.82351" lon="5.74465">
        <ele>253.84177957405</ele>
        <time>2014-09-21T16:28:48Z</time>
      </trkpt>
      <trkpt lat="45.82336" lon="5.74472">
        <ele>254.13506981366</ele>
        <time>2014-09-21T16:28:53Z</time>
      </trkpt>
      <trkpt lat="45.82316" lon="5.7448">
        <ele>254.12654955284</ele>
        <time>2014-09-21T16:28:58Z</time>
      </trkpt>
      <trkpt lat="45.82295" lon="5.74497">
        <ele>253.89639478765</ele>
        <time>2014-09-21T16:29:03Z</time>
      </trkpt>
      <trkpt lat="45.82278" lon="5.74521">
        <ele>253.49072593386</ele>
        <time>2014-09-21T16:29:08Z</time>
      </trkpt>
      <trkpt lat="45.8226" lon="5.74542">
        <ele>253.11131960795</ele>
        <time>2014-09-21T16:29:13Z</time>
      </trkpt>
      <trkpt lat="45.82244" lon="5.74556">
        <ele>252.74332433623</ele>
        <time>2014-09-21T16:29:18Z</time>
      </trkpt>
      <trkpt lat="45.82227" lon="5.74561">
        <ele>252.38737624018</ele>
        <time>2014-09-21T16:29:23Z</time>
      </trkpt>
      <trkpt lat="45.82207" lon="5.74567">
        <ele>252.04404261393</ele>
        <time>2014-09-21T16:29:28Z</time>
      </trkpt>
      <trkpt lat="45.8219" lon="5.74573">
        <ele>251.64176439923</ele>
        <time>2014-09-21T16:29:33Z</time>
      </trkpt>
      <trkpt lat="45.82179" lon="5.74578">
        <ele>251.25851704525</ele>
        <time>2014-09-21T16:29:38Z</time>
      </trkpt>
      <trkpt lat="45.82169" lon="5.74582">
        <ele>250.99531365199</ele>
        <time>2014-09-21T16:29:43Z</time>
      </trkpt>
      <trkpt lat="45.82158" lon="5.74593">
        <ele>250.78688083254</ele>
        <time>2014-09-21T16:29:48Z</time>
      </trkpt>
      <trkpt lat="45.82152" lon="5.74605">
        <ele>250.48610923558</ele>
        <time>2014-09-21T16:29:53Z</time>
      </trkpt>
      <trkpt lat="45.82147" lon="5.74614">
        <ele>250.48610923558</ele>
        <time>2014-09-21T16:29:58Z</time>
      </trkpt>
      <trkpt lat="45.82142" lon="5.7462">
        <ele>250.30280862783</ele>
        <time>2014-09-21T16:30:03Z</time>
      </trkpt>
      <trkpt lat="45.82137" lon="5.74628">
        <ele>250.30280862783</ele>
        <time>2014-09-21T16:30:08Z</time>
      </trkpt>
      <trkpt lat="45.82132" lon="5.74635">
        <ele>250.04193092691</ele>
        <time>2014-09-21T16:30:13Z</time>
      </trkpt>
      <trkpt lat="45.82127" lon="5.74642">
        <ele>250.04193092691</ele>
        <time>2014-09-21T16:30:18Z</time>
      </trkpt>
      <trkpt lat="45.82119" lon="5.74649">
        <ele>249.78235612491</ele>
        <time>2014-09-21T16:30:23Z</time>
      </trkpt>
      <trkpt lat="45.82112" lon="5.74653">
        <ele>249.78235612491</ele>
        <time>2014-09-21T16:30:28Z</time>
      </trkpt>
      <trkpt lat="45.82106" lon="5.74657">
        <ele>249.79890247794</ele>
        <time>2014-09-21T16:30:33Z</time>
      </trkpt>
      <trkpt lat="45.82099" lon="5.74663">
        <ele>249.79890247794</ele>
        <time>2014-09-21T16:30:38Z</time>
      </trkpt>
      <trkpt lat="45.8209" lon="5.74665">
        <ele>249.95630559365</ele>
        <time>2014-09-21T16:30:43Z</time>
      </trkpt>
      <trkpt lat="45.82083" lon="5.74668">
        <ele>249.95630559365</ele>
        <time>2014-09-21T16:30:48Z</time>
      </trkpt>
      <trkpt lat="45.82074" lon="5.74671">
        <ele>249.98471116886</ele>
        <time>2014-09-21T16:30:53Z</time>
      </trkpt>
      <trkpt lat="45.82064" lon="5.74669">
        <ele>249.73530801363</ele>
        <time>2014-09-21T16:30:58Z</time>
      </trkpt>
      <trkpt lat="45.82057" lon="5.74665">
        <ele>249.73530801363</ele>
        <time>2014-09-21T16:31:03Z</time>
      </trkpt>
      <trkpt lat="45.82052" lon="5.74664">
        <ele>249.33037596031</ele>
        <time>2014-09-21T16:31:08Z</time>
      </trkpt>
      <trkpt lat="45.82047" lon="5.74664">
        <ele>249.33037596031</ele>
        <time>2014-09-21T16:31:13Z</time>
      </trkpt>
      <trkpt lat="45.8204" lon="5.74665">
        <ele>248.82598304907</ele>
        <time>2014-09-21T16:31:18Z</time>
      </trkpt>
      <trkpt lat="45.82031" lon="5.74665">
        <ele>248.82598304907</ele>
        <time>2014-09-21T16:31:23Z</time>
      </trkpt>
      <trkpt lat="45.82022" lon="5.74666">
        <ele>248.37521242602</ele>
        <time>2014-09-21T16:31:28Z</time>
      </trkpt>
      <trkpt lat="45.82014" lon="5.74668">
        <ele>248.37521242602</ele>
        <time>2014-09-21T16:31:33Z</time>
      </trkpt>
      <trkpt lat="45.82" lon="5.74668">
        <ele>247.90355904781</ele>
        <time>2014-09-21T16:31:39Z</time>
      </trkpt>
      <trkpt lat="45.81993" lon="5.7467">
        <ele>247.90355904781</ele>
        <time>2014-09-21T16:31:43Z</time>
      </trkpt>
      <trkpt lat="45.81983" lon="5.74669">
        <ele>247.55818824051</ele>
        <time>2014-09-21T16:31:48Z</time>
      </trkpt>
      <trkpt lat="45.81975" lon="5.74668">
        <ele>247.55818824051</ele>
        <time>2014-09-21T16:31:53Z</time>
      </trkpt>
      <trkpt lat="45.81967" lon="5.74666">
        <ele>247.34537043881</ele>
        <time>2014-09-21T16:31:58Z</time>
      </trkpt>
      <trkpt lat="45.81961" lon="5.74663">
        <ele>247.34537043881</ele>
        <time>2014-09-21T16:32:03Z</time>
      </trkpt>
      <trkpt lat="45.81954" lon="5.74661">
        <ele>247.4578576395</ele>
        <time>2014-09-21T16:32:08Z</time>
      </trkpt>
      <trkpt lat="45.81947" lon="5.74657">
        <ele>247.4578576395</ele>
        <time>2014-09-21T16:32:13Z</time>
      </trkpt>
      <trkpt lat="45.8194" lon="5.74654">
        <ele>247.92918928065</ele>
        <time>2014-09-21T16:32:18Z</time>
      </trkpt>
      <trkpt lat="45.81934" lon="5.74652">
        <ele>247.92918928065</ele>
        <time>2014-09-21T16:32:23Z</time>
      </trkpt>
      <trkpt lat="45.81927" lon="5.74653">
        <ele>248.18414041028</ele>
        <time>2014-09-21T16:32:28Z</time>
      </trkpt>
      <trkpt lat="45.81921" lon="5.74655">
        <ele>248.18414041028</ele>
        <time>2014-09-21T16:32:33Z</time>
      </trkpt>
      <trkpt lat="45.81914" lon="5.74658">
        <ele>248.33882531971</ele>
        <time>2014-09-21T16:32:38Z</time>
      </trkpt>
      <trkpt lat="45.81905" lon="5.74663">
        <ele>248.35697851104</ele>
        <time>2014-09-21T16:32:43Z</time>
      </trkpt>
      <trkpt lat="45.81897" lon="5.74665">
        <ele>248.35697851104</ele>
        <time>2014-09-21T16:32:48Z</time>
      </trkpt>
      <trkpt lat="45.81889" lon="5.74671">
        <ele>248.24859741272</ele>
        <time>2014-09-21T16:32:53Z</time>
      </trkpt>
      <trkpt lat="45.81884" lon="5.74675">
        <ele>248.24859741272</ele>
        <time>2014-09-21T16:32:58Z</time>
      </trkpt>
      <trkpt lat="45.81876" lon="5.74681">
        <ele>248.05210625057</ele>
        <time>2014-09-21T16:33:03Z</time>
      </trkpt>
      <trkpt lat="45.81866" lon="5.74687">
        <ele>248.10597232169</ele>
        <time>2014-09-21T16:33:08Z</time>
      </trkpt>
      <trkpt lat="45.8185" lon="5.74699">
        <ele>248.23310496339</ele>
        <time>2014-09-21T16:33:13Z</time>
      </trkpt>
      <trkpt lat="45.81827" lon="5.74715">
        <ele>248.370081844</ele>
        <time>2014-09-21T16:33:18Z</time>
      </trkpt>
      <trkpt lat="45.81799" lon="5.74739">
        <ele>248.44368945703</ele>
        <time>2014-09-21T16:33:23Z</time>
      </trkpt>
      <trkpt lat="45.81774" lon="5.74755">
        <ele>248.58801649134</ele>
        <time>2014-09-21T16:33:28Z</time>
      </trkpt>
      <trkpt lat="45.81751" lon="5.74767">
        <ele>248.71092889737</ele>
        <time>2014-09-21T16:33:33Z</time>
      </trkpt>
      <trkpt lat="45.81729" lon="5.74769">
        <ele>248.71270374836</ele>
        <time>2014-09-21T16:33:38Z</time>
      </trkpt>
      <trkpt lat="45.81704" lon="5.74768">
        <ele>248.64538995183</ele>
        <time>2014-09-21T16:33:43Z</time>
      </trkpt>
      <trkpt lat="45.81685" lon="5.74752">
        <ele>248.37005795845</ele>
        <time>2014-09-21T16:33:48Z</time>
      </trkpt>
      <trkpt lat="45.81664" lon="5.74757">
        <ele>248.03237404915</ele>
        <time>2014-09-21T16:33:53Z</time>
      </trkpt>
      <trkpt lat="45.81641" lon="5.74769">
        <ele>247.72423981839</ele>
        <time>2014-09-21T16:33:58Z</time>
      </trkpt>
      <trkpt lat="45.81616" lon="5.74784">
        <ele>247.57394929026</ele>
        <time>2014-09-21T16:34:03Z</time>
      </trkpt>
      <trkpt lat="45.81596" lon="5.7479">
        <ele>247.45493206146</ele>
        <time>2014-09-21T16:34:08Z</time>
      </trkpt>
      <trkpt lat="45.81577" lon="5.7479">
        <ele>247.40834115826</ele>
        <time>2014-09-21T16:34:13Z</time>
      </trkpt>
      <trkpt lat="45.8156" lon="5.74791">
        <ele>247.24151629366</ele>
        <time>2014-09-21T16:34:18Z</time>
      </trkpt>
      <trkpt lat="45.8155" lon="5.74788">
        <ele>247.03567805448</ele>
        <time>2014-09-21T16:34:23Z</time>
      </trkpt>
      <trkpt lat="45.81543" lon="5.74787">
        <ele>247.03567805448</ele>
        <time>2014-09-21T16:34:28Z</time>
      </trkpt>
      <trkpt lat="45.81537" lon="5.74786">
        <ele>246.93823647914</ele>
        <time>2014-09-21T16:34:33Z</time>
      </trkpt>
      <trkpt lat="45.81528" lon="5.74787">
        <ele>246.93823647914</ele>
        <time>2014-09-21T16:34:38Z</time>
      </trkpt>
      <trkpt lat="45.81521" lon="5.74786">
        <ele>246.59548133101</ele>
        <time>2014-09-21T16:34:43Z</time>
      </trkpt>
      <trkpt lat="45.81514" lon="5.74786">
        <ele>246.59548133101</ele>
        <time>2014-09-21T16:34:48Z</time>
      </trkpt>
      <trkpt lat="45.81509" lon="5.74787">
        <ele>246.18475259421</ele>
        <time>2014-09-21T16:34:53Z</time>
      </trkpt>
      <trkpt lat="45.81504" lon="5.7479">
        <ele>246.18475259421</ele>
        <time>2014-09-21T16:34:58Z</time>
      </trkpt>
      <trkpt lat="45.81497" lon="5.7479">
        <ele>245.9858314096</ele>
        <time>2014-09-21T16:35:03Z</time>
      </trkpt>
      <trkpt lat="45.81489" lon="5.74788">
        <ele>245.9858314096</ele>
        <time>2014-09-21T16:35:08Z</time>
      </trkpt>
      <trkpt lat="45.81479" lon="5.74787">
        <ele>246.05558494969</ele>
        <time>2014-09-21T16:35:13Z</time>
      </trkpt>
      <trkpt lat="45.8147" lon="5.74791">
        <ele>246.24418219709</ele>
        <time>2014-09-21T16:35:18Z</time>
      </trkpt>
      <trkpt lat="45.81454" lon="5.74796">
        <ele>246.729500149</ele>
        <time>2014-09-21T16:35:23Z</time>
      </trkpt>
      <trkpt lat="45.81445" lon="5.74801">
        <ele>247.45934380921</ele>
        <time>2014-09-21T16:35:28Z</time>
      </trkpt>
      <trkpt lat="45.81436" lon="5.74799">
        <ele>247.45934380921</ele>
        <time>2014-09-21T16:35:33Z</time>
      </trkpt>
      <trkpt lat="45.8143" lon="5.74799">
        <ele>247.73616410894</ele>
        <time>2014-09-21T16:35:38Z</time>
      </trkpt>
      <trkpt lat="45.81424" lon="5.74801">
        <ele>247.73616410894</ele>
        <time>2014-09-21T16:35:43Z</time>
      </trkpt>
      <trkpt lat="45.81419" lon="5.74802">
        <ele>247.90929357716</ele>
        <time>2014-09-21T16:35:48Z</time>
      </trkpt>
      <trkpt lat="45.81412" lon="5.74802">
        <ele>247.90929357716</ele>
        <time>2014-09-21T16:35:53Z</time>
      </trkpt>
      <trkpt lat="45.81406" lon="5.748">
        <ele>248.17299981392</ele>
        <time>2014-09-21T16:35:58Z</time>
      </trkpt>
      <trkpt lat="45.81396" lon="5.74802">
        <ele>248.56292347834</ele>
        <time>2014-09-21T16:36:03Z</time>
      </trkpt>
      <trkpt lat="45.81389" lon="5.74801">
        <ele>248.56292347834</ele>
        <time>2014-09-21T16:36:08Z</time>
      </trkpt>
      <trkpt lat="45.8138" lon="5.74797">
        <ele>248.53529909569</ele>
        <time>2014-09-21T16:36:13Z</time>
      </trkpt>
      <trkpt lat="45.81371" lon="5.74794">
        <ele>248.63950095314</ele>
        <time>2014-09-21T16:36:18Z</time>
      </trkpt>
      <trkpt lat="45.81364" lon="5.74791">
        <ele>248.63950095314</ele>
        <time>2014-09-21T16:36:23Z</time>
      </trkpt>
      <trkpt lat="45.81354" lon="5.74791">
        <ele>248.92303460393</ele>
        <time>2014-09-21T16:36:28Z</time>
      </trkpt>
      <trkpt lat="45.81346" lon="5.74791">
        <ele>248.92303460393</ele>
        <time>2014-09-21T16:36:33Z</time>
      </trkpt>
      <trkpt lat="45.81339" lon="5.74791">
        <ele>249.2276717425</ele>
        <time>2014-09-21T16:36:38Z</time>
      </trkpt>
      <trkpt lat="45.81333" lon="5.74791">
        <ele>249.2276717425</ele>
        <time>2014-09-21T16:36:43Z</time>
      </trkpt>
      <trkpt lat="45.81328" lon="5.74795">
        <ele>249.55087502992</ele>
        <time>2014-09-21T16:36:48Z</time>
      </trkpt>
      <trkpt lat="45.81318" lon="5.74806">
        <ele>250.06319234423</ele>
        <time>2014-09-21T16:36:53Z</time>
      </trkpt>
      <trkpt lat="45.81311" lon="5.74812">
        <ele>250.06319234423</ele>
        <time>2014-09-21T16:36:58Z</time>
      </trkpt>
      <trkpt lat="45.81304" lon="5.74811">
        <ele>250.53303223002</ele>
        <time>2014-09-21T16:37:03Z</time>
      </trkpt>
      <trkpt lat="45.81298" lon="5.74812">
        <ele>250.53303223002</ele>
        <time>2014-09-21T16:37:08Z</time>
      </trkpt>
      <trkpt lat="45.81292" lon="5.74817">
        <ele>250.81801225796</ele>
        <time>2014-09-21T16:37:13Z</time>
      </trkpt>
      <trkpt lat="45.81283" lon="5.74821">
        <ele>251.0893849217</ele>
        <time>2014-09-21T16:37:18Z</time>
      </trkpt>
      <trkpt lat="45.81275" lon="5.74826">
        <ele>251.0893849217</ele>
        <time>2014-09-21T16:37:23Z</time>
      </trkpt>
      <trkpt lat="45.8127" lon="5.7483">
        <ele>251.28971887381</ele>
        <time>2014-09-21T16:37:28Z</time>
      </trkpt>
      <trkpt lat="45.81267" lon="5.74838">
        <ele>251.28971887381</ele>
        <time>2014-09-21T16:37:33Z</time>
      </trkpt>
      <trkpt lat="45.81261" lon="5.74848">
        <ele>251.49572639121</ele>
        <time>2014-09-21T16:37:38Z</time>
      </trkpt>
      <trkpt lat="45.81251" lon="5.74861">
        <ele>251.5335047733</ele>
        <time>2014-09-21T16:37:43Z</time>
      </trkpt>
      <trkpt lat="45.81237" lon="5.74879">
        <ele>251.48741135235</ele>
        <time>2014-09-21T16:37:48Z</time>
      </trkpt>
      <trkpt lat="45.81217" lon="5.7489">
        <ele>251.17646428581</ele>
        <time>2014-09-21T16:37:53Z</time>
      </trkpt>
      <trkpt lat="45.81196" lon="5.74902">
        <ele>250.6643169098</ele>
        <time>2014-09-21T16:37:58Z</time>
      </trkpt>
      <trkpt lat="45.8117" lon="5.74916">
        <ele>250.21228226524</ele>
        <time>2014-09-21T16:38:03Z</time>
      </trkpt>
      <trkpt lat="45.81149" lon="5.7492">
        <ele>249.77409748859</ele>
        <time>2014-09-21T16:38:08Z</time>
      </trkpt>
      <trkpt lat="45.81127" lon="5.74927">
        <ele>249.27804302017</ele>
        <time>2014-09-21T16:38:13Z</time>
      </trkpt>
      <trkpt lat="45.81109" lon="5.74936">
        <ele>248.90282040349</ele>
        <time>2014-09-21T16:38:18Z</time>
      </trkpt>
      <trkpt lat="45.81087" lon="5.74953">
        <ele>248.49661744157</ele>
        <time>2014-09-21T16:38:23Z</time>
      </trkpt>
      <trkpt lat="45.81068" lon="5.74967">
        <ele>248.13502105619</ele>
        <time>2014-09-21T16:38:28Z</time>
      </trkpt>
      <trkpt lat="45.81044" lon="5.74982">
        <ele>247.81587515845</ele>
        <time>2014-09-21T16:38:33Z</time>
      </trkpt>
      <trkpt lat="45.81017" lon="5.74984">
        <ele>247.56587296312</ele>
        <time>2014-09-21T16:38:38Z</time>
      </trkpt>
      <trkpt lat="45.80992" lon="5.74987">
        <ele>247.39512758985</ele>
        <time>2014-09-21T16:38:43Z</time>
      </trkpt>
      <trkpt lat="45.80966" lon="5.74988">
        <ele>247.18307132074</ele>
        <time>2014-09-21T16:38:48Z</time>
      </trkpt>
      <trkpt lat="45.80942" lon="5.74991">
        <ele>246.81809240403</ele>
        <time>2014-09-21T16:38:53Z</time>
      </trkpt>
      <trkpt lat="45.80923" lon="5.74992">
        <ele>246.3989446901</ele>
        <time>2014-09-21T16:38:58Z</time>
      </trkpt>
      <trkpt lat="45.80904" lon="5.74994">
        <ele>245.81550429539</ele>
        <time>2014-09-21T16:39:03Z</time>
      </trkpt>
      <trkpt lat="45.80885" lon="5.75003">
        <ele>245.31204293354</ele>
        <time>2014-09-21T16:39:08Z</time>
      </trkpt>
      <trkpt lat="45.80865" lon="5.75014">
        <ele>244.89847318573</ele>
        <time>2014-09-21T16:39:13Z</time>
      </trkpt>
      <trkpt lat="45.80849" lon="5.75027">
        <ele>244.58370139163</ele>
        <time>2014-09-21T16:39:18Z</time>
      </trkpt>
      <trkpt lat="45.80836" lon="5.75042">
        <ele>244.40449759598</ele>
        <time>2014-09-21T16:39:23Z</time>
      </trkpt>
      <trkpt lat="45.80816" lon="5.75059">
        <ele>244.36570095209</ele>
        <time>2014-09-21T16:39:28Z</time>
      </trkpt>
      <trkpt lat="45.80796" lon="5.75058">
        <ele>244.15432988894</ele>
        <time>2014-09-21T16:39:33Z</time>
      </trkpt>
      <trkpt lat="45.80776" lon="5.75056">
        <ele>243.98524172232</ele>
        <time>2014-09-21T16:39:38Z</time>
      </trkpt>
      <trkpt lat="45.80752" lon="5.75062">
        <ele>243.74032259911</ele>
        <time>2014-09-21T16:39:43Z</time>
      </trkpt>
      <trkpt lat="45.80728" lon="5.75068">
        <ele>243.46884640247</ele>
        <time>2014-09-21T16:39:48Z</time>
      </trkpt>
      <trkpt lat="45.80708" lon="5.75072">
        <ele>243.1732851555</ele>
        <time>2014-09-21T16:39:53Z</time>
      </trkpt>
      <trkpt lat="45.80688" lon="5.75083">
        <ele>242.98567403461</ele>
        <time>2014-09-21T16:39:58Z</time>
      </trkpt>
      <trkpt lat="45.8067" lon="5.7509">
        <ele>242.82626818567</ele>
        <time>2014-09-21T16:40:03Z</time>
      </trkpt>
      <trkpt lat="45.80652" lon="5.7509">
        <ele>242.75078023017</ele>
        <time>2014-09-21T16:40:08Z</time>
      </trkpt>
      <trkpt lat="45.80635" lon="5.75083">
        <ele>242.46470736249</ele>
        <time>2014-09-21T16:40:13Z</time>
      </trkpt>
      <trkpt lat="45.80621" lon="5.75075">
        <ele>242.18572986771</ele>
        <time>2014-09-21T16:40:18Z</time>
      </trkpt>
      <trkpt lat="45.80607" lon="5.75068">
        <ele>241.81286494952</ele>
        <time>2014-09-21T16:40:23Z</time>
      </trkpt>
      <trkpt lat="45.80592" lon="5.75064">
        <ele>241.32484781905</ele>
        <time>2014-09-21T16:40:28Z</time>
      </trkpt>
      <trkpt lat="45.80578" lon="5.75059">
        <ele>240.78874575142</ele>
        <time>2014-09-21T16:40:33Z</time>
      </trkpt>
      <trkpt lat="45.80563" lon="5.75059">
        <ele>240.26681340189</ele>
        <time>2014-09-21T16:40:38Z</time>
      </trkpt>
      <trkpt lat="45.80547" lon="5.75057">
        <ele>239.84549278822</ele>
        <time>2014-09-21T16:40:43Z</time>
      </trkpt>
      <trkpt lat="45.80527" lon="5.75056">
        <ele>239.4316373105</ele>
        <time>2014-09-21T16:40:48Z</time>
      </trkpt>
      <trkpt lat="45.80507" lon="5.75062">
        <ele>239.21270975243</ele>
        <time>2014-09-21T16:40:53Z</time>
      </trkpt>
      <trkpt lat="45.80487" lon="5.75064">
        <ele>239.08802092823</ele>
        <time>2014-09-21T16:40:58Z</time>
      </trkpt>
      <trkpt lat="45.8047" lon="5.75062">
        <ele>238.99281420969</ele>
        <time>2014-09-21T16:41:03Z</time>
      </trkpt>
      <trkpt lat="45.80451" lon="5.75067">
        <ele>238.9966873435</ele>
        <time>2014-09-21T16:41:08Z</time>
      </trkpt>
      <trkpt lat="45.80436" lon="5.75077">
        <ele>239.06295234145</ele>
        <time>2014-09-21T16:41:13Z</time>
      </trkpt>
      <trkpt lat="45.80424" lon="5.75093">
        <ele>239.20066030092</ele>
        <time>2014-09-21T16:41:18Z</time>
      </trkpt>
      <trkpt lat="45.80413" lon="5.75108">
        <ele>239.37475272933</ele>
        <time>2014-09-21T16:41:23Z</time>
      </trkpt>
      <trkpt lat="45.80404" lon="5.75127">
        <ele>239.59587055152</ele>
        <time>2014-09-21T16:41:28Z</time>
      </trkpt>
      <trkpt lat="45.80392" lon="5.75152">
        <ele>239.83050432896</ele>
        <time>2014-09-21T16:41:33Z</time>
      </trkpt>
      <trkpt lat="45.80379" lon="5.75178">
        <ele>240.09080209352</ele>
        <time>2014-09-21T16:41:38Z</time>
      </trkpt>
      <trkpt lat="45.80367" lon="5.75196">
        <ele>240.344718366</ele>
        <time>2014-09-21T16:41:43Z</time>
      </trkpt>
      <trkpt lat="45.80356" lon="5.75215">
        <ele>240.57699851449</ele>
        <time>2014-09-21T16:41:48Z</time>
      </trkpt>
      <trkpt lat="45.80347" lon="5.7524">
        <ele>240.78799136274</ele>
        <time>2014-09-21T16:41:53Z</time>
      </trkpt>
      <trkpt lat="45.80343" lon="5.75267">
        <ele>240.93486034019</ele>
        <time>2014-09-21T16:41:58Z</time>
      </trkpt>
      <trkpt lat="45.80344" lon="5.75294">
        <ele>241.22310098132</ele>
        <time>2014-09-21T16:42:03Z</time>
      </trkpt>
      <trkpt lat="45.80342" lon="5.75315">
        <ele>241.64098008818</ele>
        <time>2014-09-21T16:42:08Z</time>
      </trkpt>
      <trkpt lat="45.80343" lon="5.7532">
        <ele>241.64098008818</ele>
        <time>2014-09-21T16:42:13Z</time>
      </trkpt>
      <trkpt lat="45.80343" lon="5.75331">
        <ele>241.7881837914</ele>
        <time>2014-09-21T16:42:18Z</time>
      </trkpt>
      <trkpt lat="45.80341" lon="5.7534">
        <ele>241.7881837914</ele>
        <time>2014-09-21T16:42:23Z</time>
      </trkpt>
      <trkpt lat="45.80338" lon="5.75351">
        <ele>241.95749904642</ele>
        <time>2014-09-21T16:42:28Z</time>
      </trkpt>
      <trkpt lat="45.80336" lon="5.75363">
        <ele>241.95749904642</ele>
        <time>2014-09-21T16:42:33Z</time>
      </trkpt>
      <trkpt lat="45.80333" lon="5.75376">
        <ele>242.21841242985</ele>
        <time>2014-09-21T16:42:38Z</time>
      </trkpt>
      <trkpt lat="45.80329" lon="5.75388">
        <ele>242.50537586209</ele>
        <time>2014-09-21T16:42:43Z</time>
      </trkpt>
      <trkpt lat="45.80327" lon="5.75398">
        <ele>242.50537586209</ele>
        <time>2014-09-21T16:42:48Z</time>
      </trkpt>
      <trkpt lat="45.80324" lon="5.75407">
        <ele>242.74320015842</ele>
        <time>2014-09-21T16:42:53Z</time>
      </trkpt>
      <trkpt lat="45.80319" lon="5.75417">
        <ele>242.74320015842</ele>
        <time>2014-09-21T16:42:58Z</time>
      </trkpt>
      <trkpt lat="45.80313" lon="5.75426">
        <ele>243.04973113566</ele>
        <time>2014-09-21T16:43:03Z</time>
      </trkpt>
      <trkpt lat="45.80305" lon="5.75436">
        <ele>243.24577303474</ele>
        <time>2014-09-21T16:43:08Z</time>
      </trkpt>
      <trkpt lat="45.80298" lon="5.75444">
        <ele>243.26651241863</ele>
        <time>2014-09-21T16:43:13Z</time>
      </trkpt>
      <trkpt lat="45.80295" lon="5.75454">
        <ele>243.26651241863</ele>
        <time>2014-09-21T16:43:18Z</time>
      </trkpt>
      <trkpt lat="45.80293" lon="5.75464">
        <ele>243.13888618436</ele>
        <time>2014-09-21T16:43:23Z</time>
      </trkpt>
      <trkpt lat="45.80288" lon="5.75468">
        <ele>243.13888618436</ele>
        <time>2014-09-21T16:43:28Z</time>
      </trkpt>
      <trkpt lat="45.80281" lon="5.75468">
        <ele>242.72977560317</ele>
        <time>2014-09-21T16:43:33Z</time>
      </trkpt>
      <trkpt lat="45.80272" lon="5.75472">
        <ele>242.26252368899</ele>
        <time>2014-09-21T16:43:38Z</time>
      </trkpt>
      <trkpt lat="45.80262" lon="5.75477">
        <ele>241.81455256372</ele>
        <time>2014-09-21T16:43:43Z</time>
      </trkpt>
      <trkpt lat="45.80252" lon="5.7548">
        <ele>241.50079475182</ele>
        <time>2014-09-21T16:43:48Z</time>
      </trkpt>
      <trkpt lat="45.80243" lon="5.75485">
        <ele>241.22562216021</ele>
        <time>2014-09-21T16:43:53Z</time>
      </trkpt>
      <trkpt lat="45.80235" lon="5.75489">
        <ele>241.22562216021</ele>
        <time>2014-09-21T16:43:58Z</time>
      </trkpt>
      <trkpt lat="45.80228" lon="5.75492">
        <ele>241.21737909906</ele>
        <time>2014-09-21T16:44:03Z</time>
      </trkpt>
      <trkpt lat="45.8022" lon="5.75494">
        <ele>241.21737909906</ele>
        <time>2014-09-21T16:44:08Z</time>
      </trkpt>
      <trkpt lat="45.80213" lon="5.75497">
        <ele>241.49955213923</ele>
        <time>2014-09-21T16:44:13Z</time>
      </trkpt>
      <trkpt lat="45.80204" lon="5.75501">
        <ele>241.71840795961</ele>
        <time>2014-09-21T16:44:18Z</time>
      </trkpt>
      <trkpt lat="45.80196" lon="5.75505">
        <ele>241.71840795961</ele>
        <time>2014-09-21T16:44:23Z</time>
      </trkpt>
      <trkpt lat="45.80188" lon="5.75508">
        <ele>242.18047524057</ele>
        <time>2014-09-21T16:44:28Z</time>
      </trkpt>
      <trkpt lat="45.8018" lon="5.7551">
        <ele>242.18047524057</ele>
        <time>2014-09-21T16:44:33Z</time>
      </trkpt>
      <trkpt lat="45.80171" lon="5.75508">
        <ele>242.63588391847</ele>
        <time>2014-09-21T16:44:38Z</time>
      </trkpt>
      <trkpt lat="45.80158" lon="5.75509">
        <ele>243.45842035351</ele>
        <time>2014-09-21T16:44:43Z</time>
      </trkpt>
      <trkpt lat="45.80152" lon="5.75511">
        <ele>243.45842035351</ele>
        <time>2014-09-21T16:44:48Z</time>
      </trkpt>
      <trkpt lat="45.80145" lon="5.75511">
        <ele>244.15755728468</ele>
        <time>2014-09-21T16:44:53Z</time>
      </trkpt>
      <trkpt lat="45.80134" lon="5.75508">
        <ele>244.48092582646</ele>
        <time>2014-09-21T16:44:58Z</time>
      </trkpt>
      <trkpt lat="45.80113" lon="5.75499">
        <ele>244.4984089271</ele>
        <time>2014-09-21T16:45:03Z</time>
      </trkpt>
      <trkpt lat="45.80089" lon="5.75495">
        <ele>244.4053407415</ele>
        <time>2014-09-21T16:45:08Z</time>
      </trkpt>
      <trkpt lat="45.80066" lon="5.75502">
        <ele>244.2245199793</ele>
        <time>2014-09-21T16:45:13Z</time>
      </trkpt>
      <trkpt lat="45.80043" lon="5.7552">
        <ele>244.04939591507</ele>
        <time>2014-09-21T16:45:18Z</time>
      </trkpt>
      <trkpt lat="45.80022" lon="5.75538">
        <ele>243.92332447867</ele>
        <time>2014-09-21T16:45:23Z</time>
      </trkpt>
      <trkpt lat="45.79996" lon="5.75537">
        <ele>243.69901215373</ele>
        <time>2014-09-21T16:45:28Z</time>
      </trkpt>
      <trkpt lat="45.79972" lon="5.7553">
        <ele>243.39879775399</ele>
        <time>2014-09-21T16:45:33Z</time>
      </trkpt>
      <trkpt lat="45.79958" lon="5.75527">
        <ele>243.13006991909</ele>
        <time>2014-09-21T16:45:38Z</time>
      </trkpt>
      <trkpt lat="45.7995" lon="5.75528">
        <ele>243.13006991909</ele>
        <time>2014-09-21T16:45:43Z</time>
      </trkpt>
      <trkpt lat="45.79942" lon="5.75529">
        <ele>243.02107076011</ele>
        <time>2014-09-21T16:45:48Z</time>
      </trkpt>
      <trkpt lat="45.79936" lon="5.75529">
        <ele>243.02107076011</ele>
        <time>2014-09-21T16:45:53Z</time>
      </trkpt>
      <trkpt lat="45.7993" lon="5.75528">
        <ele>242.90195690611</ele>
        <time>2014-09-21T16:45:58Z</time>
      </trkpt>
      <trkpt lat="45.79922" lon="5.75529">
        <ele>242.90195690611</ele>
        <time>2014-09-21T16:46:03Z</time>
      </trkpt>
      <trkpt lat="45.79912" lon="5.75531">
        <ele>242.74509318739</ele>
        <time>2014-09-21T16:46:08Z</time>
      </trkpt>
      <trkpt lat="45.79904" lon="5.75534">
        <ele>242.74509318739</ele>
        <time>2014-09-21T16:46:13Z</time>
      </trkpt>
      <trkpt lat="45.79895" lon="5.75535">
        <ele>242.52498158379</ele>
        <time>2014-09-21T16:46:18Z</time>
      </trkpt>
      <trkpt lat="45.79888" lon="5.75534">
        <ele>242.52498158379</ele>
        <time>2014-09-21T16:46:23Z</time>
      </trkpt>
      <trkpt lat="45.79879" lon="5.75536">
        <ele>242.30464064708</ele>
        <time>2014-09-21T16:46:28Z</time>
      </trkpt>
      <trkpt lat="45.79871" lon="5.75539">
        <ele>242.30464064708</ele>
        <time>2014-09-21T16:46:33Z</time>
      </trkpt>
      <trkpt lat="45.79863" lon="5.75539">
        <ele>242.2001024155</ele>
        <time>2014-09-21T16:46:38Z</time>
      </trkpt>
      <trkpt lat="45.79855" lon="5.75539">
        <ele>242.2001024155</ele>
        <time>2014-09-21T16:46:43Z</time>
      </trkpt>
      <trkpt lat="45.79843" lon="5.7554">
        <ele>242.10237978793</ele>
        <time>2014-09-21T16:46:48Z</time>
      </trkpt>
      <trkpt lat="45.79833" lon="5.75543">
        <ele>241.99693420114</ele>
        <time>2014-09-21T16:46:53Z</time>
      </trkpt>
      <trkpt lat="45.79815" lon="5.75547">
        <ele>241.89913288826</ele>
        <time>2014-09-21T16:46:58Z</time>
      </trkpt>
      <trkpt lat="45.79794" lon="5.75553">
        <ele>241.77995261502</ele>
        <time>2014-09-21T16:47:03Z</time>
      </trkpt>
      <trkpt lat="45.79772" lon="5.75562">
        <ele>241.72784374273</ele>
        <time>2014-09-21T16:47:08Z</time>
      </trkpt>
      <trkpt lat="45.79756" lon="5.75578">
        <ele>241.81015231888</ele>
        <time>2014-09-21T16:47:13Z</time>
      </trkpt>
      <trkpt lat="45.79748" lon="5.7558">
        <ele>241.81015231888</ele>
        <time>2014-09-21T16:47:18Z</time>
      </trkpt>
      <trkpt lat="45.79741" lon="5.7558">
        <ele>241.91595935414</ele>
        <time>2014-09-21T16:47:23Z</time>
      </trkpt>
      <trkpt lat="45.79732" lon="5.7558">
        <ele>241.91595935414</ele>
        <time>2014-09-21T16:47:28Z</time>
      </trkpt>
      <trkpt lat="45.79722" lon="5.75579">
        <ele>241.94242108632</ele>
        <time>2014-09-21T16:47:33Z</time>
      </trkpt>
      <trkpt lat="45.79715" lon="5.75575">
        <ele>241.94242108632</ele>
        <time>2014-09-21T16:47:38Z</time>
      </trkpt>
      <trkpt lat="45.79708" lon="5.75571">
        <ele>241.85210929528</ele>
        <time>2014-09-21T16:47:43Z</time>
      </trkpt>
      <trkpt lat="45.79702" lon="5.75568">
        <ele>241.85210929528</ele>
        <time>2014-09-21T16:47:48Z</time>
      </trkpt>
      <trkpt lat="45.79696" lon="5.75563">
        <ele>241.62507775524</ele>
        <time>2014-09-21T16:47:53Z</time>
      </trkpt>
      <trkpt lat="45.79689" lon="5.75558">
        <ele>241.62507775524</ele>
        <time>2014-09-21T16:47:58Z</time>
      </trkpt>
      <trkpt lat="45.79683" lon="5.75552">
        <ele>241.43056707557</ele>
        <time>2014-09-21T16:48:03Z</time>
      </trkpt>
      <trkpt lat="45.79677" lon="5.75546">
        <ele>241.43056707557</ele>
        <time>2014-09-21T16:48:08Z</time>
      </trkpt>
      <trkpt lat="45.7967" lon="5.75541">
        <ele>241.32440936478</ele>
        <time>2014-09-21T16:48:13Z</time>
      </trkpt>
      <trkpt lat="45.79662" lon="5.75534">
        <ele>241.32440936478</ele>
        <time>2014-09-21T16:48:18Z</time>
      </trkpt>
      <trkpt lat="45.79655" lon="5.75527">
        <ele>241.41572430158</ele>
        <time>2014-09-21T16:48:23Z</time>
      </trkpt>
      <trkpt lat="45.7965" lon="5.75521">
        <ele>241.41572430158</ele>
        <time>2014-09-21T16:48:28Z</time>
      </trkpt>
      <trkpt lat="45.79643" lon="5.75513">
        <ele>241.67535420388</ele>
        <time>2014-09-21T16:48:33Z</time>
      </trkpt>
      <trkpt lat="45.79636" lon="5.75505">
        <ele>241.98933807664</ele>
        <time>2014-09-21T16:48:38Z</time>
      </trkpt>
      <trkpt lat="45.79628" lon="5.755">
        <ele>241.98933807664</ele>
        <time>2014-09-21T16:48:43Z</time>
      </trkpt>
      <trkpt lat="45.79621" lon="5.75492">
        <ele>242.55456348832</ele>
        <time>2014-09-21T16:48:48Z</time>
      </trkpt>
      <trkpt lat="45.79609" lon="5.75485">
        <ele>242.94748215212</ele>
        <time>2014-09-21T16:48:53Z</time>
      </trkpt>
      <trkpt lat="45.79602" lon="5.75485">
        <ele>242.94748215212</ele>
        <time>2014-09-21T16:48:58Z</time>
      </trkpt>
      <trkpt lat="45.79594" lon="5.75484">
        <ele>243.3381788085</ele>
        <time>2014-09-21T16:49:03Z</time>
      </trkpt>
      <trkpt lat="45.79587" lon="5.75485">
        <ele>243.3381788085</ele>
        <time>2014-09-21T16:49:08Z</time>
      </trkpt>
      <trkpt lat="45.79577" lon="5.75487">
        <ele>243.59603339356</ele>
        <time>2014-09-21T16:49:13Z</time>
      </trkpt>
      <trkpt lat="45.79568" lon="5.75488">
        <ele>243.80215762303</ele>
        <time>2014-09-21T16:49:18Z</time>
      </trkpt>
      <trkpt lat="45.79557" lon="5.75492">
        <ele>243.95980424547</ele>
        <time>2014-09-21T16:49:23Z</time>
      </trkpt>
      <trkpt lat="45.7955" lon="5.75497">
        <ele>243.95980424547</ele>
        <time>2014-09-21T16:49:28Z</time>
      </trkpt>
      <trkpt lat="45.79544" lon="5.75502">
        <ele>244.23065655927</ele>
        <time>2014-09-21T16:49:33Z</time>
      </trkpt>
      <trkpt lat="45.79538" lon="5.7551">
        <ele>244.23065655927</ele>
        <time>2014-09-21T16:49:38Z</time>
      </trkpt>
      <trkpt lat="45.79528" lon="5.75515">
        <ele>244.76421573876</ele>
        <time>2014-09-21T16:49:43Z</time>
      </trkpt>
      <trkpt lat="45.79524" lon="5.7552">
        <ele>244.76421573876</ele>
        <time>2014-09-21T16:49:48Z</time>
      </trkpt>
      <trkpt lat="45.7952" lon="5.75523">
        <ele>245.59740070307</ele>
        <time>2014-09-21T16:49:53Z</time>
      </trkpt>
      <trkpt lat="45.79517" lon="5.75529">
        <ele>245.59740070307</ele>
        <time>2014-09-21T16:49:58Z</time>
      </trkpt>
      <trkpt lat="45.79512" lon="5.75539">
        <ele>246.5186068397</ele>
        <time>2014-09-21T16:50:03Z</time>
      </trkpt>
      <trkpt lat="45.79508" lon="5.75546">
        <ele>246.5186068397</ele>
        <time>2014-09-21T16:50:08Z</time>
      </trkpt>
      <trkpt lat="45.79503" lon="5.75558">
        <ele>247.49007170717</ele>
        <time>2014-09-21T16:50:13Z</time>
      </trkpt>
      <trkpt lat="45.79499" lon="5.75565">
        <ele>247.49007170717</ele>
        <time>2014-09-21T16:50:18Z</time>
      </trkpt>
      <trkpt lat="45.79494" lon="5.75574">
        <ele>248.50551588014</ele>
        <time>2014-09-21T16:50:23Z</time>
      </trkpt>
      <trkpt lat="45.79488" lon="5.75583">
        <ele>248.50551588014</ele>
        <time>2014-09-21T16:50:28Z</time>
      </trkpt>
      <trkpt lat="45.79478" lon="5.7559">
        <ele>249.29963068353</ele>
        <time>2014-09-21T16:50:33Z</time>
      </trkpt>
      <trkpt lat="45.79463" lon="5.75597">
        <ele>249.85783284841</ele>
        <time>2014-09-21T16:50:38Z</time>
      </trkpt>
      <trkpt lat="45.79453" lon="5.75601">
        <ele>250.08084536121</ele>
        <time>2014-09-21T16:50:43Z</time>
      </trkpt>
      <trkpt lat="45.79433" lon="5.75599">
        <ele>250.13706503464</ele>
        <time>2014-09-21T16:50:48Z</time>
      </trkpt>
      <trkpt lat="45.79414" lon="5.75595">
        <ele>250.13979225582</ele>
        <time>2014-09-21T16:50:53Z</time>
      </trkpt>
      <trkpt lat="45.79393" lon="5.7559">
        <ele>249.9636130029</ele>
        <time>2014-09-21T16:50:58Z</time>
      </trkpt>
      <trkpt lat="45.79382" lon="5.7558">
        <ele>249.70902697069</ele>
        <time>2014-09-21T16:51:03Z</time>
      </trkpt>
      <trkpt lat="45.79379" lon="5.75573">
        <ele>249.70902697069</ele>
        <time>2014-09-21T16:51:08Z</time>
      </trkpt>
      <trkpt lat="45.79375" lon="5.75567">
        <ele>249.65674354602</ele>
        <time>2014-09-21T16:51:13Z</time>
      </trkpt>
      <trkpt lat="45.79367" lon="5.75555">
        <ele>249.56191812245</ele>
        <time>2014-09-21T16:51:18Z</time>
      </trkpt>
      <trkpt lat="45.7936" lon="5.75548">
        <ele>249.57251986617</ele>
        <time>2014-09-21T16:51:23Z</time>
      </trkpt>
      <trkpt lat="45.79353" lon="5.75542">
        <ele>249.57251986617</ele>
        <time>2014-09-21T16:51:28Z</time>
      </trkpt>
      <trkpt lat="45.79346" lon="5.75535">
        <ele>249.43626781849</ele>
        <time>2014-09-21T16:51:33Z</time>
      </trkpt>
      <trkpt lat="45.79339" lon="5.75528">
        <ele>249.43626781849</ele>
        <time>2014-09-21T16:51:38Z</time>
      </trkpt>
      <trkpt lat="45.79334" lon="5.75521">
        <ele>249.45304918879</ele>
        <time>2014-09-21T16:51:43Z</time>
      </trkpt>
      <trkpt lat="45.79331" lon="5.75512">
        <ele>249.45304918879</ele>
        <time>2014-09-21T16:51:48Z</time>
      </trkpt>
      <trkpt lat="45.79325" lon="5.75505">
        <ele>249.48237967136</ele>
        <time>2014-09-21T16:51:53Z</time>
      </trkpt>
      <trkpt lat="45.79321" lon="5.75494">
        <ele>249.48237967136</ele>
        <time>2014-09-21T16:51:58Z</time>
      </trkpt>
      <trkpt lat="45.79318" lon="5.75485">
        <ele>249.59582274053</ele>
        <time>2014-09-21T16:52:03Z</time>
      </trkpt>
      <trkpt lat="45.79315" lon="5.75475">
        <ele>249.59582274053</ele>
        <time>2014-09-21T16:52:08Z</time>
      </trkpt>
      <trkpt lat="45.79312" lon="5.75467">
        <ele>249.87386589855</ele>
        <time>2014-09-21T16:52:13Z</time>
      </trkpt>
      <trkpt lat="45.79311" lon="5.75458">
        <ele>249.87386589855</ele>
        <time>2014-09-21T16:52:18Z</time>
      </trkpt>
      <trkpt lat="45.79313" lon="5.75443">
        <ele>250.21769408375</ele>
        <time>2014-09-21T16:52:23Z</time>
      </trkpt>
      <trkpt lat="45.79317" lon="5.75432">
        <ele>250.21769408375</ele>
        <time>2014-09-21T16:52:28Z</time>
      </trkpt>
      <trkpt lat="45.79319" lon="5.7542">
        <ele>250.52116047118</ele>
        <time>2014-09-21T16:52:33Z</time>
      </trkpt>
      <trkpt lat="45.79322" lon="5.75405">
        <ele>250.84455663818</ele>
        <time>2014-09-21T16:52:38Z</time>
      </trkpt>
      <trkpt lat="45.79325" lon="5.75392">
        <ele>251.17163975822</ele>
        <time>2014-09-21T16:52:43Z</time>
      </trkpt>
      <trkpt lat="45.79331" lon="5.7538">
        <ele>251.50176769337</ele>
        <time>2014-09-21T16:52:48Z</time>
      </trkpt>
      <trkpt lat="45.79336" lon="5.75369">
        <ele>251.50176769337</ele>
        <time>2014-09-21T16:52:53Z</time>
      </trkpt>
      <trkpt lat="45.7934" lon="5.75361">
        <ele>251.74787739629</ele>
        <time>2014-09-21T16:52:58Z</time>
      </trkpt>
      <trkpt lat="45.79343" lon="5.75353">
        <ele>251.74787739629</ele>
        <time>2014-09-21T16:53:03Z</time>
      </trkpt>
      <trkpt lat="45.79347" lon="5.75347">
        <ele>252.13217827452</ele>
        <time>2014-09-21T16:53:08Z</time>
      </trkpt>
      <trkpt lat="45.79353" lon="5.75337">
        <ele>252.35578754947</ele>
        <time>2014-09-21T16:53:13Z</time>
      </trkpt>
      <trkpt lat="45.79359" lon="5.75326">
        <ele>252.5457482181</ele>
        <time>2014-09-21T16:53:18Z</time>
      </trkpt>
      <trkpt lat="45.79359" lon="5.75316">
        <ele>252.5457482181</ele>
        <time>2014-09-21T16:53:23Z</time>
      </trkpt>
      <trkpt lat="45.79359" lon="5.7529">
        <ele>252.70458394086</ele>
        <time>2014-09-21T16:53:28Z</time>
      </trkpt>
      <trkpt lat="45.79361" lon="5.75246">
        <ele>252.92119430352</ele>
        <time>2014-09-21T16:53:33Z</time>
      </trkpt>
      <trkpt lat="45.79363" lon="5.75226">
        <ele>253.43631573351</ele>
        <time>2014-09-21T16:53:38Z</time>
      </trkpt>
      <trkpt lat="45.79355" lon="5.75218">
        <ele>253.9966035129</ele>
        <time>2014-09-21T16:53:43Z</time>
      </trkpt>
      <trkpt lat="45.79346" lon="5.75211">
        <ele>254.71307234373</ele>
        <time>2014-09-21T16:53:48Z</time>
      </trkpt>
      <trkpt lat="45.79339" lon="5.75207">
        <ele>254.71307234373</ele>
        <time>2014-09-21T16:53:53Z</time>
      </trkpt>
      <trkpt lat="45.79333" lon="5.75201">
        <ele>255.7457996565</ele>
        <time>2014-09-21T16:53:58Z</time>
      </trkpt>
      <trkpt lat="45.79328" lon="5.75194">
        <ele>255.7457996565</ele>
        <time>2014-09-21T16:54:04Z</time>
      </trkpt>
      <trkpt lat="45.79321" lon="5.75188">
        <ele>256.83872049824</ele>
        <time>2014-09-21T16:54:08Z</time>
      </trkpt>
      <trkpt lat="45.79316" lon="5.75183">
        <ele>256.83872049824</ele>
        <time>2014-09-21T16:54:13Z</time>
      </trkpt>
      <trkpt lat="45.79311" lon="5.75176">
        <ele>257.88413125084</ele>
        <time>2014-09-21T16:54:18Z</time>
      </trkpt>
      <trkpt lat="45.79307" lon="5.75167">
        <ele>257.88413125084</ele>
        <time>2014-09-21T16:54:23Z</time>
      </trkpt>
      <trkpt lat="45.79303" lon="5.75159">
        <ele>259.0129761869</ele>
        <time>2014-09-21T16:54:28Z</time>
      </trkpt>
      <trkpt lat="45.793" lon="5.7515">
        <ele>259.0129761869</ele>
        <time>2014-09-21T16:54:33Z</time>
      </trkpt>
      <trkpt lat="45.79298" lon="5.75138">
        <ele>259.97168723551</ele>
        <time>2014-09-21T16:54:38Z</time>
      </trkpt>
      <trkpt lat="45.79296" lon="5.75127">
        <ele>259.97168723551</ele>
        <time>2014-09-21T16:54:43Z</time>
      </trkpt>
      <trkpt lat="45.7929" lon="5.75118">
        <ele>260.95816834702</ele>
        <time>2014-09-21T16:54:48Z</time>
      </trkpt>
      <trkpt lat="45.79287" lon="5.75109">
        <ele>260.95816834702</ele>
        <time>2014-09-21T16:54:53Z</time>
      </trkpt>
      <trkpt lat="45.79283" lon="5.75101">
        <ele>262.09810153989</ele>
        <time>2014-09-21T16:54:58Z</time>
      </trkpt>
      <trkpt lat="45.79277" lon="5.75096">
        <ele>262.09810153989</ele>
        <time>2014-09-21T16:55:03Z</time>
      </trkpt>
      <trkpt lat="45.79272" lon="5.75088">
        <ele>263.57960402258</ele>
        <time>2014-09-21T16:55:08Z</time>
      </trkpt>
      <trkpt lat="45.79266" lon="5.75081">
        <ele>263.57960402258</ele>
        <time>2014-09-21T16:55:13Z</time>
      </trkpt>
      <trkpt lat="45.79263" lon="5.75073">
        <ele>265.33107433051</ele>
        <time>2014-09-21T16:55:18Z</time>
      </trkpt>
      <trkpt lat="45.7926" lon="5.75065">
        <ele>265.33107433051</ele>
        <time>2014-09-21T16:55:23Z</time>
      </trkpt>
      <trkpt lat="45.79255" lon="5.75057">
        <ele>267.29987822039</ele>
        <time>2014-09-21T16:55:28Z</time>
      </trkpt>
      <trkpt lat="45.79249" lon="5.7505">
        <ele>267.29987822039</ele>
        <time>2014-09-21T16:55:33Z</time>
      </trkpt>
      <trkpt lat="45.79245" lon="5.75042">
        <ele>269.42228829306</ele>
        <time>2014-09-21T16:55:38Z</time>
      </trkpt>
      <trkpt lat="45.79241" lon="5.75034">
        <ele>269.42228829306</ele>
        <time>2014-09-21T16:55:43Z</time>
      </trkpt>
      <trkpt lat="45.79239" lon="5.75032">
        <ele>269.42228829306</ele>
        <time>2014-09-21T16:55:48Z</time>
      </trkpt>
      <trkpt lat="45.79234" lon="5.75025">
        <ele>271.79741992263</ele>
        <time>2014-09-21T16:55:53Z</time>
      </trkpt>
      <trkpt lat="45.7923" lon="5.75017">
        <ele>271.79741992263</ele>
        <time>2014-09-21T16:55:58Z</time>
      </trkpt>
      <trkpt lat="45.79225" lon="5.75008">
        <ele>274.45883404828</ele>
        <time>2014-09-21T16:56:03Z</time>
      </trkpt>
      <trkpt lat="45.79221" lon="5.75">
        <ele>274.45883404828</ele>
        <time>2014-09-21T16:56:08Z</time>
      </trkpt>
      <trkpt lat="45.79217" lon="5.74991">
        <ele>277.16310237152</ele>
        <time>2014-09-21T16:56:13Z</time>
      </trkpt>
      <trkpt lat="45.79214" lon="5.74982">
        <ele>277.16310237152</ele>
        <time>2014-09-21T16:56:18Z</time>
      </trkpt>
      <trkpt lat="45.79214" lon="5.74973">
        <ele>279.65583711542</ele>
        <time>2014-09-21T16:56:23Z</time>
      </trkpt>
      <trkpt lat="45.79213" lon="5.74961">
        <ele>279.65583711542</ele>
        <time>2014-09-21T16:56:28Z</time>
      </trkpt>
      <trkpt lat="45.79213" lon="5.74951">
        <ele>282.00467520685</ele>
        <time>2014-09-21T16:56:33Z</time>
      </trkpt>
      <trkpt lat="45.79213" lon="5.74941">
        <ele>282.00467520685</ele>
        <time>2014-09-21T16:56:38Z</time>
      </trkpt>
      <trkpt lat="45.79212" lon="5.74932">
        <ele>284.38809688743</ele>
        <time>2014-09-21T16:56:43Z</time>
      </trkpt>
      <trkpt lat="45.79214" lon="5.74923">
        <ele>284.38809688743</ele>
        <time>2014-09-21T16:56:48Z</time>
      </trkpt>
      <trkpt lat="45.79216" lon="5.74915">
        <ele>286.58240011102</ele>
        <time>2014-09-21T16:56:53Z</time>
      </trkpt>
      <trkpt lat="45.79219" lon="5.74905">
        <ele>286.58240011102</ele>
        <time>2014-09-21T16:56:58Z</time>
      </trkpt>
      <trkpt lat="45.79221" lon="5.74898">
        <ele>288.91418888244</ele>
        <time>2014-09-21T16:57:03Z</time>
      </trkpt>
      <trkpt lat="45.79225" lon="5.74895">
        <ele>288.91418888244</ele>
        <time>2014-09-21T16:57:08Z</time>
      </trkpt>
      <trkpt lat="45.79231" lon="5.74888">
        <ele>291.25349119548</ele>
        <time>2014-09-21T16:57:13Z</time>
      </trkpt>
      <trkpt lat="45.79237" lon="5.74878">
        <ele>293.33588870584</ele>
        <time>2014-09-21T16:57:18Z</time>
      </trkpt>
      <trkpt lat="45.79242" lon="5.74869">
        <ele>293.33588870584</ele>
        <time>2014-09-21T16:57:23Z</time>
      </trkpt>
      <trkpt lat="45.79245" lon="5.74859">
        <ele>295.33517022775</ele>
        <time>2014-09-21T16:57:28Z</time>
      </trkpt>
      <trkpt lat="45.79248" lon="5.74852">
        <ele>295.33517022775</ele>
        <time>2014-09-21T16:57:33Z</time>
      </trkpt>
      <trkpt lat="45.79251" lon="5.74847">
        <ele>297.26862092637</ele>
        <time>2014-09-21T16:57:38Z</time>
      </trkpt>
      <trkpt lat="45.79249" lon="5.74842">
        <ele>297.26862092637</ele>
        <time>2014-09-21T16:57:43Z</time>
      </trkpt>
      <trkpt lat="45.79244" lon="5.74832">
        <ele>298.83553592621</ele>
        <time>2014-09-21T16:57:48Z</time>
      </trkpt>
      <trkpt lat="45.79242" lon="5.74824">
        <ele>298.83553592621</ele>
        <time>2014-09-21T16:57:53Z</time>
      </trkpt>
      <trkpt lat="45.79245" lon="5.74814">
        <ele>300.39255427714</ele>
        <time>2014-09-21T16:57:58Z</time>
      </trkpt>
      <trkpt lat="45.79247" lon="5.74805">
        <ele>300.39255427714</ele>
        <time>2014-09-21T16:58:03Z</time>
      </trkpt>
      <trkpt lat="45.79249" lon="5.74798">
        <ele>302.01087736922</ele>
        <time>2014-09-21T16:58:08Z</time>
      </trkpt>
      <trkpt lat="45.79253" lon="5.74789">
        <ele>302.01087736922</ele>
        <time>2014-09-21T16:58:13Z</time>
      </trkpt>
      <trkpt lat="45.79258" lon="5.74781">
        <ele>303.69878837861</ele>
        <time>2014-09-21T16:58:18Z</time>
      </trkpt>
      <trkpt lat="45.79262" lon="5.74773">
        <ele>303.69878837861</ele>
        <time>2014-09-21T16:58:23Z</time>
      </trkpt>
      <trkpt lat="45.79266" lon="5.74766">
        <ele>305.29095699516</ele>
        <time>2014-09-21T16:58:28Z</time>
      </trkpt>
      <trkpt lat="45.79269" lon="5.74756">
        <ele>305.29095699516</ele>
        <time>2014-09-21T16:58:33Z</time>
      </trkpt>
      <trkpt lat="45.79272" lon="5.74746">
        <ele>306.80751853147</ele>
        <time>2014-09-21T16:58:38Z</time>
      </trkpt>
      <trkpt lat="45.79276" lon="5.74738">
        <ele>306.80751853147</ele>
        <time>2014-09-21T16:58:43Z</time>
      </trkpt>
      <trkpt lat="45.79279" lon="5.74726">
        <ele>308.06569867299</ele>
        <time>2014-09-21T16:58:48Z</time>
      </trkpt>
      <trkpt lat="45.79281" lon="5.74715">
        <ele>308.06569867299</ele>
        <time>2014-09-21T16:58:53Z</time>
      </trkpt>
      <trkpt lat="45.79285" lon="5.74705">
        <ele>309.12755893961</ele>
        <time>2014-09-21T16:58:58Z</time>
      </trkpt>
      <trkpt lat="45.79287" lon="5.74694">
        <ele>309.12755893961</ele>
        <time>2014-09-21T16:59:03Z</time>
      </trkpt>
      <trkpt lat="45.79291" lon="5.74685">
        <ele>310.00801825014</ele>
        <time>2014-09-21T16:59:08Z</time>
      </trkpt>
      <trkpt lat="45.79296" lon="5.74676">
        <ele>310.00801825014</ele>
        <time>2014-09-21T16:59:13Z</time>
      </trkpt>
      <trkpt lat="45.793" lon="5.74667">
        <ele>310.77914315926</ele>
        <time>2014-09-21T16:59:18Z</time>
      </trkpt>
      <trkpt lat="45.79301" lon="5.74656">
        <ele>310.77914315926</ele>
        <time>2014-09-21T16:59:23Z</time>
      </trkpt>
      <trkpt lat="45.79306" lon="5.74646">
        <ele>311.46486003286</ele>
        <time>2014-09-21T16:59:28Z</time>
      </trkpt>
      <trkpt lat="45.79309" lon="5.74635">
        <ele>311.46486003286</ele>
        <time>2014-09-21T16:59:33Z</time>
      </trkpt>
      <trkpt lat="45.7931" lon="5.74625">
        <ele>312.11646952979</ele>
        <time>2014-09-21T16:59:38Z</time>
      </trkpt>
      <trkpt lat="45.79308" lon="5.74613">
        <ele>312.11646952979</ele>
        <time>2014-09-21T16:59:43Z</time>
      </trkpt>
      <trkpt lat="45.79305" lon="5.74604">
        <ele>312.76724799649</ele>
        <time>2014-09-21T16:59:48Z</time>
      </trkpt>
      <trkpt lat="45.79301" lon="5.74598">
        <ele>312.76724799649</ele>
        <time>2014-09-21T16:59:53Z</time>
      </trkpt>
      <trkpt lat="45.79294" lon="5.74592">
        <ele>313.15985629032</ele>
        <time>2014-09-21T16:59:58Z</time>
      </trkpt>
      <trkpt lat="45.79289" lon="5.74585">
        <ele>313.15985629032</ele>
        <time>2014-09-21T17:00:03Z</time>
      </trkpt>
      <trkpt lat="45.79284" lon="5.74579">
        <ele>313.53218874945</ele>
        <time>2014-09-21T17:00:08Z</time>
      </trkpt>
      <trkpt lat="45.7928" lon="5.74572">
        <ele>313.53218874945</ele>
        <time>2014-09-21T17:00:13Z</time>
      </trkpt>
      <trkpt lat="45.79276" lon="5.74567">
        <ele>313.8885821571</ele>
        <time>2014-09-21T17:00:18Z</time>
      </trkpt>
      <trkpt lat="45.79271" lon="5.7456">
        <ele>313.8885821571</ele>
        <time>2014-09-21T17:00:24Z</time>
      </trkpt>
      <trkpt lat="45.79265" lon="5.74558">
        <ele>314.21870578973</ele>
        <time>2014-09-21T17:00:28Z</time>
      </trkpt>
      <trkpt lat="45.79265" lon="5.74558">
        <ele>314.21870578973</ele>
        <time>2014-09-21T17:00:34Z</time>
      </trkpt>
      <trkpt lat="45.79259" lon="5.74557">
        <ele>314.21870578973</ele>
        <time>2014-09-21T17:00:38Z</time>
      </trkpt>
      <trkpt lat="45.79259" lon="5.74557">
        <ele>314.21870578973</ele>
        <time>2014-09-21T17:00:43Z</time>
      </trkpt>
      <trkpt lat="45.79259" lon="5.74556">
        <ele>314.21870578973</ele>
        <time>2014-09-21T17:00:48Z</time>
      </trkpt>
      <trkpt lat="45.79256" lon="5.74555">
        <ele>314.55630220672</ele>
        <time>2014-09-21T17:00:58Z</time>
      </trkpt>
      <trkpt lat="45.79256" lon="5.74555">
        <ele>314.55630220672</ele>
        <time>2014-09-21T17:01:03Z</time>
      </trkpt>
      <trkpt lat="45.79255" lon="5.74553">
        <ele>314.55630220672</ele>
        <time>2014-09-21T17:01:08Z</time>
      </trkpt>
      <trkpt lat="45.79255" lon="5.74553">
        <ele>314.55630220672</ele>
        <time>2014-09-21T17:01:13Z</time>
      </trkpt>
      <trkpt lat="45.79256" lon="5.74551">
        <ele>314.55630220672</ele>
        <time>2014-09-21T17:01:39Z</time>
      </trkpt>
      <trkpt lat="45.79255" lon="5.74553">
        <ele>314.55630220672</ele>
        <time>2014-09-21T17:01:43Z</time>
      </trkpt>
      <trkpt lat="45.79258" lon="5.74553">
        <ele>314.83173424271</ele>
        <time>2014-09-21T17:01:48Z</time>
      </trkpt>
      <trkpt lat="45.7926" lon="5.74543">
        <ele>314.83173424271</ele>
        <time>2014-09-21T17:01:53Z</time>
      </trkpt>
      <trkpt lat="45.79258" lon="5.74529">
        <ele>314.82212062188</ele>
        <time>2014-09-21T17:01:58Z</time>
      </trkpt>
      <trkpt lat="45.79259" lon="5.74519">
        <ele>314.82212062188</ele>
        <time>2014-09-21T17:02:03Z</time>
      </trkpt>
      <trkpt lat="45.7926" lon="5.74509">
        <ele>314.75406485105</ele>
        <time>2014-09-21T17:02:08Z</time>
      </trkpt>
      <trkpt lat="45.79261" lon="5.745">
        <ele>314.75406485105</ele>
        <time>2014-09-21T17:02:13Z</time>
      </trkpt>
      <trkpt lat="45.7926" lon="5.7449">
        <ele>314.50620178616</ele>
        <time>2014-09-21T17:02:18Z</time>
      </trkpt>
      <trkpt lat="45.79256" lon="5.7448">
        <ele>314.50620178616</ele>
        <time>2014-09-21T17:02:23Z</time>
      </trkpt>
      <trkpt lat="45.79254" lon="5.74466">
        <ele>314.16830097268</ele>
        <time>2014-09-21T17:02:29Z</time>
      </trkpt>
      <trkpt lat="45.79254" lon="5.74457">
        <ele>314.16830097268</ele>
        <time>2014-09-21T17:02:33Z</time>
      </trkpt>
      <trkpt lat="45.79252" lon="5.74447">
        <ele>313.83815036154</ele>
        <time>2014-09-21T17:02:38Z</time>
      </trkpt>
      <trkpt lat="45.79251" lon="5.74433">
        <ele>313.59186107499</ele>
        <time>2014-09-21T17:02:44Z</time>
      </trkpt>
      <trkpt lat="45.7925" lon="5.74421">
        <ele>313.59186107499</ele>
        <time>2014-09-21T17:02:48Z</time>
      </trkpt>
      <trkpt lat="45.79248" lon="5.7441">
        <ele>313.25465920923</ele>
        <time>2014-09-21T17:02:54Z</time>
      </trkpt>
      <trkpt lat="45.79247" lon="5.74394">
        <ele>312.80889762526</ele>
        <time>2014-09-21T17:02:58Z</time>
      </trkpt>
      <trkpt lat="45.79246" lon="5.74385">
        <ele>312.80889762526</ele>
        <time>2014-09-21T17:03:03Z</time>
      </trkpt>
      <trkpt lat="45.79241" lon="5.74372">
        <ele>312.45461097039</ele>
        <time>2014-09-21T17:03:08Z</time>
      </trkpt>
      <trkpt lat="45.79239" lon="5.74365">
        <ele>312.45461097039</ele>
        <time>2014-09-21T17:03:13Z</time>
      </trkpt>
      <trkpt lat="45.79237" lon="5.74358">
        <ele>312.23267910603</ele>
        <time>2014-09-21T17:03:18Z</time>
      </trkpt>
      <trkpt lat="45.79235" lon="5.74352">
        <ele>312.23267910603</ele>
        <time>2014-09-21T17:03:23Z</time>
      </trkpt>
      <trkpt lat="45.79233" lon="5.74342">
        <ele>311.76258629172</ele>
        <time>2014-09-21T17:03:28Z</time>
      </trkpt>
      <trkpt lat="45.79231" lon="5.74332">
        <ele>311.76258629172</ele>
        <time>2014-09-21T17:03:33Z</time>
      </trkpt>
      <trkpt lat="45.79227" lon="5.74321">
        <ele>311.0814607031</ele>
        <time>2014-09-21T17:03:39Z</time>
      </trkpt>
      <trkpt lat="45.79225" lon="5.74316">
        <ele>311.0814607031</ele>
        <time>2014-09-21T17:03:44Z</time>
      </trkpt>
      <trkpt lat="45.79225" lon="5.74316">
        <ele>311.0814607031</ele>
        <time>2014-09-21T17:04:28Z</time>
      </trkpt>
      <trkpt lat="45.79223" lon="5.74312">
        <ele>311.0814607031</ele>
        <time>2014-09-21T17:04:33Z</time>
      </trkpt>
      <trkpt lat="45.79223" lon="5.74302">
        <ele>310.32506235448</ele>
        <time>2014-09-21T17:04:38Z</time>
      </trkpt>
      <trkpt lat="45.79223" lon="5.74292">
        <ele>310.32506235448</ele>
        <time>2014-09-21T17:04:43Z</time>
      </trkpt>
      <trkpt lat="45.79222" lon="5.74281">
        <ele>309.40310616877</ele>
        <time>2014-09-21T17:04:48Z</time>
      </trkpt>
      <trkpt lat="45.79222" lon="5.74271">
        <ele>309.40310616877</ele>
        <time>2014-09-21T17:04:53Z</time>
      </trkpt>
      <trkpt lat="45.79222" lon="5.74257">
        <ele>308.14581346199</ele>
        <time>2014-09-21T17:04:58Z</time>
      </trkpt>
      <trkpt lat="45.79224" lon="5.74241">
        <ele>306.95872084571</ele>
        <time>2014-09-21T17:05:03Z</time>
      </trkpt>
      <trkpt lat="45.79225" lon="5.74231">
        <ele>306.95872084571</ele>
        <time>2014-09-21T17:05:08Z</time>
      </trkpt>
      <trkpt lat="45.79226" lon="5.74222">
        <ele>305.97225080573</ele>
        <time>2014-09-21T17:05:13Z</time>
      </trkpt>
      <trkpt lat="45.79227" lon="5.7421">
        <ele>305.97225080573</ele>
        <time>2014-09-21T17:05:18Z</time>
      </trkpt>
      <trkpt lat="45.79228" lon="5.742">
        <ele>305.30653864001</ele>
        <time>2014-09-21T17:05:23Z</time>
      </trkpt>
      <trkpt lat="45.7923" lon="5.74192">
        <ele>305.30653864001</ele>
        <time>2014-09-21T17:05:28Z</time>
      </trkpt>
      <trkpt lat="45.79233" lon="5.74183">
        <ele>304.66833543412</ele>
        <time>2014-09-21T17:05:33Z</time>
      </trkpt>
      <trkpt lat="45.79234" lon="5.74169">
        <ele>304.21804030866</ele>
        <time>2014-09-21T17:05:39Z</time>
      </trkpt>
      <trkpt lat="45.79237" lon="5.74159">
        <ele>304.21804030866</ele>
        <time>2014-09-21T17:05:43Z</time>
      </trkpt>
      <trkpt lat="45.79236" lon="5.74149">
        <ele>304.20447051904</ele>
        <time>2014-09-21T17:05:48Z</time>
      </trkpt>
      <trkpt lat="45.79233" lon="5.7414">
        <ele>304.20447051904</ele>
        <time>2014-09-21T17:05:53Z</time>
      </trkpt>
      <trkpt lat="45.79225" lon="5.7413">
        <ele>304.32358175156</ele>
        <time>2014-09-21T17:05:58Z</time>
      </trkpt>
      <trkpt lat="45.7922" lon="5.74119">
        <ele>304.37961616531</ele>
        <time>2014-09-21T17:06:04Z</time>
      </trkpt>
      <trkpt lat="45.79215" lon="5.74112">
        <ele>304.37961616531</ele>
        <time>2014-09-21T17:06:08Z</time>
      </trkpt>
      <trkpt lat="45.79211" lon="5.74104">
        <ele>304.45063594798</ele>
        <time>2014-09-21T17:06:13Z</time>
      </trkpt>
      <trkpt lat="45.7921" lon="5.74097">
        <ele>304.45063594798</ele>
        <time>2014-09-21T17:06:18Z</time>
      </trkpt>
      <trkpt lat="45.79212" lon="5.74084">
        <ele>304.73849638736</ele>
        <time>2014-09-21T17:06:23Z</time>
      </trkpt>
      <trkpt lat="45.79214" lon="5.74077">
        <ele>304.73849638736</ele>
        <time>2014-09-21T17:06:28Z</time>
      </trkpt>
      <trkpt lat="45.79217" lon="5.74074">
        <ele>304.73849638736</ele>
        <time>2014-09-21T17:06:33Z</time>
      </trkpt>
      <trkpt lat="45.79221" lon="5.74068">
        <ele>304.99715926155</ele>
        <time>2014-09-21T17:06:38Z</time>
      </trkpt>
      <trkpt lat="45.79227" lon="5.7406">
        <ele>304.99715926155</ele>
        <time>2014-09-21T17:06:43Z</time>
      </trkpt>
      <trkpt lat="45.79234" lon="5.74052">
        <ele>305.51742636136</ele>
        <time>2014-09-21T17:06:48Z</time>
      </trkpt>
      <trkpt lat="45.79242" lon="5.74045">
        <ele>306.07791779121</ele>
        <time>2014-09-21T17:06:53Z</time>
      </trkpt>
      <trkpt lat="45.79245" lon="5.7404">
        <ele>306.07791779121</ele>
        <time>2014-09-21T17:06:58Z</time>
      </trkpt>
      <trkpt lat="45.79252" lon="5.74027">
        <ele>306.25713685597</ele>
        <time>2014-09-21T17:07:03Z</time>
      </trkpt>
      <trkpt lat="45.79259" lon="5.74017">
        <ele>306.3140275407</ele>
        <time>2014-09-21T17:07:08Z</time>
      </trkpt>
      <trkpt lat="45.79263" lon="5.74009">
        <ele>306.3140275407</ele>
        <time>2014-09-21T17:07:13Z</time>
      </trkpt>
      <trkpt lat="45.79271" lon="5.73998">
        <ele>306.84904860437</ele>
        <time>2014-09-21T17:07:18Z</time>
      </trkpt>
      <trkpt lat="45.79278" lon="5.7399">
        <ele>307.50923056645</ele>
        <time>2014-09-21T17:07:23Z</time>
      </trkpt>
      <trkpt lat="45.79283" lon="5.73983">
        <ele>307.50923056645</ele>
        <time>2014-09-21T17:07:28Z</time>
      </trkpt>
      <trkpt lat="45.79287" lon="5.73978">
        <ele>308.18327855694</ele>
        <time>2014-09-21T17:07:33Z</time>
      </trkpt>
      <trkpt lat="45.79294" lon="5.73966">
        <ele>309.01296176902</ele>
        <time>2014-09-21T17:07:38Z</time>
      </trkpt>
      <trkpt lat="45.79299" lon="5.7396">
        <ele>309.01296176902</ele>
        <time>2014-09-21T17:07:43Z</time>
      </trkpt>
      <trkpt lat="45.79305" lon="5.73954">
        <ele>309.81210118563</ele>
        <time>2014-09-21T17:07:48Z</time>
      </trkpt>
      <trkpt lat="45.79311" lon="5.73947">
        <ele>309.81210118563</ele>
        <time>2014-09-21T17:07:53Z</time>
      </trkpt>
      <trkpt lat="45.79314" lon="5.7394">
        <ele>310.40823583689</ele>
        <time>2014-09-21T17:07:58Z</time>
      </trkpt>
      <trkpt lat="45.79318" lon="5.73934">
        <ele>310.40823583689</ele>
        <time>2014-09-21T17:08:03Z</time>
      </trkpt>
      <trkpt lat="45.79324" lon="5.73922">
        <ele>311.04561822153</ele>
        <time>2014-09-21T17:08:08Z</time>
      </trkpt>
      <trkpt lat="45.7933" lon="5.73913">
        <ele>311.04561822153</ele>
        <time>2014-09-21T17:08:13Z</time>
      </trkpt>
      <trkpt lat="45.79334" lon="5.73906">
        <ele>311.93600299036</ele>
        <time>2014-09-21T17:08:18Z</time>
      </trkpt>
      <trkpt lat="45.79341" lon="5.73896">
        <ele>312.65518025064</ele>
        <time>2014-09-21T17:08:23Z</time>
      </trkpt>
      <trkpt lat="45.79346" lon="5.73889">
        <ele>312.65518025064</ele>
        <time>2014-09-21T17:08:28Z</time>
      </trkpt>
      <trkpt lat="45.79352" lon="5.73879">
        <ele>313.44465704848</ele>
        <time>2014-09-21T17:08:33Z</time>
      </trkpt>
      <trkpt lat="45.79356" lon="5.73868">
        <ele>313.92272667484</ele>
        <time>2014-09-21T17:08:38Z</time>
      </trkpt>
      <trkpt lat="45.79362" lon="5.73857">
        <ele>313.92272667484</ele>
        <time>2014-09-21T17:08:43Z</time>
      </trkpt>
      <trkpt lat="45.79368" lon="5.7385">
        <ele>314.60125993712</ele>
        <time>2014-09-21T17:08:48Z</time>
      </trkpt>
      <trkpt lat="45.79374" lon="5.7384">
        <ele>314.97400883928</ele>
        <time>2014-09-21T17:08:53Z</time>
      </trkpt>
      <trkpt lat="45.7938" lon="5.73831">
        <ele>314.97400883928</ele>
        <time>2014-09-21T17:08:58Z</time>
      </trkpt>
      <trkpt lat="45.79381" lon="5.73824">
        <ele>315.17804309291</ele>
        <time>2014-09-21T17:09:03Z</time>
      </trkpt>
      <trkpt lat="45.79386" lon="5.73811">
        <ele>315.64347682834</ele>
        <time>2014-09-21T17:09:08Z</time>
      </trkpt>
      <trkpt lat="45.79392" lon="5.73801">
        <ele>316.11960332998</ele>
        <time>2014-09-21T17:09:13Z</time>
      </trkpt>
      <trkpt lat="45.79395" lon="5.73792">
        <ele>316.11960332998</ele>
        <time>2014-09-21T17:09:18Z</time>
      </trkpt>
      <trkpt lat="45.79398" lon="5.73783">
        <ele>317.08025838085</ele>
        <time>2014-09-21T17:09:23Z</time>
      </trkpt>
      <trkpt lat="45.79401" lon="5.73772">
        <ele>317.08025838085</ele>
        <time>2014-09-21T17:09:28Z</time>
      </trkpt>
      <trkpt lat="45.79404" lon="5.73766">
        <ele>318.19933604781</ele>
        <time>2014-09-21T17:09:33Z</time>
      </trkpt>
      <trkpt lat="45.79409" lon="5.73756">
        <ele>319.34719406741</ele>
        <time>2014-09-21T17:09:38Z</time>
      </trkpt>
      <trkpt lat="45.79412" lon="5.73747">
        <ele>319.34719406741</ele>
        <time>2014-09-21T17:09:44Z</time>
      </trkpt>
      <trkpt lat="45.79415" lon="5.73735">
        <ele>320.57659122475</ele>
        <time>2014-09-21T17:09:48Z</time>
      </trkpt>
      <trkpt lat="45.79419" lon="5.73728">
        <ele>320.57659122475</ele>
        <time>2014-09-21T17:09:53Z</time>
      </trkpt>
      <trkpt lat="45.79422" lon="5.73719">
        <ele>321.79210210992</ele>
        <time>2014-09-21T17:09:58Z</time>
      </trkpt>
      <trkpt lat="45.79424" lon="5.73708">
        <ele>321.79210210992</ele>
        <time>2014-09-21T17:10:03Z</time>
      </trkpt>
      <trkpt lat="45.79425" lon="5.73698">
        <ele>323.06391012516</ele>
        <time>2014-09-21T17:10:08Z</time>
      </trkpt>
      <trkpt lat="45.7943" lon="5.73684">
        <ele>324.58662926517</ele>
        <time>2014-09-21T17:10:13Z</time>
      </trkpt>
      <trkpt lat="45.79436" lon="5.73675">
        <ele>324.58662926517</ele>
        <time>2014-09-21T17:10:18Z</time>
      </trkpt>
      <trkpt lat="45.7944" lon="5.73667">
        <ele>326.03553464519</ele>
        <time>2014-09-21T17:10:23Z</time>
      </trkpt>
      <trkpt lat="45.79444" lon="5.7366">
        <ele>326.03553464519</ele>
        <time>2014-09-21T17:10:28Z</time>
      </trkpt>
      <trkpt lat="45.79445" lon="5.73655">
        <ele>327.57117483872</ele>
        <time>2014-09-21T17:10:33Z</time>
      </trkpt>
      <trkpt lat="45.79449" lon="5.73648">
        <ele>327.57117483872</ele>
        <time>2014-09-21T17:10:38Z</time>
      </trkpt>
      <trkpt lat="45.79454" lon="5.73639">
        <ele>329.21242412746</ele>
        <time>2014-09-21T17:10:43Z</time>
      </trkpt>
      <trkpt lat="45.7946" lon="5.73628">
        <ele>330.90448758168</ele>
        <time>2014-09-21T17:10:48Z</time>
      </trkpt>
      <trkpt lat="45.79464" lon="5.73622">
        <ele>330.90448758168</ele>
        <time>2014-09-21T17:10:53Z</time>
      </trkpt>
      <trkpt lat="45.79469" lon="5.73609">
        <ele>332.87033967246</ele>
        <time>2014-09-21T17:10:58Z</time>
      </trkpt>
      <trkpt lat="45.79476" lon="5.73599">
        <ele>334.58092185959</ele>
        <time>2014-09-21T17:11:03Z</time>
      </trkpt>
      <trkpt lat="45.7948" lon="5.73593">
        <ele>334.58092185959</ele>
        <time>2014-09-21T17:11:08Z</time>
      </trkpt>
      <trkpt lat="45.79483" lon="5.7358">
        <ele>336.13769892189</ele>
        <time>2014-09-21T17:11:13Z</time>
      </trkpt>
      <trkpt lat="45.79487" lon="5.73568">
        <ele>337.51991615507</ele>
        <time>2014-09-21T17:11:18Z</time>
      </trkpt>
      <trkpt lat="45.7949" lon="5.73557">
        <ele>337.51991615507</ele>
        <time>2014-09-21T17:11:23Z</time>
      </trkpt>
      <trkpt lat="45.79494" lon="5.73549">
        <ele>338.56481606921</ele>
        <time>2014-09-21T17:11:28Z</time>
      </trkpt>
      <trkpt lat="45.79499" lon="5.7354">
        <ele>338.56481606921</ele>
        <time>2014-09-21T17:11:33Z</time>
      </trkpt>
      <trkpt lat="45.79502" lon="5.73533">
        <ele>339.02175933363</ele>
        <time>2014-09-21T17:11:38Z</time>
      </trkpt>
      <trkpt lat="45.79506" lon="5.73519">
        <ele>339.42404782729</ele>
        <time>2014-09-21T17:11:43Z</time>
      </trkpt>
      <trkpt lat="45.79511" lon="5.73509">
        <ele>339.42404782729</ele>
        <time>2014-09-21T17:11:48Z</time>
      </trkpt>
      <trkpt lat="45.79515" lon="5.73501">
        <ele>339.22844502133</ele>
        <time>2014-09-21T17:11:53Z</time>
      </trkpt>
      <trkpt lat="45.79521" lon="5.73491">
        <ele>339.22844502133</ele>
        <time>2014-09-21T17:11:58Z</time>
      </trkpt>
      <trkpt lat="45.79523" lon="5.73481">
        <ele>338.95656290288</ele>
        <time>2014-09-21T17:12:03Z</time>
      </trkpt>
      <trkpt lat="45.79525" lon="5.73471">
        <ele>338.95656290288</ele>
        <time>2014-09-21T17:12:08Z</time>
      </trkpt>
      <trkpt lat="45.79526" lon="5.7346">
        <ele>338.81816489579</ele>
        <time>2014-09-21T17:12:13Z</time>
      </trkpt>
      <trkpt lat="45.7953" lon="5.73452">
        <ele>338.81816489579</ele>
        <time>2014-09-21T17:12:18Z</time>
      </trkpt>
      <trkpt lat="45.79534" lon="5.7344">
        <ele>338.66141918135</ele>
        <time>2014-09-21T17:12:23Z</time>
      </trkpt>
      <trkpt lat="45.79538" lon="5.7343">
        <ele>338.66141918135</ele>
        <time>2014-09-21T17:12:28Z</time>
      </trkpt>
      <trkpt lat="45.79545" lon="5.73419">
        <ele>338.76366592526</ele>
        <time>2014-09-21T17:12:33Z</time>
      </trkpt>
      <trkpt lat="45.79551" lon="5.73406">
        <ele>338.89120290226</ele>
        <time>2014-09-21T17:12:38Z</time>
      </trkpt>
      <trkpt lat="45.79559" lon="5.73398">
        <ele>339.00038533616</ele>
        <time>2014-09-21T17:12:43Z</time>
      </trkpt>
      <trkpt lat="45.79564" lon="5.73392">
        <ele>339.00038533616</ele>
        <time>2014-09-21T17:12:48Z</time>
      </trkpt>
      <trkpt lat="45.79568" lon="5.7338">
        <ele>339.2237800694</ele>
        <time>2014-09-21T17:12:53Z</time>
      </trkpt>
      <trkpt lat="45.79572" lon="5.73367">
        <ele>339.65508821263</ele>
        <time>2014-09-21T17:12:58Z</time>
      </trkpt>
      <trkpt lat="45.79578" lon="5.73357">
        <ele>340.19321069509</ele>
        <time>2014-09-21T17:13:03Z</time>
      </trkpt>
      <trkpt lat="45.79583" lon="5.73343">
        <ele>340.74418303543</ele>
        <time>2014-09-21T17:13:08Z</time>
      </trkpt>
      <trkpt lat="45.79588" lon="5.73333">
        <ele>340.74418303543</ele>
        <time>2014-09-21T17:13:13Z</time>
      </trkpt>
      <trkpt lat="45.79595" lon="5.73322">
        <ele>341.50913530969</ele>
        <time>2014-09-21T17:13:18Z</time>
      </trkpt>
      <trkpt lat="45.79601" lon="5.73311">
        <ele>342.06855993276</ele>
        <time>2014-09-21T17:13:23Z</time>
      </trkpt>
      <trkpt lat="45.79603" lon="5.73302">
        <ele>342.06855993276</ele>
        <time>2014-09-21T17:13:28Z</time>
      </trkpt>
      <trkpt lat="45.79607" lon="5.73294">
        <ele>342.69725769993</ele>
        <time>2014-09-21T17:13:33Z</time>
      </trkpt>
      <trkpt lat="45.7961" lon="5.73285">
        <ele>342.69725769993</ele>
        <time>2014-09-21T17:13:38Z</time>
      </trkpt>
      <trkpt lat="45.79614" lon="5.73281">
        <ele>343.37584032416</ele>
        <time>2014-09-21T17:13:43Z</time>
      </trkpt>
      <trkpt lat="45.79623" lon="5.73267">
        <ele>343.99973982562</ele>
        <time>2014-09-21T17:13:48Z</time>
      </trkpt>
      <trkpt lat="45.79626" lon="5.7326">
        <ele>343.99973982562</ele>
        <time>2014-09-21T17:13:53Z</time>
      </trkpt>
      <trkpt lat="45.79628" lon="5.73252">
        <ele>344.57310299671</ele>
        <time>2014-09-21T17:13:59Z</time>
      </trkpt>
      <trkpt lat="45.79628" lon="5.73241">
        <ele>344.57310299671</ele>
        <time>2014-09-21T17:14:03Z</time>
      </trkpt>
      <trkpt lat="45.79629" lon="5.73231">
        <ele>345.15755972581</ele>
        <time>2014-09-21T17:14:08Z</time>
      </trkpt>
      <trkpt lat="45.7963" lon="5.73218">
        <ele>345.15755972581</ele>
        <time>2014-09-21T17:14:13Z</time>
      </trkpt>
      <trkpt lat="45.79631" lon="5.73213">
        <ele>345.78136013994</ele>
        <time>2014-09-21T17:14:18Z</time>
      </trkpt>
      <trkpt lat="45.79633" lon="5.73204">
        <ele>345.78136013994</ele>
        <time>2014-09-21T17:14:23Z</time>
      </trkpt>
      <trkpt lat="45.79636" lon="5.7319">
        <ele>346.18234627542</ele>
        <time>2014-09-21T17:14:28Z</time>
      </trkpt>
      <trkpt lat="45.79636" lon="5.73178">
        <ele>346.18234627542</ele>
        <time>2014-09-21T17:14:33Z</time>
      </trkpt>
      <trkpt lat="45.79638" lon="5.73168">
        <ele>346.56498641101</ele>
        <time>2014-09-21T17:14:38Z</time>
      </trkpt>
      <trkpt lat="45.79639" lon="5.73158">
        <ele>346.56498641101</ele>
        <time>2014-09-21T17:14:43Z</time>
      </trkpt>
      <trkpt lat="45.79644" lon="5.73145">
        <ele>347.10436638053</ele>
        <time>2014-09-21T17:14:48Z</time>
      </trkpt>
      <trkpt lat="45.79649" lon="5.73133">
        <ele>347.35699915689</ele>
        <time>2014-09-21T17:14:53Z</time>
      </trkpt>
      <trkpt lat="45.79652" lon="5.73122">
        <ele>347.35699915689</ele>
        <time>2014-09-21T17:14:58Z</time>
      </trkpt>
      <trkpt lat="45.79656" lon="5.73113">
        <ele>347.93596358466</ele>
        <time>2014-09-21T17:15:03Z</time>
      </trkpt>
      <trkpt lat="45.79658" lon="5.73105">
        <ele>347.93596358466</ele>
        <time>2014-09-21T17:15:08Z</time>
      </trkpt>
      <trkpt lat="45.79661" lon="5.73097">
        <ele>348.7598794128</ele>
        <time>2014-09-21T17:15:13Z</time>
      </trkpt>
      <trkpt lat="45.79661" lon="5.73092">
        <ele>348.7598794128</ele>
        <time>2014-09-21T17:15:19Z</time>
      </trkpt>
      <trkpt lat="45.79663" lon="5.73085">
        <ele>349.70941713207</ele>
        <time>2014-09-21T17:15:23Z</time>
      </trkpt>
      <trkpt lat="45.79665" lon="5.73076">
        <ele>349.70941713207</ele>
        <time>2014-09-21T17:15:28Z</time>
      </trkpt>
      <trkpt lat="45.79669" lon="5.73065">
        <ele>350.3133763259</ele>
        <time>2014-09-21T17:15:33Z</time>
      </trkpt>
      <trkpt lat="45.79671" lon="5.73052">
        <ele>350.4387674358</ele>
        <time>2014-09-21T17:15:38Z</time>
      </trkpt>
      <trkpt lat="45.79674" lon="5.7304">
        <ele>350.4387674358</ele>
        <time>2014-09-21T17:15:43Z</time>
      </trkpt>
      <trkpt lat="45.79673" lon="5.73031">
        <ele>350.42486164475</ele>
        <time>2014-09-21T17:15:48Z</time>
      </trkpt>
      <trkpt lat="45.79672" lon="5.73021">
        <ele>350.42486164475</ele>
        <time>2014-09-21T17:15:53Z</time>
      </trkpt>
      <trkpt lat="45.79668" lon="5.73004">
        <ele>350.60080051963</ele>
        <time>2014-09-21T17:15:58Z</time>
      </trkpt>
      <trkpt lat="45.79665" lon="5.72988">
        <ele>350.82425787151</ele>
        <time>2014-09-21T17:16:03Z</time>
      </trkpt>
      <trkpt lat="45.79663" lon="5.72982">
        <ele>350.82425787151</ele>
        <time>2014-09-21T17:16:08Z</time>
      </trkpt>
      <trkpt lat="45.79661" lon="5.72971">
        <ele>351.22261440909</ele>
        <time>2014-09-21T17:16:13Z</time>
      </trkpt>
      <trkpt lat="45.7966" lon="5.72963">
        <ele>351.22261440909</ele>
        <time>2014-09-21T17:16:19Z</time>
      </trkpt>
      <trkpt lat="45.79658" lon="5.72949">
        <ele>351.74045232441</ele>
        <time>2014-09-21T17:16:23Z</time>
      </trkpt>
      <trkpt lat="45.79656" lon="5.72938">
        <ele>351.74045232441</ele>
        <time>2014-09-21T17:16:28Z</time>
      </trkpt>
      <trkpt lat="45.79654" lon="5.7293">
        <ele>352.19637128787</ele>
        <time>2014-09-21T17:16:33Z</time>
      </trkpt>
      <trkpt lat="45.79651" lon="5.72919">
        <ele>352.19637128787</ele>
        <time>2014-09-21T17:16:38Z</time>
      </trkpt>
      <trkpt lat="45.79649" lon="5.72909">
        <ele>352.50891805664</ele>
        <time>2014-09-21T17:16:44Z</time>
      </trkpt>
      <trkpt lat="45.79646" lon="5.72902">
        <ele>352.50891805664</ele>
        <time>2014-09-21T17:16:48Z</time>
      </trkpt>
      <trkpt lat="45.79643" lon="5.72895">
        <ele>352.86240602778</ele>
        <time>2014-09-21T17:16:53Z</time>
      </trkpt>
      <trkpt lat="45.79641" lon="5.72889">
        <ele>352.86240602778</ele>
        <time>2014-09-21T17:16:58Z</time>
      </trkpt>
      <trkpt lat="45.79638" lon="5.72875">
        <ele>353.29777470279</ele>
        <time>2014-09-21T17:17:03Z</time>
      </trkpt>
      <trkpt lat="45.79642" lon="5.72865">
        <ele>353.29777470279</ele>
        <time>2014-09-21T17:17:08Z</time>
      </trkpt>
      <trkpt lat="45.79645" lon="5.72852">
        <ele>354.19857429346</ele>
        <time>2014-09-21T17:17:13Z</time>
      </trkpt>
      <trkpt lat="45.79654" lon="5.7284">
        <ele>355.24153387914</ele>
        <time>2014-09-21T17:17:18Z</time>
      </trkpt>
      <trkpt lat="45.79663" lon="5.72829">
        <ele>356.37170526577</ele>
        <time>2014-09-21T17:17:23Z</time>
      </trkpt>
      <trkpt lat="45.79668" lon="5.72823">
        <ele>356.37170526577</ele>
        <time>2014-09-21T17:17:28Z</time>
      </trkpt>
      <trkpt lat="45.79673" lon="5.72817">
        <ele>357.63879950688</ele>
        <time>2014-09-21T17:17:33Z</time>
      </trkpt>
      <trkpt lat="45.79678" lon="5.72813">
        <ele>357.63879950688</ele>
        <time>2014-09-21T17:17:38Z</time>
      </trkpt>
      <trkpt lat="45.79682" lon="5.72809">
        <ele>358.7570308325</ele>
        <time>2014-09-21T17:17:43Z</time>
      </trkpt>
      <trkpt lat="45.7969" lon="5.72802">
        <ele>359.8078912936</ele>
        <time>2014-09-21T17:17:48Z</time>
      </trkpt>
      <trkpt lat="45.79697" lon="5.72796">
        <ele>359.8078912936</ele>
        <time>2014-09-21T17:17:53Z</time>
      </trkpt>
      <trkpt lat="45.79704" lon="5.72788">
        <ele>360.92472458131</ele>
        <time>2014-09-21T17:17:58Z</time>
      </trkpt>
      <trkpt lat="45.79708" lon="5.7278">
        <ele>360.92472458131</ele>
        <time>2014-09-21T17:18:03Z</time>
      </trkpt>
      <trkpt lat="45.79711" lon="5.72773">
        <ele>362.08679164869</ele>
        <time>2014-09-21T17:18:08Z</time>
      </trkpt>
      <trkpt lat="45.79716" lon="5.72763">
        <ele>362.08679164869</ele>
        <time>2014-09-21T17:18:13Z</time>
      </trkpt>
      <trkpt lat="45.7972" lon="5.72755">
        <ele>363.08741790501</ele>
        <time>2014-09-21T17:18:18Z</time>
      </trkpt>
      <trkpt lat="45.79723" lon="5.72747">
        <ele>363.08741790501</ele>
        <time>2014-09-21T17:18:23Z</time>
      </trkpt>
      <trkpt lat="45.79726" lon="5.72738">
        <ele>363.82204561551</ele>
        <time>2014-09-21T17:18:28Z</time>
      </trkpt>
      <trkpt lat="45.79729" lon="5.7273">
        <ele>363.82204561551</ele>
        <time>2014-09-21T17:18:33Z</time>
      </trkpt>
      <trkpt lat="45.79732" lon="5.72725">
        <ele>364.46837206033</ele>
        <time>2014-09-21T17:18:38Z</time>
      </trkpt>
      <trkpt lat="45.79735" lon="5.72716">
        <ele>364.46837206033</ele>
        <time>2014-09-21T17:18:43Z</time>
      </trkpt>
      <trkpt lat="45.79735" lon="5.72701">
        <ele>364.88867235399</ele>
        <time>2014-09-21T17:18:48Z</time>
      </trkpt>
      <trkpt lat="45.79733" lon="5.72686">
        <ele>365.11451088574</ele>
        <time>2014-09-21T17:18:53Z</time>
      </trkpt>
      <trkpt lat="45.79731" lon="5.72673">
        <ele>365.26215857819</ele>
        <time>2014-09-21T17:18:59Z</time>
      </trkpt>
      <trkpt lat="45.79729" lon="5.72661">
        <ele>365.26215857819</ele>
        <time>2014-09-21T17:19:03Z</time>
      </trkpt>
      <trkpt lat="45.79726" lon="5.72651">
        <ele>365.43957394534</ele>
        <time>2014-09-21T17:19:08Z</time>
      </trkpt>
      <trkpt lat="45.79728" lon="5.7264">
        <ele>365.43957394534</ele>
        <time>2014-09-21T17:19:13Z</time>
      </trkpt>
      <trkpt lat="45.79731" lon="5.72629">
        <ele>365.80435150697</ele>
        <time>2014-09-21T17:19:18Z</time>
      </trkpt>
      <trkpt lat="45.79734" lon="5.72621">
        <ele>365.80435150697</ele>
        <time>2014-09-21T17:19:23Z</time>
      </trkpt>
      <trkpt lat="45.79737" lon="5.72612">
        <ele>366.05524052239</ele>
        <time>2014-09-21T17:19:28Z</time>
      </trkpt>
      <trkpt lat="45.79742" lon="5.726">
        <ele>366.2737156887</ele>
        <time>2014-09-21T17:19:33Z</time>
      </trkpt>
      <trkpt lat="45.79747" lon="5.72591">
        <ele>366.2737156887</ele>
        <time>2014-09-21T17:19:38Z</time>
      </trkpt>
      <trkpt lat="45.79751" lon="5.72585">
        <ele>366.54976406345</ele>
        <time>2014-09-21T17:19:43Z</time>
      </trkpt>
      <trkpt lat="45.79758" lon="5.72581">
        <ele>366.54976406345</ele>
        <time>2014-09-21T17:19:48Z</time>
      </trkpt>
      <trkpt lat="45.79765" lon="5.72575">
        <ele>366.83689350834</ele>
        <time>2014-09-21T17:19:53Z</time>
      </trkpt>
      <trkpt lat="45.79771" lon="5.72569">
        <ele>366.83689350834</ele>
        <time>2014-09-21T17:19:58Z</time>
      </trkpt>
      <trkpt lat="45.79777" lon="5.72563">
        <ele>367.09198628929</ele>
        <time>2014-09-21T17:20:03Z</time>
      </trkpt>
      <trkpt lat="45.79781" lon="5.72557">
        <ele>367.09198628929</ele>
        <time>2014-09-21T17:20:08Z</time>
      </trkpt>
      <trkpt lat="45.79786" lon="5.72549">
        <ele>367.27516974736</ele>
        <time>2014-09-21T17:20:13Z</time>
      </trkpt>
      <trkpt lat="45.7979" lon="5.7254">
        <ele>367.27516974736</ele>
        <time>2014-09-21T17:20:18Z</time>
      </trkpt>
      <trkpt lat="45.79794" lon="5.72526">
        <ele>367.36409847765</ele>
        <time>2014-09-21T17:20:23Z</time>
      </trkpt>
      <trkpt lat="45.79798" lon="5.72518">
        <ele>367.36409847765</ele>
        <time>2014-09-21T17:20:28Z</time>
      </trkpt>
      <trkpt lat="45.79801" lon="5.72507">
        <ele>367.30949336735</ele>
        <time>2014-09-21T17:20:33Z</time>
      </trkpt>
      <trkpt lat="45.79802" lon="5.725">
        <ele>367.30949336735</ele>
        <time>2014-09-21T17:20:38Z</time>
      </trkpt>
      <trkpt lat="45.79806" lon="5.72488">
        <ele>367.32547776197</ele>
        <time>2014-09-21T17:20:43Z</time>
      </trkpt>
      <trkpt lat="45.79809" lon="5.7248">
        <ele>367.32547776197</ele>
        <time>2014-09-21T17:20:48Z</time>
      </trkpt>
      <trkpt lat="45.79812" lon="5.72465">
        <ele>367.36523521115</ele>
        <time>2014-09-21T17:20:53Z</time>
      </trkpt>
      <trkpt lat="45.79817" lon="5.72456">
        <ele>367.36523521115</ele>
        <time>2014-09-21T17:20:58Z</time>
      </trkpt>
      <trkpt lat="45.79823" lon="5.72449">
        <ele>367.52940662048</ele>
        <time>2014-09-21T17:21:03Z</time>
      </trkpt>
      <trkpt lat="45.79829" lon="5.72442">
        <ele>367.52940662048</ele>
        <time>2014-09-21T17:21:08Z</time>
      </trkpt>
      <trkpt lat="45.79835" lon="5.72434">
        <ele>367.82439579425</ele>
        <time>2014-09-21T17:21:13Z</time>
      </trkpt>
    </trkseg>
  </trk>
</gpx>